<?xml version="1.0" encoding="UTF-8" standalone="no" ?>
<gpx xmlns="http://www.topografix.com/GPX/1/1" xmlns:xsi="http://www.w3.org/2001/XMLSchema-instance" xsi:schemaLocation="http://www.topografix.com/GPX/1/1 http://www.topografix.com/GPX/1/1/gpx.xsd" version="1.1" creator="VisuGPX - https://www.visugpx.com">
  <metadata>
    <name>Tour du Cheiron</name>
  </metadata>
  <trk>
    <name><![CDATA[2019-06-02 12:43:51]]></name>
    <trkseg>
      <trkpt lat="43.79505" lon="7.04228">
        <ele>1047</ele>
        <time>2019-06-02T06:33:33.000Z</time>
      </trkpt>
      <trkpt lat="43.79507" lon="7.04219">
        <ele>1047</ele>
        <time>2019-06-02T06:33:55.000Z</time>
      </trkpt>
      <trkpt lat="43.79507" lon="7.04223">
        <ele>1047</ele>
        <time>2019-06-02T06:34:28.000Z</time>
      </trkpt>
      <trkpt lat="43.79505" lon="7.04228">
        <ele>1047</ele>
        <time>2019-06-02T06:34:41.000Z</time>
      </trkpt>
      <trkpt lat="43.79503" lon="7.04227">
        <ele>1047</ele>
        <time>2019-06-02T06:34:52.000Z</time>
      </trkpt>
      <trkpt lat="43.79504" lon="7.04224">
        <ele>1047</ele>
        <time>2019-06-02T06:35:12.000Z</time>
      </trkpt>
      <trkpt lat="43.79503" lon="7.04224">
        <ele>1047</ele>
        <time>2019-06-02T06:35:16.000Z</time>
      </trkpt>
      <trkpt lat="43.79498" lon="7.0423">
        <ele>1047</ele>
        <time>2019-06-02T06:35:21.000Z</time>
      </trkpt>
      <trkpt lat="43.79473" lon="7.04252">
        <ele>1047</ele>
        <time>2019-06-02T06:35:35.000Z</time>
      </trkpt>
      <trkpt lat="43.79448" lon="7.04289">
        <ele>1047</ele>
        <time>2019-06-02T06:35:50.000Z</time>
      </trkpt>
      <trkpt lat="43.79426" lon="7.04331">
        <ele>1047</ele>
        <time>2019-06-02T06:36:02.000Z</time>
      </trkpt>
      <trkpt lat="43.79418" lon="7.04374">
        <ele>1048</ele>
        <time>2019-06-02T06:36:13.000Z</time>
      </trkpt>
      <trkpt lat="43.79408" lon="7.04427">
        <ele>1049</ele>
        <time>2019-06-02T06:36:28.000Z</time>
      </trkpt>
      <trkpt lat="43.79411" lon="7.04444">
        <ele>1051</ele>
        <time>2019-06-02T06:36:41.000Z</time>
      </trkpt>
      <trkpt lat="43.79414" lon="7.04457">
        <ele>1053</ele>
        <time>2019-06-02T06:36:55.000Z</time>
      </trkpt>
      <trkpt lat="43.79418" lon="7.04464">
        <ele>1055</ele>
        <time>2019-06-02T06:37:09.000Z</time>
      </trkpt>
      <trkpt lat="43.79418" lon="7.04468">
        <ele>1056</ele>
        <time>2019-06-02T06:37:13.000Z</time>
      </trkpt>
      <trkpt lat="43.7942" lon="7.04473">
        <ele>1058</ele>
        <time>2019-06-02T06:37:24.000Z</time>
      </trkpt>
      <trkpt lat="43.79419" lon="7.04476">
        <ele>1059</ele>
        <time>2019-06-02T06:37:30.000Z</time>
      </trkpt>
      <trkpt lat="43.79423" lon="7.04495">
        <ele>1061</ele>
        <time>2019-06-02T06:37:45.000Z</time>
      </trkpt>
      <trkpt lat="43.79428" lon="7.04512">
        <ele>1064</ele>
        <time>2019-06-02T06:38:01.000Z</time>
      </trkpt>
      <trkpt lat="43.7943" lon="7.04527">
        <ele>1067</ele>
        <time>2019-06-02T06:38:15.000Z</time>
      </trkpt>
      <trkpt lat="43.79433" lon="7.04531">
        <ele>1068</ele>
        <time>2019-06-02T06:38:27.000Z</time>
      </trkpt>
      <trkpt lat="43.79434" lon="7.04528">
        <ele>1069</ele>
        <time>2019-06-02T06:38:30.000Z</time>
      </trkpt>
      <trkpt lat="43.79435" lon="7.04528">
        <ele>1069</ele>
        <time>2019-06-02T06:38:31.000Z</time>
      </trkpt>
      <trkpt lat="43.79436" lon="7.04527">
        <ele>1069</ele>
        <time>2019-06-02T06:38:32.000Z</time>
      </trkpt>
      <trkpt lat="43.79437" lon="7.04526">
        <ele>1069</ele>
        <time>2019-06-02T06:38:33.000Z</time>
      </trkpt>
      <trkpt lat="43.79438" lon="7.04524">
        <ele>1069</ele>
        <time>2019-06-02T06:38:34.000Z</time>
      </trkpt>
      <trkpt lat="43.79446" lon="7.04511">
        <ele>1071</ele>
        <time>2019-06-02T06:38:48.000Z</time>
      </trkpt>
      <trkpt lat="43.79453" lon="7.045">
        <ele>1073</ele>
        <time>2019-06-02T06:39:00.000Z</time>
      </trkpt>
      <trkpt lat="43.79453" lon="7.045">
        <ele>1073</ele>
        <time>2019-06-02T06:39:02.000Z</time>
      </trkpt>
      <trkpt lat="43.79451" lon="7.04514">
        <ele>1074</ele>
        <time>2019-06-02T06:39:15.000Z</time>
      </trkpt>
      <trkpt lat="43.79451" lon="7.04515">
        <ele>1074</ele>
        <time>2019-06-02T06:39:16.000Z</time>
      </trkpt>
      <trkpt lat="43.7945" lon="7.04517">
        <ele>1074</ele>
        <time>2019-06-02T06:39:17.000Z</time>
      </trkpt>
      <trkpt lat="43.7945" lon="7.04519">
        <ele>1074</ele>
        <time>2019-06-02T06:39:18.000Z</time>
      </trkpt>
      <trkpt lat="43.7945" lon="7.04521">
        <ele>1074</ele>
        <time>2019-06-02T06:39:19.000Z</time>
      </trkpt>
      <trkpt lat="43.7945" lon="7.04523">
        <ele>1074</ele>
        <time>2019-06-02T06:39:20.000Z</time>
      </trkpt>
      <trkpt lat="43.79443" lon="7.04554">
        <ele>1077</ele>
        <time>2019-06-02T06:39:36.000Z</time>
      </trkpt>
      <trkpt lat="43.79439" lon="7.04574">
        <ele>1079</ele>
        <time>2019-06-02T06:39:50.000Z</time>
      </trkpt>
      <trkpt lat="43.79438" lon="7.04575">
        <ele>1079</ele>
        <time>2019-06-02T06:39:51.000Z</time>
      </trkpt>
      <trkpt lat="43.79438" lon="7.04577">
        <ele>1079</ele>
        <time>2019-06-02T06:39:52.000Z</time>
      </trkpt>
      <trkpt lat="43.79438" lon="7.04579">
        <ele>1079</ele>
        <time>2019-06-02T06:39:53.000Z</time>
      </trkpt>
      <trkpt lat="43.79437" lon="7.04581">
        <ele>1079</ele>
        <time>2019-06-02T06:39:54.000Z</time>
      </trkpt>
      <trkpt lat="43.79437" lon="7.04583">
        <ele>1080</ele>
        <time>2019-06-02T06:39:55.000Z</time>
      </trkpt>
      <trkpt lat="43.79432" lon="7.046">
        <ele>1082</ele>
        <time>2019-06-02T06:40:08.000Z</time>
      </trkpt>
      <trkpt lat="43.79431" lon="7.04612">
        <ele>1084</ele>
        <time>2019-06-02T06:40:20.000Z</time>
      </trkpt>
      <trkpt lat="43.79429" lon="7.0463">
        <ele>1086</ele>
        <time>2019-06-02T06:40:35.000Z</time>
      </trkpt>
      <trkpt lat="43.79429" lon="7.04642">
        <ele>1088</ele>
        <time>2019-06-02T06:40:48.000Z</time>
      </trkpt>
      <trkpt lat="43.79432" lon="7.04639">
        <ele>1089</ele>
        <time>2019-06-02T06:40:55.000Z</time>
      </trkpt>
      <trkpt lat="43.79433" lon="7.04637">
        <ele>1089</ele>
        <time>2019-06-02T06:40:56.000Z</time>
      </trkpt>
      <trkpt lat="43.79434" lon="7.04635">
        <ele>1089</ele>
        <time>2019-06-02T06:40:57.000Z</time>
      </trkpt>
      <trkpt lat="43.79435" lon="7.04634">
        <ele>1089</ele>
        <time>2019-06-02T06:40:58.000Z</time>
      </trkpt>
      <trkpt lat="43.79436" lon="7.04633">
        <ele>1089</ele>
        <time>2019-06-02T06:40:59.000Z</time>
      </trkpt>
      <trkpt lat="43.79437" lon="7.04631">
        <ele>1090</ele>
        <time>2019-06-02T06:41:00.000Z</time>
      </trkpt>
      <trkpt lat="43.7945" lon="7.04615">
        <ele>1093</ele>
        <time>2019-06-02T06:41:14.000Z</time>
      </trkpt>
      <trkpt lat="43.79457" lon="7.04605">
        <ele>1094</ele>
        <time>2019-06-02T06:41:22.000Z</time>
      </trkpt>
      <trkpt lat="43.79458" lon="7.04604">
        <ele>1094</ele>
        <time>2019-06-02T06:41:23.000Z</time>
      </trkpt>
      <trkpt lat="43.79459" lon="7.04603">
        <ele>1094</ele>
        <time>2019-06-02T06:41:24.000Z</time>
      </trkpt>
      <trkpt lat="43.79464" lon="7.04598">
        <ele>1096</ele>
        <time>2019-06-02T06:41:29.000Z</time>
      </trkpt>
      <trkpt lat="43.79465" lon="7.04598">
        <ele>1096</ele>
        <time>2019-06-02T06:41:30.000Z</time>
      </trkpt>
      <trkpt lat="43.79466" lon="7.04598">
        <ele>1096</ele>
        <time>2019-06-02T06:41:31.000Z</time>
      </trkpt>
      <trkpt lat="43.79465" lon="7.04602">
        <ele>1097</ele>
        <time>2019-06-02T06:41:35.000Z</time>
      </trkpt>
      <trkpt lat="43.79463" lon="7.0461">
        <ele>1098</ele>
        <time>2019-06-02T06:41:45.000Z</time>
      </trkpt>
      <trkpt lat="43.79463" lon="7.04611">
        <ele>1098</ele>
        <time>2019-06-02T06:41:46.000Z</time>
      </trkpt>
      <trkpt lat="43.79459" lon="7.04624">
        <ele>1100</ele>
        <time>2019-06-02T06:41:59.000Z</time>
      </trkpt>
      <trkpt lat="43.79457" lon="7.04631">
        <ele>1100</ele>
        <time>2019-06-02T06:42:05.000Z</time>
      </trkpt>
      <trkpt lat="43.79454" lon="7.04636">
        <ele>1101</ele>
        <time>2019-06-02T06:42:10.000Z</time>
      </trkpt>
      <trkpt lat="43.79454" lon="7.04638">
        <ele>1101</ele>
        <time>2019-06-02T06:42:11.000Z</time>
      </trkpt>
      <trkpt lat="43.79453" lon="7.0464">
        <ele>1101</ele>
        <time>2019-06-02T06:42:13.000Z</time>
      </trkpt>
      <trkpt lat="43.79453" lon="7.04642">
        <ele>1101</ele>
        <time>2019-06-02T06:42:14.000Z</time>
      </trkpt>
      <trkpt lat="43.79453" lon="7.04644">
        <ele>1101</ele>
        <time>2019-06-02T06:42:15.000Z</time>
      </trkpt>
      <trkpt lat="43.79455" lon="7.04655">
        <ele>1102</ele>
        <time>2019-06-02T06:42:23.000Z</time>
      </trkpt>
      <trkpt lat="43.79456" lon="7.04656">
        <ele>1103</ele>
        <time>2019-06-02T06:42:24.000Z</time>
      </trkpt>
      <trkpt lat="43.79461" lon="7.04649">
        <ele>1104</ele>
        <time>2019-06-02T06:42:33.000Z</time>
      </trkpt>
      <trkpt lat="43.79463" lon="7.04643">
        <ele>1104</ele>
        <time>2019-06-02T06:42:40.000Z</time>
      </trkpt>
      <trkpt lat="43.79463" lon="7.04642">
        <ele>1104</ele>
        <time>2019-06-02T06:42:41.000Z</time>
      </trkpt>
      <trkpt lat="43.79478" lon="7.04624">
        <ele>1107</ele>
        <time>2019-06-02T06:42:57.000Z</time>
      </trkpt>
      <trkpt lat="43.79484" lon="7.04621">
        <ele>1109</ele>
        <time>2019-06-02T06:43:07.000Z</time>
      </trkpt>
      <trkpt lat="43.79494" lon="7.04613">
        <ele>1111</ele>
        <time>2019-06-02T06:43:22.000Z</time>
      </trkpt>
      <trkpt lat="43.79498" lon="7.04611">
        <ele>1112</ele>
        <time>2019-06-02T06:43:27.000Z</time>
      </trkpt>
      <trkpt lat="43.79509" lon="7.04602">
        <ele>1115</ele>
        <time>2019-06-02T06:43:43.000Z</time>
      </trkpt>
      <trkpt lat="43.79518" lon="7.04594">
        <ele>1117</ele>
        <time>2019-06-02T06:43:56.000Z</time>
      </trkpt>
      <trkpt lat="43.79528" lon="7.04584">
        <ele>1119</ele>
        <time>2019-06-02T06:44:10.000Z</time>
      </trkpt>
      <trkpt lat="43.79536" lon="7.04575">
        <ele>1121</ele>
        <time>2019-06-02T06:44:22.000Z</time>
      </trkpt>
      <trkpt lat="43.79548" lon="7.04565">
        <ele>1122</ele>
        <time>2019-06-02T06:44:37.000Z</time>
      </trkpt>
      <trkpt lat="43.79551" lon="7.04565">
        <ele>1123</ele>
        <time>2019-06-02T06:44:40.000Z</time>
      </trkpt>
      <trkpt lat="43.79557" lon="7.04572">
        <ele>1124</ele>
        <time>2019-06-02T06:44:50.000Z</time>
      </trkpt>
      <trkpt lat="43.7956" lon="7.04578">
        <ele>1125</ele>
        <time>2019-06-02T06:44:58.000Z</time>
      </trkpt>
      <trkpt lat="43.79559" lon="7.0458">
        <ele>1126</ele>
        <time>2019-06-02T06:45:00.000Z</time>
      </trkpt>
      <trkpt lat="43.79557" lon="7.04593">
        <ele>1128</ele>
        <time>2019-06-02T06:45:12.000Z</time>
      </trkpt>
      <trkpt lat="43.79552" lon="7.04603">
        <ele>1129</ele>
        <time>2019-06-02T06:45:23.000Z</time>
      </trkpt>
      <trkpt lat="43.79549" lon="7.04606">
        <ele>1129</ele>
        <time>2019-06-02T06:45:27.000Z</time>
      </trkpt>
      <trkpt lat="43.79538" lon="7.04624">
        <ele>1130</ele>
        <time>2019-06-02T06:45:45.000Z</time>
      </trkpt>
      <trkpt lat="43.79532" lon="7.04635">
        <ele>1133</ele>
        <time>2019-06-02T06:45:59.000Z</time>
      </trkpt>
      <trkpt lat="43.7953" lon="7.04646">
        <ele>1135</ele>
        <time>2019-06-02T06:46:12.000Z</time>
      </trkpt>
      <trkpt lat="43.79534" lon="7.04658">
        <ele>1136</ele>
        <time>2019-06-02T06:46:26.000Z</time>
      </trkpt>
      <trkpt lat="43.79536" lon="7.04661">
        <ele>1137</ele>
        <time>2019-06-02T06:46:35.000Z</time>
      </trkpt>
      <trkpt lat="43.79537" lon="7.04663">
        <ele>1137</ele>
        <time>2019-06-02T06:46:36.000Z</time>
      </trkpt>
      <trkpt lat="43.79537" lon="7.04664">
        <ele>1137</ele>
        <time>2019-06-02T06:46:37.000Z</time>
      </trkpt>
      <trkpt lat="43.79539" lon="7.04678">
        <ele>1138</ele>
        <time>2019-06-02T06:46:47.000Z</time>
      </trkpt>
      <trkpt lat="43.79539" lon="7.0468">
        <ele>1138</ele>
        <time>2019-06-02T06:46:48.000Z</time>
      </trkpt>
      <trkpt lat="43.79538" lon="7.04711">
        <ele>1141</ele>
        <time>2019-06-02T06:47:02.000Z</time>
      </trkpt>
      <trkpt lat="43.79539" lon="7.04712">
        <ele>1141</ele>
        <time>2019-06-02T06:47:03.000Z</time>
      </trkpt>
      <trkpt lat="43.79539" lon="7.04714">
        <ele>1141</ele>
        <time>2019-06-02T06:47:04.000Z</time>
      </trkpt>
      <trkpt lat="43.7954" lon="7.04716">
        <ele>1141</ele>
        <time>2019-06-02T06:47:05.000Z</time>
      </trkpt>
      <trkpt lat="43.7954" lon="7.04718">
        <ele>1142</ele>
        <time>2019-06-02T06:47:06.000Z</time>
      </trkpt>
      <trkpt lat="43.79541" lon="7.0472">
        <ele>1142</ele>
        <time>2019-06-02T06:47:07.000Z</time>
      </trkpt>
      <trkpt lat="43.79541" lon="7.04722">
        <ele>1142</ele>
        <time>2019-06-02T06:47:08.000Z</time>
      </trkpt>
      <trkpt lat="43.79542" lon="7.04724">
        <ele>1142</ele>
        <time>2019-06-02T06:47:09.000Z</time>
      </trkpt>
      <trkpt lat="43.79542" lon="7.04726">
        <ele>1142</ele>
        <time>2019-06-02T06:47:10.000Z</time>
      </trkpt>
      <trkpt lat="43.79542" lon="7.04727">
        <ele>1143</ele>
        <time>2019-06-02T06:47:11.000Z</time>
      </trkpt>
      <trkpt lat="43.79541" lon="7.04729">
        <ele>1143</ele>
        <time>2019-06-02T06:47:12.000Z</time>
      </trkpt>
      <trkpt lat="43.79541" lon="7.04731">
        <ele>1143</ele>
        <time>2019-06-02T06:47:13.000Z</time>
      </trkpt>
      <trkpt lat="43.79541" lon="7.04733">
        <ele>1143</ele>
        <time>2019-06-02T06:47:14.000Z</time>
      </trkpt>
      <trkpt lat="43.79543" lon="7.04733">
        <ele>1143</ele>
        <time>2019-06-02T06:47:15.000Z</time>
      </trkpt>
      <trkpt lat="43.79544" lon="7.04733">
        <ele>1143</ele>
        <time>2019-06-02T06:47:16.000Z</time>
      </trkpt>
      <trkpt lat="43.79545" lon="7.04733">
        <ele>1144</ele>
        <time>2019-06-02T06:47:17.000Z</time>
      </trkpt>
      <trkpt lat="43.79546" lon="7.04732">
        <ele>1144</ele>
        <time>2019-06-02T06:47:18.000Z</time>
      </trkpt>
      <trkpt lat="43.79548" lon="7.04732">
        <ele>1144</ele>
        <time>2019-06-02T06:47:19.000Z</time>
      </trkpt>
      <trkpt lat="43.79549" lon="7.04731">
        <ele>1144</ele>
        <time>2019-06-02T06:47:20.000Z</time>
      </trkpt>
      <trkpt lat="43.7955" lon="7.0473">
        <ele>1144</ele>
        <time>2019-06-02T06:47:21.000Z</time>
      </trkpt>
      <trkpt lat="43.7955" lon="7.04729">
        <ele>1145</ele>
        <time>2019-06-02T06:47:22.000Z</time>
      </trkpt>
      <trkpt lat="43.79551" lon="7.04728">
        <ele>1145</ele>
        <time>2019-06-02T06:47:23.000Z</time>
      </trkpt>
      <trkpt lat="43.79551" lon="7.04726">
        <ele>1145</ele>
        <time>2019-06-02T06:47:24.000Z</time>
      </trkpt>
      <trkpt lat="43.79553" lon="7.0472">
        <ele>1146</ele>
        <time>2019-06-02T06:47:28.000Z</time>
      </trkpt>
      <trkpt lat="43.79554" lon="7.04719">
        <ele>1146</ele>
        <time>2019-06-02T06:47:29.000Z</time>
      </trkpt>
      <trkpt lat="43.79555" lon="7.0472">
        <ele>1146</ele>
        <time>2019-06-02T06:47:30.000Z</time>
      </trkpt>
      <trkpt lat="43.79557" lon="7.04721">
        <ele>1146</ele>
        <time>2019-06-02T06:47:31.000Z</time>
      </trkpt>
      <trkpt lat="43.79557" lon="7.04722">
        <ele>1146</ele>
        <time>2019-06-02T06:47:32.000Z</time>
      </trkpt>
      <trkpt lat="43.79561" lon="7.04726">
        <ele>1147</ele>
        <time>2019-06-02T06:47:36.000Z</time>
      </trkpt>
      <trkpt lat="43.79576" lon="7.04739">
        <ele>1145</ele>
        <time>2019-06-02T06:47:45.000Z</time>
      </trkpt>
      <trkpt lat="43.79583" lon="7.04753">
        <ele>1144</ele>
        <time>2019-06-02T06:47:50.000Z</time>
      </trkpt>
      <trkpt lat="43.79584" lon="7.04755">
        <ele>1144</ele>
        <time>2019-06-02T06:47:51.000Z</time>
      </trkpt>
      <trkpt lat="43.79586" lon="7.04757">
        <ele>1144</ele>
        <time>2019-06-02T06:47:52.000Z</time>
      </trkpt>
      <trkpt lat="43.79587" lon="7.04759">
        <ele>1144</ele>
        <time>2019-06-02T06:47:53.000Z</time>
      </trkpt>
      <trkpt lat="43.79589" lon="7.04761">
        <ele>1144</ele>
        <time>2019-06-02T06:47:54.000Z</time>
      </trkpt>
      <trkpt lat="43.79591" lon="7.04763">
        <ele>1144</ele>
        <time>2019-06-02T06:47:55.000Z</time>
      </trkpt>
      <trkpt lat="43.79592" lon="7.04765">
        <ele>1144</ele>
        <time>2019-06-02T06:47:56.000Z</time>
      </trkpt>
      <trkpt lat="43.79594" lon="7.04766">
        <ele>1144</ele>
        <time>2019-06-02T06:47:57.000Z</time>
      </trkpt>
      <trkpt lat="43.796" lon="7.04776">
        <ele>1144</ele>
        <time>2019-06-02T06:48:04.000Z</time>
      </trkpt>
      <trkpt lat="43.79601" lon="7.04779">
        <ele>1144</ele>
        <time>2019-06-02T06:48:05.000Z</time>
      </trkpt>
      <trkpt lat="43.79606" lon="7.04797">
        <ele>1144</ele>
        <time>2019-06-02T06:48:12.000Z</time>
      </trkpt>
      <trkpt lat="43.79609" lon="7.04804">
        <ele>1144</ele>
        <time>2019-06-02T06:48:15.000Z</time>
      </trkpt>
      <trkpt lat="43.7961" lon="7.04806">
        <ele>1144</ele>
        <time>2019-06-02T06:48:16.000Z</time>
      </trkpt>
      <trkpt lat="43.79616" lon="7.04825">
        <ele>1146</ele>
        <time>2019-06-02T06:48:27.000Z</time>
      </trkpt>
      <trkpt lat="43.79617" lon="7.04836">
        <ele>1147</ele>
        <time>2019-06-02T06:48:32.000Z</time>
      </trkpt>
      <trkpt lat="43.79616" lon="7.04838">
        <ele>1147</ele>
        <time>2019-06-02T06:48:33.000Z</time>
      </trkpt>
      <trkpt lat="43.79617" lon="7.0484">
        <ele>1148</ele>
        <time>2019-06-02T06:48:34.000Z</time>
      </trkpt>
      <trkpt lat="43.79617" lon="7.04842">
        <ele>1148</ele>
        <time>2019-06-02T06:48:35.000Z</time>
      </trkpt>
      <trkpt lat="43.79618" lon="7.04844">
        <ele>1149</ele>
        <time>2019-06-02T06:48:36.000Z</time>
      </trkpt>
      <trkpt lat="43.7962" lon="7.04857">
        <ele>1151</ele>
        <time>2019-06-02T06:48:47.000Z</time>
      </trkpt>
      <trkpt lat="43.79622" lon="7.04872">
        <ele>1153</ele>
        <time>2019-06-02T06:49:00.000Z</time>
      </trkpt>
      <trkpt lat="43.79624" lon="7.04888">
        <ele>1156</ele>
        <time>2019-06-02T06:49:15.000Z</time>
      </trkpt>
      <trkpt lat="43.79624" lon="7.04898">
        <ele>1159</ele>
        <time>2019-06-02T06:49:29.000Z</time>
      </trkpt>
      <trkpt lat="43.79624" lon="7.04906">
        <ele>1160</ele>
        <time>2019-06-02T06:49:39.000Z</time>
      </trkpt>
      <trkpt lat="43.79625" lon="7.04915">
        <ele>1162</ele>
        <time>2019-06-02T06:49:50.000Z</time>
      </trkpt>
      <trkpt lat="43.79626" lon="7.04929">
        <ele>1165</ele>
        <time>2019-06-02T06:50:04.000Z</time>
      </trkpt>
      <trkpt lat="43.79625" lon="7.04942">
        <ele>1167</ele>
        <time>2019-06-02T06:50:17.000Z</time>
      </trkpt>
      <trkpt lat="43.79626" lon="7.04958">
        <ele>1170</ele>
        <time>2019-06-02T06:50:32.000Z</time>
      </trkpt>
      <trkpt lat="43.79626" lon="7.04964">
        <ele>1170</ele>
        <time>2019-06-02T06:50:40.000Z</time>
      </trkpt>
      <trkpt lat="43.79626" lon="7.04984">
        <ele>1172</ele>
        <time>2019-06-02T06:50:51.000Z</time>
      </trkpt>
      <trkpt lat="43.79626" lon="7.04986">
        <ele>1173</ele>
        <time>2019-06-02T06:50:52.000Z</time>
      </trkpt>
      <trkpt lat="43.79626" lon="7.04989">
        <ele>1173</ele>
        <time>2019-06-02T06:50:54.000Z</time>
      </trkpt>
      <trkpt lat="43.79627" lon="7.04996">
        <ele>1174</ele>
        <time>2019-06-02T06:50:58.000Z</time>
      </trkpt>
      <trkpt lat="43.79627" lon="7.04997">
        <ele>1175</ele>
        <time>2019-06-02T06:50:59.000Z</time>
      </trkpt>
      <trkpt lat="43.79628" lon="7.04999">
        <ele>1175</ele>
        <time>2019-06-02T06:51:00.000Z</time>
      </trkpt>
      <trkpt lat="43.79628" lon="7.05001">
        <ele>1175</ele>
        <time>2019-06-02T06:51:01.000Z</time>
      </trkpt>
      <trkpt lat="43.79629" lon="7.05002">
        <ele>1175</ele>
        <time>2019-06-02T06:51:02.000Z</time>
      </trkpt>
      <trkpt lat="43.7963" lon="7.05003">
        <ele>1176</ele>
        <time>2019-06-02T06:51:03.000Z</time>
      </trkpt>
      <trkpt lat="43.79632" lon="7.05015">
        <ele>1178</ele>
        <time>2019-06-02T06:51:15.000Z</time>
      </trkpt>
      <trkpt lat="43.79632" lon="7.05028">
        <ele>1180</ele>
        <time>2019-06-02T06:51:30.000Z</time>
      </trkpt>
      <trkpt lat="43.79633" lon="7.0503">
        <ele>1180</ele>
        <time>2019-06-02T06:51:31.000Z</time>
      </trkpt>
      <trkpt lat="43.79642" lon="7.05043">
        <ele>1181</ele>
        <time>2019-06-02T06:51:40.000Z</time>
      </trkpt>
      <trkpt lat="43.79659" lon="7.05048">
        <ele>1184</ele>
        <time>2019-06-02T06:51:54.000Z</time>
      </trkpt>
      <trkpt lat="43.79663" lon="7.0505">
        <ele>1184</ele>
        <time>2019-06-02T06:51:58.000Z</time>
      </trkpt>
      <trkpt lat="43.7967" lon="7.0505">
        <ele>1186</ele>
        <time>2019-06-02T06:52:03.000Z</time>
      </trkpt>
      <trkpt lat="43.7968" lon="7.05052">
        <ele>1188</ele>
        <time>2019-06-02T06:52:13.000Z</time>
      </trkpt>
      <trkpt lat="43.79685" lon="7.05062">
        <ele>1190</ele>
        <time>2019-06-02T06:52:27.000Z</time>
      </trkpt>
      <trkpt lat="43.79687" lon="7.05071">
        <ele>1192</ele>
        <time>2019-06-02T06:52:40.000Z</time>
      </trkpt>
      <trkpt lat="43.79688" lon="7.05076">
        <ele>1193</ele>
        <time>2019-06-02T06:52:45.000Z</time>
      </trkpt>
      <trkpt lat="43.7969" lon="7.05089">
        <ele>1196</ele>
        <time>2019-06-02T06:53:00.000Z</time>
      </trkpt>
      <trkpt lat="43.79692" lon="7.05101">
        <ele>1199</ele>
        <time>2019-06-02T06:53:14.000Z</time>
      </trkpt>
      <trkpt lat="43.79695" lon="7.05113">
        <ele>1202</ele>
        <time>2019-06-02T06:53:30.000Z</time>
      </trkpt>
      <trkpt lat="43.797" lon="7.05118">
        <ele>1204</ele>
        <time>2019-06-02T06:53:42.000Z</time>
      </trkpt>
      <trkpt lat="43.79702" lon="7.05118">
        <ele>1205</ele>
        <time>2019-06-02T06:53:57.000Z</time>
      </trkpt>
      <trkpt lat="43.79703" lon="7.05116">
        <ele>1205</ele>
        <time>2019-06-02T06:54:00.000Z</time>
      </trkpt>
      <trkpt lat="43.79707" lon="7.05117">
        <ele>1207</ele>
        <time>2019-06-02T06:54:09.000Z</time>
      </trkpt>
      <trkpt lat="43.79709" lon="7.05133">
        <ele>1210</ele>
        <time>2019-06-02T06:54:24.000Z</time>
      </trkpt>
      <trkpt lat="43.79708" lon="7.05144">
        <ele>1212</ele>
        <time>2019-06-02T06:54:39.000Z</time>
      </trkpt>
      <trkpt lat="43.79711" lon="7.05151">
        <ele>1214</ele>
        <time>2019-06-02T06:54:54.000Z</time>
      </trkpt>
      <trkpt lat="43.7972" lon="7.05134">
        <ele>1216</ele>
        <time>2019-06-02T06:55:11.000Z</time>
      </trkpt>
      <trkpt lat="43.79726" lon="7.05126">
        <ele>1218</ele>
        <time>2019-06-02T06:55:23.000Z</time>
      </trkpt>
      <trkpt lat="43.79727" lon="7.05127">
        <ele>1218</ele>
        <time>2019-06-02T06:55:32.000Z</time>
      </trkpt>
      <trkpt lat="43.79737" lon="7.05119">
        <ele>1220</ele>
        <time>2019-06-02T06:55:41.000Z</time>
      </trkpt>
      <trkpt lat="43.79752" lon="7.05107">
        <ele>1223</ele>
        <time>2019-06-02T06:55:53.000Z</time>
      </trkpt>
      <trkpt lat="43.79761" lon="7.05108">
        <ele>1226</ele>
        <time>2019-06-02T06:56:05.000Z</time>
      </trkpt>
      <trkpt lat="43.79769" lon="7.05103">
        <ele>1229</ele>
        <time>2019-06-02T06:56:19.000Z</time>
      </trkpt>
      <trkpt lat="43.79777" lon="7.05097">
        <ele>1232</ele>
        <time>2019-06-02T06:56:34.000Z</time>
      </trkpt>
      <trkpt lat="43.79784" lon="7.05093">
        <ele>1234</ele>
        <time>2019-06-02T06:56:46.000Z</time>
      </trkpt>
      <trkpt lat="43.79791" lon="7.05087">
        <ele>1236</ele>
        <time>2019-06-02T06:57:00.000Z</time>
      </trkpt>
      <trkpt lat="43.7979" lon="7.05094">
        <ele>1238</ele>
        <time>2019-06-02T06:57:13.000Z</time>
      </trkpt>
      <trkpt lat="43.79786" lon="7.05113">
        <ele>1241</ele>
        <time>2019-06-02T06:57:30.000Z</time>
      </trkpt>
      <trkpt lat="43.79789" lon="7.05119">
        <ele>1243</ele>
        <time>2019-06-02T06:57:45.000Z</time>
      </trkpt>
      <trkpt lat="43.7979" lon="7.05128">
        <ele>1245</ele>
        <time>2019-06-02T06:58:00.000Z</time>
      </trkpt>
      <trkpt lat="43.79794" lon="7.05144">
        <ele>1248</ele>
        <time>2019-06-02T06:58:18.000Z</time>
      </trkpt>
      <trkpt lat="43.79795" lon="7.0516">
        <ele>1250</ele>
        <time>2019-06-02T06:58:33.000Z</time>
      </trkpt>
      <trkpt lat="43.79798" lon="7.05179">
        <ele>1254</ele>
        <time>2019-06-02T06:58:51.000Z</time>
      </trkpt>
      <trkpt lat="43.79799" lon="7.05194">
        <ele>1256</ele>
        <time>2019-06-02T06:59:02.000Z</time>
      </trkpt>
      <trkpt lat="43.79801" lon="7.05232">
        <ele>1259</ele>
        <time>2019-06-02T06:59:22.000Z</time>
      </trkpt>
      <trkpt lat="43.79806" lon="7.05259">
        <ele>1262</ele>
        <time>2019-06-02T06:59:37.000Z</time>
      </trkpt>
      <trkpt lat="43.7981" lon="7.05274">
        <ele>1264</ele>
        <time>2019-06-02T06:59:46.000Z</time>
      </trkpt>
      <trkpt lat="43.79813" lon="7.05284">
        <ele>1266</ele>
        <time>2019-06-02T06:59:52.000Z</time>
      </trkpt>
      <trkpt lat="43.79813" lon="7.05287">
        <ele>1266</ele>
        <time>2019-06-02T06:59:54.000Z</time>
      </trkpt>
      <trkpt lat="43.79814" lon="7.05298">
        <ele>1267</ele>
        <time>2019-06-02T07:00:01.000Z</time>
      </trkpt>
      <trkpt lat="43.79816" lon="7.05309">
        <ele>1269</ele>
        <time>2019-06-02T07:00:08.000Z</time>
      </trkpt>
      <trkpt lat="43.79819" lon="7.05315">
        <ele>1270</ele>
        <time>2019-06-02T07:00:12.000Z</time>
      </trkpt>
      <trkpt lat="43.7982" lon="7.0532">
        <ele>1271</ele>
        <time>2019-06-02T07:00:15.000Z</time>
      </trkpt>
      <trkpt lat="43.79819" lon="7.05325">
        <ele>1272</ele>
        <time>2019-06-02T07:00:18.000Z</time>
      </trkpt>
      <trkpt lat="43.79821" lon="7.05343">
        <ele>1274</ele>
        <time>2019-06-02T07:00:34.000Z</time>
      </trkpt>
      <trkpt lat="43.79821" lon="7.05347">
        <ele>1275</ele>
        <time>2019-06-02T07:00:47.000Z</time>
      </trkpt>
      <trkpt lat="43.79826" lon="7.05348">
        <ele>1277</ele>
        <time>2019-06-02T07:01:02.000Z</time>
      </trkpt>
      <trkpt lat="43.7983" lon="7.05335">
        <ele>1279</ele>
        <time>2019-06-02T07:01:18.000Z</time>
      </trkpt>
      <trkpt lat="43.79833" lon="7.05328">
        <ele>1281</ele>
        <time>2019-06-02T07:01:34.000Z</time>
      </trkpt>
      <trkpt lat="43.79836" lon="7.05323">
        <ele>1282</ele>
        <time>2019-06-02T07:01:41.000Z</time>
      </trkpt>
      <trkpt lat="43.79841" lon="7.05316">
        <ele>1284</ele>
        <time>2019-06-02T07:01:58.000Z</time>
      </trkpt>
      <trkpt lat="43.79841" lon="7.05316">
        <ele>1285</ele>
        <time>2019-06-02T07:02:01.000Z</time>
      </trkpt>
      <trkpt lat="43.7984" lon="7.05322">
        <ele>1285</ele>
        <time>2019-06-02T07:02:05.000Z</time>
      </trkpt>
      <trkpt lat="43.79842" lon="7.05341">
        <ele>1287</ele>
        <time>2019-06-02T07:02:15.000Z</time>
      </trkpt>
      <trkpt lat="43.79846" lon="7.0537">
        <ele>1291</ele>
        <time>2019-06-02T07:02:31.000Z</time>
      </trkpt>
      <trkpt lat="43.79846" lon="7.05397">
        <ele>1294</ele>
        <time>2019-06-02T07:02:47.000Z</time>
      </trkpt>
      <trkpt lat="43.79846" lon="7.05404">
        <ele>1295</ele>
        <time>2019-06-02T07:02:51.000Z</time>
      </trkpt>
      <trkpt lat="43.79845" lon="7.05431">
        <ele>1297</ele>
        <time>2019-06-02T07:03:06.000Z</time>
      </trkpt>
      <trkpt lat="43.79845" lon="7.05457">
        <ele>1300</ele>
        <time>2019-06-02T07:03:20.000Z</time>
      </trkpt>
      <trkpt lat="43.79851" lon="7.05454">
        <ele>1302</ele>
        <time>2019-06-02T07:03:27.000Z</time>
      </trkpt>
      <trkpt lat="43.7986" lon="7.05434">
        <ele>1305</ele>
        <time>2019-06-02T07:03:42.000Z</time>
      </trkpt>
      <trkpt lat="43.79864" lon="7.05429">
        <ele>1306</ele>
        <time>2019-06-02T07:03:56.000Z</time>
      </trkpt>
      <trkpt lat="43.79866" lon="7.05424">
        <ele>1306</ele>
        <time>2019-06-02T07:04:02.000Z</time>
      </trkpt>
      <trkpt lat="43.7987" lon="7.05419">
        <ele>1308</ele>
        <time>2019-06-02T07:04:10.000Z</time>
      </trkpt>
      <trkpt lat="43.79873" lon="7.05428">
        <ele>1310</ele>
        <time>2019-06-02T07:04:22.000Z</time>
      </trkpt>
      <trkpt lat="43.79878" lon="7.05414">
        <ele>1312</ele>
        <time>2019-06-02T07:04:38.000Z</time>
      </trkpt>
      <trkpt lat="43.79883" lon="7.05405">
        <ele>1314</ele>
        <time>2019-06-02T07:04:52.000Z</time>
      </trkpt>
      <trkpt lat="43.79884" lon="7.05401">
        <ele>1315</ele>
        <time>2019-06-02T07:05:08.000Z</time>
      </trkpt>
      <trkpt lat="43.79885" lon="7.054">
        <ele>1315</ele>
        <time>2019-06-02T07:05:09.000Z</time>
      </trkpt>
      <trkpt lat="43.79888" lon="7.05393">
        <ele>1316</ele>
        <time>2019-06-02T07:05:14.000Z</time>
      </trkpt>
      <trkpt lat="43.79891" lon="7.05384">
        <ele>1317</ele>
        <time>2019-06-02T07:05:20.000Z</time>
      </trkpt>
      <trkpt lat="43.79897" lon="7.05369">
        <ele>1320</ele>
        <time>2019-06-02T07:05:33.000Z</time>
      </trkpt>
      <trkpt lat="43.799" lon="7.0537">
        <ele>1321</ele>
        <time>2019-06-02T07:05:39.000Z</time>
      </trkpt>
      <trkpt lat="43.79902" lon="7.05372">
        <ele>1321</ele>
        <time>2019-06-02T07:05:42.000Z</time>
      </trkpt>
      <trkpt lat="43.79906" lon="7.05365">
        <ele>1323</ele>
        <time>2019-06-02T07:05:56.000Z</time>
      </trkpt>
      <trkpt lat="43.79907" lon="7.05354">
        <ele>1325</ele>
        <time>2019-06-02T07:06:06.000Z</time>
      </trkpt>
      <trkpt lat="43.79913" lon="7.05336">
        <ele>1328</ele>
        <time>2019-06-02T07:06:25.000Z</time>
      </trkpt>
      <trkpt lat="43.79917" lon="7.05321">
        <ele>1330</ele>
        <time>2019-06-02T07:06:41.000Z</time>
      </trkpt>
      <trkpt lat="43.79921" lon="7.05307">
        <ele>1332</ele>
        <time>2019-06-02T07:06:56.000Z</time>
      </trkpt>
      <trkpt lat="43.79927" lon="7.05296">
        <ele>1334</ele>
        <time>2019-06-02T07:07:12.000Z</time>
      </trkpt>
      <trkpt lat="43.79929" lon="7.05288">
        <ele>1336</ele>
        <time>2019-06-02T07:07:23.000Z</time>
      </trkpt>
      <trkpt lat="43.79934" lon="7.05274">
        <ele>1338</ele>
        <time>2019-06-02T07:07:38.000Z</time>
      </trkpt>
      <trkpt lat="43.79937" lon="7.05262">
        <ele>1340</ele>
        <time>2019-06-02T07:07:51.000Z</time>
      </trkpt>
      <trkpt lat="43.79942" lon="7.05253">
        <ele>1342</ele>
        <time>2019-06-02T07:08:04.000Z</time>
      </trkpt>
      <trkpt lat="43.79948" lon="7.05237">
        <ele>1344</ele>
        <time>2019-06-02T07:08:19.000Z</time>
      </trkpt>
      <trkpt lat="43.79951" lon="7.05229">
        <ele>1344</ele>
        <time>2019-06-02T07:08:26.000Z</time>
      </trkpt>
      <trkpt lat="43.79953" lon="7.05216">
        <ele>1346</ele>
        <time>2019-06-02T07:08:37.000Z</time>
      </trkpt>
      <trkpt lat="43.79956" lon="7.05215">
        <ele>1347</ele>
        <time>2019-06-02T07:08:42.000Z</time>
      </trkpt>
      <trkpt lat="43.79961" lon="7.05227">
        <ele>1348</ele>
        <time>2019-06-02T07:08:57.000Z</time>
      </trkpt>
      <trkpt lat="43.79961" lon="7.05227">
        <ele>1348</ele>
        <time>2019-06-02T07:09:00.000Z</time>
      </trkpt>
      <trkpt lat="43.79962" lon="7.0524">
        <ele>1350</ele>
        <time>2019-06-02T07:09:08.000Z</time>
      </trkpt>
      <trkpt lat="43.79963" lon="7.05246">
        <ele>1351</ele>
        <time>2019-06-02T07:09:13.000Z</time>
      </trkpt>
      <trkpt lat="43.79967" lon="7.0524">
        <ele>1351</ele>
        <time>2019-06-02T07:09:18.000Z</time>
      </trkpt>
      <trkpt lat="43.79972" lon="7.0523">
        <ele>1352</ele>
        <time>2019-06-02T07:09:26.000Z</time>
      </trkpt>
      <trkpt lat="43.79976" lon="7.05225">
        <ele>1353</ele>
        <time>2019-06-02T07:09:41.000Z</time>
      </trkpt>
      <trkpt lat="43.79976" lon="7.05224">
        <ele>1354</ele>
        <time>2019-06-02T07:10:12.000Z</time>
      </trkpt>
      <trkpt lat="43.79975" lon="7.05224">
        <ele>1354</ele>
        <time>2019-06-02T07:10:37.000Z</time>
      </trkpt>
      <trkpt lat="43.79977" lon="7.05217">
        <ele>1354</ele>
        <time>2019-06-02T07:10:44.000Z</time>
      </trkpt>
      <trkpt lat="43.79979" lon="7.05207">
        <ele>1354</ele>
        <time>2019-06-02T07:10:50.000Z</time>
      </trkpt>
      <trkpt lat="43.79982" lon="7.05194">
        <ele>1356</ele>
        <time>2019-06-02T07:11:03.000Z</time>
      </trkpt>
      <trkpt lat="43.79984" lon="7.05176">
        <ele>1357</ele>
        <time>2019-06-02T07:11:17.000Z</time>
      </trkpt>
      <trkpt lat="43.79984" lon="7.05173">
        <ele>1358</ele>
        <time>2019-06-02T07:11:21.000Z</time>
      </trkpt>
      <trkpt lat="43.79986" lon="7.0516">
        <ele>1358</ele>
        <time>2019-06-02T07:11:29.000Z</time>
      </trkpt>
      <trkpt lat="43.79988" lon="7.05151">
        <ele>1358</ele>
        <time>2019-06-02T07:11:34.000Z</time>
      </trkpt>
      <trkpt lat="43.79998" lon="7.05118">
        <ele>1359</ele>
        <time>2019-06-02T07:11:49.000Z</time>
      </trkpt>
      <trkpt lat="43.79998" lon="7.05114">
        <ele>1359</ele>
        <time>2019-06-02T07:11:51.000Z</time>
      </trkpt>
      <trkpt lat="43.79998" lon="7.05111">
        <ele>1360</ele>
        <time>2019-06-02T07:11:52.000Z</time>
      </trkpt>
      <trkpt lat="43.79998" lon="7.0511">
        <ele>1360</ele>
        <time>2019-06-02T07:11:53.000Z</time>
      </trkpt>
      <trkpt lat="43.79998" lon="7.05107">
        <ele>1360</ele>
        <time>2019-06-02T07:11:54.000Z</time>
      </trkpt>
      <trkpt lat="43.79998" lon="7.05106">
        <ele>1360</ele>
        <time>2019-06-02T07:11:55.000Z</time>
      </trkpt>
      <trkpt lat="43.79998" lon="7.05104">
        <ele>1360</ele>
        <time>2019-06-02T07:11:56.000Z</time>
      </trkpt>
      <trkpt lat="43.79997" lon="7.05097">
        <ele>1361</ele>
        <time>2019-06-02T07:11:59.000Z</time>
      </trkpt>
      <trkpt lat="43.79997" lon="7.05095">
        <ele>1361</ele>
        <time>2019-06-02T07:12:00.000Z</time>
      </trkpt>
      <trkpt lat="43.79997" lon="7.05093">
        <ele>1362</ele>
        <time>2019-06-02T07:12:01.000Z</time>
      </trkpt>
      <trkpt lat="43.79997" lon="7.05091">
        <ele>1362</ele>
        <time>2019-06-02T07:12:02.000Z</time>
      </trkpt>
      <trkpt lat="43.79997" lon="7.0509">
        <ele>1362</ele>
        <time>2019-06-02T07:12:03.000Z</time>
      </trkpt>
      <trkpt lat="43.79997" lon="7.05088">
        <ele>1362</ele>
        <time>2019-06-02T07:12:04.000Z</time>
      </trkpt>
      <trkpt lat="43.79997" lon="7.05085">
        <ele>1362</ele>
        <time>2019-06-02T07:12:05.000Z</time>
      </trkpt>
      <trkpt lat="43.79997" lon="7.05083">
        <ele>1362</ele>
        <time>2019-06-02T07:12:06.000Z</time>
      </trkpt>
      <trkpt lat="43.79999" lon="7.05069">
        <ele>1362</ele>
        <time>2019-06-02T07:12:12.000Z</time>
      </trkpt>
      <trkpt lat="43.79999" lon="7.05067">
        <ele>1362</ele>
        <time>2019-06-02T07:12:13.000Z</time>
      </trkpt>
      <trkpt lat="43.8" lon="7.05065">
        <ele>1362</ele>
        <time>2019-06-02T07:12:14.000Z</time>
      </trkpt>
      <trkpt lat="43.8" lon="7.05062">
        <ele>1362</ele>
        <time>2019-06-02T07:12:15.000Z</time>
      </trkpt>
      <trkpt lat="43.8" lon="7.0506">
        <ele>1362</ele>
        <time>2019-06-02T07:12:16.000Z</time>
      </trkpt>
      <trkpt lat="43.8" lon="7.05058">
        <ele>1363</ele>
        <time>2019-06-02T07:12:17.000Z</time>
      </trkpt>
      <trkpt lat="43.8" lon="7.05056">
        <ele>1363</ele>
        <time>2019-06-02T07:12:18.000Z</time>
      </trkpt>
      <trkpt lat="43.80001" lon="7.05054">
        <ele>1363</ele>
        <time>2019-06-02T07:12:19.000Z</time>
      </trkpt>
      <trkpt lat="43.80002" lon="7.05051">
        <ele>1363</ele>
        <time>2019-06-02T07:12:20.000Z</time>
      </trkpt>
      <trkpt lat="43.80002" lon="7.05049">
        <ele>1363</ele>
        <time>2019-06-02T07:12:21.000Z</time>
      </trkpt>
      <trkpt lat="43.80003" lon="7.05047">
        <ele>1363</ele>
        <time>2019-06-02T07:12:22.000Z</time>
      </trkpt>
      <trkpt lat="43.80005" lon="7.05034">
        <ele>1363</ele>
        <time>2019-06-02T07:12:28.000Z</time>
      </trkpt>
      <trkpt lat="43.80005" lon="7.05032">
        <ele>1364</ele>
        <time>2019-06-02T07:12:29.000Z</time>
      </trkpt>
      <trkpt lat="43.80005" lon="7.0503">
        <ele>1364</ele>
        <time>2019-06-02T07:12:30.000Z</time>
      </trkpt>
      <trkpt lat="43.80005" lon="7.05028">
        <ele>1364</ele>
        <time>2019-06-02T07:12:31.000Z</time>
      </trkpt>
      <trkpt lat="43.80005" lon="7.05026">
        <ele>1364</ele>
        <time>2019-06-02T07:12:32.000Z</time>
      </trkpt>
      <trkpt lat="43.80006" lon="7.05024">
        <ele>1364</ele>
        <time>2019-06-02T07:12:33.000Z</time>
      </trkpt>
      <trkpt lat="43.80006" lon="7.05023">
        <ele>1364</ele>
        <time>2019-06-02T07:12:34.000Z</time>
      </trkpt>
      <trkpt lat="43.8001" lon="7.04992">
        <ele>1365</ele>
        <time>2019-06-02T07:12:47.000Z</time>
      </trkpt>
      <trkpt lat="43.80009" lon="7.04973">
        <ele>1366</ele>
        <time>2019-06-02T07:12:56.000Z</time>
      </trkpt>
      <trkpt lat="43.80009" lon="7.04972">
        <ele>1366</ele>
        <time>2019-06-02T07:12:57.000Z</time>
      </trkpt>
      <trkpt lat="43.80009" lon="7.0497">
        <ele>1367</ele>
        <time>2019-06-02T07:12:58.000Z</time>
      </trkpt>
      <trkpt lat="43.8001" lon="7.04969">
        <ele>1367</ele>
        <time>2019-06-02T07:12:59.000Z</time>
      </trkpt>
      <trkpt lat="43.80011" lon="7.04967">
        <ele>1367</ele>
        <time>2019-06-02T07:13:00.000Z</time>
      </trkpt>
      <trkpt lat="43.80012" lon="7.04966">
        <ele>1367</ele>
        <time>2019-06-02T07:13:01.000Z</time>
      </trkpt>
      <trkpt lat="43.80012" lon="7.04964">
        <ele>1367</ele>
        <time>2019-06-02T07:13:02.000Z</time>
      </trkpt>
      <trkpt lat="43.80013" lon="7.04961">
        <ele>1367</ele>
        <time>2019-06-02T07:13:03.000Z</time>
      </trkpt>
      <trkpt lat="43.80013" lon="7.04959">
        <ele>1367</ele>
        <time>2019-06-02T07:13:04.000Z</time>
      </trkpt>
      <trkpt lat="43.80012" lon="7.04933">
        <ele>1368</ele>
        <time>2019-06-02T07:13:16.000Z</time>
      </trkpt>
      <trkpt lat="43.80013" lon="7.04931">
        <ele>1368</ele>
        <time>2019-06-02T07:13:17.000Z</time>
      </trkpt>
      <trkpt lat="43.80014" lon="7.0493">
        <ele>1368</ele>
        <time>2019-06-02T07:13:18.000Z</time>
      </trkpt>
      <trkpt lat="43.80014" lon="7.04928">
        <ele>1368</ele>
        <time>2019-06-02T07:13:19.000Z</time>
      </trkpt>
      <trkpt lat="43.80015" lon="7.04926">
        <ele>1368</ele>
        <time>2019-06-02T07:13:20.000Z</time>
      </trkpt>
      <trkpt lat="43.80023" lon="7.04903">
        <ele>1369</ele>
        <time>2019-06-02T07:13:31.000Z</time>
      </trkpt>
      <trkpt lat="43.80023" lon="7.049">
        <ele>1369</ele>
        <time>2019-06-02T07:13:32.000Z</time>
      </trkpt>
      <trkpt lat="43.80023" lon="7.04898">
        <ele>1369</ele>
        <time>2019-06-02T07:13:33.000Z</time>
      </trkpt>
      <trkpt lat="43.80024" lon="7.04895">
        <ele>1369</ele>
        <time>2019-06-02T07:13:34.000Z</time>
      </trkpt>
      <trkpt lat="43.80024" lon="7.04893">
        <ele>1369</ele>
        <time>2019-06-02T07:13:35.000Z</time>
      </trkpt>
      <trkpt lat="43.80025" lon="7.04891">
        <ele>1369</ele>
        <time>2019-06-02T07:13:36.000Z</time>
      </trkpt>
      <trkpt lat="43.80026" lon="7.04888">
        <ele>1369</ele>
        <time>2019-06-02T07:13:37.000Z</time>
      </trkpt>
      <trkpt lat="43.80028" lon="7.04885">
        <ele>1369</ele>
        <time>2019-06-02T07:13:38.000Z</time>
      </trkpt>
      <trkpt lat="43.80036" lon="7.04857">
        <ele>1370</ele>
        <time>2019-06-02T07:13:47.000Z</time>
      </trkpt>
      <trkpt lat="43.80048" lon="7.04832">
        <ele>1371</ele>
        <time>2019-06-02T07:13:59.000Z</time>
      </trkpt>
      <trkpt lat="43.80049" lon="7.04831">
        <ele>1371</ele>
        <time>2019-06-02T07:14:00.000Z</time>
      </trkpt>
      <trkpt lat="43.80051" lon="7.0483">
        <ele>1371</ele>
        <time>2019-06-02T07:14:01.000Z</time>
      </trkpt>
      <trkpt lat="43.80053" lon="7.04828">
        <ele>1371</ele>
        <time>2019-06-02T07:14:02.000Z</time>
      </trkpt>
      <trkpt lat="43.80055" lon="7.04826">
        <ele>1371</ele>
        <time>2019-06-02T07:14:03.000Z</time>
      </trkpt>
      <trkpt lat="43.80056" lon="7.04823">
        <ele>1371</ele>
        <time>2019-06-02T07:14:04.000Z</time>
      </trkpt>
      <trkpt lat="43.80057" lon="7.04821">
        <ele>1371</ele>
        <time>2019-06-02T07:14:05.000Z</time>
      </trkpt>
      <trkpt lat="43.80057" lon="7.04818">
        <ele>1371</ele>
        <time>2019-06-02T07:14:06.000Z</time>
      </trkpt>
      <trkpt lat="43.80058" lon="7.04816">
        <ele>1371</ele>
        <time>2019-06-02T07:14:07.000Z</time>
      </trkpt>
      <trkpt lat="43.80059" lon="7.04814">
        <ele>1371</ele>
        <time>2019-06-02T07:14:08.000Z</time>
      </trkpt>
      <trkpt lat="43.8006" lon="7.04811">
        <ele>1371</ele>
        <time>2019-06-02T07:14:09.000Z</time>
      </trkpt>
      <trkpt lat="43.80062" lon="7.04809">
        <ele>1371</ele>
        <time>2019-06-02T07:14:10.000Z</time>
      </trkpt>
      <trkpt lat="43.80067" lon="7.04804">
        <ele>1371</ele>
        <time>2019-06-02T07:14:13.000Z</time>
      </trkpt>
      <trkpt lat="43.80068" lon="7.04801">
        <ele>1371</ele>
        <time>2019-06-02T07:14:14.000Z</time>
      </trkpt>
      <trkpt lat="43.80069" lon="7.04799">
        <ele>1371</ele>
        <time>2019-06-02T07:14:15.000Z</time>
      </trkpt>
      <trkpt lat="43.80079" lon="7.04782">
        <ele>1370</ele>
        <time>2019-06-02T07:14:21.000Z</time>
      </trkpt>
      <trkpt lat="43.8008" lon="7.04779">
        <ele>1370</ele>
        <time>2019-06-02T07:14:22.000Z</time>
      </trkpt>
      <trkpt lat="43.80081" lon="7.04776">
        <ele>1370</ele>
        <time>2019-06-02T07:14:23.000Z</time>
      </trkpt>
      <trkpt lat="43.80082" lon="7.04773">
        <ele>1370</ele>
        <time>2019-06-02T07:14:24.000Z</time>
      </trkpt>
      <trkpt lat="43.80084" lon="7.04771">
        <ele>1370</ele>
        <time>2019-06-02T07:14:25.000Z</time>
      </trkpt>
      <trkpt lat="43.80086" lon="7.04768">
        <ele>1370</ele>
        <time>2019-06-02T07:14:26.000Z</time>
      </trkpt>
      <trkpt lat="43.80098" lon="7.04733">
        <ele>1371</ele>
        <time>2019-06-02T07:14:36.000Z</time>
      </trkpt>
      <trkpt lat="43.80101" lon="7.04688">
        <ele>1371</ele>
        <time>2019-06-02T07:14:48.000Z</time>
      </trkpt>
      <trkpt lat="43.80111" lon="7.04666">
        <ele>1371</ele>
        <time>2019-06-02T07:14:55.000Z</time>
      </trkpt>
      <trkpt lat="43.80112" lon="7.04663">
        <ele>1371</ele>
        <time>2019-06-02T07:14:56.000Z</time>
      </trkpt>
      <trkpt lat="43.80113" lon="7.0466">
        <ele>1371</ele>
        <time>2019-06-02T07:14:57.000Z</time>
      </trkpt>
      <trkpt lat="43.80114" lon="7.04657">
        <ele>1371</ele>
        <time>2019-06-02T07:14:58.000Z</time>
      </trkpt>
      <trkpt lat="43.80115" lon="7.04654">
        <ele>1371</ele>
        <time>2019-06-02T07:14:59.000Z</time>
      </trkpt>
      <trkpt lat="43.80116" lon="7.04652">
        <ele>1371</ele>
        <time>2019-06-02T07:15:00.000Z</time>
      </trkpt>
      <trkpt lat="43.80117" lon="7.04649">
        <ele>1371</ele>
        <time>2019-06-02T07:15:01.000Z</time>
      </trkpt>
      <trkpt lat="43.80118" lon="7.04646">
        <ele>1371</ele>
        <time>2019-06-02T07:15:02.000Z</time>
      </trkpt>
      <trkpt lat="43.80118" lon="7.04643">
        <ele>1371</ele>
        <time>2019-06-02T07:15:03.000Z</time>
      </trkpt>
      <trkpt lat="43.80119" lon="7.04639">
        <ele>1371</ele>
        <time>2019-06-02T07:15:04.000Z</time>
      </trkpt>
      <trkpt lat="43.80119" lon="7.04636">
        <ele>1371</ele>
        <time>2019-06-02T07:15:05.000Z</time>
      </trkpt>
      <trkpt lat="43.80119" lon="7.04633">
        <ele>1371</ele>
        <time>2019-06-02T07:15:06.000Z</time>
      </trkpt>
      <trkpt lat="43.8012" lon="7.0463">
        <ele>1371</ele>
        <time>2019-06-02T07:15:07.000Z</time>
      </trkpt>
      <trkpt lat="43.80125" lon="7.04598">
        <ele>1372</ele>
        <time>2019-06-02T07:15:19.000Z</time>
      </trkpt>
      <trkpt lat="43.8013" lon="7.04585">
        <ele>1373</ele>
        <time>2019-06-02T07:15:25.000Z</time>
      </trkpt>
      <trkpt lat="43.80131" lon="7.04583">
        <ele>1374</ele>
        <time>2019-06-02T07:15:26.000Z</time>
      </trkpt>
      <trkpt lat="43.80132" lon="7.04581">
        <ele>1374</ele>
        <time>2019-06-02T07:15:27.000Z</time>
      </trkpt>
      <trkpt lat="43.80132" lon="7.04579">
        <ele>1374</ele>
        <time>2019-06-02T07:15:28.000Z</time>
      </trkpt>
      <trkpt lat="43.80133" lon="7.04578">
        <ele>1374</ele>
        <time>2019-06-02T07:15:29.000Z</time>
      </trkpt>
      <trkpt lat="43.80135" lon="7.04577">
        <ele>1374</ele>
        <time>2019-06-02T07:15:30.000Z</time>
      </trkpt>
      <trkpt lat="43.80136" lon="7.04575">
        <ele>1374</ele>
        <time>2019-06-02T07:15:31.000Z</time>
      </trkpt>
      <trkpt lat="43.80136" lon="7.04573">
        <ele>1375</ele>
        <time>2019-06-02T07:15:32.000Z</time>
      </trkpt>
      <trkpt lat="43.80136" lon="7.04571">
        <ele>1375</ele>
        <time>2019-06-02T07:15:33.000Z</time>
      </trkpt>
      <trkpt lat="43.80137" lon="7.04569">
        <ele>1375</ele>
        <time>2019-06-02T07:15:34.000Z</time>
      </trkpt>
      <trkpt lat="43.80137" lon="7.04567">
        <ele>1375</ele>
        <time>2019-06-02T07:15:35.000Z</time>
      </trkpt>
      <trkpt lat="43.80137" lon="7.04565">
        <ele>1375</ele>
        <time>2019-06-02T07:15:36.000Z</time>
      </trkpt>
      <trkpt lat="43.80138" lon="7.04563">
        <ele>1375</ele>
        <time>2019-06-02T07:15:37.000Z</time>
      </trkpt>
      <trkpt lat="43.80139" lon="7.04561">
        <ele>1376</ele>
        <time>2019-06-02T07:15:38.000Z</time>
      </trkpt>
      <trkpt lat="43.8014" lon="7.04559">
        <ele>1376</ele>
        <time>2019-06-02T07:15:39.000Z</time>
      </trkpt>
      <trkpt lat="43.80141" lon="7.04557">
        <ele>1376</ele>
        <time>2019-06-02T07:15:40.000Z</time>
      </trkpt>
      <trkpt lat="43.80149" lon="7.04541">
        <ele>1376</ele>
        <time>2019-06-02T07:15:51.000Z</time>
      </trkpt>
      <trkpt lat="43.8015" lon="7.04539">
        <ele>1376</ele>
        <time>2019-06-02T07:15:52.000Z</time>
      </trkpt>
      <trkpt lat="43.8015" lon="7.04537">
        <ele>1376</ele>
        <time>2019-06-02T07:15:53.000Z</time>
      </trkpt>
      <trkpt lat="43.80151" lon="7.04522">
        <ele>1377</ele>
        <time>2019-06-02T07:16:01.000Z</time>
      </trkpt>
      <trkpt lat="43.80151" lon="7.0452">
        <ele>1377</ele>
        <time>2019-06-02T07:16:02.000Z</time>
      </trkpt>
      <trkpt lat="43.80151" lon="7.04518">
        <ele>1377</ele>
        <time>2019-06-02T07:16:03.000Z</time>
      </trkpt>
      <trkpt lat="43.80151" lon="7.04517">
        <ele>1378</ele>
        <time>2019-06-02T07:16:04.000Z</time>
      </trkpt>
      <trkpt lat="43.80151" lon="7.04515">
        <ele>1378</ele>
        <time>2019-06-02T07:16:05.000Z</time>
      </trkpt>
      <trkpt lat="43.8015" lon="7.04513">
        <ele>1378</ele>
        <time>2019-06-02T07:16:23.000Z</time>
      </trkpt>
      <trkpt lat="43.80152" lon="7.04502">
        <ele>1379</ele>
        <time>2019-06-02T07:16:35.000Z</time>
      </trkpt>
      <trkpt lat="43.80155" lon="7.04489">
        <ele>1379</ele>
        <time>2019-06-02T07:16:49.000Z</time>
      </trkpt>
      <trkpt lat="43.80155" lon="7.0448">
        <ele>1379</ele>
        <time>2019-06-02T07:17:04.000Z</time>
      </trkpt>
      <trkpt lat="43.80158" lon="7.0447">
        <ele>1379</ele>
        <time>2019-06-02T07:17:14.000Z</time>
      </trkpt>
      <trkpt lat="43.80158" lon="7.04468">
        <ele>1379</ele>
        <time>2019-06-02T07:17:15.000Z</time>
      </trkpt>
      <trkpt lat="43.80158" lon="7.04467">
        <ele>1379</ele>
        <time>2019-06-02T07:17:16.000Z</time>
      </trkpt>
      <trkpt lat="43.80158" lon="7.04465">
        <ele>1379</ele>
        <time>2019-06-02T07:17:17.000Z</time>
      </trkpt>
      <trkpt lat="43.80158" lon="7.04462">
        <ele>1379</ele>
        <time>2019-06-02T07:17:18.000Z</time>
      </trkpt>
      <trkpt lat="43.80159" lon="7.04459">
        <ele>1378</ele>
        <time>2019-06-02T07:17:19.000Z</time>
      </trkpt>
      <trkpt lat="43.8016" lon="7.04456">
        <ele>1378</ele>
        <time>2019-06-02T07:17:20.000Z</time>
      </trkpt>
      <trkpt lat="43.80161" lon="7.04452">
        <ele>1378</ele>
        <time>2019-06-02T07:17:21.000Z</time>
      </trkpt>
      <trkpt lat="43.80161" lon="7.0445">
        <ele>1377</ele>
        <time>2019-06-02T07:17:22.000Z</time>
      </trkpt>
      <trkpt lat="43.80164" lon="7.0444">
        <ele>1377</ele>
        <time>2019-06-02T07:17:26.000Z</time>
      </trkpt>
      <trkpt lat="43.80165" lon="7.04439">
        <ele>1377</ele>
        <time>2019-06-02T07:17:27.000Z</time>
      </trkpt>
      <trkpt lat="43.80171" lon="7.04427">
        <ele>1378</ele>
        <time>2019-06-02T07:17:33.000Z</time>
      </trkpt>
      <trkpt lat="43.80174" lon="7.04416">
        <ele>1378</ele>
        <time>2019-06-02T07:17:38.000Z</time>
      </trkpt>
      <trkpt lat="43.80174" lon="7.04415">
        <ele>1378</ele>
        <time>2019-06-02T07:17:39.000Z</time>
      </trkpt>
      <trkpt lat="43.80175" lon="7.04413">
        <ele>1378</ele>
        <time>2019-06-02T07:17:40.000Z</time>
      </trkpt>
      <trkpt lat="43.80176" lon="7.04412">
        <ele>1378</ele>
        <time>2019-06-02T07:17:41.000Z</time>
      </trkpt>
      <trkpt lat="43.80183" lon="7.04401">
        <ele>1379</ele>
        <time>2019-06-02T07:17:49.000Z</time>
      </trkpt>
      <trkpt lat="43.80183" lon="7.04399">
        <ele>1380</ele>
        <time>2019-06-02T07:17:50.000Z</time>
      </trkpt>
      <trkpt lat="43.80184" lon="7.04391">
        <ele>1381</ele>
        <time>2019-06-02T07:17:55.000Z</time>
      </trkpt>
      <trkpt lat="43.80186" lon="7.04383">
        <ele>1382</ele>
        <time>2019-06-02T07:17:59.000Z</time>
      </trkpt>
      <trkpt lat="43.80189" lon="7.0438">
        <ele>1383</ele>
        <time>2019-06-02T07:18:10.000Z</time>
      </trkpt>
      <trkpt lat="43.80195" lon="7.04378">
        <ele>1385</ele>
        <time>2019-06-02T07:18:21.000Z</time>
      </trkpt>
      <trkpt lat="43.80199" lon="7.04368">
        <ele>1387</ele>
        <time>2019-06-02T07:18:37.000Z</time>
      </trkpt>
      <trkpt lat="43.80201" lon="7.04363">
        <ele>1389</ele>
        <time>2019-06-02T07:18:49.000Z</time>
      </trkpt>
      <trkpt lat="43.80206" lon="7.04364">
        <ele>1390</ele>
        <time>2019-06-02T07:19:01.000Z</time>
      </trkpt>
      <trkpt lat="43.80209" lon="7.04353">
        <ele>1393</ele>
        <time>2019-06-02T07:19:16.000Z</time>
      </trkpt>
      <trkpt lat="43.80211" lon="7.04348">
        <ele>1395</ele>
        <time>2019-06-02T07:19:30.000Z</time>
      </trkpt>
      <trkpt lat="43.80212" lon="7.04347">
        <ele>1395</ele>
        <time>2019-06-02T07:19:34.000Z</time>
      </trkpt>
      <trkpt lat="43.80217" lon="7.04338">
        <ele>1397</ele>
        <time>2019-06-02T07:19:48.000Z</time>
      </trkpt>
      <trkpt lat="43.80218" lon="7.04337">
        <ele>1397</ele>
        <time>2019-06-02T07:19:50.000Z</time>
      </trkpt>
      <trkpt lat="43.80219" lon="7.0433">
        <ele>1397</ele>
        <time>2019-06-02T07:19:57.000Z</time>
      </trkpt>
      <trkpt lat="43.80221" lon="7.04326">
        <ele>1396</ele>
        <time>2019-06-02T07:20:03.000Z</time>
      </trkpt>
      <trkpt lat="43.8022" lon="7.04316">
        <ele>1395</ele>
        <time>2019-06-02T07:20:07.000Z</time>
      </trkpt>
      <trkpt lat="43.80222" lon="7.04301">
        <ele>1394</ele>
        <time>2019-06-02T07:20:12.000Z</time>
      </trkpt>
      <trkpt lat="43.80222" lon="7.04298">
        <ele>1393</ele>
        <time>2019-06-02T07:20:20.000Z</time>
      </trkpt>
      <trkpt lat="43.80222" lon="7.04295">
        <ele>1393</ele>
        <time>2019-06-02T07:20:22.000Z</time>
      </trkpt>
      <trkpt lat="43.80224" lon="7.0429">
        <ele>1393</ele>
        <time>2019-06-02T07:20:26.000Z</time>
      </trkpt>
      <trkpt lat="43.80225" lon="7.04285">
        <ele>1393</ele>
        <time>2019-06-02T07:20:37.000Z</time>
      </trkpt>
      <trkpt lat="43.80225" lon="7.04281">
        <ele>1394</ele>
        <time>2019-06-02T07:20:46.000Z</time>
      </trkpt>
      <trkpt lat="43.80228" lon="7.04273">
        <ele>1395</ele>
        <time>2019-06-02T07:20:58.000Z</time>
      </trkpt>
      <trkpt lat="43.8023" lon="7.04271">
        <ele>1395</ele>
        <time>2019-06-02T07:21:11.000Z</time>
      </trkpt>
      <trkpt lat="43.80233" lon="7.04263">
        <ele>1396</ele>
        <time>2019-06-02T07:21:22.000Z</time>
      </trkpt>
      <trkpt lat="43.80234" lon="7.04261">
        <ele>1396</ele>
        <time>2019-06-02T07:21:36.000Z</time>
      </trkpt>
      <trkpt lat="43.80234" lon="7.04258">
        <ele>1398</ele>
        <time>2019-06-02T07:21:50.000Z</time>
      </trkpt>
      <trkpt lat="43.80237" lon="7.04252">
        <ele>1400</ele>
        <time>2019-06-02T07:22:02.000Z</time>
      </trkpt>
      <trkpt lat="43.80241" lon="7.04249">
        <ele>1402</ele>
        <time>2019-06-02T07:22:15.000Z</time>
      </trkpt>
      <trkpt lat="43.80248" lon="7.04248">
        <ele>1405</ele>
        <time>2019-06-02T07:22:30.000Z</time>
      </trkpt>
      <trkpt lat="43.80252" lon="7.04248">
        <ele>1407</ele>
        <time>2019-06-02T07:22:41.000Z</time>
      </trkpt>
      <trkpt lat="43.80258" lon="7.04244">
        <ele>1405</ele>
        <time>2019-06-02T07:22:53.000Z</time>
      </trkpt>
      <trkpt lat="43.80261" lon="7.04239">
        <ele>1407</ele>
        <time>2019-06-02T07:23:00.000Z</time>
      </trkpt>
      <trkpt lat="43.80257" lon="7.0423">
        <ele>1409</ele>
        <time>2019-06-02T07:23:13.000Z</time>
      </trkpt>
      <trkpt lat="43.80258" lon="7.0422">
        <ele>1410</ele>
        <time>2019-06-02T07:23:23.000Z</time>
      </trkpt>
      <trkpt lat="43.80259" lon="7.04207">
        <ele>1411</ele>
        <time>2019-06-02T07:23:36.000Z</time>
      </trkpt>
      <trkpt lat="43.80258" lon="7.04206">
        <ele>1411</ele>
        <time>2019-06-02T07:23:48.000Z</time>
      </trkpt>
      <trkpt lat="43.80259" lon="7.04204">
        <ele>1411</ele>
        <time>2019-06-02T07:23:49.000Z</time>
      </trkpt>
      <trkpt lat="43.80259" lon="7.04202">
        <ele>1411</ele>
        <time>2019-06-02T07:23:50.000Z</time>
      </trkpt>
      <trkpt lat="43.80265" lon="7.04184">
        <ele>1414</ele>
        <time>2019-06-02T07:24:02.000Z</time>
      </trkpt>
      <trkpt lat="43.80264" lon="7.04175">
        <ele>1414</ele>
        <time>2019-06-02T07:24:14.000Z</time>
      </trkpt>
      <trkpt lat="43.80267" lon="7.04172">
        <ele>1414</ele>
        <time>2019-06-02T07:24:23.000Z</time>
      </trkpt>
      <trkpt lat="43.80266" lon="7.04165">
        <ele>1413</ele>
        <time>2019-06-02T07:24:34.000Z</time>
      </trkpt>
      <trkpt lat="43.80268" lon="7.04157">
        <ele>1413</ele>
        <time>2019-06-02T07:24:45.000Z</time>
      </trkpt>
      <trkpt lat="43.80268" lon="7.04155">
        <ele>1413</ele>
        <time>2019-06-02T07:24:46.000Z</time>
      </trkpt>
      <trkpt lat="43.80271" lon="7.04141">
        <ele>1413</ele>
        <time>2019-06-02T07:25:03.000Z</time>
      </trkpt>
      <trkpt lat="43.80271" lon="7.04141">
        <ele>1414</ele>
        <time>2019-06-02T07:25:15.000Z</time>
      </trkpt>
      <trkpt lat="43.80271" lon="7.04134">
        <ele>1414</ele>
        <time>2019-06-02T07:25:33.000Z</time>
      </trkpt>
      <trkpt lat="43.80273" lon="7.04129">
        <ele>1414</ele>
        <time>2019-06-02T07:25:43.000Z</time>
      </trkpt>
      <trkpt lat="43.80272" lon="7.04126">
        <ele>1413</ele>
        <time>2019-06-02T07:25:58.000Z</time>
      </trkpt>
      <trkpt lat="43.8027" lon="7.04125">
        <ele>1413</ele>
        <time>2019-06-02T07:26:04.000Z</time>
      </trkpt>
      <trkpt lat="43.80269" lon="7.04125">
        <ele>1413</ele>
        <time>2019-06-02T07:26:05.000Z</time>
      </trkpt>
      <trkpt lat="43.80268" lon="7.04122">
        <ele>1413</ele>
        <time>2019-06-02T07:26:08.000Z</time>
      </trkpt>
      <trkpt lat="43.80269" lon="7.04119">
        <ele>1413</ele>
        <time>2019-06-02T07:26:11.000Z</time>
      </trkpt>
      <trkpt lat="43.80271" lon="7.0411">
        <ele>1412</ele>
        <time>2019-06-02T07:26:22.000Z</time>
      </trkpt>
      <trkpt lat="43.80272" lon="7.04108">
        <ele>1411</ele>
        <time>2019-06-02T07:26:23.000Z</time>
      </trkpt>
      <trkpt lat="43.80273" lon="7.04107">
        <ele>1411</ele>
        <time>2019-06-02T07:26:24.000Z</time>
      </trkpt>
      <trkpt lat="43.80275" lon="7.04102">
        <ele>1410</ele>
        <time>2019-06-02T07:26:36.000Z</time>
      </trkpt>
      <trkpt lat="43.80276" lon="7.04101">
        <ele>1410</ele>
        <time>2019-06-02T07:26:37.000Z</time>
      </trkpt>
      <trkpt lat="43.80281" lon="7.0409">
        <ele>1409</ele>
        <time>2019-06-02T07:26:51.000Z</time>
      </trkpt>
      <trkpt lat="43.80281" lon="7.04089">
        <ele>1409</ele>
        <time>2019-06-02T07:26:52.000Z</time>
      </trkpt>
      <trkpt lat="43.80282" lon="7.04076">
        <ele>1410</ele>
        <time>2019-06-02T07:27:05.000Z</time>
      </trkpt>
      <trkpt lat="43.80281" lon="7.04065">
        <ele>1411</ele>
        <time>2019-06-02T07:27:18.000Z</time>
      </trkpt>
      <trkpt lat="43.80283" lon="7.04058">
        <ele>1411</ele>
        <time>2019-06-02T07:27:26.000Z</time>
      </trkpt>
      <trkpt lat="43.80284" lon="7.04056">
        <ele>1411</ele>
        <time>2019-06-02T07:27:27.000Z</time>
      </trkpt>
      <trkpt lat="43.80285" lon="7.04055">
        <ele>1411</ele>
        <time>2019-06-02T07:27:28.000Z</time>
      </trkpt>
      <trkpt lat="43.80289" lon="7.04045">
        <ele>1409</ele>
        <time>2019-06-02T07:27:43.000Z</time>
      </trkpt>
      <trkpt lat="43.80293" lon="7.04027">
        <ele>1408</ele>
        <time>2019-06-02T07:27:52.000Z</time>
      </trkpt>
      <trkpt lat="43.80301" lon="7.04011">
        <ele>1408</ele>
        <time>2019-06-02T07:28:02.000Z</time>
      </trkpt>
      <trkpt lat="43.80304" lon="7.04003">
        <ele>1408</ele>
        <time>2019-06-02T07:28:12.000Z</time>
      </trkpt>
      <trkpt lat="43.80306" lon="7.03998">
        <ele>1405</ele>
        <time>2019-06-02T07:28:25.000Z</time>
      </trkpt>
      <trkpt lat="43.80307" lon="7.03996">
        <ele>1405</ele>
        <time>2019-06-02T07:28:29.000Z</time>
      </trkpt>
      <trkpt lat="43.80307" lon="7.03994">
        <ele>1405</ele>
        <time>2019-06-02T07:28:30.000Z</time>
      </trkpt>
      <trkpt lat="43.80307" lon="7.03991">
        <ele>1405</ele>
        <time>2019-06-02T07:28:31.000Z</time>
      </trkpt>
      <trkpt lat="43.80307" lon="7.03988">
        <ele>1405</ele>
        <time>2019-06-02T07:28:32.000Z</time>
      </trkpt>
      <trkpt lat="43.80306" lon="7.03985">
        <ele>1405</ele>
        <time>2019-06-02T07:28:33.000Z</time>
      </trkpt>
      <trkpt lat="43.80306" lon="7.03983">
        <ele>1404</ele>
        <time>2019-06-02T07:28:34.000Z</time>
      </trkpt>
      <trkpt lat="43.80307" lon="7.03979">
        <ele>1405</ele>
        <time>2019-06-02T07:28:38.000Z</time>
      </trkpt>
      <trkpt lat="43.8031" lon="7.03973">
        <ele>1403</ele>
        <time>2019-06-02T07:28:50.000Z</time>
      </trkpt>
      <trkpt lat="43.80311" lon="7.03972">
        <ele>1403</ele>
        <time>2019-06-02T07:28:51.000Z</time>
      </trkpt>
      <trkpt lat="43.80313" lon="7.0397">
        <ele>1403</ele>
        <time>2019-06-02T07:28:52.000Z</time>
      </trkpt>
      <trkpt lat="43.80314" lon="7.03968">
        <ele>1403</ele>
        <time>2019-06-02T07:28:53.000Z</time>
      </trkpt>
      <trkpt lat="43.80316" lon="7.03954">
        <ele>1404</ele>
        <time>2019-06-02T07:28:59.000Z</time>
      </trkpt>
      <trkpt lat="43.80316" lon="7.03944">
        <ele>1405</ele>
        <time>2019-06-02T07:29:04.000Z</time>
      </trkpt>
      <trkpt lat="43.80316" lon="7.03942">
        <ele>1406</ele>
        <time>2019-06-02T07:29:05.000Z</time>
      </trkpt>
      <trkpt lat="43.80315" lon="7.0394">
        <ele>1406</ele>
        <time>2019-06-02T07:29:06.000Z</time>
      </trkpt>
      <trkpt lat="43.80315" lon="7.03938">
        <ele>1406</ele>
        <time>2019-06-02T07:29:07.000Z</time>
      </trkpt>
      <trkpt lat="43.80315" lon="7.03936">
        <ele>1406</ele>
        <time>2019-06-02T07:29:08.000Z</time>
      </trkpt>
      <trkpt lat="43.80315" lon="7.03934">
        <ele>1406</ele>
        <time>2019-06-02T07:29:09.000Z</time>
      </trkpt>
      <trkpt lat="43.80318" lon="7.03928">
        <ele>1406</ele>
        <time>2019-06-02T07:29:12.000Z</time>
      </trkpt>
      <trkpt lat="43.8032" lon="7.03925">
        <ele>1406</ele>
        <time>2019-06-02T07:29:14.000Z</time>
      </trkpt>
      <trkpt lat="43.80321" lon="7.03923">
        <ele>1406</ele>
        <time>2019-06-02T07:29:15.000Z</time>
      </trkpt>
      <trkpt lat="43.80321" lon="7.03921">
        <ele>1405</ele>
        <time>2019-06-02T07:29:16.000Z</time>
      </trkpt>
      <trkpt lat="43.80322" lon="7.03919">
        <ele>1405</ele>
        <time>2019-06-02T07:29:17.000Z</time>
      </trkpt>
      <trkpt lat="43.80325" lon="7.03912">
        <ele>1403</ele>
        <time>2019-06-02T07:29:26.000Z</time>
      </trkpt>
      <trkpt lat="43.80325" lon="7.0391">
        <ele>1403</ele>
        <time>2019-06-02T07:29:29.000Z</time>
      </trkpt>
      <trkpt lat="43.80323" lon="7.03908">
        <ele>1403</ele>
        <time>2019-06-02T07:29:31.000Z</time>
      </trkpt>
      <trkpt lat="43.80321" lon="7.03899">
        <ele>1401</ele>
        <time>2019-06-02T07:29:42.000Z</time>
      </trkpt>
      <trkpt lat="43.80324" lon="7.03896">
        <ele>1401</ele>
        <time>2019-06-02T07:29:47.000Z</time>
      </trkpt>
      <trkpt lat="43.80325" lon="7.03895">
        <ele>1401</ele>
        <time>2019-06-02T07:29:48.000Z</time>
      </trkpt>
      <trkpt lat="43.80325" lon="7.03893">
        <ele>1401</ele>
        <time>2019-06-02T07:29:49.000Z</time>
      </trkpt>
      <trkpt lat="43.80326" lon="7.03891">
        <ele>1400</ele>
        <time>2019-06-02T07:29:50.000Z</time>
      </trkpt>
      <trkpt lat="43.80327" lon="7.03889">
        <ele>1400</ele>
        <time>2019-06-02T07:29:51.000Z</time>
      </trkpt>
      <trkpt lat="43.80327" lon="7.03877">
        <ele>1399</ele>
        <time>2019-06-02T07:29:59.000Z</time>
      </trkpt>
      <trkpt lat="43.80328" lon="7.03866">
        <ele>1399</ele>
        <time>2019-06-02T07:30:04.000Z</time>
      </trkpt>
      <trkpt lat="43.80328" lon="7.03861">
        <ele>1398</ele>
        <time>2019-06-02T07:30:10.000Z</time>
      </trkpt>
      <trkpt lat="43.8033" lon="7.03856">
        <ele>1398</ele>
        <time>2019-06-02T07:30:16.000Z</time>
      </trkpt>
      <trkpt lat="43.8033" lon="7.03855">
        <ele>1398</ele>
        <time>2019-06-02T07:30:17.000Z</time>
      </trkpt>
      <trkpt lat="43.80334" lon="7.0385">
        <ele>1397</ele>
        <time>2019-06-02T07:30:24.000Z</time>
      </trkpt>
      <trkpt lat="43.80335" lon="7.03849">
        <ele>1397</ele>
        <time>2019-06-02T07:30:25.000Z</time>
      </trkpt>
      <trkpt lat="43.80335" lon="7.03848">
        <ele>1397</ele>
        <time>2019-06-02T07:30:26.000Z</time>
      </trkpt>
      <trkpt lat="43.80345" lon="7.03835">
        <ele>1396</ele>
        <time>2019-06-02T07:30:35.000Z</time>
      </trkpt>
      <trkpt lat="43.80348" lon="7.03812">
        <ele>1394</ele>
        <time>2019-06-02T07:30:46.000Z</time>
      </trkpt>
      <trkpt lat="43.80352" lon="7.03805">
        <ele>1392</ele>
        <time>2019-06-02T07:30:51.000Z</time>
      </trkpt>
      <trkpt lat="43.80353" lon="7.03802">
        <ele>1392</ele>
        <time>2019-06-02T07:30:52.000Z</time>
      </trkpt>
      <trkpt lat="43.80354" lon="7.038">
        <ele>1392</ele>
        <time>2019-06-02T07:30:53.000Z</time>
      </trkpt>
      <trkpt lat="43.80354" lon="7.03798">
        <ele>1392</ele>
        <time>2019-06-02T07:30:54.000Z</time>
      </trkpt>
      <trkpt lat="43.80354" lon="7.03796">
        <ele>1392</ele>
        <time>2019-06-02T07:30:55.000Z</time>
      </trkpt>
      <trkpt lat="43.80354" lon="7.03794">
        <ele>1391</ele>
        <time>2019-06-02T07:30:56.000Z</time>
      </trkpt>
      <trkpt lat="43.80355" lon="7.03787">
        <ele>1390</ele>
        <time>2019-06-02T07:31:06.000Z</time>
      </trkpt>
      <trkpt lat="43.80355" lon="7.03788">
        <ele>1391</ele>
        <time>2019-06-02T07:31:08.000Z</time>
      </trkpt>
      <trkpt lat="43.80362" lon="7.03779">
        <ele>1390</ele>
        <time>2019-06-02T07:31:16.000Z</time>
      </trkpt>
      <trkpt lat="43.80373" lon="7.0376">
        <ele>1391</ele>
        <time>2019-06-02T07:31:29.000Z</time>
      </trkpt>
      <trkpt lat="43.80381" lon="7.03749">
        <ele>1391</ele>
        <time>2019-06-02T07:31:41.000Z</time>
      </trkpt>
      <trkpt lat="43.80382" lon="7.03741">
        <ele>1392</ele>
        <time>2019-06-02T07:31:53.000Z</time>
      </trkpt>
      <trkpt lat="43.80381" lon="7.03733">
        <ele>1390</ele>
        <time>2019-06-02T07:32:01.000Z</time>
      </trkpt>
      <trkpt lat="43.80381" lon="7.03731">
        <ele>1390</ele>
        <time>2019-06-02T07:32:02.000Z</time>
      </trkpt>
      <trkpt lat="43.80382" lon="7.0373">
        <ele>1390</ele>
        <time>2019-06-02T07:32:03.000Z</time>
      </trkpt>
      <trkpt lat="43.80383" lon="7.03729">
        <ele>1390</ele>
        <time>2019-06-02T07:32:04.000Z</time>
      </trkpt>
      <trkpt lat="43.80383" lon="7.03728">
        <ele>1390</ele>
        <time>2019-06-02T07:32:05.000Z</time>
      </trkpt>
      <trkpt lat="43.80384" lon="7.03726">
        <ele>1390</ele>
        <time>2019-06-02T07:32:06.000Z</time>
      </trkpt>
      <trkpt lat="43.80385" lon="7.03725">
        <ele>1390</ele>
        <time>2019-06-02T07:32:07.000Z</time>
      </trkpt>
      <trkpt lat="43.80387" lon="7.0372">
        <ele>1389</ele>
        <time>2019-06-02T07:32:20.000Z</time>
      </trkpt>
      <trkpt lat="43.80388" lon="7.03712">
        <ele>1389</ele>
        <time>2019-06-02T07:32:32.000Z</time>
      </trkpt>
      <trkpt lat="43.8039" lon="7.03701">
        <ele>1387</ele>
        <time>2019-06-02T07:32:44.000Z</time>
      </trkpt>
      <trkpt lat="43.80391" lon="7.03699">
        <ele>1387</ele>
        <time>2019-06-02T07:32:46.000Z</time>
      </trkpt>
      <trkpt lat="43.80394" lon="7.03689">
        <ele>1385</ele>
        <time>2019-06-02T07:32:58.000Z</time>
      </trkpt>
      <trkpt lat="43.80394" lon="7.03688">
        <ele>1385</ele>
        <time>2019-06-02T07:32:59.000Z</time>
      </trkpt>
      <trkpt lat="43.80394" lon="7.03685">
        <ele>1384</ele>
        <time>2019-06-02T07:33:02.000Z</time>
      </trkpt>
      <trkpt lat="43.80395" lon="7.03684">
        <ele>1384</ele>
        <time>2019-06-02T07:33:03.000Z</time>
      </trkpt>
      <trkpt lat="43.80396" lon="7.03681">
        <ele>1384</ele>
        <time>2019-06-02T07:33:04.000Z</time>
      </trkpt>
      <trkpt lat="43.80401" lon="7.03671">
        <ele>1383</ele>
        <time>2019-06-02T07:33:13.000Z</time>
      </trkpt>
      <trkpt lat="43.804" lon="7.03667">
        <ele>1383</ele>
        <time>2019-06-02T07:33:16.000Z</time>
      </trkpt>
      <trkpt lat="43.804" lon="7.03665">
        <ele>1383</ele>
        <time>2019-06-02T07:33:17.000Z</time>
      </trkpt>
      <trkpt lat="43.80396" lon="7.03651">
        <ele>1382</ele>
        <time>2019-06-02T07:33:27.000Z</time>
      </trkpt>
      <trkpt lat="43.80399" lon="7.03638">
        <ele>1382</ele>
        <time>2019-06-02T07:33:33.000Z</time>
      </trkpt>
      <trkpt lat="43.80399" lon="7.03635">
        <ele>1382</ele>
        <time>2019-06-02T07:33:34.000Z</time>
      </trkpt>
      <trkpt lat="43.80399" lon="7.03634">
        <ele>1382</ele>
        <time>2019-06-02T07:33:35.000Z</time>
      </trkpt>
      <trkpt lat="43.804" lon="7.03632">
        <ele>1382</ele>
        <time>2019-06-02T07:33:36.000Z</time>
      </trkpt>
      <trkpt lat="43.80399" lon="7.0363">
        <ele>1382</ele>
        <time>2019-06-02T07:33:37.000Z</time>
      </trkpt>
      <trkpt lat="43.80399" lon="7.03628">
        <ele>1382</ele>
        <time>2019-06-02T07:33:38.000Z</time>
      </trkpt>
      <trkpt lat="43.804" lon="7.03625">
        <ele>1382</ele>
        <time>2019-06-02T07:33:39.000Z</time>
      </trkpt>
      <trkpt lat="43.804" lon="7.03623">
        <ele>1382</ele>
        <time>2019-06-02T07:33:40.000Z</time>
      </trkpt>
      <trkpt lat="43.80399" lon="7.03621">
        <ele>1382</ele>
        <time>2019-06-02T07:33:41.000Z</time>
      </trkpt>
      <trkpt lat="43.80398" lon="7.03619">
        <ele>1381</ele>
        <time>2019-06-02T07:33:42.000Z</time>
      </trkpt>
      <trkpt lat="43.80398" lon="7.03616">
        <ele>1380</ele>
        <time>2019-06-02T07:33:43.000Z</time>
      </trkpt>
      <trkpt lat="43.80388" lon="7.03586">
        <ele>1379</ele>
        <time>2019-06-02T07:33:51.000Z</time>
      </trkpt>
      <trkpt lat="43.80387" lon="7.03577">
        <ele>1379</ele>
        <time>2019-06-02T07:34:00.000Z</time>
      </trkpt>
      <trkpt lat="43.8039" lon="7.03556">
        <ele>1379</ele>
        <time>2019-06-02T07:34:12.000Z</time>
      </trkpt>
      <trkpt lat="43.80392" lon="7.03551">
        <ele>1380</ele>
        <time>2019-06-02T07:34:18.000Z</time>
      </trkpt>
      <trkpt lat="43.80405" lon="7.03538">
        <ele>1382</ele>
        <time>2019-06-02T07:34:35.000Z</time>
      </trkpt>
      <trkpt lat="43.8041" lon="7.03527">
        <ele>1382</ele>
        <time>2019-06-02T07:34:46.000Z</time>
      </trkpt>
      <trkpt lat="43.80417" lon="7.03508">
        <ele>1383</ele>
        <time>2019-06-02T07:34:56.000Z</time>
      </trkpt>
      <trkpt lat="43.80427" lon="7.03499">
        <ele>1386</ele>
        <time>2019-06-02T07:35:04.000Z</time>
      </trkpt>
      <trkpt lat="43.80431" lon="7.03496">
        <ele>1387</ele>
        <time>2019-06-02T07:35:15.000Z</time>
      </trkpt>
      <trkpt lat="43.80431" lon="7.03496">
        <ele>1387</ele>
        <time>2019-06-02T07:35:18.000Z</time>
      </trkpt>
      <trkpt lat="43.80436" lon="7.03475">
        <ele>1389</ele>
        <time>2019-06-02T07:35:30.000Z</time>
      </trkpt>
      <trkpt lat="43.80442" lon="7.03457">
        <ele>1393</ele>
        <time>2019-06-02T07:35:41.000Z</time>
      </trkpt>
      <trkpt lat="43.80445" lon="7.03453">
        <ele>1394</ele>
        <time>2019-06-02T07:35:53.000Z</time>
      </trkpt>
      <trkpt lat="43.80447" lon="7.03445">
        <ele>1396</ele>
        <time>2019-06-02T07:36:05.000Z</time>
      </trkpt>
      <trkpt lat="43.80449" lon="7.03439">
        <ele>1397</ele>
        <time>2019-06-02T07:36:20.000Z</time>
      </trkpt>
      <trkpt lat="43.8045" lon="7.03434">
        <ele>1398</ele>
        <time>2019-06-02T07:36:37.000Z</time>
      </trkpt>
      <trkpt lat="43.80449" lon="7.03428">
        <ele>1398</ele>
        <time>2019-06-02T07:36:51.000Z</time>
      </trkpt>
      <trkpt lat="43.80455" lon="7.03422">
        <ele>1399</ele>
        <time>2019-06-02T07:37:07.000Z</time>
      </trkpt>
      <trkpt lat="43.80458" lon="7.03421">
        <ele>1400</ele>
        <time>2019-06-02T07:37:19.000Z</time>
      </trkpt>
      <trkpt lat="43.80459" lon="7.03421">
        <ele>1400</ele>
        <time>2019-06-02T07:37:38.000Z</time>
      </trkpt>
      <trkpt lat="43.80458" lon="7.03421">
        <ele>1400</ele>
        <time>2019-06-02T07:37:46.000Z</time>
      </trkpt>
      <trkpt lat="43.80458" lon="7.0342">
        <ele>1400</ele>
        <time>2019-06-02T07:38:03.000Z</time>
      </trkpt>
      <trkpt lat="43.80458" lon="7.0342">
        <ele>1401</ele>
        <time>2019-06-02T07:38:38.000Z</time>
      </trkpt>
      <trkpt lat="43.80458" lon="7.0342">
        <ele>1401</ele>
        <time>2019-06-02T07:38:56.000Z</time>
      </trkpt>
      <trkpt lat="43.8046" lon="7.03431">
        <ele>1401</ele>
        <time>2019-06-02T07:39:05.000Z</time>
      </trkpt>
      <trkpt lat="43.80465" lon="7.03437">
        <ele>1404</ele>
        <time>2019-06-02T07:39:17.000Z</time>
      </trkpt>
      <trkpt lat="43.80469" lon="7.03434">
        <ele>1405</ele>
        <time>2019-06-02T07:39:28.000Z</time>
      </trkpt>
      <trkpt lat="43.80472" lon="7.03429">
        <ele>1408</ele>
        <time>2019-06-02T07:39:39.000Z</time>
      </trkpt>
      <trkpt lat="43.80475" lon="7.03422">
        <ele>1409</ele>
        <time>2019-06-02T07:39:53.000Z</time>
      </trkpt>
      <trkpt lat="43.80482" lon="7.03409">
        <ele>1413</ele>
        <time>2019-06-02T07:40:08.000Z</time>
      </trkpt>
      <trkpt lat="43.80487" lon="7.03407">
        <ele>1415</ele>
        <time>2019-06-02T07:40:20.000Z</time>
      </trkpt>
      <trkpt lat="43.80498" lon="7.03407">
        <ele>1418</ele>
        <time>2019-06-02T07:40:37.000Z</time>
      </trkpt>
      <trkpt lat="43.80503" lon="7.03403">
        <ele>1419</ele>
        <time>2019-06-02T07:40:48.000Z</time>
      </trkpt>
      <trkpt lat="43.80503" lon="7.03403">
        <ele>1419</ele>
        <time>2019-06-02T07:40:49.000Z</time>
      </trkpt>
      <trkpt lat="43.80506" lon="7.03397">
        <ele>1420</ele>
        <time>2019-06-02T07:40:55.000Z</time>
      </trkpt>
      <trkpt lat="43.8051" lon="7.03393">
        <ele>1421</ele>
        <time>2019-06-02T07:41:00.000Z</time>
      </trkpt>
      <trkpt lat="43.80513" lon="7.03391">
        <ele>1422</ele>
        <time>2019-06-02T07:41:04.000Z</time>
      </trkpt>
      <trkpt lat="43.80526" lon="7.03378">
        <ele>1422</ele>
        <time>2019-06-02T07:41:20.000Z</time>
      </trkpt>
      <trkpt lat="43.80535" lon="7.03365">
        <ele>1421</ele>
        <time>2019-06-02T07:41:25.000Z</time>
      </trkpt>
      <trkpt lat="43.80553" lon="7.03331">
        <ele>1420</ele>
        <time>2019-06-02T07:41:34.000Z</time>
      </trkpt>
      <trkpt lat="43.80558" lon="7.03311">
        <ele>1418</ele>
        <time>2019-06-02T07:41:37.000Z</time>
      </trkpt>
      <trkpt lat="43.8056" lon="7.03304">
        <ele>1418</ele>
        <time>2019-06-02T07:41:38.000Z</time>
      </trkpt>
      <trkpt lat="43.80562" lon="7.03298">
        <ele>1418</ele>
        <time>2019-06-02T07:41:39.000Z</time>
      </trkpt>
      <trkpt lat="43.80563" lon="7.03293">
        <ele>1417</ele>
        <time>2019-06-02T07:41:40.000Z</time>
      </trkpt>
      <trkpt lat="43.80565" lon="7.03289">
        <ele>1417</ele>
        <time>2019-06-02T07:41:41.000Z</time>
      </trkpt>
      <trkpt lat="43.80568" lon="7.03279">
        <ele>1417</ele>
        <time>2019-06-02T07:41:44.000Z</time>
      </trkpt>
      <trkpt lat="43.80569" lon="7.03276">
        <ele>1417</ele>
        <time>2019-06-02T07:41:45.000Z</time>
      </trkpt>
      <trkpt lat="43.8057" lon="7.03274">
        <ele>1417</ele>
        <time>2019-06-02T07:41:46.000Z</time>
      </trkpt>
      <trkpt lat="43.80571" lon="7.03271">
        <ele>1417</ele>
        <time>2019-06-02T07:41:47.000Z</time>
      </trkpt>
      <trkpt lat="43.80572" lon="7.03268">
        <ele>1417</ele>
        <time>2019-06-02T07:41:48.000Z</time>
      </trkpt>
      <trkpt lat="43.80572" lon="7.03265">
        <ele>1417</ele>
        <time>2019-06-02T07:41:49.000Z</time>
      </trkpt>
      <trkpt lat="43.8058" lon="7.03229">
        <ele>1415</ele>
        <time>2019-06-02T07:41:59.000Z</time>
      </trkpt>
      <trkpt lat="43.8058" lon="7.03225">
        <ele>1415</ele>
        <time>2019-06-02T07:42:00.000Z</time>
      </trkpt>
      <trkpt lat="43.80581" lon="7.03221">
        <ele>1415</ele>
        <time>2019-06-02T07:42:01.000Z</time>
      </trkpt>
      <trkpt lat="43.80583" lon="7.03218">
        <ele>1414</ele>
        <time>2019-06-02T07:42:02.000Z</time>
      </trkpt>
      <trkpt lat="43.80585" lon="7.03215">
        <ele>1414</ele>
        <time>2019-06-02T07:42:03.000Z</time>
      </trkpt>
      <trkpt lat="43.80587" lon="7.03212">
        <ele>1414</ele>
        <time>2019-06-02T07:42:04.000Z</time>
      </trkpt>
      <trkpt lat="43.80588" lon="7.03211">
        <ele>1414</ele>
        <time>2019-06-02T07:42:05.000Z</time>
      </trkpt>
      <trkpt lat="43.8059" lon="7.03208">
        <ele>1414</ele>
        <time>2019-06-02T07:42:06.000Z</time>
      </trkpt>
      <trkpt lat="43.80591" lon="7.03206">
        <ele>1415</ele>
        <time>2019-06-02T07:42:07.000Z</time>
      </trkpt>
      <trkpt lat="43.80591" lon="7.03203">
        <ele>1415</ele>
        <time>2019-06-02T07:42:08.000Z</time>
      </trkpt>
      <trkpt lat="43.80592" lon="7.032">
        <ele>1415</ele>
        <time>2019-06-02T07:42:09.000Z</time>
      </trkpt>
      <trkpt lat="43.80592" lon="7.03196">
        <ele>1415</ele>
        <time>2019-06-02T07:42:10.000Z</time>
      </trkpt>
      <trkpt lat="43.80593" lon="7.03193">
        <ele>1415</ele>
        <time>2019-06-02T07:42:11.000Z</time>
      </trkpt>
      <trkpt lat="43.80593" lon="7.03191">
        <ele>1415</ele>
        <time>2019-06-02T07:42:12.000Z</time>
      </trkpt>
      <trkpt lat="43.80597" lon="7.03166">
        <ele>1416</ele>
        <time>2019-06-02T07:42:22.000Z</time>
      </trkpt>
      <trkpt lat="43.80597" lon="7.03163">
        <ele>1416</ele>
        <time>2019-06-02T07:42:23.000Z</time>
      </trkpt>
      <trkpt lat="43.80598" lon="7.0316">
        <ele>1416</ele>
        <time>2019-06-02T07:42:24.000Z</time>
      </trkpt>
      <trkpt lat="43.80599" lon="7.03149">
        <ele>1416</ele>
        <time>2019-06-02T07:42:29.000Z</time>
      </trkpt>
      <trkpt lat="43.806" lon="7.03147">
        <ele>1416</ele>
        <time>2019-06-02T07:42:30.000Z</time>
      </trkpt>
      <trkpt lat="43.806" lon="7.03146">
        <ele>1416</ele>
        <time>2019-06-02T07:42:31.000Z</time>
      </trkpt>
      <trkpt lat="43.806" lon="7.03144">
        <ele>1416</ele>
        <time>2019-06-02T07:42:41.000Z</time>
      </trkpt>
      <trkpt lat="43.80601" lon="7.03143">
        <ele>1416</ele>
        <time>2019-06-02T07:43:12.000Z</time>
      </trkpt>
      <trkpt lat="43.80601" lon="7.03142">
        <ele>1416</ele>
        <time>2019-06-02T07:43:35.000Z</time>
      </trkpt>
      <trkpt lat="43.80601" lon="7.03142">
        <ele>1416</ele>
        <time>2019-06-02T07:44:00.000Z</time>
      </trkpt>
      <trkpt lat="43.80602" lon="7.03142">
        <ele>1415</ele>
        <time>2019-06-02T07:44:32.000Z</time>
      </trkpt>
      <trkpt lat="43.80601" lon="7.03142">
        <ele>1415</ele>
        <time>2019-06-02T07:44:34.000Z</time>
      </trkpt>
      <trkpt lat="43.806" lon="7.03143">
        <ele>1415</ele>
        <time>2019-06-02T07:44:47.000Z</time>
      </trkpt>
      <trkpt lat="43.806" lon="7.03143">
        <ele>1414</ele>
        <time>2019-06-02T07:45:21.000Z</time>
      </trkpt>
      <trkpt lat="43.806" lon="7.03144">
        <ele>1414</ele>
        <time>2019-06-02T07:45:51.000Z</time>
      </trkpt>
      <trkpt lat="43.806" lon="7.03143">
        <ele>1416</ele>
        <time>2019-06-02T07:45:59.000Z</time>
      </trkpt>
      <trkpt lat="43.806" lon="7.03142">
        <ele>1416</ele>
        <time>2019-06-02T07:46:00.000Z</time>
      </trkpt>
      <trkpt lat="43.806" lon="7.03143">
        <ele>1416</ele>
        <time>2019-06-02T07:46:20.000Z</time>
      </trkpt>
      <trkpt lat="43.806" lon="7.03143">
        <ele>1416</ele>
        <time>2019-06-02T07:46:58.000Z</time>
      </trkpt>
      <trkpt lat="43.806" lon="7.03141">
        <ele>1416</ele>
        <time>2019-06-02T07:47:17.000Z</time>
      </trkpt>
      <trkpt lat="43.806" lon="7.0314">
        <ele>1416</ele>
        <time>2019-06-02T07:47:37.000Z</time>
      </trkpt>
      <trkpt lat="43.80601" lon="7.03137">
        <ele>1416</ele>
        <time>2019-06-02T07:47:55.000Z</time>
      </trkpt>
      <trkpt lat="43.80601" lon="7.03137">
        <ele>1416</ele>
        <time>2019-06-02T07:48:10.000Z</time>
      </trkpt>
      <trkpt lat="43.80601" lon="7.03135">
        <ele>1416</ele>
        <time>2019-06-02T07:48:20.000Z</time>
      </trkpt>
      <trkpt lat="43.80606" lon="7.03129">
        <ele>1416</ele>
        <time>2019-06-02T07:48:24.000Z</time>
      </trkpt>
      <trkpt lat="43.80606" lon="7.03127">
        <ele>1416</ele>
        <time>2019-06-02T07:48:25.000Z</time>
      </trkpt>
      <trkpt lat="43.80606" lon="7.03125">
        <ele>1416</ele>
        <time>2019-06-02T07:48:26.000Z</time>
      </trkpt>
      <trkpt lat="43.80607" lon="7.03123">
        <ele>1416</ele>
        <time>2019-06-02T07:48:27.000Z</time>
      </trkpt>
      <trkpt lat="43.80608" lon="7.03122">
        <ele>1416</ele>
        <time>2019-06-02T07:48:28.000Z</time>
      </trkpt>
      <trkpt lat="43.80609" lon="7.0312">
        <ele>1416</ele>
        <time>2019-06-02T07:48:29.000Z</time>
      </trkpt>
      <trkpt lat="43.8061" lon="7.03118">
        <ele>1416</ele>
        <time>2019-06-02T07:48:30.000Z</time>
      </trkpt>
      <trkpt lat="43.80611" lon="7.03116">
        <ele>1416</ele>
        <time>2019-06-02T07:48:31.000Z</time>
      </trkpt>
      <trkpt lat="43.80617" lon="7.03104">
        <ele>1417</ele>
        <time>2019-06-02T07:48:39.000Z</time>
      </trkpt>
      <trkpt lat="43.80618" lon="7.03103">
        <ele>1417</ele>
        <time>2019-06-02T07:48:40.000Z</time>
      </trkpt>
      <trkpt lat="43.80619" lon="7.03101">
        <ele>1417</ele>
        <time>2019-06-02T07:48:41.000Z</time>
      </trkpt>
      <trkpt lat="43.8062" lon="7.03099">
        <ele>1417</ele>
        <time>2019-06-02T07:48:42.000Z</time>
      </trkpt>
      <trkpt lat="43.80621" lon="7.03098">
        <ele>1417</ele>
        <time>2019-06-02T07:48:43.000Z</time>
      </trkpt>
      <trkpt lat="43.80622" lon="7.03096">
        <ele>1417</ele>
        <time>2019-06-02T07:48:44.000Z</time>
      </trkpt>
      <trkpt lat="43.80622" lon="7.03094">
        <ele>1417</ele>
        <time>2019-06-02T07:48:45.000Z</time>
      </trkpt>
      <trkpt lat="43.80628" lon="7.03081">
        <ele>1417</ele>
        <time>2019-06-02T07:48:55.000Z</time>
      </trkpt>
      <trkpt lat="43.80635" lon="7.03058">
        <ele>1417</ele>
        <time>2019-06-02T07:49:07.000Z</time>
      </trkpt>
      <trkpt lat="43.80651" lon="7.03038">
        <ele>1418</ele>
        <time>2019-06-02T07:49:20.000Z</time>
      </trkpt>
      <trkpt lat="43.80663" lon="7.0303">
        <ele>1420</ele>
        <time>2019-06-02T07:49:29.000Z</time>
      </trkpt>
      <trkpt lat="43.80664" lon="7.0303">
        <ele>1420</ele>
        <time>2019-06-02T07:49:30.000Z</time>
      </trkpt>
      <trkpt lat="43.80665" lon="7.0303">
        <ele>1420</ele>
        <time>2019-06-02T07:49:31.000Z</time>
      </trkpt>
      <trkpt lat="43.80666" lon="7.03031">
        <ele>1420</ele>
        <time>2019-06-02T07:49:32.000Z</time>
      </trkpt>
      <trkpt lat="43.80668" lon="7.0303">
        <ele>1420</ele>
        <time>2019-06-02T07:49:33.000Z</time>
      </trkpt>
      <trkpt lat="43.80669" lon="7.0303">
        <ele>1420</ele>
        <time>2019-06-02T07:49:34.000Z</time>
      </trkpt>
      <trkpt lat="43.8067" lon="7.03029">
        <ele>1420</ele>
        <time>2019-06-02T07:49:35.000Z</time>
      </trkpt>
      <trkpt lat="43.80672" lon="7.03028">
        <ele>1420</ele>
        <time>2019-06-02T07:49:36.000Z</time>
      </trkpt>
      <trkpt lat="43.80673" lon="7.03028">
        <ele>1421</ele>
        <time>2019-06-02T07:49:37.000Z</time>
      </trkpt>
      <trkpt lat="43.80674" lon="7.03027">
        <ele>1421</ele>
        <time>2019-06-02T07:49:38.000Z</time>
      </trkpt>
      <trkpt lat="43.80675" lon="7.03027">
        <ele>1421</ele>
        <time>2019-06-02T07:49:39.000Z</time>
      </trkpt>
      <trkpt lat="43.80677" lon="7.03026">
        <ele>1421</ele>
        <time>2019-06-02T07:49:40.000Z</time>
      </trkpt>
      <trkpt lat="43.80678" lon="7.03025">
        <ele>1422</ele>
        <time>2019-06-02T07:49:54.000Z</time>
      </trkpt>
      <trkpt lat="43.8068" lon="7.03024">
        <ele>1422</ele>
        <time>2019-06-02T07:49:56.000Z</time>
      </trkpt>
      <trkpt lat="43.80686" lon="7.03019">
        <ele>1424</ele>
        <time>2019-06-02T07:50:06.000Z</time>
      </trkpt>
      <trkpt lat="43.80687" lon="7.03016">
        <ele>1424</ele>
        <time>2019-06-02T07:50:09.000Z</time>
      </trkpt>
      <trkpt lat="43.80687" lon="7.03015">
        <ele>1425</ele>
        <time>2019-06-02T07:50:10.000Z</time>
      </trkpt>
      <trkpt lat="43.8069" lon="7.0301">
        <ele>1425</ele>
        <time>2019-06-02T07:50:15.000Z</time>
      </trkpt>
      <trkpt lat="43.80696" lon="7.03005">
        <ele>1426</ele>
        <time>2019-06-02T07:50:22.000Z</time>
      </trkpt>
      <trkpt lat="43.80706" lon="7.02998">
        <ele>1428</ele>
        <time>2019-06-02T07:50:36.000Z</time>
      </trkpt>
      <trkpt lat="43.80718" lon="7.02988">
        <ele>1431</ele>
        <time>2019-06-02T07:50:52.000Z</time>
      </trkpt>
      <trkpt lat="43.80725" lon="7.02986">
        <ele>1432</ele>
        <time>2019-06-02T07:51:02.000Z</time>
      </trkpt>
      <trkpt lat="43.80732" lon="7.02984">
        <ele>1433</ele>
        <time>2019-06-02T07:51:16.000Z</time>
      </trkpt>
      <trkpt lat="43.80734" lon="7.02984">
        <ele>1433</ele>
        <time>2019-06-02T07:51:23.000Z</time>
      </trkpt>
      <trkpt lat="43.80734" lon="7.02986">
        <ele>1433</ele>
        <time>2019-06-02T07:51:24.000Z</time>
      </trkpt>
      <trkpt lat="43.80734" lon="7.02987">
        <ele>1433</ele>
        <time>2019-06-02T07:51:25.000Z</time>
      </trkpt>
      <trkpt lat="43.80735" lon="7.02989">
        <ele>1433</ele>
        <time>2019-06-02T07:51:26.000Z</time>
      </trkpt>
      <trkpt lat="43.80735" lon="7.0299">
        <ele>1433</ele>
        <time>2019-06-02T07:51:27.000Z</time>
      </trkpt>
      <trkpt lat="43.80738" lon="7.02997">
        <ele>1434</ele>
        <time>2019-06-02T07:51:33.000Z</time>
      </trkpt>
      <trkpt lat="43.8074" lon="7.02997">
        <ele>1435</ele>
        <time>2019-06-02T07:51:35.000Z</time>
      </trkpt>
      <trkpt lat="43.80752" lon="7.02989">
        <ele>1437</ele>
        <time>2019-06-02T07:51:49.000Z</time>
      </trkpt>
      <trkpt lat="43.8076" lon="7.02975">
        <ele>1439</ele>
        <time>2019-06-02T07:51:59.000Z</time>
      </trkpt>
      <trkpt lat="43.80771" lon="7.02957">
        <ele>1442</ele>
        <time>2019-06-02T07:52:10.000Z</time>
      </trkpt>
      <trkpt lat="43.80783" lon="7.02932">
        <ele>1444</ele>
        <time>2019-06-02T07:52:25.000Z</time>
      </trkpt>
      <trkpt lat="43.80789" lon="7.02914">
        <ele>1445</ele>
        <time>2019-06-02T07:52:35.000Z</time>
      </trkpt>
      <trkpt lat="43.8079" lon="7.02912">
        <ele>1445</ele>
        <time>2019-06-02T07:52:36.000Z</time>
      </trkpt>
      <trkpt lat="43.80792" lon="7.0291">
        <ele>1445</ele>
        <time>2019-06-02T07:52:37.000Z</time>
      </trkpt>
      <trkpt lat="43.80792" lon="7.02909">
        <ele>1445</ele>
        <time>2019-06-02T07:52:38.000Z</time>
      </trkpt>
      <trkpt lat="43.80794" lon="7.02907">
        <ele>1445</ele>
        <time>2019-06-02T07:52:39.000Z</time>
      </trkpt>
      <trkpt lat="43.80807" lon="7.02889">
        <ele>1447</ele>
        <time>2019-06-02T07:52:53.000Z</time>
      </trkpt>
      <trkpt lat="43.8082" lon="7.02871">
        <ele>1445</ele>
        <time>2019-06-02T07:53:04.000Z</time>
      </trkpt>
      <trkpt lat="43.80821" lon="7.02868">
        <ele>1445</ele>
        <time>2019-06-02T07:53:05.000Z</time>
      </trkpt>
      <trkpt lat="43.80823" lon="7.02864">
        <ele>1445</ele>
        <time>2019-06-02T07:53:06.000Z</time>
      </trkpt>
      <trkpt lat="43.80824" lon="7.02861">
        <ele>1445</ele>
        <time>2019-06-02T07:53:07.000Z</time>
      </trkpt>
      <trkpt lat="43.80825" lon="7.02859">
        <ele>1445</ele>
        <time>2019-06-02T07:53:08.000Z</time>
      </trkpt>
      <trkpt lat="43.80826" lon="7.02857">
        <ele>1444</ele>
        <time>2019-06-02T07:53:10.000Z</time>
      </trkpt>
      <trkpt lat="43.80827" lon="7.02856">
        <ele>1444</ele>
        <time>2019-06-02T07:53:11.000Z</time>
      </trkpt>
      <trkpt lat="43.80828" lon="7.02854">
        <ele>1444</ele>
        <time>2019-06-02T07:53:12.000Z</time>
      </trkpt>
      <trkpt lat="43.80844" lon="7.0282">
        <ele>1442</ele>
        <time>2019-06-02T07:53:22.000Z</time>
      </trkpt>
      <trkpt lat="43.80849" lon="7.02809">
        <ele>1441</ele>
        <time>2019-06-02T07:53:25.000Z</time>
      </trkpt>
      <trkpt lat="43.80852" lon="7.02805">
        <ele>1440</ele>
        <time>2019-06-02T07:53:26.000Z</time>
      </trkpt>
      <trkpt lat="43.80854" lon="7.028">
        <ele>1440</ele>
        <time>2019-06-02T07:53:27.000Z</time>
      </trkpt>
      <trkpt lat="43.80857" lon="7.02795">
        <ele>1440</ele>
        <time>2019-06-02T07:53:28.000Z</time>
      </trkpt>
      <trkpt lat="43.80859" lon="7.02789">
        <ele>1440</ele>
        <time>2019-06-02T07:53:29.000Z</time>
      </trkpt>
      <trkpt lat="43.80861" lon="7.02784">
        <ele>1439</ele>
        <time>2019-06-02T07:53:30.000Z</time>
      </trkpt>
      <trkpt lat="43.80863" lon="7.02779">
        <ele>1439</ele>
        <time>2019-06-02T07:53:31.000Z</time>
      </trkpt>
      <trkpt lat="43.80881" lon="7.02737">
        <ele>1438</ele>
        <time>2019-06-02T07:53:40.000Z</time>
      </trkpt>
      <trkpt lat="43.80895" lon="7.02705">
        <ele>1436</ele>
        <time>2019-06-02T07:53:47.000Z</time>
      </trkpt>
      <trkpt lat="43.80897" lon="7.02699">
        <ele>1436</ele>
        <time>2019-06-02T07:53:48.000Z</time>
      </trkpt>
      <trkpt lat="43.809" lon="7.02694">
        <ele>1436</ele>
        <time>2019-06-02T07:53:49.000Z</time>
      </trkpt>
      <trkpt lat="43.80916" lon="7.02661">
        <ele>1434</ele>
        <time>2019-06-02T07:53:55.000Z</time>
      </trkpt>
      <trkpt lat="43.80917" lon="7.02655">
        <ele>1434</ele>
        <time>2019-06-02T07:53:56.000Z</time>
      </trkpt>
      <trkpt lat="43.80929" lon="7.0262">
        <ele>1434</ele>
        <time>2019-06-02T07:54:06.000Z</time>
      </trkpt>
      <trkpt lat="43.8094" lon="7.02594">
        <ele>1434</ele>
        <time>2019-06-02T07:54:15.000Z</time>
      </trkpt>
      <trkpt lat="43.8095" lon="7.02568">
        <ele>1434</ele>
        <time>2019-06-02T07:54:22.000Z</time>
      </trkpt>
      <trkpt lat="43.80964" lon="7.02531">
        <ele>1433</ele>
        <time>2019-06-02T07:54:32.000Z</time>
      </trkpt>
      <trkpt lat="43.80966" lon="7.02525">
        <ele>1435</ele>
        <time>2019-06-02T07:54:34.000Z</time>
      </trkpt>
      <trkpt lat="43.80986" lon="7.02481">
        <ele>1433</ele>
        <time>2019-06-02T07:54:44.000Z</time>
      </trkpt>
      <trkpt lat="43.80989" lon="7.02476">
        <ele>1433</ele>
        <time>2019-06-02T07:54:45.000Z</time>
      </trkpt>
      <trkpt lat="43.80992" lon="7.02472">
        <ele>1433</ele>
        <time>2019-06-02T07:54:46.000Z</time>
      </trkpt>
      <trkpt lat="43.80995" lon="7.02467">
        <ele>1433</ele>
        <time>2019-06-02T07:54:47.000Z</time>
      </trkpt>
      <trkpt lat="43.80998" lon="7.02463">
        <ele>1433</ele>
        <time>2019-06-02T07:54:48.000Z</time>
      </trkpt>
      <trkpt lat="43.81001" lon="7.0246">
        <ele>1433</ele>
        <time>2019-06-02T07:54:49.000Z</time>
      </trkpt>
      <trkpt lat="43.81003" lon="7.02458">
        <ele>1433</ele>
        <time>2019-06-02T07:54:50.000Z</time>
      </trkpt>
      <trkpt lat="43.81006" lon="7.02455">
        <ele>1433</ele>
        <time>2019-06-02T07:54:51.000Z</time>
      </trkpt>
      <trkpt lat="43.81009" lon="7.02452">
        <ele>1433</ele>
        <time>2019-06-02T07:54:52.000Z</time>
      </trkpt>
      <trkpt lat="43.81013" lon="7.0245">
        <ele>1433</ele>
        <time>2019-06-02T07:54:53.000Z</time>
      </trkpt>
      <trkpt lat="43.81018" lon="7.02448">
        <ele>1432</ele>
        <time>2019-06-02T07:54:54.000Z</time>
      </trkpt>
      <trkpt lat="43.81022" lon="7.02445">
        <ele>1432</ele>
        <time>2019-06-02T07:54:55.000Z</time>
      </trkpt>
      <trkpt lat="43.81026" lon="7.02441">
        <ele>1432</ele>
        <time>2019-06-02T07:54:56.000Z</time>
      </trkpt>
      <trkpt lat="43.81029" lon="7.02437">
        <ele>1432</ele>
        <time>2019-06-02T07:54:57.000Z</time>
      </trkpt>
      <trkpt lat="43.81031" lon="7.02433">
        <ele>1432</ele>
        <time>2019-06-02T07:54:58.000Z</time>
      </trkpt>
      <trkpt lat="43.81033" lon="7.0243">
        <ele>1432</ele>
        <time>2019-06-02T07:54:59.000Z</time>
      </trkpt>
      <trkpt lat="43.81036" lon="7.02426">
        <ele>1432</ele>
        <time>2019-06-02T07:55:00.000Z</time>
      </trkpt>
      <trkpt lat="43.81038" lon="7.02422">
        <ele>1432</ele>
        <time>2019-06-02T07:55:01.000Z</time>
      </trkpt>
      <trkpt lat="43.81039" lon="7.02418">
        <ele>1432</ele>
        <time>2019-06-02T07:55:02.000Z</time>
      </trkpt>
      <trkpt lat="43.81042" lon="7.02398">
        <ele>1431</ele>
        <time>2019-06-02T07:55:06.000Z</time>
      </trkpt>
      <trkpt lat="43.81042" lon="7.02392">
        <ele>1431</ele>
        <time>2019-06-02T07:55:07.000Z</time>
      </trkpt>
      <trkpt lat="43.81043" lon="7.02375">
        <ele>1431</ele>
        <time>2019-06-02T07:55:10.000Z</time>
      </trkpt>
      <trkpt lat="43.81044" lon="7.0237">
        <ele>1430</ele>
        <time>2019-06-02T07:55:11.000Z</time>
      </trkpt>
      <trkpt lat="43.81045" lon="7.02365">
        <ele>1429</ele>
        <time>2019-06-02T07:55:12.000Z</time>
      </trkpt>
      <trkpt lat="43.81046" lon="7.02361">
        <ele>1429</ele>
        <time>2019-06-02T07:55:13.000Z</time>
      </trkpt>
      <trkpt lat="43.81046" lon="7.02356">
        <ele>1429</ele>
        <time>2019-06-02T07:55:14.000Z</time>
      </trkpt>
      <trkpt lat="43.81053" lon="7.02319">
        <ele>1428</ele>
        <time>2019-06-02T07:55:22.000Z</time>
      </trkpt>
      <trkpt lat="43.81054" lon="7.02315">
        <ele>1428</ele>
        <time>2019-06-02T07:55:23.000Z</time>
      </trkpt>
      <trkpt lat="43.81055" lon="7.0231">
        <ele>1428</ele>
        <time>2019-06-02T07:55:24.000Z</time>
      </trkpt>
      <trkpt lat="43.81056" lon="7.02305">
        <ele>1427</ele>
        <time>2019-06-02T07:55:25.000Z</time>
      </trkpt>
      <trkpt lat="43.81056" lon="7.02299">
        <ele>1427</ele>
        <time>2019-06-02T07:55:26.000Z</time>
      </trkpt>
      <trkpt lat="43.81055" lon="7.02294">
        <ele>1427</ele>
        <time>2019-06-02T07:55:27.000Z</time>
      </trkpt>
      <trkpt lat="43.81054" lon="7.02289">
        <ele>1427</ele>
        <time>2019-06-02T07:55:28.000Z</time>
      </trkpt>
      <trkpt lat="43.81055" lon="7.02285">
        <ele>1427</ele>
        <time>2019-06-02T07:55:29.000Z</time>
      </trkpt>
      <trkpt lat="43.81056" lon="7.02281">
        <ele>1427</ele>
        <time>2019-06-02T07:55:30.000Z</time>
      </trkpt>
      <trkpt lat="43.81058" lon="7.02275">
        <ele>1426</ele>
        <time>2019-06-02T07:55:31.000Z</time>
      </trkpt>
      <trkpt lat="43.81063" lon="7.02257">
        <ele>1424</ele>
        <time>2019-06-02T07:55:34.000Z</time>
      </trkpt>
      <trkpt lat="43.81064" lon="7.02251">
        <ele>1424</ele>
        <time>2019-06-02T07:55:35.000Z</time>
      </trkpt>
      <trkpt lat="43.81066" lon="7.02246">
        <ele>1424</ele>
        <time>2019-06-02T07:55:36.000Z</time>
      </trkpt>
      <trkpt lat="43.81068" lon="7.0224">
        <ele>1423</ele>
        <time>2019-06-02T07:55:37.000Z</time>
      </trkpt>
      <trkpt lat="43.81071" lon="7.02235">
        <ele>1423</ele>
        <time>2019-06-02T07:55:38.000Z</time>
      </trkpt>
      <trkpt lat="43.81076" lon="7.02222">
        <ele>1421</ele>
        <time>2019-06-02T07:55:40.000Z</time>
      </trkpt>
      <trkpt lat="43.81078" lon="7.02215">
        <ele>1420</ele>
        <time>2019-06-02T07:55:41.000Z</time>
      </trkpt>
      <trkpt lat="43.81079" lon="7.0221">
        <ele>1420</ele>
        <time>2019-06-02T07:55:42.000Z</time>
      </trkpt>
      <trkpt lat="43.81079" lon="7.02208">
        <ele>1420</ele>
        <time>2019-06-02T07:55:43.000Z</time>
      </trkpt>
      <trkpt lat="43.8108" lon="7.02205">
        <ele>1420</ele>
        <time>2019-06-02T07:55:44.000Z</time>
      </trkpt>
      <trkpt lat="43.8108" lon="7.02201">
        <ele>1420</ele>
        <time>2019-06-02T07:55:45.000Z</time>
      </trkpt>
      <trkpt lat="43.81079" lon="7.02198">
        <ele>1422</ele>
        <time>2019-06-02T07:55:46.000Z</time>
      </trkpt>
      <trkpt lat="43.81079" lon="7.02194">
        <ele>1422</ele>
        <time>2019-06-02T07:55:47.000Z</time>
      </trkpt>
      <trkpt lat="43.81079" lon="7.02191">
        <ele>1422</ele>
        <time>2019-06-02T07:55:48.000Z</time>
      </trkpt>
      <trkpt lat="43.8108" lon="7.02187">
        <ele>1423</ele>
        <time>2019-06-02T07:55:49.000Z</time>
      </trkpt>
      <trkpt lat="43.8108" lon="7.02183">
        <ele>1423</ele>
        <time>2019-06-02T07:55:50.000Z</time>
      </trkpt>
      <trkpt lat="43.81081" lon="7.02179">
        <ele>1423</ele>
        <time>2019-06-02T07:55:51.000Z</time>
      </trkpt>
      <trkpt lat="43.81082" lon="7.02175">
        <ele>1423</ele>
        <time>2019-06-02T07:55:52.000Z</time>
      </trkpt>
      <trkpt lat="43.8109" lon="7.02129">
        <ele>1425</ele>
        <time>2019-06-02T07:56:04.000Z</time>
      </trkpt>
      <trkpt lat="43.8109" lon="7.02128">
        <ele>1425</ele>
        <time>2019-06-02T07:56:05.000Z</time>
      </trkpt>
      <trkpt lat="43.81091" lon="7.02126">
        <ele>1425</ele>
        <time>2019-06-02T07:56:21.000Z</time>
      </trkpt>
      <trkpt lat="43.81089" lon="7.02125">
        <ele>1423</ele>
        <time>2019-06-02T07:56:45.000Z</time>
      </trkpt>
      <trkpt lat="43.8109" lon="7.02126">
        <ele>1424</ele>
        <time>2019-06-02T07:57:10.000Z</time>
      </trkpt>
      <trkpt lat="43.8109" lon="7.02124">
        <ele>1424</ele>
        <time>2019-06-02T07:57:24.000Z</time>
      </trkpt>
      <trkpt lat="43.81092" lon="7.02121">
        <ele>1424</ele>
        <time>2019-06-02T07:57:36.000Z</time>
      </trkpt>
      <trkpt lat="43.81096" lon="7.02097">
        <ele>1423</ele>
        <time>2019-06-02T07:57:49.000Z</time>
      </trkpt>
      <trkpt lat="43.81102" lon="7.02069">
        <ele>1422</ele>
        <time>2019-06-02T07:57:55.000Z</time>
      </trkpt>
      <trkpt lat="43.81103" lon="7.02063">
        <ele>1422</ele>
        <time>2019-06-02T07:57:56.000Z</time>
      </trkpt>
      <trkpt lat="43.81103" lon="7.02058">
        <ele>1422</ele>
        <time>2019-06-02T07:57:57.000Z</time>
      </trkpt>
      <trkpt lat="43.81104" lon="7.02054">
        <ele>1422</ele>
        <time>2019-06-02T07:57:58.000Z</time>
      </trkpt>
      <trkpt lat="43.81105" lon="7.02049">
        <ele>1422</ele>
        <time>2019-06-02T07:57:59.000Z</time>
      </trkpt>
      <trkpt lat="43.81106" lon="7.02044">
        <ele>1422</ele>
        <time>2019-06-02T07:58:00.000Z</time>
      </trkpt>
      <trkpt lat="43.81107" lon="7.02039">
        <ele>1422</ele>
        <time>2019-06-02T07:58:01.000Z</time>
      </trkpt>
      <trkpt lat="43.81108" lon="7.02033">
        <ele>1422</ele>
        <time>2019-06-02T07:58:02.000Z</time>
      </trkpt>
      <trkpt lat="43.81108" lon="7.02029">
        <ele>1422</ele>
        <time>2019-06-02T07:58:03.000Z</time>
      </trkpt>
      <trkpt lat="43.81109" lon="7.02025">
        <ele>1422</ele>
        <time>2019-06-02T07:58:04.000Z</time>
      </trkpt>
      <trkpt lat="43.81111" lon="7.02021">
        <ele>1422</ele>
        <time>2019-06-02T07:58:05.000Z</time>
      </trkpt>
      <trkpt lat="43.81112" lon="7.02017">
        <ele>1422</ele>
        <time>2019-06-02T07:58:06.000Z</time>
      </trkpt>
      <trkpt lat="43.81114" lon="7.02013">
        <ele>1422</ele>
        <time>2019-06-02T07:58:07.000Z</time>
      </trkpt>
      <trkpt lat="43.81135" lon="7.01978">
        <ele>1420</ele>
        <time>2019-06-02T07:58:17.000Z</time>
      </trkpt>
      <trkpt lat="43.81144" lon="7.01967">
        <ele>1423</ele>
        <time>2019-06-02T07:58:27.000Z</time>
      </trkpt>
      <trkpt lat="43.81147" lon="7.01965">
        <ele>1423</ele>
        <time>2019-06-02T07:58:37.000Z</time>
      </trkpt>
      <trkpt lat="43.81153" lon="7.01938">
        <ele>1425</ele>
        <time>2019-06-02T07:58:48.000Z</time>
      </trkpt>
      <trkpt lat="43.81168" lon="7.01889">
        <ele>1426</ele>
        <time>2019-06-02T07:59:03.000Z</time>
      </trkpt>
      <trkpt lat="43.81189" lon="7.01853">
        <ele>1426</ele>
        <time>2019-06-02T07:59:15.000Z</time>
      </trkpt>
      <trkpt lat="43.81194" lon="7.0185">
        <ele>1426</ele>
        <time>2019-06-02T07:59:18.000Z</time>
      </trkpt>
      <trkpt lat="43.81195" lon="7.0185">
        <ele>1426</ele>
        <time>2019-06-02T07:59:19.000Z</time>
      </trkpt>
      <trkpt lat="43.81196" lon="7.0185">
        <ele>1426</ele>
        <time>2019-06-02T07:59:20.000Z</time>
      </trkpt>
      <trkpt lat="43.81198" lon="7.01843">
        <ele>1427</ele>
        <time>2019-06-02T07:59:32.000Z</time>
      </trkpt>
      <trkpt lat="43.812" lon="7.01837">
        <ele>1428</ele>
        <time>2019-06-02T07:59:38.000Z</time>
      </trkpt>
      <trkpt lat="43.81206" lon="7.01825">
        <ele>1431</ele>
        <time>2019-06-02T07:59:49.000Z</time>
      </trkpt>
      <trkpt lat="43.81213" lon="7.0181">
        <ele>1433</ele>
        <time>2019-06-02T08:00:05.000Z</time>
      </trkpt>
      <trkpt lat="43.81217" lon="7.01801">
        <ele>1434</ele>
        <time>2019-06-02T08:00:17.000Z</time>
      </trkpt>
      <trkpt lat="43.81217" lon="7.018">
        <ele>1434</ele>
        <time>2019-06-02T08:00:18.000Z</time>
      </trkpt>
      <trkpt lat="43.81217" lon="7.01798">
        <ele>1434</ele>
        <time>2019-06-02T08:00:19.000Z</time>
      </trkpt>
      <trkpt lat="43.81218" lon="7.01795">
        <ele>1434</ele>
        <time>2019-06-02T08:00:20.000Z</time>
      </trkpt>
      <trkpt lat="43.81218" lon="7.01793">
        <ele>1434</ele>
        <time>2019-06-02T08:00:21.000Z</time>
      </trkpt>
      <trkpt lat="43.81232" lon="7.01753">
        <ele>1434</ele>
        <time>2019-06-02T08:00:33.000Z</time>
      </trkpt>
      <trkpt lat="43.81233" lon="7.01739">
        <ele>1433</ele>
        <time>2019-06-02T08:00:36.000Z</time>
      </trkpt>
      <trkpt lat="43.81233" lon="7.01733">
        <ele>1433</ele>
        <time>2019-06-02T08:00:38.000Z</time>
      </trkpt>
      <trkpt lat="43.81235" lon="7.01723">
        <ele>1433</ele>
        <time>2019-06-02T08:00:41.000Z</time>
      </trkpt>
      <trkpt lat="43.81233" lon="7.01706">
        <ele>1433</ele>
        <time>2019-06-02T08:00:46.000Z</time>
      </trkpt>
      <trkpt lat="43.81233" lon="7.01702">
        <ele>1433</ele>
        <time>2019-06-02T08:00:47.000Z</time>
      </trkpt>
      <trkpt lat="43.81245" lon="7.01656">
        <ele>1432</ele>
        <time>2019-06-02T08:00:59.000Z</time>
      </trkpt>
      <trkpt lat="43.81248" lon="7.01653">
        <ele>1431</ele>
        <time>2019-06-02T08:01:00.000Z</time>
      </trkpt>
      <trkpt lat="43.81252" lon="7.01651">
        <ele>1431</ele>
        <time>2019-06-02T08:01:01.000Z</time>
      </trkpt>
      <trkpt lat="43.81263" lon="7.01634">
        <ele>1432</ele>
        <time>2019-06-02T08:01:08.000Z</time>
      </trkpt>
      <trkpt lat="43.81265" lon="7.01633">
        <ele>1433</ele>
        <time>2019-06-02T08:01:09.000Z</time>
      </trkpt>
      <trkpt lat="43.81267" lon="7.01632">
        <ele>1433</ele>
        <time>2019-06-02T08:01:10.000Z</time>
      </trkpt>
      <trkpt lat="43.81269" lon="7.0163">
        <ele>1433</ele>
        <time>2019-06-02T08:01:11.000Z</time>
      </trkpt>
      <trkpt lat="43.81271" lon="7.01629">
        <ele>1433</ele>
        <time>2019-06-02T08:01:12.000Z</time>
      </trkpt>
      <trkpt lat="43.81273" lon="7.01627">
        <ele>1433</ele>
        <time>2019-06-02T08:01:13.000Z</time>
      </trkpt>
      <trkpt lat="43.81274" lon="7.01626">
        <ele>1433</ele>
        <time>2019-06-02T08:01:14.000Z</time>
      </trkpt>
      <trkpt lat="43.81276" lon="7.01625">
        <ele>1433</ele>
        <time>2019-06-02T08:01:15.000Z</time>
      </trkpt>
      <trkpt lat="43.81279" lon="7.01624">
        <ele>1433</ele>
        <time>2019-06-02T08:01:16.000Z</time>
      </trkpt>
      <trkpt lat="43.81281" lon="7.01623">
        <ele>1433</ele>
        <time>2019-06-02T08:01:17.000Z</time>
      </trkpt>
      <trkpt lat="43.81283" lon="7.01621">
        <ele>1433</ele>
        <time>2019-06-02T08:01:18.000Z</time>
      </trkpt>
      <trkpt lat="43.81285" lon="7.0162">
        <ele>1433</ele>
        <time>2019-06-02T08:01:19.000Z</time>
      </trkpt>
      <trkpt lat="43.81286" lon="7.01619">
        <ele>1433</ele>
        <time>2019-06-02T08:01:20.000Z</time>
      </trkpt>
      <trkpt lat="43.81288" lon="7.01617">
        <ele>1433</ele>
        <time>2019-06-02T08:01:21.000Z</time>
      </trkpt>
      <trkpt lat="43.8129" lon="7.01616">
        <ele>1433</ele>
        <time>2019-06-02T08:01:22.000Z</time>
      </trkpt>
      <trkpt lat="43.81292" lon="7.01615">
        <ele>1433</ele>
        <time>2019-06-02T08:01:23.000Z</time>
      </trkpt>
      <trkpt lat="43.81294" lon="7.01614">
        <ele>1433</ele>
        <time>2019-06-02T08:01:24.000Z</time>
      </trkpt>
      <trkpt lat="43.81296" lon="7.01614">
        <ele>1433</ele>
        <time>2019-06-02T08:01:25.000Z</time>
      </trkpt>
      <trkpt lat="43.81315" lon="7.01603">
        <ele>1433</ele>
        <time>2019-06-02T08:01:35.000Z</time>
      </trkpt>
      <trkpt lat="43.81334" lon="7.01596">
        <ele>1433</ele>
        <time>2019-06-02T08:01:42.000Z</time>
      </trkpt>
      <trkpt lat="43.81337" lon="7.01596">
        <ele>1433</ele>
        <time>2019-06-02T08:01:43.000Z</time>
      </trkpt>
      <trkpt lat="43.81339" lon="7.01595">
        <ele>1433</ele>
        <time>2019-06-02T08:01:44.000Z</time>
      </trkpt>
      <trkpt lat="43.81342" lon="7.01593">
        <ele>1433</ele>
        <time>2019-06-02T08:01:45.000Z</time>
      </trkpt>
      <trkpt lat="43.81344" lon="7.01592">
        <ele>1433</ele>
        <time>2019-06-02T08:01:46.000Z</time>
      </trkpt>
      <trkpt lat="43.81347" lon="7.01591">
        <ele>1433</ele>
        <time>2019-06-02T08:01:47.000Z</time>
      </trkpt>
      <trkpt lat="43.8135" lon="7.01591">
        <ele>1433</ele>
        <time>2019-06-02T08:01:48.000Z</time>
      </trkpt>
      <trkpt lat="43.81383" lon="7.01581">
        <ele>1433</ele>
        <time>2019-06-02T08:02:00.000Z</time>
      </trkpt>
      <trkpt lat="43.8141" lon="7.01574">
        <ele>1433</ele>
        <time>2019-06-02T08:02:10.000Z</time>
      </trkpt>
      <trkpt lat="43.81436" lon="7.01566">
        <ele>1436</ele>
        <time>2019-06-02T08:02:22.000Z</time>
      </trkpt>
      <trkpt lat="43.81457" lon="7.01557">
        <ele>1439</ele>
        <time>2019-06-02T08:02:34.000Z</time>
      </trkpt>
      <trkpt lat="43.8148" lon="7.01543">
        <ele>1441</ele>
        <time>2019-06-02T08:02:51.000Z</time>
      </trkpt>
      <trkpt lat="43.81507" lon="7.01534">
        <ele>1443</ele>
        <time>2019-06-02T08:03:07.000Z</time>
      </trkpt>
      <trkpt lat="43.8153" lon="7.01539">
        <ele>1444</ele>
        <time>2019-06-02T08:03:21.000Z</time>
      </trkpt>
      <trkpt lat="43.81548" lon="7.01538">
        <ele>1446</ele>
        <time>2019-06-02T08:03:33.000Z</time>
      </trkpt>
      <trkpt lat="43.8155" lon="7.01539">
        <ele>1446</ele>
        <time>2019-06-02T08:03:35.000Z</time>
      </trkpt>
      <trkpt lat="43.81552" lon="7.0154">
        <ele>1446</ele>
        <time>2019-06-02T08:03:36.000Z</time>
      </trkpt>
      <trkpt lat="43.81564" lon="7.01542">
        <ele>1448</ele>
        <time>2019-06-02T08:03:44.000Z</time>
      </trkpt>
      <trkpt lat="43.81565" lon="7.01542">
        <ele>1448</ele>
        <time>2019-06-02T08:03:45.000Z</time>
      </trkpt>
      <trkpt lat="43.81566" lon="7.01542">
        <ele>1448</ele>
        <time>2019-06-02T08:03:46.000Z</time>
      </trkpt>
      <trkpt lat="43.81567" lon="7.01543">
        <ele>1448</ele>
        <time>2019-06-02T08:03:47.000Z</time>
      </trkpt>
      <trkpt lat="43.81569" lon="7.01542">
        <ele>1448</ele>
        <time>2019-06-02T08:03:48.000Z</time>
      </trkpt>
      <trkpt lat="43.8157" lon="7.01542">
        <ele>1448</ele>
        <time>2019-06-02T08:03:49.000Z</time>
      </trkpt>
      <trkpt lat="43.81576" lon="7.01542">
        <ele>1450</ele>
        <time>2019-06-02T08:03:58.000Z</time>
      </trkpt>
      <trkpt lat="43.81578" lon="7.01541">
        <ele>1450</ele>
        <time>2019-06-02T08:04:00.000Z</time>
      </trkpt>
      <trkpt lat="43.8158" lon="7.01541">
        <ele>1450</ele>
        <time>2019-06-02T08:04:01.000Z</time>
      </trkpt>
      <trkpt lat="43.81581" lon="7.0154">
        <ele>1450</ele>
        <time>2019-06-02T08:04:02.000Z</time>
      </trkpt>
      <trkpt lat="43.81583" lon="7.0154">
        <ele>1450</ele>
        <time>2019-06-02T08:04:03.000Z</time>
      </trkpt>
      <trkpt lat="43.81584" lon="7.0154">
        <ele>1450</ele>
        <time>2019-06-02T08:04:04.000Z</time>
      </trkpt>
      <trkpt lat="43.81589" lon="7.01539">
        <ele>1451</ele>
        <time>2019-06-02T08:04:08.000Z</time>
      </trkpt>
      <trkpt lat="43.8159" lon="7.01539">
        <ele>1451</ele>
        <time>2019-06-02T08:04:09.000Z</time>
      </trkpt>
      <trkpt lat="43.81591" lon="7.01538">
        <ele>1451</ele>
        <time>2019-06-02T08:04:10.000Z</time>
      </trkpt>
      <trkpt lat="43.81593" lon="7.01538">
        <ele>1451</ele>
        <time>2019-06-02T08:04:11.000Z</time>
      </trkpt>
      <trkpt lat="43.81594" lon="7.01538">
        <ele>1451</ele>
        <time>2019-06-02T08:04:12.000Z</time>
      </trkpt>
      <trkpt lat="43.81595" lon="7.01537">
        <ele>1451</ele>
        <time>2019-06-02T08:04:13.000Z</time>
      </trkpt>
      <trkpt lat="43.81598" lon="7.01537">
        <ele>1451</ele>
        <time>2019-06-02T08:04:14.000Z</time>
      </trkpt>
      <trkpt lat="43.816" lon="7.01536">
        <ele>1451</ele>
        <time>2019-06-02T08:04:15.000Z</time>
      </trkpt>
      <trkpt lat="43.81602" lon="7.01535">
        <ele>1451</ele>
        <time>2019-06-02T08:04:16.000Z</time>
      </trkpt>
      <trkpt lat="43.81604" lon="7.01533">
        <ele>1451</ele>
        <time>2019-06-02T08:04:17.000Z</time>
      </trkpt>
      <trkpt lat="43.81607" lon="7.01531">
        <ele>1450</ele>
        <time>2019-06-02T08:04:18.000Z</time>
      </trkpt>
      <trkpt lat="43.81609" lon="7.01529">
        <ele>1449</ele>
        <time>2019-06-02T08:04:19.000Z</time>
      </trkpt>
      <trkpt lat="43.81622" lon="7.0152">
        <ele>1449</ele>
        <time>2019-06-02T08:04:24.000Z</time>
      </trkpt>
      <trkpt lat="43.81625" lon="7.01517">
        <ele>1449</ele>
        <time>2019-06-02T08:04:25.000Z</time>
      </trkpt>
      <trkpt lat="43.81627" lon="7.01515">
        <ele>1449</ele>
        <time>2019-06-02T08:04:26.000Z</time>
      </trkpt>
      <trkpt lat="43.81648" lon="7.01501">
        <ele>1447</ele>
        <time>2019-06-02T08:04:37.000Z</time>
      </trkpt>
      <trkpt lat="43.81668" lon="7.01476">
        <ele>1445</ele>
        <time>2019-06-02T08:04:45.000Z</time>
      </trkpt>
      <trkpt lat="43.81672" lon="7.01473">
        <ele>1445</ele>
        <time>2019-06-02T08:04:46.000Z</time>
      </trkpt>
      <trkpt lat="43.81675" lon="7.0147">
        <ele>1444</ele>
        <time>2019-06-02T08:04:47.000Z</time>
      </trkpt>
      <trkpt lat="43.81679" lon="7.01467">
        <ele>1443</ele>
        <time>2019-06-02T08:04:48.000Z</time>
      </trkpt>
      <trkpt lat="43.81683" lon="7.01465">
        <ele>1443</ele>
        <time>2019-06-02T08:04:49.000Z</time>
      </trkpt>
      <trkpt lat="43.81687" lon="7.01461">
        <ele>1443</ele>
        <time>2019-06-02T08:04:50.000Z</time>
      </trkpt>
      <trkpt lat="43.81699" lon="7.01451">
        <ele>1441</ele>
        <time>2019-06-02T08:04:53.000Z</time>
      </trkpt>
      <trkpt lat="43.81702" lon="7.01447">
        <ele>1441</ele>
        <time>2019-06-02T08:04:54.000Z</time>
      </trkpt>
      <trkpt lat="43.81704" lon="7.01443">
        <ele>1441</ele>
        <time>2019-06-02T08:04:55.000Z</time>
      </trkpt>
      <trkpt lat="43.81706" lon="7.01439">
        <ele>1441</ele>
        <time>2019-06-02T08:04:56.000Z</time>
      </trkpt>
      <trkpt lat="43.81707" lon="7.01437">
        <ele>1441</ele>
        <time>2019-06-02T08:04:57.000Z</time>
      </trkpt>
      <trkpt lat="43.81709" lon="7.01435">
        <ele>1441</ele>
        <time>2019-06-02T08:04:58.000Z</time>
      </trkpt>
      <trkpt lat="43.81711" lon="7.01433">
        <ele>1441</ele>
        <time>2019-06-02T08:04:59.000Z</time>
      </trkpt>
      <trkpt lat="43.81737" lon="7.01401">
        <ele>1440</ele>
        <time>2019-06-02T08:05:10.000Z</time>
      </trkpt>
      <trkpt lat="43.81764" lon="7.01372">
        <ele>1437</ele>
        <time>2019-06-02T08:05:16.000Z</time>
      </trkpt>
      <trkpt lat="43.81767" lon="7.01366">
        <ele>1436</ele>
        <time>2019-06-02T08:05:17.000Z</time>
      </trkpt>
      <trkpt lat="43.8177" lon="7.01359">
        <ele>1435</ele>
        <time>2019-06-02T08:05:18.000Z</time>
      </trkpt>
      <trkpt lat="43.81773" lon="7.01347">
        <ele>1435</ele>
        <time>2019-06-02T08:05:20.000Z</time>
      </trkpt>
      <trkpt lat="43.81776" lon="7.01342">
        <ele>1435</ele>
        <time>2019-06-02T08:05:21.000Z</time>
      </trkpt>
      <trkpt lat="43.81782" lon="7.01333">
        <ele>1434</ele>
        <time>2019-06-02T08:05:23.000Z</time>
      </trkpt>
      <trkpt lat="43.81784" lon="7.01328">
        <ele>1433</ele>
        <time>2019-06-02T08:05:24.000Z</time>
      </trkpt>
      <trkpt lat="43.81787" lon="7.01323">
        <ele>1433</ele>
        <time>2019-06-02T08:05:25.000Z</time>
      </trkpt>
      <trkpt lat="43.81788" lon="7.01318">
        <ele>1432</ele>
        <time>2019-06-02T08:05:26.000Z</time>
      </trkpt>
      <trkpt lat="43.81789" lon="7.01312">
        <ele>1432</ele>
        <time>2019-06-02T08:05:27.000Z</time>
      </trkpt>
      <trkpt lat="43.8179" lon="7.01307">
        <ele>1433</ele>
        <time>2019-06-02T08:05:28.000Z</time>
      </trkpt>
      <trkpt lat="43.8179" lon="7.01302">
        <ele>1432</ele>
        <time>2019-06-02T08:05:29.000Z</time>
      </trkpt>
      <trkpt lat="43.8179" lon="7.01297">
        <ele>1433</ele>
        <time>2019-06-02T08:05:30.000Z</time>
      </trkpt>
      <trkpt lat="43.8179" lon="7.01292">
        <ele>1432</ele>
        <time>2019-06-02T08:05:31.000Z</time>
      </trkpt>
      <trkpt lat="43.8179" lon="7.01288">
        <ele>1433</ele>
        <time>2019-06-02T08:05:32.000Z</time>
      </trkpt>
      <trkpt lat="43.8179" lon="7.01283">
        <ele>1433</ele>
        <time>2019-06-02T08:05:33.000Z</time>
      </trkpt>
      <trkpt lat="43.81801" lon="7.01258">
        <ele>1432</ele>
        <time>2019-06-02T08:05:40.000Z</time>
      </trkpt>
      <trkpt lat="43.81802" lon="7.01254">
        <ele>1432</ele>
        <time>2019-06-02T08:05:41.000Z</time>
      </trkpt>
      <trkpt lat="43.81803" lon="7.01251">
        <ele>1432</ele>
        <time>2019-06-02T08:05:42.000Z</time>
      </trkpt>
      <trkpt lat="43.81804" lon="7.01248">
        <ele>1432</ele>
        <time>2019-06-02T08:05:43.000Z</time>
      </trkpt>
      <trkpt lat="43.81804" lon="7.01245">
        <ele>1432</ele>
        <time>2019-06-02T08:05:44.000Z</time>
      </trkpt>
      <trkpt lat="43.81804" lon="7.01241">
        <ele>1432</ele>
        <time>2019-06-02T08:05:45.000Z</time>
      </trkpt>
      <trkpt lat="43.81804" lon="7.01237">
        <ele>1432</ele>
        <time>2019-06-02T08:05:46.000Z</time>
      </trkpt>
      <trkpt lat="43.81804" lon="7.01233">
        <ele>1432</ele>
        <time>2019-06-02T08:05:47.000Z</time>
      </trkpt>
      <trkpt lat="43.81804" lon="7.01229">
        <ele>1432</ele>
        <time>2019-06-02T08:05:48.000Z</time>
      </trkpt>
      <trkpt lat="43.81805" lon="7.01224">
        <ele>1432</ele>
        <time>2019-06-02T08:05:49.000Z</time>
      </trkpt>
      <trkpt lat="43.81823" lon="7.01184">
        <ele>1431</ele>
        <time>2019-06-02T08:06:00.000Z</time>
      </trkpt>
      <trkpt lat="43.81839" lon="7.01172">
        <ele>1431</ele>
        <time>2019-06-02T08:06:05.000Z</time>
      </trkpt>
      <trkpt lat="43.81874" lon="7.01179">
        <ele>1431</ele>
        <time>2019-06-02T08:06:16.000Z</time>
      </trkpt>
      <trkpt lat="43.8188" lon="7.0118">
        <ele>1431</ele>
        <time>2019-06-02T08:06:18.000Z</time>
      </trkpt>
      <trkpt lat="43.81883" lon="7.01179">
        <ele>1431</ele>
        <time>2019-06-02T08:06:19.000Z</time>
      </trkpt>
      <trkpt lat="43.81886" lon="7.01177">
        <ele>1431</ele>
        <time>2019-06-02T08:06:20.000Z</time>
      </trkpt>
      <trkpt lat="43.81926" lon="7.01165">
        <ele>1432</ele>
        <time>2019-06-02T08:06:36.000Z</time>
      </trkpt>
      <trkpt lat="43.81929" lon="7.01164">
        <ele>1432</ele>
        <time>2019-06-02T08:06:37.000Z</time>
      </trkpt>
      <trkpt lat="43.81932" lon="7.01162">
        <ele>1432</ele>
        <time>2019-06-02T08:06:38.000Z</time>
      </trkpt>
      <trkpt lat="43.81951" lon="7.01141">
        <ele>1431</ele>
        <time>2019-06-02T08:06:45.000Z</time>
      </trkpt>
      <trkpt lat="43.81967" lon="7.01121">
        <ele>1430</ele>
        <time>2019-06-02T08:06:50.000Z</time>
      </trkpt>
      <trkpt lat="43.8197" lon="7.01116">
        <ele>1429</ele>
        <time>2019-06-02T08:06:51.000Z</time>
      </trkpt>
      <trkpt lat="43.81972" lon="7.01111">
        <ele>1429</ele>
        <time>2019-06-02T08:06:52.000Z</time>
      </trkpt>
      <trkpt lat="43.81975" lon="7.01106">
        <ele>1429</ele>
        <time>2019-06-02T08:06:53.000Z</time>
      </trkpt>
      <trkpt lat="43.81978" lon="7.01101">
        <ele>1428</ele>
        <time>2019-06-02T08:06:54.000Z</time>
      </trkpt>
      <trkpt lat="43.82002" lon="7.01061">
        <ele>1427</ele>
        <time>2019-06-02T08:07:01.000Z</time>
      </trkpt>
      <trkpt lat="43.82006" lon="7.01056">
        <ele>1427</ele>
        <time>2019-06-02T08:07:02.000Z</time>
      </trkpt>
      <trkpt lat="43.82013" lon="7.01047">
        <ele>1429</ele>
        <time>2019-06-02T08:07:06.000Z</time>
      </trkpt>
      <trkpt lat="43.8202" lon="7.01045">
        <ele>1430</ele>
        <time>2019-06-02T08:07:11.000Z</time>
      </trkpt>
      <trkpt lat="43.82022" lon="7.01046">
        <ele>1431</ele>
        <time>2019-06-02T08:07:12.000Z</time>
      </trkpt>
      <trkpt lat="43.82023" lon="7.01046">
        <ele>1431</ele>
        <time>2019-06-02T08:07:13.000Z</time>
      </trkpt>
      <trkpt lat="43.82025" lon="7.01045">
        <ele>1431</ele>
        <time>2019-06-02T08:07:14.000Z</time>
      </trkpt>
      <trkpt lat="43.82026" lon="7.01045">
        <ele>1432</ele>
        <time>2019-06-02T08:07:15.000Z</time>
      </trkpt>
      <trkpt lat="43.82029" lon="7.01041">
        <ele>1433</ele>
        <time>2019-06-02T08:07:18.000Z</time>
      </trkpt>
      <trkpt lat="43.82019" lon="7.01028">
        <ele>1434</ele>
        <time>2019-06-02T08:07:28.000Z</time>
      </trkpt>
      <trkpt lat="43.82015" lon="7.01021">
        <ele>1434</ele>
        <time>2019-06-02T08:07:32.000Z</time>
      </trkpt>
      <trkpt lat="43.82012" lon="7.01013">
        <ele>1434</ele>
        <time>2019-06-02T08:07:36.000Z</time>
      </trkpt>
      <trkpt lat="43.82001" lon="7.00987">
        <ele>1435</ele>
        <time>2019-06-02T08:07:50.000Z</time>
      </trkpt>
      <trkpt lat="43.81991" lon="7.00969">
        <ele>1437</ele>
        <time>2019-06-02T08:08:01.000Z</time>
      </trkpt>
      <trkpt lat="43.82001" lon="7.00964">
        <ele>1439</ele>
        <time>2019-06-02T08:08:11.000Z</time>
      </trkpt>
      <trkpt lat="43.82012" lon="7.00982">
        <ele>1439</ele>
        <time>2019-06-02T08:08:19.000Z</time>
      </trkpt>
      <trkpt lat="43.82014" lon="7.00982">
        <ele>1439</ele>
        <time>2019-06-02T08:08:20.000Z</time>
      </trkpt>
      <trkpt lat="43.82014" lon="7.00973">
        <ele>1440</ele>
        <time>2019-06-02T08:08:25.000Z</time>
      </trkpt>
      <trkpt lat="43.82" lon="7.00943">
        <ele>1443</ele>
        <time>2019-06-02T08:08:42.000Z</time>
      </trkpt>
      <trkpt lat="43.81996" lon="7.00922">
        <ele>1445</ele>
        <time>2019-06-02T08:08:54.000Z</time>
      </trkpt>
      <trkpt lat="43.81993" lon="7.00899">
        <ele>1449</ele>
        <time>2019-06-02T08:09:09.000Z</time>
      </trkpt>
      <trkpt lat="43.81994" lon="7.00893">
        <ele>1449</ele>
        <time>2019-06-02T08:09:13.000Z</time>
      </trkpt>
      <trkpt lat="43.81996" lon="7.00885">
        <ele>1451</ele>
        <time>2019-06-02T08:09:19.000Z</time>
      </trkpt>
      <trkpt lat="43.82" lon="7.00854">
        <ele>1453</ele>
        <time>2019-06-02T08:09:37.000Z</time>
      </trkpt>
      <trkpt lat="43.82001" lon="7.00829">
        <ele>1456</ele>
        <time>2019-06-02T08:09:51.000Z</time>
      </trkpt>
      <trkpt lat="43.82002" lon="7.00813">
        <ele>1457</ele>
        <time>2019-06-02T08:09:59.000Z</time>
      </trkpt>
      <trkpt lat="43.81998" lon="7.00775">
        <ele>1460</ele>
        <time>2019-06-02T08:10:18.000Z</time>
      </trkpt>
      <trkpt lat="43.81984" lon="7.00721">
        <ele>1461</ele>
        <time>2019-06-02T08:10:37.000Z</time>
      </trkpt>
      <trkpt lat="43.81979" lon="7.00686">
        <ele>1464</ele>
        <time>2019-06-02T08:10:52.000Z</time>
      </trkpt>
      <trkpt lat="43.81982" lon="7.00648">
        <ele>1467</ele>
        <time>2019-06-02T08:11:08.000Z</time>
      </trkpt>
      <trkpt lat="43.82002" lon="7.00623">
        <ele>1469</ele>
        <time>2019-06-02T08:11:24.000Z</time>
      </trkpt>
      <trkpt lat="43.82023" lon="7.00631">
        <ele>1472</ele>
        <time>2019-06-02T08:11:40.000Z</time>
      </trkpt>
      <trkpt lat="43.82042" lon="7.00639">
        <ele>1475</ele>
        <time>2019-06-02T08:11:56.000Z</time>
      </trkpt>
      <trkpt lat="43.82059" lon="7.00662">
        <ele>1477</ele>
        <time>2019-06-02T08:12:12.000Z</time>
      </trkpt>
      <trkpt lat="43.82078" lon="7.00677">
        <ele>1481</ele>
        <time>2019-06-02T08:12:28.000Z</time>
      </trkpt>
      <trkpt lat="43.82094" lon="7.00688">
        <ele>1484</ele>
        <time>2019-06-02T08:12:42.000Z</time>
      </trkpt>
      <trkpt lat="43.8211" lon="7.00694">
        <ele>1487</ele>
        <time>2019-06-02T08:12:55.000Z</time>
      </trkpt>
      <trkpt lat="43.82125" lon="7.00688">
        <ele>1489</ele>
        <time>2019-06-02T08:13:06.000Z</time>
      </trkpt>
      <trkpt lat="43.82126" lon="7.00687">
        <ele>1489</ele>
        <time>2019-06-02T08:13:07.000Z</time>
      </trkpt>
      <trkpt lat="43.82138" lon="7.0067">
        <ele>1492</ele>
        <time>2019-06-02T08:13:21.000Z</time>
      </trkpt>
      <trkpt lat="43.82143" lon="7.00652">
        <ele>1495</ele>
        <time>2019-06-02T08:13:32.000Z</time>
      </trkpt>
      <trkpt lat="43.82144" lon="7.00632">
        <ele>1497</ele>
        <time>2019-06-02T08:13:44.000Z</time>
      </trkpt>
      <trkpt lat="43.82143" lon="7.0063">
        <ele>1497</ele>
        <time>2019-06-02T08:13:45.000Z</time>
      </trkpt>
      <trkpt lat="43.82143" lon="7.00627">
        <ele>1498</ele>
        <time>2019-06-02T08:13:47.000Z</time>
      </trkpt>
      <trkpt lat="43.82145" lon="7.00619">
        <ele>1500</ele>
        <time>2019-06-02T08:14:00.000Z</time>
      </trkpt>
      <trkpt lat="43.82144" lon="7.00617">
        <ele>1500</ele>
        <time>2019-06-02T08:14:19.000Z</time>
      </trkpt>
      <trkpt lat="43.82143" lon="7.00615">
        <ele>1500</ele>
        <time>2019-06-02T08:14:20.000Z</time>
      </trkpt>
      <trkpt lat="43.82141" lon="7.00607">
        <ele>1501</ele>
        <time>2019-06-02T08:14:24.000Z</time>
      </trkpt>
      <trkpt lat="43.82141" lon="7.00605">
        <ele>1501</ele>
        <time>2019-06-02T08:14:25.000Z</time>
      </trkpt>
      <trkpt lat="43.8214" lon="7.00603">
        <ele>1501</ele>
        <time>2019-06-02T08:14:26.000Z</time>
      </trkpt>
      <trkpt lat="43.82137" lon="7.00593">
        <ele>1503</ele>
        <time>2019-06-02T08:14:32.000Z</time>
      </trkpt>
      <trkpt lat="43.82136" lon="7.00591">
        <ele>1503</ele>
        <time>2019-06-02T08:14:33.000Z</time>
      </trkpt>
      <trkpt lat="43.82136" lon="7.00589">
        <ele>1504</ele>
        <time>2019-06-02T08:14:34.000Z</time>
      </trkpt>
      <trkpt lat="43.82135" lon="7.00587">
        <ele>1504</ele>
        <time>2019-06-02T08:14:35.000Z</time>
      </trkpt>
      <trkpt lat="43.82135" lon="7.00585">
        <ele>1504</ele>
        <time>2019-06-02T08:14:36.000Z</time>
      </trkpt>
      <trkpt lat="43.82131" lon="7.00559">
        <ele>1507</ele>
        <time>2019-06-02T08:14:51.000Z</time>
      </trkpt>
      <trkpt lat="43.82133" lon="7.00549">
        <ele>1508</ele>
        <time>2019-06-02T08:15:00.000Z</time>
      </trkpt>
      <trkpt lat="43.82134" lon="7.00537">
        <ele>1510</ele>
        <time>2019-06-02T08:15:13.000Z</time>
      </trkpt>
      <trkpt lat="43.82132" lon="7.00525">
        <ele>1512</ele>
        <time>2019-06-02T08:15:26.000Z</time>
      </trkpt>
      <trkpt lat="43.82129" lon="7.00507">
        <ele>1515</ele>
        <time>2019-06-02T08:15:45.000Z</time>
      </trkpt>
      <trkpt lat="43.82127" lon="7.00498">
        <ele>1517</ele>
        <time>2019-06-02T08:15:57.000Z</time>
      </trkpt>
      <trkpt lat="43.82125" lon="7.00487">
        <ele>1519</ele>
        <time>2019-06-02T08:16:10.000Z</time>
      </trkpt>
      <trkpt lat="43.82123" lon="7.00477">
        <ele>1521</ele>
        <time>2019-06-02T08:16:23.000Z</time>
      </trkpt>
      <trkpt lat="43.82121" lon="7.00466">
        <ele>1523</ele>
        <time>2019-06-02T08:16:38.000Z</time>
      </trkpt>
      <trkpt lat="43.82118" lon="7.00458">
        <ele>1525</ele>
        <time>2019-06-02T08:16:50.000Z</time>
      </trkpt>
      <trkpt lat="43.82112" lon="7.00443">
        <ele>1527</ele>
        <time>2019-06-02T08:17:04.000Z</time>
      </trkpt>
      <trkpt lat="43.82106" lon="7.0043">
        <ele>1530</ele>
        <time>2019-06-02T08:17:19.000Z</time>
      </trkpt>
      <trkpt lat="43.82099" lon="7.00413">
        <ele>1532</ele>
        <time>2019-06-02T08:17:36.000Z</time>
      </trkpt>
      <trkpt lat="43.82096" lon="7.00399">
        <ele>1534</ele>
        <time>2019-06-02T08:17:52.000Z</time>
      </trkpt>
      <trkpt lat="43.82098" lon="7.00389">
        <ele>1536</ele>
        <time>2019-06-02T08:18:06.000Z</time>
      </trkpt>
      <trkpt lat="43.82098" lon="7.00388">
        <ele>1536</ele>
        <time>2019-06-02T08:18:14.000Z</time>
      </trkpt>
      <trkpt lat="43.82098" lon="7.00386">
        <ele>1536</ele>
        <time>2019-06-02T08:18:15.000Z</time>
      </trkpt>
      <trkpt lat="43.82098" lon="7.00385">
        <ele>1536</ele>
        <time>2019-06-02T08:18:16.000Z</time>
      </trkpt>
      <trkpt lat="43.82098" lon="7.00377">
        <ele>1537</ele>
        <time>2019-06-02T08:18:20.000Z</time>
      </trkpt>
      <trkpt lat="43.82099" lon="7.00359">
        <ele>1541</ele>
        <time>2019-06-02T08:18:32.000Z</time>
      </trkpt>
      <trkpt lat="43.821" lon="7.00331">
        <ele>1544</ele>
        <time>2019-06-02T08:18:50.000Z</time>
      </trkpt>
      <trkpt lat="43.821" lon="7.00309">
        <ele>1547</ele>
        <time>2019-06-02T08:19:04.000Z</time>
      </trkpt>
      <trkpt lat="43.82097" lon="7.00288">
        <ele>1550</ele>
        <time>2019-06-02T08:19:15.000Z</time>
      </trkpt>
      <trkpt lat="43.82093" lon="7.00271">
        <ele>1552</ele>
        <time>2019-06-02T08:19:27.000Z</time>
      </trkpt>
      <trkpt lat="43.82093" lon="7.0027">
        <ele>1553</ele>
        <time>2019-06-02T08:19:28.000Z</time>
      </trkpt>
      <trkpt lat="43.82092" lon="7.00268">
        <ele>1553</ele>
        <time>2019-06-02T08:19:29.000Z</time>
      </trkpt>
      <trkpt lat="43.82087" lon="7.00245">
        <ele>1556</ele>
        <time>2019-06-02T08:19:46.000Z</time>
      </trkpt>
      <trkpt lat="43.82083" lon="7.0022">
        <ele>1558</ele>
        <time>2019-06-02T08:20:03.000Z</time>
      </trkpt>
      <trkpt lat="43.82082" lon="7.00219">
        <ele>1558</ele>
        <time>2019-06-02T08:20:04.000Z</time>
      </trkpt>
      <trkpt lat="43.82077" lon="7.00192">
        <ele>1562</ele>
        <time>2019-06-02T08:20:20.000Z</time>
      </trkpt>
      <trkpt lat="43.82077" lon="7.0019">
        <ele>1562</ele>
        <time>2019-06-02T08:20:21.000Z</time>
      </trkpt>
      <trkpt lat="43.82076" lon="7.00188">
        <ele>1562</ele>
        <time>2019-06-02T08:20:22.000Z</time>
      </trkpt>
      <trkpt lat="43.82078" lon="7.00166">
        <ele>1564</ele>
        <time>2019-06-02T08:20:34.000Z</time>
      </trkpt>
      <trkpt lat="43.82078" lon="7.00165">
        <ele>1564</ele>
        <time>2019-06-02T08:20:35.000Z</time>
      </trkpt>
      <trkpt lat="43.82078" lon="7.00163">
        <ele>1564</ele>
        <time>2019-06-02T08:20:36.000Z</time>
      </trkpt>
      <trkpt lat="43.82079" lon="7.00161">
        <ele>1564</ele>
        <time>2019-06-02T08:20:37.000Z</time>
      </trkpt>
      <trkpt lat="43.8208" lon="7.0016">
        <ele>1564</ele>
        <time>2019-06-02T08:20:38.000Z</time>
      </trkpt>
      <trkpt lat="43.8208" lon="7.00158">
        <ele>1564</ele>
        <time>2019-06-02T08:20:39.000Z</time>
      </trkpt>
      <trkpt lat="43.82081" lon="7.00156">
        <ele>1564</ele>
        <time>2019-06-02T08:20:40.000Z</time>
      </trkpt>
      <trkpt lat="43.82081" lon="7.00155">
        <ele>1565</ele>
        <time>2019-06-02T08:20:41.000Z</time>
      </trkpt>
      <trkpt lat="43.82082" lon="7.00153">
        <ele>1565</ele>
        <time>2019-06-02T08:20:42.000Z</time>
      </trkpt>
      <trkpt lat="43.82083" lon="7.00152">
        <ele>1565</ele>
        <time>2019-06-02T08:20:43.000Z</time>
      </trkpt>
      <trkpt lat="43.82084" lon="7.0015">
        <ele>1565</ele>
        <time>2019-06-02T08:20:44.000Z</time>
      </trkpt>
      <trkpt lat="43.82085" lon="7.00148">
        <ele>1565</ele>
        <time>2019-06-02T08:20:45.000Z</time>
      </trkpt>
      <trkpt lat="43.82085" lon="7.00146">
        <ele>1565</ele>
        <time>2019-06-02T08:20:46.000Z</time>
      </trkpt>
      <trkpt lat="43.82113" lon="7.00111">
        <ele>1567</ele>
        <time>2019-06-02T08:21:06.000Z</time>
      </trkpt>
      <trkpt lat="43.82122" lon="7.00087">
        <ele>1568</ele>
        <time>2019-06-02T08:21:19.000Z</time>
      </trkpt>
      <trkpt lat="43.82127" lon="7.00061">
        <ele>1571</ele>
        <time>2019-06-02T08:21:34.000Z</time>
      </trkpt>
      <trkpt lat="43.82133" lon="7.00031">
        <ele>1573</ele>
        <time>2019-06-02T08:21:49.000Z</time>
      </trkpt>
      <trkpt lat="43.82134" lon="7.00002">
        <ele>1576</ele>
        <time>2019-06-02T08:22:04.000Z</time>
      </trkpt>
      <trkpt lat="43.82135" lon="6.99969">
        <ele>1578</ele>
        <time>2019-06-02T08:22:21.000Z</time>
      </trkpt>
      <trkpt lat="43.82146" lon="6.99936">
        <ele>1580</ele>
        <time>2019-06-02T08:22:38.000Z</time>
      </trkpt>
      <trkpt lat="43.82167" lon="6.99911">
        <ele>1582</ele>
        <time>2019-06-02T08:22:54.000Z</time>
      </trkpt>
      <trkpt lat="43.82191" lon="6.99895">
        <ele>1585</ele>
        <time>2019-06-02T08:23:11.000Z</time>
      </trkpt>
      <trkpt lat="43.82192" lon="6.99894">
        <ele>1585</ele>
        <time>2019-06-02T08:23:23.000Z</time>
      </trkpt>
      <trkpt lat="43.82197" lon="6.99889">
        <ele>1585</ele>
        <time>2019-06-02T08:23:53.000Z</time>
      </trkpt>
      <trkpt lat="43.8221" lon="6.99877">
        <ele>1582</ele>
        <time>2019-06-02T08:23:57.000Z</time>
      </trkpt>
      <trkpt lat="43.82232" lon="6.99864">
        <ele>1579</ele>
        <time>2019-06-02T08:24:01.000Z</time>
      </trkpt>
      <trkpt lat="43.82249" lon="6.99852">
        <ele>1576</ele>
        <time>2019-06-02T08:24:04.000Z</time>
      </trkpt>
      <trkpt lat="43.82254" lon="6.99845">
        <ele>1575</ele>
        <time>2019-06-02T08:24:05.000Z</time>
      </trkpt>
      <trkpt lat="43.82257" lon="6.99838">
        <ele>1574</ele>
        <time>2019-06-02T08:24:06.000Z</time>
      </trkpt>
      <trkpt lat="43.82259" lon="6.99831">
        <ele>1573</ele>
        <time>2019-06-02T08:24:07.000Z</time>
      </trkpt>
      <trkpt lat="43.8226" lon="6.99823">
        <ele>1573</ele>
        <time>2019-06-02T08:24:08.000Z</time>
      </trkpt>
      <trkpt lat="43.8226" lon="6.99814">
        <ele>1572</ele>
        <time>2019-06-02T08:24:09.000Z</time>
      </trkpt>
      <trkpt lat="43.82261" lon="6.99805">
        <ele>1571</ele>
        <time>2019-06-02T08:24:10.000Z</time>
      </trkpt>
      <trkpt lat="43.82263" lon="6.99796">
        <ele>1571</ele>
        <time>2019-06-02T08:24:11.000Z</time>
      </trkpt>
      <trkpt lat="43.82267" lon="6.99777">
        <ele>1568</ele>
        <time>2019-06-02T08:24:13.000Z</time>
      </trkpt>
      <trkpt lat="43.82282" lon="6.99736">
        <ele>1564</ele>
        <time>2019-06-02T08:24:17.000Z</time>
      </trkpt>
      <trkpt lat="43.82292" lon="6.99714">
        <ele>1562</ele>
        <time>2019-06-02T08:24:19.000Z</time>
      </trkpt>
      <trkpt lat="43.82298" lon="6.99706">
        <ele>1561</ele>
        <time>2019-06-02T08:24:20.000Z</time>
      </trkpt>
      <trkpt lat="43.82306" lon="6.99699">
        <ele>1561</ele>
        <time>2019-06-02T08:24:21.000Z</time>
      </trkpt>
      <trkpt lat="43.82314" lon="6.99694">
        <ele>1560</ele>
        <time>2019-06-02T08:24:22.000Z</time>
      </trkpt>
      <trkpt lat="43.82321" lon="6.9969">
        <ele>1560</ele>
        <time>2019-06-02T08:24:23.000Z</time>
      </trkpt>
      <trkpt lat="43.82335" lon="6.99684">
        <ele>1562</ele>
        <time>2019-06-02T08:24:25.000Z</time>
      </trkpt>
      <trkpt lat="43.82341" lon="6.99683">
        <ele>1562</ele>
        <time>2019-06-02T08:24:26.000Z</time>
      </trkpt>
      <trkpt lat="43.82355" lon="6.99681">
        <ele>1561</ele>
        <time>2019-06-02T08:24:28.000Z</time>
      </trkpt>
      <trkpt lat="43.82361" lon="6.99678">
        <ele>1560</ele>
        <time>2019-06-02T08:24:29.000Z</time>
      </trkpt>
      <trkpt lat="43.82366" lon="6.99673">
        <ele>1560</ele>
        <time>2019-06-02T08:24:30.000Z</time>
      </trkpt>
      <trkpt lat="43.82371" lon="6.99666">
        <ele>1560</ele>
        <time>2019-06-02T08:24:31.000Z</time>
      </trkpt>
      <trkpt lat="43.82375" lon="6.99657">
        <ele>1559</ele>
        <time>2019-06-02T08:24:32.000Z</time>
      </trkpt>
      <trkpt lat="43.82378" lon="6.99648">
        <ele>1558</ele>
        <time>2019-06-02T08:24:33.000Z</time>
      </trkpt>
      <trkpt lat="43.82381" lon="6.99638">
        <ele>1557</ele>
        <time>2019-06-02T08:24:34.000Z</time>
      </trkpt>
      <trkpt lat="43.82384" lon="6.99628">
        <ele>1557</ele>
        <time>2019-06-02T08:24:35.000Z</time>
      </trkpt>
      <trkpt lat="43.82387" lon="6.99618">
        <ele>1557</ele>
        <time>2019-06-02T08:24:36.000Z</time>
      </trkpt>
      <trkpt lat="43.82388" lon="6.99608">
        <ele>1557</ele>
        <time>2019-06-02T08:24:37.000Z</time>
      </trkpt>
      <trkpt lat="43.82391" lon="6.99542">
        <ele>1554</ele>
        <time>2019-06-02T08:24:44.000Z</time>
      </trkpt>
      <trkpt lat="43.82389" lon="6.99534">
        <ele>1554</ele>
        <time>2019-06-02T08:24:45.000Z</time>
      </trkpt>
      <trkpt lat="43.82384" lon="6.99511">
        <ele>1555</ele>
        <time>2019-06-02T08:24:48.000Z</time>
      </trkpt>
      <trkpt lat="43.82384" lon="6.99504">
        <ele>1554</ele>
        <time>2019-06-02T08:24:49.000Z</time>
      </trkpt>
      <trkpt lat="43.82383" lon="6.99497">
        <ele>1555</ele>
        <time>2019-06-02T08:24:50.000Z</time>
      </trkpt>
      <trkpt lat="43.82383" lon="6.9949">
        <ele>1555</ele>
        <time>2019-06-02T08:24:51.000Z</time>
      </trkpt>
      <trkpt lat="43.82382" lon="6.99483">
        <ele>1554</ele>
        <time>2019-06-02T08:24:52.000Z</time>
      </trkpt>
      <trkpt lat="43.8238" lon="6.9947">
        <ele>1553</ele>
        <time>2019-06-02T08:24:54.000Z</time>
      </trkpt>
      <trkpt lat="43.82372" lon="6.99423">
        <ele>1553</ele>
        <time>2019-06-02T08:25:01.000Z</time>
      </trkpt>
      <trkpt lat="43.82369" lon="6.99387">
        <ele>1550</ele>
        <time>2019-06-02T08:25:06.000Z</time>
      </trkpt>
      <trkpt lat="43.82367" lon="6.99331">
        <ele>1549</ele>
        <time>2019-06-02T08:25:12.000Z</time>
      </trkpt>
      <trkpt lat="43.82366" lon="6.99323">
        <ele>1549</ele>
        <time>2019-06-02T08:25:13.000Z</time>
      </trkpt>
      <trkpt lat="43.82363" lon="6.99317">
        <ele>1549</ele>
        <time>2019-06-02T08:25:14.000Z</time>
      </trkpt>
      <trkpt lat="43.8236" lon="6.9931">
        <ele>1549</ele>
        <time>2019-06-02T08:25:15.000Z</time>
      </trkpt>
      <trkpt lat="43.82358" lon="6.99303">
        <ele>1548</ele>
        <time>2019-06-02T08:25:16.000Z</time>
      </trkpt>
      <trkpt lat="43.82356" lon="6.99294">
        <ele>1547</ele>
        <time>2019-06-02T08:25:17.000Z</time>
      </trkpt>
      <trkpt lat="43.82353" lon="6.99285">
        <ele>1547</ele>
        <time>2019-06-02T08:25:18.000Z</time>
      </trkpt>
      <trkpt lat="43.8235" lon="6.99276">
        <ele>1546</ele>
        <time>2019-06-02T08:25:19.000Z</time>
      </trkpt>
      <trkpt lat="43.82336" lon="6.99248">
        <ele>1543</ele>
        <time>2019-06-02T08:25:22.000Z</time>
      </trkpt>
      <trkpt lat="43.82319" lon="6.99218">
        <ele>1539</ele>
        <time>2019-06-02T08:25:25.000Z</time>
      </trkpt>
      <trkpt lat="43.82313" lon="6.99209">
        <ele>1539</ele>
        <time>2019-06-02T08:25:26.000Z</time>
      </trkpt>
      <trkpt lat="43.82307" lon="6.99202">
        <ele>1539</ele>
        <time>2019-06-02T08:25:27.000Z</time>
      </trkpt>
      <trkpt lat="43.823" lon="6.99197">
        <ele>1541</ele>
        <time>2019-06-02T08:25:28.000Z</time>
      </trkpt>
      <trkpt lat="43.82294" lon="6.99194">
        <ele>1542</ele>
        <time>2019-06-02T08:25:29.000Z</time>
      </trkpt>
      <trkpt lat="43.8229" lon="6.99191">
        <ele>1542</ele>
        <time>2019-06-02T08:25:30.000Z</time>
      </trkpt>
      <trkpt lat="43.82287" lon="6.99187">
        <ele>1542</ele>
        <time>2019-06-02T08:25:31.000Z</time>
      </trkpt>
      <trkpt lat="43.82285" lon="6.99184">
        <ele>1544</ele>
        <time>2019-06-02T08:25:32.000Z</time>
      </trkpt>
      <trkpt lat="43.82285" lon="6.99182">
        <ele>1544</ele>
        <time>2019-06-02T08:25:33.000Z</time>
      </trkpt>
      <trkpt lat="43.82285" lon="6.9918">
        <ele>1545</ele>
        <time>2019-06-02T08:25:34.000Z</time>
      </trkpt>
      <trkpt lat="43.82286" lon="6.99177">
        <ele>1545</ele>
        <time>2019-06-02T08:25:35.000Z</time>
      </trkpt>
      <trkpt lat="43.82286" lon="6.99175">
        <ele>1545</ele>
        <time>2019-06-02T08:25:36.000Z</time>
      </trkpt>
      <trkpt lat="43.82287" lon="6.99173">
        <ele>1545</ele>
        <time>2019-06-02T08:25:37.000Z</time>
      </trkpt>
      <trkpt lat="43.82289" lon="6.99172">
        <ele>1545</ele>
        <time>2019-06-02T08:25:38.000Z</time>
      </trkpt>
      <trkpt lat="43.8229" lon="6.9917">
        <ele>1545</ele>
        <time>2019-06-02T08:25:39.000Z</time>
      </trkpt>
      <trkpt lat="43.82291" lon="6.99169">
        <ele>1546</ele>
        <time>2019-06-02T08:25:40.000Z</time>
      </trkpt>
      <trkpt lat="43.82292" lon="6.99167">
        <ele>1546</ele>
        <time>2019-06-02T08:25:41.000Z</time>
      </trkpt>
      <trkpt lat="43.82294" lon="6.99165">
        <ele>1546</ele>
        <time>2019-06-02T08:25:42.000Z</time>
      </trkpt>
      <trkpt lat="43.82295" lon="6.99164">
        <ele>1547</ele>
        <time>2019-06-02T08:25:43.000Z</time>
      </trkpt>
      <trkpt lat="43.82296" lon="6.99162">
        <ele>1547</ele>
        <time>2019-06-02T08:25:44.000Z</time>
      </trkpt>
      <trkpt lat="43.82298" lon="6.99161">
        <ele>1548</ele>
        <time>2019-06-02T08:25:45.000Z</time>
      </trkpt>
      <trkpt lat="43.82299" lon="6.99159">
        <ele>1548</ele>
        <time>2019-06-02T08:25:46.000Z</time>
      </trkpt>
      <trkpt lat="43.823" lon="6.99158">
        <ele>1548</ele>
        <time>2019-06-02T08:25:47.000Z</time>
      </trkpt>
      <trkpt lat="43.82301" lon="6.99156">
        <ele>1548</ele>
        <time>2019-06-02T08:25:48.000Z</time>
      </trkpt>
      <trkpt lat="43.8232" lon="6.99133">
        <ele>1551</ele>
        <time>2019-06-02T08:26:04.000Z</time>
      </trkpt>
      <trkpt lat="43.82337" lon="6.99094">
        <ele>1550</ele>
        <time>2019-06-02T08:26:16.000Z</time>
      </trkpt>
      <trkpt lat="43.82339" lon="6.99088">
        <ele>1550</ele>
        <time>2019-06-02T08:26:17.000Z</time>
      </trkpt>
      <trkpt lat="43.82341" lon="6.99083">
        <ele>1550</ele>
        <time>2019-06-02T08:26:18.000Z</time>
      </trkpt>
      <trkpt lat="43.82344" lon="6.9907">
        <ele>1549</ele>
        <time>2019-06-02T08:26:20.000Z</time>
      </trkpt>
      <trkpt lat="43.82347" lon="6.99045">
        <ele>1546</ele>
        <time>2019-06-02T08:26:23.000Z</time>
      </trkpt>
      <trkpt lat="43.82348" lon="6.99037">
        <ele>1546</ele>
        <time>2019-06-02T08:26:24.000Z</time>
      </trkpt>
      <trkpt lat="43.82349" lon="6.99028">
        <ele>1546</ele>
        <time>2019-06-02T08:26:25.000Z</time>
      </trkpt>
      <trkpt lat="43.8235" lon="6.99019">
        <ele>1545</ele>
        <time>2019-06-02T08:26:26.000Z</time>
      </trkpt>
      <trkpt lat="43.82352" lon="6.9901">
        <ele>1545</ele>
        <time>2019-06-02T08:26:27.000Z</time>
      </trkpt>
      <trkpt lat="43.82355" lon="6.99003">
        <ele>1545</ele>
        <time>2019-06-02T08:26:28.000Z</time>
      </trkpt>
      <trkpt lat="43.82356" lon="6.98995">
        <ele>1545</ele>
        <time>2019-06-02T08:26:29.000Z</time>
      </trkpt>
      <trkpt lat="43.82358" lon="6.98986">
        <ele>1544</ele>
        <time>2019-06-02T08:26:30.000Z</time>
      </trkpt>
      <trkpt lat="43.82361" lon="6.98978">
        <ele>1544</ele>
        <time>2019-06-02T08:26:31.000Z</time>
      </trkpt>
      <trkpt lat="43.82364" lon="6.98971">
        <ele>1544</ele>
        <time>2019-06-02T08:26:32.000Z</time>
      </trkpt>
      <trkpt lat="43.82367" lon="6.98964">
        <ele>1543</ele>
        <time>2019-06-02T08:26:33.000Z</time>
      </trkpt>
      <trkpt lat="43.82371" lon="6.98958">
        <ele>1544</ele>
        <time>2019-06-02T08:26:34.000Z</time>
      </trkpt>
      <trkpt lat="43.82374" lon="6.98953">
        <ele>1543</ele>
        <time>2019-06-02T08:26:35.000Z</time>
      </trkpt>
      <trkpt lat="43.82377" lon="6.98947">
        <ele>1544</ele>
        <time>2019-06-02T08:26:36.000Z</time>
      </trkpt>
      <trkpt lat="43.82388" lon="6.9893">
        <ele>1544</ele>
        <time>2019-06-02T08:26:39.000Z</time>
      </trkpt>
      <trkpt lat="43.82391" lon="6.98922">
        <ele>1543</ele>
        <time>2019-06-02T08:26:40.000Z</time>
      </trkpt>
      <trkpt lat="43.82393" lon="6.98913">
        <ele>1543</ele>
        <time>2019-06-02T08:26:41.000Z</time>
      </trkpt>
      <trkpt lat="43.82393" lon="6.98904">
        <ele>1543</ele>
        <time>2019-06-02T08:26:42.000Z</time>
      </trkpt>
      <trkpt lat="43.82393" lon="6.98895">
        <ele>1541</ele>
        <time>2019-06-02T08:26:43.000Z</time>
      </trkpt>
      <trkpt lat="43.82392" lon="6.98885">
        <ele>1540</ele>
        <time>2019-06-02T08:26:44.000Z</time>
      </trkpt>
      <trkpt lat="43.82391" lon="6.98864">
        <ele>1539</ele>
        <time>2019-06-02T08:26:46.000Z</time>
      </trkpt>
      <trkpt lat="43.82391" lon="6.98854">
        <ele>1539</ele>
        <time>2019-06-02T08:26:47.000Z</time>
      </trkpt>
      <trkpt lat="43.82392" lon="6.98843">
        <ele>1539</ele>
        <time>2019-06-02T08:26:48.000Z</time>
      </trkpt>
      <trkpt lat="43.82395" lon="6.98822">
        <ele>1537</ele>
        <time>2019-06-02T08:26:50.000Z</time>
      </trkpt>
      <trkpt lat="43.82396" lon="6.98812">
        <ele>1537</ele>
        <time>2019-06-02T08:26:51.000Z</time>
      </trkpt>
      <trkpt lat="43.82397" lon="6.98801">
        <ele>1537</ele>
        <time>2019-06-02T08:26:52.000Z</time>
      </trkpt>
      <trkpt lat="43.82396" lon="6.98791">
        <ele>1537</ele>
        <time>2019-06-02T08:26:53.000Z</time>
      </trkpt>
      <trkpt lat="43.82394" lon="6.98781">
        <ele>1536</ele>
        <time>2019-06-02T08:26:54.000Z</time>
      </trkpt>
      <trkpt lat="43.82391" lon="6.98771">
        <ele>1535</ele>
        <time>2019-06-02T08:26:55.000Z</time>
      </trkpt>
      <trkpt lat="43.82388" lon="6.98761">
        <ele>1535</ele>
        <time>2019-06-02T08:26:56.000Z</time>
      </trkpt>
      <trkpt lat="43.82378" lon="6.98728">
        <ele>1535</ele>
        <time>2019-06-02T08:27:00.000Z</time>
      </trkpt>
      <trkpt lat="43.82373" lon="6.98681">
        <ele>1538</ele>
        <time>2019-06-02T08:27:08.000Z</time>
      </trkpt>
      <trkpt lat="43.82375" lon="6.98662">
        <ele>1538</ele>
        <time>2019-06-02T08:27:12.000Z</time>
      </trkpt>
      <trkpt lat="43.82372" lon="6.98641">
        <ele>1538</ele>
        <time>2019-06-02T08:27:16.000Z</time>
      </trkpt>
      <trkpt lat="43.82372" lon="6.98635">
        <ele>1538</ele>
        <time>2019-06-02T08:27:17.000Z</time>
      </trkpt>
      <trkpt lat="43.82373" lon="6.98629">
        <ele>1538</ele>
        <time>2019-06-02T08:27:18.000Z</time>
      </trkpt>
      <trkpt lat="43.82374" lon="6.98622">
        <ele>1538</ele>
        <time>2019-06-02T08:27:19.000Z</time>
      </trkpt>
      <trkpt lat="43.82376" lon="6.98615">
        <ele>1536</ele>
        <time>2019-06-02T08:27:20.000Z</time>
      </trkpt>
      <trkpt lat="43.82377" lon="6.98607">
        <ele>1536</ele>
        <time>2019-06-02T08:27:21.000Z</time>
      </trkpt>
      <trkpt lat="43.82379" lon="6.98592">
        <ele>1535</ele>
        <time>2019-06-02T08:27:23.000Z</time>
      </trkpt>
      <trkpt lat="43.82378" lon="6.98568">
        <ele>1535</ele>
        <time>2019-06-02T08:27:26.000Z</time>
      </trkpt>
      <trkpt lat="43.82379" lon="6.98551">
        <ele>1533</ele>
        <time>2019-06-02T08:27:28.000Z</time>
      </trkpt>
      <trkpt lat="43.82379" lon="6.98543">
        <ele>1533</ele>
        <time>2019-06-02T08:27:29.000Z</time>
      </trkpt>
      <trkpt lat="43.8238" lon="6.98535">
        <ele>1533</ele>
        <time>2019-06-02T08:27:30.000Z</time>
      </trkpt>
      <trkpt lat="43.82381" lon="6.98528">
        <ele>1533</ele>
        <time>2019-06-02T08:27:31.000Z</time>
      </trkpt>
      <trkpt lat="43.82382" lon="6.98521">
        <ele>1533</ele>
        <time>2019-06-02T08:27:32.000Z</time>
      </trkpt>
      <trkpt lat="43.82383" lon="6.98515">
        <ele>1534</ele>
        <time>2019-06-02T08:27:33.000Z</time>
      </trkpt>
      <trkpt lat="43.82384" lon="6.9851">
        <ele>1534</ele>
        <time>2019-06-02T08:27:34.000Z</time>
      </trkpt>
      <trkpt lat="43.82387" lon="6.98494">
        <ele>1534</ele>
        <time>2019-06-02T08:27:37.000Z</time>
      </trkpt>
      <trkpt lat="43.82387" lon="6.98488">
        <ele>1534</ele>
        <time>2019-06-02T08:27:38.000Z</time>
      </trkpt>
      <trkpt lat="43.82388" lon="6.98481">
        <ele>1533</ele>
        <time>2019-06-02T08:27:39.000Z</time>
      </trkpt>
      <trkpt lat="43.82393" lon="6.98455">
        <ele>1531</ele>
        <time>2019-06-02T08:27:42.000Z</time>
      </trkpt>
      <trkpt lat="43.82393" lon="6.98446">
        <ele>1530</ele>
        <time>2019-06-02T08:27:43.000Z</time>
      </trkpt>
      <trkpt lat="43.82394" lon="6.98437">
        <ele>1530</ele>
        <time>2019-06-02T08:27:44.000Z</time>
      </trkpt>
      <trkpt lat="43.82397" lon="6.98407">
        <ele>1530</ele>
        <time>2019-06-02T08:27:48.000Z</time>
      </trkpt>
      <trkpt lat="43.82409" lon="6.98348">
        <ele>1529</ele>
        <time>2019-06-02T08:27:58.000Z</time>
      </trkpt>
      <trkpt lat="43.82427" lon="6.98295">
        <ele>1526</ele>
        <time>2019-06-02T08:28:04.000Z</time>
      </trkpt>
      <trkpt lat="43.82452" lon="6.98253">
        <ele>1522</ele>
        <time>2019-06-02T08:28:09.000Z</time>
      </trkpt>
      <trkpt lat="43.82453" lon="6.98242">
        <ele>1521</ele>
        <time>2019-06-02T08:28:10.000Z</time>
      </trkpt>
      <trkpt lat="43.82452" lon="6.98234">
        <ele>1521</ele>
        <time>2019-06-02T08:28:11.000Z</time>
      </trkpt>
      <trkpt lat="43.82451" lon="6.98226">
        <ele>1521</ele>
        <time>2019-06-02T08:28:12.000Z</time>
      </trkpt>
      <trkpt lat="43.82452" lon="6.98219">
        <ele>1521</ele>
        <time>2019-06-02T08:28:13.000Z</time>
      </trkpt>
      <trkpt lat="43.82455" lon="6.98213">
        <ele>1520</ele>
        <time>2019-06-02T08:28:14.000Z</time>
      </trkpt>
      <trkpt lat="43.8246" lon="6.9821">
        <ele>1520</ele>
        <time>2019-06-02T08:28:15.000Z</time>
      </trkpt>
      <trkpt lat="43.82464" lon="6.98207">
        <ele>1520</ele>
        <time>2019-06-02T08:28:16.000Z</time>
      </trkpt>
      <trkpt lat="43.82487" lon="6.9819">
        <ele>1516</ele>
        <time>2019-06-02T08:28:20.000Z</time>
      </trkpt>
      <trkpt lat="43.825" lon="6.98183">
        <ele>1514</ele>
        <time>2019-06-02T08:28:22.000Z</time>
      </trkpt>
      <trkpt lat="43.82506" lon="6.9818">
        <ele>1514</ele>
        <time>2019-06-02T08:28:23.000Z</time>
      </trkpt>
      <trkpt lat="43.82526" lon="6.98175">
        <ele>1510</ele>
        <time>2019-06-02T08:28:26.000Z</time>
      </trkpt>
      <trkpt lat="43.82546" lon="6.98171">
        <ele>1507</ele>
        <time>2019-06-02T08:28:29.000Z</time>
      </trkpt>
      <trkpt lat="43.82559" lon="6.98167">
        <ele>1504</ele>
        <time>2019-06-02T08:28:31.000Z</time>
      </trkpt>
      <trkpt lat="43.82579" lon="6.98159">
        <ele>1500</ele>
        <time>2019-06-02T08:28:34.000Z</time>
      </trkpt>
      <trkpt lat="43.82587" lon="6.98155">
        <ele>1499</ele>
        <time>2019-06-02T08:28:35.000Z</time>
      </trkpt>
      <trkpt lat="43.82595" lon="6.98152">
        <ele>1497</ele>
        <time>2019-06-02T08:28:36.000Z</time>
      </trkpt>
      <trkpt lat="43.82603" lon="6.9815">
        <ele>1495</ele>
        <time>2019-06-02T08:28:37.000Z</time>
      </trkpt>
      <trkpt lat="43.82613" lon="6.98147">
        <ele>1495</ele>
        <time>2019-06-02T08:28:38.000Z</time>
      </trkpt>
      <trkpt lat="43.82622" lon="6.98145">
        <ele>1493</ele>
        <time>2019-06-02T08:28:39.000Z</time>
      </trkpt>
      <trkpt lat="43.82631" lon="6.98145">
        <ele>1492</ele>
        <time>2019-06-02T08:28:40.000Z</time>
      </trkpt>
      <trkpt lat="43.82641" lon="6.98144">
        <ele>1492</ele>
        <time>2019-06-02T08:28:41.000Z</time>
      </trkpt>
      <trkpt lat="43.8265" lon="6.98142">
        <ele>1492</ele>
        <time>2019-06-02T08:28:42.000Z</time>
      </trkpt>
      <trkpt lat="43.82659" lon="6.98139">
        <ele>1492</ele>
        <time>2019-06-02T08:28:43.000Z</time>
      </trkpt>
      <trkpt lat="43.82668" lon="6.98138">
        <ele>1491</ele>
        <time>2019-06-02T08:28:44.000Z</time>
      </trkpt>
      <trkpt lat="43.82677" lon="6.98136">
        <ele>1490</ele>
        <time>2019-06-02T08:28:45.000Z</time>
      </trkpt>
      <trkpt lat="43.82693" lon="6.9813">
        <ele>1490</ele>
        <time>2019-06-02T08:28:47.000Z</time>
      </trkpt>
      <trkpt lat="43.82701" lon="6.98125">
        <ele>1490</ele>
        <time>2019-06-02T08:28:48.000Z</time>
      </trkpt>
      <trkpt lat="43.82707" lon="6.98117">
        <ele>1489</ele>
        <time>2019-06-02T08:28:49.000Z</time>
      </trkpt>
      <trkpt lat="43.8272" lon="6.98104">
        <ele>1489</ele>
        <time>2019-06-02T08:28:51.000Z</time>
      </trkpt>
      <trkpt lat="43.82732" lon="6.98092">
        <ele>1489</ele>
        <time>2019-06-02T08:28:53.000Z</time>
      </trkpt>
      <trkpt lat="43.82737" lon="6.98085">
        <ele>1489</ele>
        <time>2019-06-02T08:28:54.000Z</time>
      </trkpt>
      <trkpt lat="43.8274" lon="6.98078">
        <ele>1489</ele>
        <time>2019-06-02T08:28:55.000Z</time>
      </trkpt>
      <trkpt lat="43.82741" lon="6.98071">
        <ele>1490</ele>
        <time>2019-06-02T08:28:56.000Z</time>
      </trkpt>
      <trkpt lat="43.82742" lon="6.98065">
        <ele>1491</ele>
        <time>2019-06-02T08:28:57.000Z</time>
      </trkpt>
      <trkpt lat="43.82742" lon="6.9806">
        <ele>1491</ele>
        <time>2019-06-02T08:28:58.000Z</time>
      </trkpt>
      <trkpt lat="43.82747" lon="6.98028">
        <ele>1491</ele>
        <time>2019-06-02T08:29:04.000Z</time>
      </trkpt>
      <trkpt lat="43.8276" lon="6.97994">
        <ele>1488</ele>
        <time>2019-06-02T08:29:09.000Z</time>
      </trkpt>
      <trkpt lat="43.82764" lon="6.97987">
        <ele>1488</ele>
        <time>2019-06-02T08:29:10.000Z</time>
      </trkpt>
      <trkpt lat="43.82783" lon="6.97947">
        <ele>1484</ele>
        <time>2019-06-02T08:29:16.000Z</time>
      </trkpt>
      <trkpt lat="43.82793" lon="6.97922">
        <ele>1481</ele>
        <time>2019-06-02T08:29:19.000Z</time>
      </trkpt>
      <trkpt lat="43.82805" lon="6.97896">
        <ele>1480</ele>
        <time>2019-06-02T08:29:24.000Z</time>
      </trkpt>
      <trkpt lat="43.82807" lon="6.97895">
        <ele>1480</ele>
        <time>2019-06-02T08:29:25.000Z</time>
      </trkpt>
      <trkpt lat="43.82809" lon="6.97893">
        <ele>1480</ele>
        <time>2019-06-02T08:29:26.000Z</time>
      </trkpt>
      <trkpt lat="43.82812" lon="6.97891">
        <ele>1480</ele>
        <time>2019-06-02T08:29:27.000Z</time>
      </trkpt>
      <trkpt lat="43.82815" lon="6.97889">
        <ele>1480</ele>
        <time>2019-06-02T08:29:28.000Z</time>
      </trkpt>
      <trkpt lat="43.82845" lon="6.97866">
        <ele>1479</ele>
        <time>2019-06-02T08:29:36.000Z</time>
      </trkpt>
      <trkpt lat="43.82852" lon="6.97856">
        <ele>1477</ele>
        <time>2019-06-02T08:29:38.000Z</time>
      </trkpt>
      <trkpt lat="43.82855" lon="6.97849">
        <ele>1476</ele>
        <time>2019-06-02T08:29:39.000Z</time>
      </trkpt>
      <trkpt lat="43.82858" lon="6.9784">
        <ele>1475</ele>
        <time>2019-06-02T08:29:40.000Z</time>
      </trkpt>
      <trkpt lat="43.82859" lon="6.9783">
        <ele>1475</ele>
        <time>2019-06-02T08:29:41.000Z</time>
      </trkpt>
      <trkpt lat="43.8286" lon="6.97821">
        <ele>1474</ele>
        <time>2019-06-02T08:29:42.000Z</time>
      </trkpt>
      <trkpt lat="43.82862" lon="6.97793">
        <ele>1473</ele>
        <time>2019-06-02T08:29:45.000Z</time>
      </trkpt>
      <trkpt lat="43.8286" lon="6.97774">
        <ele>1472</ele>
        <time>2019-06-02T08:29:51.000Z</time>
      </trkpt>
      <trkpt lat="43.82857" lon="6.97751">
        <ele>1470</ele>
        <time>2019-06-02T08:29:56.000Z</time>
      </trkpt>
      <trkpt lat="43.82857" lon="6.97743">
        <ele>1469</ele>
        <time>2019-06-02T08:29:57.000Z</time>
      </trkpt>
      <trkpt lat="43.8286" lon="6.97736">
        <ele>1468</ele>
        <time>2019-06-02T08:29:58.000Z</time>
      </trkpt>
      <trkpt lat="43.82863" lon="6.9773">
        <ele>1468</ele>
        <time>2019-06-02T08:29:59.000Z</time>
      </trkpt>
      <trkpt lat="43.82867" lon="6.97725">
        <ele>1467</ele>
        <time>2019-06-02T08:30:00.000Z</time>
      </trkpt>
      <trkpt lat="43.82871" lon="6.9772">
        <ele>1467</ele>
        <time>2019-06-02T08:30:01.000Z</time>
      </trkpt>
      <trkpt lat="43.82874" lon="6.97714">
        <ele>1468</ele>
        <time>2019-06-02T08:30:02.000Z</time>
      </trkpt>
      <trkpt lat="43.82877" lon="6.97708">
        <ele>1467</ele>
        <time>2019-06-02T08:30:03.000Z</time>
      </trkpt>
      <trkpt lat="43.82879" lon="6.97702">
        <ele>1467</ele>
        <time>2019-06-02T08:30:04.000Z</time>
      </trkpt>
      <trkpt lat="43.82882" lon="6.97696">
        <ele>1467</ele>
        <time>2019-06-02T08:30:05.000Z</time>
      </trkpt>
      <trkpt lat="43.82886" lon="6.9769">
        <ele>1466</ele>
        <time>2019-06-02T08:30:06.000Z</time>
      </trkpt>
      <trkpt lat="43.82889" lon="6.97684">
        <ele>1466</ele>
        <time>2019-06-02T08:30:07.000Z</time>
      </trkpt>
      <trkpt lat="43.82894" lon="6.97677">
        <ele>1466</ele>
        <time>2019-06-02T08:30:08.000Z</time>
      </trkpt>
      <trkpt lat="43.82907" lon="6.97656">
        <ele>1464</ele>
        <time>2019-06-02T08:30:11.000Z</time>
      </trkpt>
      <trkpt lat="43.8291" lon="6.97647">
        <ele>1463</ele>
        <time>2019-06-02T08:30:12.000Z</time>
      </trkpt>
      <trkpt lat="43.82912" lon="6.97638">
        <ele>1462</ele>
        <time>2019-06-02T08:30:13.000Z</time>
      </trkpt>
      <trkpt lat="43.82912" lon="6.97628">
        <ele>1462</ele>
        <time>2019-06-02T08:30:14.000Z</time>
      </trkpt>
      <trkpt lat="43.8291" lon="6.97618">
        <ele>1462</ele>
        <time>2019-06-02T08:30:15.000Z</time>
      </trkpt>
      <trkpt lat="43.82906" lon="6.97611">
        <ele>1462</ele>
        <time>2019-06-02T08:30:16.000Z</time>
      </trkpt>
      <trkpt lat="43.82902" lon="6.97605">
        <ele>1461</ele>
        <time>2019-06-02T08:30:17.000Z</time>
      </trkpt>
      <trkpt lat="43.82897" lon="6.97599">
        <ele>1462</ele>
        <time>2019-06-02T08:30:18.000Z</time>
      </trkpt>
      <trkpt lat="43.82891" lon="6.97594">
        <ele>1461</ele>
        <time>2019-06-02T08:30:19.000Z</time>
      </trkpt>
      <trkpt lat="43.82887" lon="6.97589">
        <ele>1461</ele>
        <time>2019-06-02T08:30:20.000Z</time>
      </trkpt>
      <trkpt lat="43.82885" lon="6.97584">
        <ele>1461</ele>
        <time>2019-06-02T08:30:21.000Z</time>
      </trkpt>
      <trkpt lat="43.82883" lon="6.97579">
        <ele>1461</ele>
        <time>2019-06-02T08:30:22.000Z</time>
      </trkpt>
      <trkpt lat="43.82882" lon="6.97574">
        <ele>1461</ele>
        <time>2019-06-02T08:30:23.000Z</time>
      </trkpt>
      <trkpt lat="43.82882" lon="6.97569">
        <ele>1460</ele>
        <time>2019-06-02T08:30:24.000Z</time>
      </trkpt>
      <trkpt lat="43.82882" lon="6.97563">
        <ele>1460</ele>
        <time>2019-06-02T08:30:25.000Z</time>
      </trkpt>
      <trkpt lat="43.82883" lon="6.97558">
        <ele>1460</ele>
        <time>2019-06-02T08:30:26.000Z</time>
      </trkpt>
      <trkpt lat="43.82885" lon="6.97554">
        <ele>1460</ele>
        <time>2019-06-02T08:30:27.000Z</time>
      </trkpt>
      <trkpt lat="43.82887" lon="6.9755">
        <ele>1459</ele>
        <time>2019-06-02T08:30:28.000Z</time>
      </trkpt>
      <trkpt lat="43.8289" lon="6.97546">
        <ele>1458</ele>
        <time>2019-06-02T08:30:29.000Z</time>
      </trkpt>
      <trkpt lat="43.82894" lon="6.97544">
        <ele>1458</ele>
        <time>2019-06-02T08:30:30.000Z</time>
      </trkpt>
      <trkpt lat="43.82898" lon="6.97542">
        <ele>1458</ele>
        <time>2019-06-02T08:30:31.000Z</time>
      </trkpt>
      <trkpt lat="43.82902" lon="6.97542">
        <ele>1458</ele>
        <time>2019-06-02T08:30:32.000Z</time>
      </trkpt>
      <trkpt lat="43.82906" lon="6.97541">
        <ele>1457</ele>
        <time>2019-06-02T08:30:33.000Z</time>
      </trkpt>
      <trkpt lat="43.8291" lon="6.97542">
        <ele>1457</ele>
        <time>2019-06-02T08:30:34.000Z</time>
      </trkpt>
      <trkpt lat="43.82913" lon="6.97545">
        <ele>1457</ele>
        <time>2019-06-02T08:30:35.000Z</time>
      </trkpt>
      <trkpt lat="43.82917" lon="6.97548">
        <ele>1457</ele>
        <time>2019-06-02T08:30:36.000Z</time>
      </trkpt>
      <trkpt lat="43.8292" lon="6.97552">
        <ele>1457</ele>
        <time>2019-06-02T08:30:37.000Z</time>
      </trkpt>
      <trkpt lat="43.82964" lon="6.97588">
        <ele>1454</ele>
        <time>2019-06-02T08:30:51.000Z</time>
      </trkpt>
      <trkpt lat="43.82967" lon="6.97585">
        <ele>1454</ele>
        <time>2019-06-02T08:30:52.000Z</time>
      </trkpt>
      <trkpt lat="43.82969" lon="6.97581">
        <ele>1453</ele>
        <time>2019-06-02T08:30:53.000Z</time>
      </trkpt>
      <trkpt lat="43.8297" lon="6.97574">
        <ele>1453</ele>
        <time>2019-06-02T08:30:54.000Z</time>
      </trkpt>
      <trkpt lat="43.8297" lon="6.97569">
        <ele>1452</ele>
        <time>2019-06-02T08:30:55.000Z</time>
      </trkpt>
      <trkpt lat="43.82969" lon="6.97562">
        <ele>1451</ele>
        <time>2019-06-02T08:30:56.000Z</time>
      </trkpt>
      <trkpt lat="43.82966" lon="6.97556">
        <ele>1450</ele>
        <time>2019-06-02T08:30:57.000Z</time>
      </trkpt>
      <trkpt lat="43.82957" lon="6.97537">
        <ele>1449</ele>
        <time>2019-06-02T08:31:00.000Z</time>
      </trkpt>
      <trkpt lat="43.82954" lon="6.9753">
        <ele>1448</ele>
        <time>2019-06-02T08:31:01.000Z</time>
      </trkpt>
      <trkpt lat="43.8295" lon="6.97524">
        <ele>1447</ele>
        <time>2019-06-02T08:31:02.000Z</time>
      </trkpt>
      <trkpt lat="43.82946" lon="6.97519">
        <ele>1447</ele>
        <time>2019-06-02T08:31:03.000Z</time>
      </trkpt>
      <trkpt lat="43.82933" lon="6.975">
        <ele>1447</ele>
        <time>2019-06-02T08:31:06.000Z</time>
      </trkpt>
      <trkpt lat="43.82927" lon="6.97495">
        <ele>1447</ele>
        <time>2019-06-02T08:31:07.000Z</time>
      </trkpt>
      <trkpt lat="43.82907" lon="6.97479">
        <ele>1446</ele>
        <time>2019-06-02T08:31:11.000Z</time>
      </trkpt>
      <trkpt lat="43.82902" lon="6.97477">
        <ele>1446</ele>
        <time>2019-06-02T08:31:12.000Z</time>
      </trkpt>
      <trkpt lat="43.82897" lon="6.97476">
        <ele>1446</ele>
        <time>2019-06-02T08:31:13.000Z</time>
      </trkpt>
      <trkpt lat="43.82877" lon="6.9747">
        <ele>1445</ele>
        <time>2019-06-02T08:31:17.000Z</time>
      </trkpt>
      <trkpt lat="43.82874" lon="6.97465">
        <ele>1445</ele>
        <time>2019-06-02T08:31:18.000Z</time>
      </trkpt>
      <trkpt lat="43.82872" lon="6.97459">
        <ele>1444</ele>
        <time>2019-06-02T08:31:19.000Z</time>
      </trkpt>
      <trkpt lat="43.82872" lon="6.97451">
        <ele>1444</ele>
        <time>2019-06-02T08:31:20.000Z</time>
      </trkpt>
      <trkpt lat="43.82873" lon="6.97443">
        <ele>1443</ele>
        <time>2019-06-02T08:31:21.000Z</time>
      </trkpt>
      <trkpt lat="43.82876" lon="6.97436">
        <ele>1442</ele>
        <time>2019-06-02T08:31:22.000Z</time>
      </trkpt>
      <trkpt lat="43.8288" lon="6.97428">
        <ele>1441</ele>
        <time>2019-06-02T08:31:23.000Z</time>
      </trkpt>
      <trkpt lat="43.82893" lon="6.97407">
        <ele>1439</ele>
        <time>2019-06-02T08:31:26.000Z</time>
      </trkpt>
      <trkpt lat="43.82898" lon="6.97403">
        <ele>1438</ele>
        <time>2019-06-02T08:31:27.000Z</time>
      </trkpt>
      <trkpt lat="43.82904" lon="6.97401">
        <ele>1438</ele>
        <time>2019-06-02T08:31:28.000Z</time>
      </trkpt>
      <trkpt lat="43.82911" lon="6.97403">
        <ele>1437</ele>
        <time>2019-06-02T08:31:29.000Z</time>
      </trkpt>
      <trkpt lat="43.82916" lon="6.97407">
        <ele>1435</ele>
        <time>2019-06-02T08:31:30.000Z</time>
      </trkpt>
      <trkpt lat="43.82922" lon="6.97413">
        <ele>1435</ele>
        <time>2019-06-02T08:31:31.000Z</time>
      </trkpt>
      <trkpt lat="43.82927" lon="6.9742">
        <ele>1435</ele>
        <time>2019-06-02T08:31:32.000Z</time>
      </trkpt>
      <trkpt lat="43.82948" lon="6.97443">
        <ele>1434</ele>
        <time>2019-06-02T08:31:36.000Z</time>
      </trkpt>
      <trkpt lat="43.82964" lon="6.97455">
        <ele>1434</ele>
        <time>2019-06-02T08:31:39.000Z</time>
      </trkpt>
      <trkpt lat="43.8297" lon="6.97458">
        <ele>1434</ele>
        <time>2019-06-02T08:31:40.000Z</time>
      </trkpt>
      <trkpt lat="43.82975" lon="6.9746">
        <ele>1434</ele>
        <time>2019-06-02T08:31:41.000Z</time>
      </trkpt>
      <trkpt lat="43.82981" lon="6.97461">
        <ele>1434</ele>
        <time>2019-06-02T08:31:42.000Z</time>
      </trkpt>
      <trkpt lat="43.82986" lon="6.97462">
        <ele>1434</ele>
        <time>2019-06-02T08:31:43.000Z</time>
      </trkpt>
      <trkpt lat="43.82991" lon="6.97462">
        <ele>1434</ele>
        <time>2019-06-02T08:31:44.000Z</time>
      </trkpt>
      <trkpt lat="43.83001" lon="6.97461">
        <ele>1434</ele>
        <time>2019-06-02T08:31:46.000Z</time>
      </trkpt>
      <trkpt lat="43.83016" lon="6.97458">
        <ele>1433</ele>
        <time>2019-06-02T08:31:49.000Z</time>
      </trkpt>
      <trkpt lat="43.8302" lon="6.97457">
        <ele>1433</ele>
        <time>2019-06-02T08:31:50.000Z</time>
      </trkpt>
      <trkpt lat="43.83024" lon="6.97455">
        <ele>1433</ele>
        <time>2019-06-02T08:31:51.000Z</time>
      </trkpt>
      <trkpt lat="43.83051" lon="6.97438">
        <ele>1434</ele>
        <time>2019-06-02T08:32:01.000Z</time>
      </trkpt>
      <trkpt lat="43.83074" lon="6.97414">
        <ele>1436</ele>
        <time>2019-06-02T08:32:15.000Z</time>
      </trkpt>
      <trkpt lat="43.83096" lon="6.97384">
        <ele>1437</ele>
        <time>2019-06-02T08:32:28.000Z</time>
      </trkpt>
      <trkpt lat="43.83112" lon="6.97353">
        <ele>1433</ele>
        <time>2019-06-02T08:32:37.000Z</time>
      </trkpt>
      <trkpt lat="43.83112" lon="6.9735">
        <ele>1433</ele>
        <time>2019-06-02T08:32:38.000Z</time>
      </trkpt>
      <trkpt lat="43.83129" lon="6.97328">
        <ele>1433</ele>
        <time>2019-06-02T08:32:51.000Z</time>
      </trkpt>
      <trkpt lat="43.83139" lon="6.97322">
        <ele>1434</ele>
        <time>2019-06-02T08:32:56.000Z</time>
      </trkpt>
      <trkpt lat="43.83152" lon="6.9731">
        <ele>1435</ele>
        <time>2019-06-02T08:33:05.000Z</time>
      </trkpt>
      <trkpt lat="43.83153" lon="6.97308">
        <ele>1435</ele>
        <time>2019-06-02T08:33:06.000Z</time>
      </trkpt>
      <trkpt lat="43.83154" lon="6.97306">
        <ele>1435</ele>
        <time>2019-06-02T08:33:07.000Z</time>
      </trkpt>
      <trkpt lat="43.83156" lon="6.97304">
        <ele>1436</ele>
        <time>2019-06-02T08:33:08.000Z</time>
      </trkpt>
      <trkpt lat="43.83157" lon="6.97302">
        <ele>1436</ele>
        <time>2019-06-02T08:33:09.000Z</time>
      </trkpt>
      <trkpt lat="43.83159" lon="6.97301">
        <ele>1436</ele>
        <time>2019-06-02T08:33:10.000Z</time>
      </trkpt>
      <trkpt lat="43.83177" lon="6.97268">
        <ele>1438</ele>
        <time>2019-06-02T08:33:25.000Z</time>
      </trkpt>
      <trkpt lat="43.83186" lon="6.97232">
        <ele>1441</ele>
        <time>2019-06-02T08:33:38.000Z</time>
      </trkpt>
      <trkpt lat="43.83198" lon="6.97176">
        <ele>1444</ele>
        <time>2019-06-02T08:33:58.000Z</time>
      </trkpt>
      <trkpt lat="43.83201" lon="6.97155">
        <ele>1445</ele>
        <time>2019-06-02T08:34:07.000Z</time>
      </trkpt>
      <trkpt lat="43.83201" lon="6.97153">
        <ele>1445</ele>
        <time>2019-06-02T08:34:08.000Z</time>
      </trkpt>
      <trkpt lat="43.83201" lon="6.97151">
        <ele>1445</ele>
        <time>2019-06-02T08:34:09.000Z</time>
      </trkpt>
      <trkpt lat="43.83201" lon="6.9715">
        <ele>1445</ele>
        <time>2019-06-02T08:34:10.000Z</time>
      </trkpt>
      <trkpt lat="43.83203" lon="6.97149">
        <ele>1445</ele>
        <time>2019-06-02T08:34:11.000Z</time>
      </trkpt>
      <trkpt lat="43.83204" lon="6.97147">
        <ele>1445</ele>
        <time>2019-06-02T08:34:12.000Z</time>
      </trkpt>
      <trkpt lat="43.83205" lon="6.97146">
        <ele>1445</ele>
        <time>2019-06-02T08:34:13.000Z</time>
      </trkpt>
      <trkpt lat="43.83205" lon="6.97144">
        <ele>1445</ele>
        <time>2019-06-02T08:34:14.000Z</time>
      </trkpt>
      <trkpt lat="43.83206" lon="6.97142">
        <ele>1445</ele>
        <time>2019-06-02T08:34:15.000Z</time>
      </trkpt>
      <trkpt lat="43.83207" lon="6.9714">
        <ele>1445</ele>
        <time>2019-06-02T08:34:16.000Z</time>
      </trkpt>
      <trkpt lat="43.83208" lon="6.97138">
        <ele>1446</ele>
        <time>2019-06-02T08:34:17.000Z</time>
      </trkpt>
      <trkpt lat="43.83221" lon="6.97095">
        <ele>1449</ele>
        <time>2019-06-02T08:34:35.000Z</time>
      </trkpt>
      <trkpt lat="43.8323" lon="6.97058">
        <ele>1451</ele>
        <time>2019-06-02T08:34:50.000Z</time>
      </trkpt>
      <trkpt lat="43.8324" lon="6.97021">
        <ele>1453</ele>
        <time>2019-06-02T08:35:05.000Z</time>
      </trkpt>
      <trkpt lat="43.83255" lon="6.96983">
        <ele>1455</ele>
        <time>2019-06-02T08:35:20.000Z</time>
      </trkpt>
      <trkpt lat="43.8327" lon="6.96932">
        <ele>1457</ele>
        <time>2019-06-02T08:35:37.000Z</time>
      </trkpt>
      <trkpt lat="43.83291" lon="6.96873">
        <ele>1457</ele>
        <time>2019-06-02T08:35:54.000Z</time>
      </trkpt>
      <trkpt lat="43.83325" lon="6.96819">
        <ele>1457</ele>
        <time>2019-06-02T08:36:09.000Z</time>
      </trkpt>
      <trkpt lat="43.83373" lon="6.96773">
        <ele>1458</ele>
        <time>2019-06-02T08:36:26.000Z</time>
      </trkpt>
      <trkpt lat="43.83413" lon="6.96729">
        <ele>1458</ele>
        <time>2019-06-02T08:36:40.000Z</time>
      </trkpt>
      <trkpt lat="43.83442" lon="6.96666">
        <ele>1458</ele>
        <time>2019-06-02T08:36:55.000Z</time>
      </trkpt>
      <trkpt lat="43.83471" lon="6.96587">
        <ele>1458</ele>
        <time>2019-06-02T08:37:12.000Z</time>
      </trkpt>
      <trkpt lat="43.83511" lon="6.96518">
        <ele>1458</ele>
        <time>2019-06-02T08:37:28.000Z</time>
      </trkpt>
      <trkpt lat="43.8355" lon="6.96447">
        <ele>1458</ele>
        <time>2019-06-02T08:37:42.000Z</time>
      </trkpt>
      <trkpt lat="43.83559" lon="6.96426">
        <ele>1458</ele>
        <time>2019-06-02T08:37:46.000Z</time>
      </trkpt>
      <trkpt lat="43.83565" lon="6.96408">
        <ele>1458</ele>
        <time>2019-06-02T08:37:49.000Z</time>
      </trkpt>
      <trkpt lat="43.83571" lon="6.96373">
        <ele>1458</ele>
        <time>2019-06-02T08:37:55.000Z</time>
      </trkpt>
      <trkpt lat="43.83569" lon="6.96341">
        <ele>1458</ele>
        <time>2019-06-02T08:38:00.000Z</time>
      </trkpt>
      <trkpt lat="43.83566" lon="6.96317">
        <ele>1458</ele>
        <time>2019-06-02T08:38:04.000Z</time>
      </trkpt>
      <trkpt lat="43.83561" lon="6.96213">
        <ele>1459</ele>
        <time>2019-06-02T08:38:20.000Z</time>
      </trkpt>
      <trkpt lat="43.83562" lon="6.96191">
        <ele>1458</ele>
        <time>2019-06-02T08:38:24.000Z</time>
      </trkpt>
      <trkpt lat="43.83562" lon="6.9617">
        <ele>1458</ele>
        <time>2019-06-02T08:38:27.000Z</time>
      </trkpt>
      <trkpt lat="43.83552" lon="6.96086">
        <ele>1459</ele>
        <time>2019-06-02T08:38:40.000Z</time>
      </trkpt>
      <trkpt lat="43.8355" lon="6.96073">
        <ele>1459</ele>
        <time>2019-06-02T08:38:42.000Z</time>
      </trkpt>
      <trkpt lat="43.83547" lon="6.96056">
        <ele>1459</ele>
        <time>2019-06-02T08:38:45.000Z</time>
      </trkpt>
      <trkpt lat="43.83545" lon="6.96027">
        <ele>1459</ele>
        <time>2019-06-02T08:38:50.000Z</time>
      </trkpt>
      <trkpt lat="43.83542" lon="6.95975">
        <ele>1459</ele>
        <time>2019-06-02T08:38:58.000Z</time>
      </trkpt>
      <trkpt lat="43.83541" lon="6.95956">
        <ele>1459</ele>
        <time>2019-06-02T08:39:01.000Z</time>
      </trkpt>
      <trkpt lat="43.83521" lon="6.95859">
        <ele>1460</ele>
        <time>2019-06-02T08:39:17.000Z</time>
      </trkpt>
      <trkpt lat="43.83498" lon="6.95787">
        <ele>1460</ele>
        <time>2019-06-02T08:39:28.000Z</time>
      </trkpt>
      <trkpt lat="43.83469" lon="6.95717">
        <ele>1460</ele>
        <time>2019-06-02T08:39:41.000Z</time>
      </trkpt>
      <trkpt lat="43.83429" lon="6.95666">
        <ele>1460</ele>
        <time>2019-06-02T08:39:55.000Z</time>
      </trkpt>
      <trkpt lat="43.83394" lon="6.95635">
        <ele>1459</ele>
        <time>2019-06-02T08:40:07.000Z</time>
      </trkpt>
      <trkpt lat="43.83378" lon="6.95627">
        <ele>1456</ele>
        <time>2019-06-02T08:40:11.000Z</time>
      </trkpt>
      <trkpt lat="43.83358" lon="6.95618">
        <ele>1452</ele>
        <time>2019-06-02T08:40:20.000Z</time>
      </trkpt>
      <trkpt lat="43.83357" lon="6.95618">
        <ele>1452</ele>
        <time>2019-06-02T08:40:21.000Z</time>
      </trkpt>
      <trkpt lat="43.83346" lon="6.9562">
        <ele>1451</ele>
        <time>2019-06-02T08:40:25.000Z</time>
      </trkpt>
      <trkpt lat="43.83344" lon="6.95607">
        <ele>1449</ele>
        <time>2019-06-02T08:40:29.000Z</time>
      </trkpt>
      <trkpt lat="43.83349" lon="6.95595">
        <ele>1448</ele>
        <time>2019-06-02T08:40:31.000Z</time>
      </trkpt>
      <trkpt lat="43.83351" lon="6.9557">
        <ele>1448</ele>
        <time>2019-06-02T08:40:35.000Z</time>
      </trkpt>
      <trkpt lat="43.83345" lon="6.95529">
        <ele>1444</ele>
        <time>2019-06-02T08:40:40.000Z</time>
      </trkpt>
      <trkpt lat="43.83344" lon="6.9552">
        <ele>1444</ele>
        <time>2019-06-02T08:40:41.000Z</time>
      </trkpt>
      <trkpt lat="43.83338" lon="6.95501">
        <ele>1443</ele>
        <time>2019-06-02T08:40:43.000Z</time>
      </trkpt>
      <trkpt lat="43.83321" lon="6.95471">
        <ele>1439</ele>
        <time>2019-06-02T08:40:46.000Z</time>
      </trkpt>
      <trkpt lat="43.83311" lon="6.95449">
        <ele>1435</ele>
        <time>2019-06-02T08:40:48.000Z</time>
      </trkpt>
      <trkpt lat="43.83294" lon="6.95413">
        <ele>1432</ele>
        <time>2019-06-02T08:40:51.000Z</time>
      </trkpt>
      <trkpt lat="43.83289" lon="6.954">
        <ele>1430</ele>
        <time>2019-06-02T08:40:52.000Z</time>
      </trkpt>
      <trkpt lat="43.83285" lon="6.95386">
        <ele>1429</ele>
        <time>2019-06-02T08:40:53.000Z</time>
      </trkpt>
      <trkpt lat="43.83278" lon="6.95357">
        <ele>1428</ele>
        <time>2019-06-02T08:40:55.000Z</time>
      </trkpt>
      <trkpt lat="43.83258" lon="6.95254">
        <ele>1424</ele>
        <time>2019-06-02T08:41:03.000Z</time>
      </trkpt>
      <trkpt lat="43.83248" lon="6.95205">
        <ele>1421</ele>
        <time>2019-06-02T08:41:07.000Z</time>
      </trkpt>
      <trkpt lat="43.83246" lon="6.95192">
        <ele>1420</ele>
        <time>2019-06-02T08:41:08.000Z</time>
      </trkpt>
      <trkpt lat="43.83242" lon="6.95154">
        <ele>1419</ele>
        <time>2019-06-02T08:41:11.000Z</time>
      </trkpt>
      <trkpt lat="43.83234" lon="6.95112">
        <ele>1419</ele>
        <time>2019-06-02T08:41:15.000Z</time>
      </trkpt>
      <trkpt lat="43.83214" lon="6.95036">
        <ele>1415</ele>
        <time>2019-06-02T08:41:23.000Z</time>
      </trkpt>
      <trkpt lat="43.8318" lon="6.94931">
        <ele>1413</ele>
        <time>2019-06-02T08:41:37.000Z</time>
      </trkpt>
      <trkpt lat="43.83178" lon="6.94926">
        <ele>1412</ele>
        <time>2019-06-02T08:41:38.000Z</time>
      </trkpt>
      <trkpt lat="43.83175" lon="6.94921">
        <ele>1412</ele>
        <time>2019-06-02T08:41:39.000Z</time>
      </trkpt>
      <trkpt lat="43.83173" lon="6.94916">
        <ele>1412</ele>
        <time>2019-06-02T08:41:40.000Z</time>
      </trkpt>
      <trkpt lat="43.8317" lon="6.9491">
        <ele>1412</ele>
        <time>2019-06-02T08:41:41.000Z</time>
      </trkpt>
      <trkpt lat="43.83168" lon="6.94904">
        <ele>1413</ele>
        <time>2019-06-02T08:41:42.000Z</time>
      </trkpt>
      <trkpt lat="43.83165" lon="6.94899">
        <ele>1413</ele>
        <time>2019-06-02T08:41:43.000Z</time>
      </trkpt>
      <trkpt lat="43.83146" lon="6.94866">
        <ele>1414</ele>
        <time>2019-06-02T08:41:50.000Z</time>
      </trkpt>
      <trkpt lat="43.83123" lon="6.9483">
        <ele>1416</ele>
        <time>2019-06-02T08:42:02.000Z</time>
      </trkpt>
      <trkpt lat="43.831" lon="6.94787">
        <ele>1418</ele>
        <time>2019-06-02T08:42:17.000Z</time>
      </trkpt>
      <trkpt lat="43.8308" lon="6.94749">
        <ele>1419</ele>
        <time>2019-06-02T08:42:31.000Z</time>
      </trkpt>
      <trkpt lat="43.8306" lon="6.94714">
        <ele>1420</ele>
        <time>2019-06-02T08:42:44.000Z</time>
      </trkpt>
      <trkpt lat="43.83053" lon="6.94681">
        <ele>1422</ele>
        <time>2019-06-02T08:42:56.000Z</time>
      </trkpt>
      <trkpt lat="43.83051" lon="6.94655">
        <ele>1424</ele>
        <time>2019-06-02T08:43:06.000Z</time>
      </trkpt>
      <trkpt lat="43.8305" lon="6.94652">
        <ele>1424</ele>
        <time>2019-06-02T08:43:07.000Z</time>
      </trkpt>
      <trkpt lat="43.83049" lon="6.9465">
        <ele>1424</ele>
        <time>2019-06-02T08:43:08.000Z</time>
      </trkpt>
      <trkpt lat="43.83038" lon="6.94622">
        <ele>1425</ele>
        <time>2019-06-02T08:43:21.000Z</time>
      </trkpt>
      <trkpt lat="43.83023" lon="6.94597">
        <ele>1428</ele>
        <time>2019-06-02T08:43:34.000Z</time>
      </trkpt>
      <trkpt lat="43.83013" lon="6.94577">
        <ele>1432</ele>
        <time>2019-06-02T08:43:46.000Z</time>
      </trkpt>
      <trkpt lat="43.83012" lon="6.94576">
        <ele>1432</ele>
        <time>2019-06-02T08:43:47.000Z</time>
      </trkpt>
      <trkpt lat="43.83011" lon="6.94574">
        <ele>1432</ele>
        <time>2019-06-02T08:43:48.000Z</time>
      </trkpt>
      <trkpt lat="43.8301" lon="6.94573">
        <ele>1433</ele>
        <time>2019-06-02T08:43:49.000Z</time>
      </trkpt>
      <trkpt lat="43.83009" lon="6.94571">
        <ele>1433</ele>
        <time>2019-06-02T08:43:50.000Z</time>
      </trkpt>
      <trkpt lat="43.83008" lon="6.94569">
        <ele>1433</ele>
        <time>2019-06-02T08:43:51.000Z</time>
      </trkpt>
      <trkpt lat="43.83007" lon="6.94568">
        <ele>1433</ele>
        <time>2019-06-02T08:43:52.000Z</time>
      </trkpt>
      <trkpt lat="43.83006" lon="6.94567">
        <ele>1434</ele>
        <time>2019-06-02T08:43:53.000Z</time>
      </trkpt>
      <trkpt lat="43.83004" lon="6.94564">
        <ele>1433</ele>
        <time>2019-06-02T08:43:55.000Z</time>
      </trkpt>
      <trkpt lat="43.83004" lon="6.94563">
        <ele>1434</ele>
        <time>2019-06-02T08:43:56.000Z</time>
      </trkpt>
      <trkpt lat="43.83003" lon="6.94561">
        <ele>1434</ele>
        <time>2019-06-02T08:43:57.000Z</time>
      </trkpt>
      <trkpt lat="43.83002" lon="6.94559">
        <ele>1434</ele>
        <time>2019-06-02T08:43:58.000Z</time>
      </trkpt>
      <trkpt lat="43.83002" lon="6.94557">
        <ele>1434</ele>
        <time>2019-06-02T08:43:59.000Z</time>
      </trkpt>
      <trkpt lat="43.83001" lon="6.94556">
        <ele>1434</ele>
        <time>2019-06-02T08:44:00.000Z</time>
      </trkpt>
      <trkpt lat="43.82999" lon="6.94554">
        <ele>1434</ele>
        <time>2019-06-02T08:44:01.000Z</time>
      </trkpt>
      <trkpt lat="43.82998" lon="6.94553">
        <ele>1434</ele>
        <time>2019-06-02T08:44:02.000Z</time>
      </trkpt>
      <trkpt lat="43.82996" lon="6.94552">
        <ele>1434</ele>
        <time>2019-06-02T08:44:03.000Z</time>
      </trkpt>
      <trkpt lat="43.82994" lon="6.94551">
        <ele>1434</ele>
        <time>2019-06-02T08:44:04.000Z</time>
      </trkpt>
      <trkpt lat="43.82993" lon="6.9455">
        <ele>1434</ele>
        <time>2019-06-02T08:44:05.000Z</time>
      </trkpt>
      <trkpt lat="43.8299" lon="6.9455">
        <ele>1434</ele>
        <time>2019-06-02T08:44:06.000Z</time>
      </trkpt>
      <trkpt lat="43.82987" lon="6.94551">
        <ele>1434</ele>
        <time>2019-06-02T08:44:07.000Z</time>
      </trkpt>
      <trkpt lat="43.82985" lon="6.94553">
        <ele>1434</ele>
        <time>2019-06-02T08:44:08.000Z</time>
      </trkpt>
      <trkpt lat="43.82982" lon="6.94555">
        <ele>1434</ele>
        <time>2019-06-02T08:44:09.000Z</time>
      </trkpt>
      <trkpt lat="43.82979" lon="6.94557">
        <ele>1434</ele>
        <time>2019-06-02T08:44:10.000Z</time>
      </trkpt>
      <trkpt lat="43.82976" lon="6.94558">
        <ele>1434</ele>
        <time>2019-06-02T08:44:11.000Z</time>
      </trkpt>
      <trkpt lat="43.82973" lon="6.94558">
        <ele>1433</ele>
        <time>2019-06-02T08:44:12.000Z</time>
      </trkpt>
      <trkpt lat="43.82969" lon="6.94558">
        <ele>1432</ele>
        <time>2019-06-02T08:44:13.000Z</time>
      </trkpt>
      <trkpt lat="43.8294" lon="6.94572">
        <ele>1433</ele>
        <time>2019-06-02T08:44:23.000Z</time>
      </trkpt>
      <trkpt lat="43.82933" lon="6.94576">
        <ele>1433</ele>
        <time>2019-06-02T08:44:28.000Z</time>
      </trkpt>
      <trkpt lat="43.82905" lon="6.94584">
        <ele>1435</ele>
        <time>2019-06-02T08:44:44.000Z</time>
      </trkpt>
      <trkpt lat="43.82879" lon="6.94601">
        <ele>1435</ele>
        <time>2019-06-02T08:44:55.000Z</time>
      </trkpt>
      <trkpt lat="43.82864" lon="6.94601">
        <ele>1437</ele>
        <time>2019-06-02T08:45:07.000Z</time>
      </trkpt>
      <trkpt lat="43.82863" lon="6.94599">
        <ele>1438</ele>
        <time>2019-06-02T08:45:08.000Z</time>
      </trkpt>
      <trkpt lat="43.82863" lon="6.94598">
        <ele>1438</ele>
        <time>2019-06-02T08:45:09.000Z</time>
      </trkpt>
      <trkpt lat="43.8286" lon="6.94594">
        <ele>1438</ele>
        <time>2019-06-02T08:45:12.000Z</time>
      </trkpt>
      <trkpt lat="43.82858" lon="6.94593">
        <ele>1438</ele>
        <time>2019-06-02T08:45:13.000Z</time>
      </trkpt>
      <trkpt lat="43.82857" lon="6.94593">
        <ele>1438</ele>
        <time>2019-06-02T08:45:14.000Z</time>
      </trkpt>
      <trkpt lat="43.82855" lon="6.94595">
        <ele>1438</ele>
        <time>2019-06-02T08:45:15.000Z</time>
      </trkpt>
      <trkpt lat="43.82854" lon="6.94596">
        <ele>1438</ele>
        <time>2019-06-02T08:45:16.000Z</time>
      </trkpt>
      <trkpt lat="43.8283" lon="6.94636">
        <ele>1436</ele>
        <time>2019-06-02T08:45:27.000Z</time>
      </trkpt>
      <trkpt lat="43.82815" lon="6.94659">
        <ele>1438</ele>
        <time>2019-06-02T08:45:38.000Z</time>
      </trkpt>
      <trkpt lat="43.8281" lon="6.94666">
        <ele>1438</ele>
        <time>2019-06-02T08:45:47.000Z</time>
      </trkpt>
      <trkpt lat="43.82814" lon="6.94659">
        <ele>1438</ele>
        <time>2019-06-02T08:45:51.000Z</time>
      </trkpt>
      <trkpt lat="43.82816" lon="6.94657">
        <ele>1438</ele>
        <time>2019-06-02T08:45:52.000Z</time>
      </trkpt>
      <trkpt lat="43.82817" lon="6.94655">
        <ele>1438</ele>
        <time>2019-06-02T08:45:53.000Z</time>
      </trkpt>
      <trkpt lat="43.82819" lon="6.94653">
        <ele>1438</ele>
        <time>2019-06-02T08:45:54.000Z</time>
      </trkpt>
      <trkpt lat="43.8282" lon="6.9465">
        <ele>1438</ele>
        <time>2019-06-02T08:45:55.000Z</time>
      </trkpt>
      <trkpt lat="43.82822" lon="6.94648">
        <ele>1438</ele>
        <time>2019-06-02T08:45:56.000Z</time>
      </trkpt>
      <trkpt lat="43.82827" lon="6.94616">
        <ele>1438</ele>
        <time>2019-06-02T08:46:09.000Z</time>
      </trkpt>
      <trkpt lat="43.82826" lon="6.94615">
        <ele>1438</ele>
        <time>2019-06-02T08:46:10.000Z</time>
      </trkpt>
      <trkpt lat="43.82824" lon="6.94614">
        <ele>1438</ele>
        <time>2019-06-02T08:46:11.000Z</time>
      </trkpt>
      <trkpt lat="43.82823" lon="6.94614">
        <ele>1438</ele>
        <time>2019-06-02T08:46:12.000Z</time>
      </trkpt>
      <trkpt lat="43.82822" lon="6.94613">
        <ele>1438</ele>
        <time>2019-06-02T08:46:13.000Z</time>
      </trkpt>
      <trkpt lat="43.82819" lon="6.94612">
        <ele>1438</ele>
        <time>2019-06-02T08:46:15.000Z</time>
      </trkpt>
      <trkpt lat="43.82818" lon="6.94612">
        <ele>1438</ele>
        <time>2019-06-02T08:46:16.000Z</time>
      </trkpt>
      <trkpt lat="43.82816" lon="6.94613">
        <ele>1439</ele>
        <time>2019-06-02T08:46:17.000Z</time>
      </trkpt>
      <trkpt lat="43.82815" lon="6.94614">
        <ele>1440</ele>
        <time>2019-06-02T08:46:18.000Z</time>
      </trkpt>
      <trkpt lat="43.82814" lon="6.94616">
        <ele>1440</ele>
        <time>2019-06-02T08:46:19.000Z</time>
      </trkpt>
      <trkpt lat="43.8281" lon="6.94618">
        <ele>1440</ele>
        <time>2019-06-02T08:46:23.000Z</time>
      </trkpt>
      <trkpt lat="43.82804" lon="6.94611">
        <ele>1441</ele>
        <time>2019-06-02T08:46:30.000Z</time>
      </trkpt>
      <trkpt lat="43.82803" lon="6.94593">
        <ele>1442</ele>
        <time>2019-06-02T08:46:40.000Z</time>
      </trkpt>
      <trkpt lat="43.82788" lon="6.94586">
        <ele>1443</ele>
        <time>2019-06-02T08:46:54.000Z</time>
      </trkpt>
      <trkpt lat="43.82778" lon="6.94587">
        <ele>1445</ele>
        <time>2019-06-02T08:47:02.000Z</time>
      </trkpt>
      <trkpt lat="43.82765" lon="6.94588">
        <ele>1446</ele>
        <time>2019-06-02T08:47:12.000Z</time>
      </trkpt>
      <trkpt lat="43.82743" lon="6.94581">
        <ele>1449</ele>
        <time>2019-06-02T08:47:29.000Z</time>
      </trkpt>
      <trkpt lat="43.82722" lon="6.94576">
        <ele>1451</ele>
        <time>2019-06-02T08:47:44.000Z</time>
      </trkpt>
      <trkpt lat="43.82694" lon="6.94577">
        <ele>1453</ele>
        <time>2019-06-02T08:48:01.000Z</time>
      </trkpt>
      <trkpt lat="43.82684" lon="6.94579">
        <ele>1454</ele>
        <time>2019-06-02T08:48:07.000Z</time>
      </trkpt>
      <trkpt lat="43.82665" lon="6.94579">
        <ele>1454</ele>
        <time>2019-06-02T08:48:19.000Z</time>
      </trkpt>
      <trkpt lat="43.8265" lon="6.9458">
        <ele>1454</ele>
        <time>2019-06-02T08:48:29.000Z</time>
      </trkpt>
      <trkpt lat="43.82633" lon="6.94577">
        <ele>1454</ele>
        <time>2019-06-02T08:48:41.000Z</time>
      </trkpt>
      <trkpt lat="43.82627" lon="6.94579">
        <ele>1454</ele>
        <time>2019-06-02T08:48:46.000Z</time>
      </trkpt>
      <trkpt lat="43.82612" lon="6.94595">
        <ele>1457</ele>
        <time>2019-06-02T08:49:01.000Z</time>
      </trkpt>
      <trkpt lat="43.82606" lon="6.94603">
        <ele>1458</ele>
        <time>2019-06-02T08:49:08.000Z</time>
      </trkpt>
      <trkpt lat="43.82604" lon="6.94604">
        <ele>1458</ele>
        <time>2019-06-02T08:49:10.000Z</time>
      </trkpt>
      <trkpt lat="43.82595" lon="6.94604">
        <ele>1460</ele>
        <time>2019-06-02T08:49:21.000Z</time>
      </trkpt>
      <trkpt lat="43.82594" lon="6.94603">
        <ele>1460</ele>
        <time>2019-06-02T08:49:22.000Z</time>
      </trkpt>
      <trkpt lat="43.82591" lon="6.94592">
        <ele>1461</ele>
        <time>2019-06-02T08:49:33.000Z</time>
      </trkpt>
      <trkpt lat="43.82584" lon="6.94588">
        <ele>1461</ele>
        <time>2019-06-02T08:49:38.000Z</time>
      </trkpt>
      <trkpt lat="43.82564" lon="6.94582">
        <ele>1461</ele>
        <time>2019-06-02T08:49:48.000Z</time>
      </trkpt>
      <trkpt lat="43.82541" lon="6.94573">
        <ele>1462</ele>
        <time>2019-06-02T08:50:00.000Z</time>
      </trkpt>
      <trkpt lat="43.82528" lon="6.9457">
        <ele>1462</ele>
        <time>2019-06-02T08:50:09.000Z</time>
      </trkpt>
      <trkpt lat="43.82524" lon="6.94572">
        <ele>1462</ele>
        <time>2019-06-02T08:50:12.000Z</time>
      </trkpt>
      <trkpt lat="43.82515" lon="6.94578">
        <ele>1463</ele>
        <time>2019-06-02T08:50:19.000Z</time>
      </trkpt>
      <trkpt lat="43.82514" lon="6.94577">
        <ele>1463</ele>
        <time>2019-06-02T08:50:20.000Z</time>
      </trkpt>
      <trkpt lat="43.82512" lon="6.94576">
        <ele>1463</ele>
        <time>2019-06-02T08:50:21.000Z</time>
      </trkpt>
      <trkpt lat="43.82511" lon="6.94576">
        <ele>1463</ele>
        <time>2019-06-02T08:50:22.000Z</time>
      </trkpt>
      <trkpt lat="43.8251" lon="6.94577">
        <ele>1463</ele>
        <time>2019-06-02T08:50:23.000Z</time>
      </trkpt>
      <trkpt lat="43.82508" lon="6.94577">
        <ele>1464</ele>
        <time>2019-06-02T08:50:24.000Z</time>
      </trkpt>
      <trkpt lat="43.82507" lon="6.94577">
        <ele>1464</ele>
        <time>2019-06-02T08:50:25.000Z</time>
      </trkpt>
      <trkpt lat="43.82506" lon="6.94577">
        <ele>1464</ele>
        <time>2019-06-02T08:50:26.000Z</time>
      </trkpt>
      <trkpt lat="43.82504" lon="6.94576">
        <ele>1464</ele>
        <time>2019-06-02T08:50:28.000Z</time>
      </trkpt>
      <trkpt lat="43.82503" lon="6.94576">
        <ele>1464</ele>
        <time>2019-06-02T08:50:29.000Z</time>
      </trkpt>
      <trkpt lat="43.82501" lon="6.94576">
        <ele>1465</ele>
        <time>2019-06-02T08:50:30.000Z</time>
      </trkpt>
      <trkpt lat="43.82497" lon="6.94576">
        <ele>1465</ele>
        <time>2019-06-02T08:50:34.000Z</time>
      </trkpt>
      <trkpt lat="43.82496" lon="6.94575">
        <ele>1465</ele>
        <time>2019-06-02T08:50:35.000Z</time>
      </trkpt>
      <trkpt lat="43.82495" lon="6.94575">
        <ele>1465</ele>
        <time>2019-06-02T08:50:36.000Z</time>
      </trkpt>
      <trkpt lat="43.82494" lon="6.94575">
        <ele>1465</ele>
        <time>2019-06-02T08:50:37.000Z</time>
      </trkpt>
      <trkpt lat="43.82493" lon="6.94575">
        <ele>1465</ele>
        <time>2019-06-02T08:50:38.000Z</time>
      </trkpt>
      <trkpt lat="43.82492" lon="6.94574">
        <ele>1465</ele>
        <time>2019-06-02T08:50:39.000Z</time>
      </trkpt>
      <trkpt lat="43.8249" lon="6.94574">
        <ele>1465</ele>
        <time>2019-06-02T08:50:40.000Z</time>
      </trkpt>
      <trkpt lat="43.82489" lon="6.94573">
        <ele>1465</ele>
        <time>2019-06-02T08:50:41.000Z</time>
      </trkpt>
      <trkpt lat="43.82488" lon="6.94573">
        <ele>1465</ele>
        <time>2019-06-02T08:50:42.000Z</time>
      </trkpt>
      <trkpt lat="43.82486" lon="6.94573">
        <ele>1465</ele>
        <time>2019-06-02T08:50:43.000Z</time>
      </trkpt>
      <trkpt lat="43.82485" lon="6.94573">
        <ele>1465</ele>
        <time>2019-06-02T08:50:44.000Z</time>
      </trkpt>
      <trkpt lat="43.82483" lon="6.94574">
        <ele>1465</ele>
        <time>2019-06-02T08:50:45.000Z</time>
      </trkpt>
      <trkpt lat="43.82466" lon="6.94577">
        <ele>1466</ele>
        <time>2019-06-02T08:50:59.000Z</time>
      </trkpt>
      <trkpt lat="43.82451" lon="6.94591">
        <ele>1469</ele>
        <time>2019-06-02T08:51:11.000Z</time>
      </trkpt>
      <trkpt lat="43.82436" lon="6.94597">
        <ele>1472</ele>
        <time>2019-06-02T08:51:24.000Z</time>
      </trkpt>
      <trkpt lat="43.82432" lon="6.94605">
        <ele>1473</ele>
        <time>2019-06-02T08:51:30.000Z</time>
      </trkpt>
      <trkpt lat="43.82427" lon="6.94609">
        <ele>1474</ele>
        <time>2019-06-02T08:51:39.000Z</time>
      </trkpt>
      <trkpt lat="43.82421" lon="6.94614">
        <ele>1475</ele>
        <time>2019-06-02T08:51:47.000Z</time>
      </trkpt>
      <trkpt lat="43.82414" lon="6.94618">
        <ele>1476</ele>
        <time>2019-06-02T08:52:01.000Z</time>
      </trkpt>
      <trkpt lat="43.82408" lon="6.94621">
        <ele>1477</ele>
        <time>2019-06-02T08:52:16.000Z</time>
      </trkpt>
      <trkpt lat="43.82404" lon="6.94622">
        <ele>1478</ele>
        <time>2019-06-02T08:52:36.000Z</time>
      </trkpt>
      <trkpt lat="43.82404" lon="6.94623">
        <ele>1478</ele>
        <time>2019-06-02T08:53:11.000Z</time>
      </trkpt>
      <trkpt lat="43.82401" lon="6.94627">
        <ele>1478</ele>
        <time>2019-06-02T08:53:28.000Z</time>
      </trkpt>
      <trkpt lat="43.82397" lon="6.94629">
        <ele>1479</ele>
        <time>2019-06-02T08:53:41.000Z</time>
      </trkpt>
      <trkpt lat="43.82392" lon="6.94633">
        <ele>1481</ele>
        <time>2019-06-02T08:53:49.000Z</time>
      </trkpt>
      <trkpt lat="43.82384" lon="6.9464">
        <ele>1482</ele>
        <time>2019-06-02T08:54:02.000Z</time>
      </trkpt>
      <trkpt lat="43.82374" lon="6.94644">
        <ele>1484</ele>
        <time>2019-06-02T08:54:17.000Z</time>
      </trkpt>
      <trkpt lat="43.82373" lon="6.94645">
        <ele>1484</ele>
        <time>2019-06-02T08:54:18.000Z</time>
      </trkpt>
      <trkpt lat="43.82364" lon="6.94653">
        <ele>1487</ele>
        <time>2019-06-02T08:54:32.000Z</time>
      </trkpt>
      <trkpt lat="43.82358" lon="6.94654">
        <ele>1488</ele>
        <time>2019-06-02T08:54:39.000Z</time>
      </trkpt>
      <trkpt lat="43.82351" lon="6.94656">
        <ele>1489</ele>
        <time>2019-06-02T08:54:49.000Z</time>
      </trkpt>
      <trkpt lat="43.82332" lon="6.94655">
        <ele>1490</ele>
        <time>2019-06-02T08:55:03.000Z</time>
      </trkpt>
      <trkpt lat="43.82328" lon="6.94655">
        <ele>1489</ele>
        <time>2019-06-02T08:55:09.000Z</time>
      </trkpt>
      <trkpt lat="43.82317" lon="6.94654">
        <ele>1487</ele>
        <time>2019-06-02T08:55:21.000Z</time>
      </trkpt>
      <trkpt lat="43.82296" lon="6.94655">
        <ele>1486</ele>
        <time>2019-06-02T08:55:31.000Z</time>
      </trkpt>
      <trkpt lat="43.82289" lon="6.94656">
        <ele>1487</ele>
        <time>2019-06-02T08:55:36.000Z</time>
      </trkpt>
      <trkpt lat="43.82282" lon="6.94662">
        <ele>1488</ele>
        <time>2019-06-02T08:55:41.000Z</time>
      </trkpt>
      <trkpt lat="43.8228" lon="6.94664">
        <ele>1488</ele>
        <time>2019-06-02T08:55:43.000Z</time>
      </trkpt>
      <trkpt lat="43.82279" lon="6.94665">
        <ele>1489</ele>
        <time>2019-06-02T08:55:44.000Z</time>
      </trkpt>
      <trkpt lat="43.82277" lon="6.94665">
        <ele>1489</ele>
        <time>2019-06-02T08:55:45.000Z</time>
      </trkpt>
      <trkpt lat="43.82276" lon="6.94666">
        <ele>1490</ele>
        <time>2019-06-02T08:55:46.000Z</time>
      </trkpt>
      <trkpt lat="43.82274" lon="6.94667">
        <ele>1490</ele>
        <time>2019-06-02T08:55:47.000Z</time>
      </trkpt>
      <trkpt lat="43.82269" lon="6.94669">
        <ele>1490</ele>
        <time>2019-06-02T08:55:57.000Z</time>
      </trkpt>
      <trkpt lat="43.82266" lon="6.9467">
        <ele>1492</ele>
        <time>2019-06-02T08:56:07.000Z</time>
      </trkpt>
      <trkpt lat="43.82261" lon="6.94669">
        <ele>1493</ele>
        <time>2019-06-02T08:56:16.000Z</time>
      </trkpt>
      <trkpt lat="43.8226" lon="6.94668">
        <ele>1493</ele>
        <time>2019-06-02T08:56:18.000Z</time>
      </trkpt>
      <trkpt lat="43.82259" lon="6.94668">
        <ele>1493</ele>
        <time>2019-06-02T08:56:19.000Z</time>
      </trkpt>
      <trkpt lat="43.82257" lon="6.94668">
        <ele>1493</ele>
        <time>2019-06-02T08:56:20.000Z</time>
      </trkpt>
      <trkpt lat="43.82231" lon="6.94673">
        <ele>1494</ele>
        <time>2019-06-02T08:56:33.000Z</time>
      </trkpt>
      <trkpt lat="43.82207" lon="6.9469">
        <ele>1495</ele>
        <time>2019-06-02T08:56:48.000Z</time>
      </trkpt>
      <trkpt lat="43.82178" lon="6.94696">
        <ele>1497</ele>
        <time>2019-06-02T08:57:05.000Z</time>
      </trkpt>
      <trkpt lat="43.82141" lon="6.94689">
        <ele>1497</ele>
        <time>2019-06-02T08:57:19.000Z</time>
      </trkpt>
      <trkpt lat="43.821" lon="6.94697">
        <ele>1497</ele>
        <time>2019-06-02T08:57:33.000Z</time>
      </trkpt>
      <trkpt lat="43.8205" lon="6.94679">
        <ele>1498</ele>
        <time>2019-06-02T08:57:48.000Z</time>
      </trkpt>
      <trkpt lat="43.82016" lon="6.9465">
        <ele>1495</ele>
        <time>2019-06-02T08:57:59.000Z</time>
      </trkpt>
      <trkpt lat="43.82011" lon="6.94644">
        <ele>1495</ele>
        <time>2019-06-02T08:58:00.000Z</time>
      </trkpt>
      <trkpt lat="43.82007" lon="6.94638">
        <ele>1494</ele>
        <time>2019-06-02T08:58:01.000Z</time>
      </trkpt>
      <trkpt lat="43.82001" lon="6.94633">
        <ele>1493</ele>
        <time>2019-06-02T08:58:02.000Z</time>
      </trkpt>
      <trkpt lat="43.81995" lon="6.9463">
        <ele>1492</ele>
        <time>2019-06-02T08:58:03.000Z</time>
      </trkpt>
      <trkpt lat="43.81988" lon="6.94628">
        <ele>1492</ele>
        <time>2019-06-02T08:58:04.000Z</time>
      </trkpt>
      <trkpt lat="43.81981" lon="6.9463">
        <ele>1491</ele>
        <time>2019-06-02T08:58:05.000Z</time>
      </trkpt>
      <trkpt lat="43.81975" lon="6.94634">
        <ele>1491</ele>
        <time>2019-06-02T08:58:06.000Z</time>
      </trkpt>
      <trkpt lat="43.81969" lon="6.94637">
        <ele>1491</ele>
        <time>2019-06-02T08:58:07.000Z</time>
      </trkpt>
      <trkpt lat="43.81963" lon="6.94639">
        <ele>1491</ele>
        <time>2019-06-02T08:58:08.000Z</time>
      </trkpt>
      <trkpt lat="43.81958" lon="6.94639">
        <ele>1491</ele>
        <time>2019-06-02T08:58:09.000Z</time>
      </trkpt>
      <trkpt lat="43.81952" lon="6.94638">
        <ele>1491</ele>
        <time>2019-06-02T08:58:10.000Z</time>
      </trkpt>
      <trkpt lat="43.81948" lon="6.94637">
        <ele>1491</ele>
        <time>2019-06-02T08:58:11.000Z</time>
      </trkpt>
      <trkpt lat="43.81939" lon="6.94633">
        <ele>1491</ele>
        <time>2019-06-02T08:58:13.000Z</time>
      </trkpt>
      <trkpt lat="43.81936" lon="6.94631">
        <ele>1491</ele>
        <time>2019-06-02T08:58:14.000Z</time>
      </trkpt>
      <trkpt lat="43.81933" lon="6.94629">
        <ele>1491</ele>
        <time>2019-06-02T08:58:15.000Z</time>
      </trkpt>
      <trkpt lat="43.81929" lon="6.94624">
        <ele>1492</ele>
        <time>2019-06-02T08:58:17.000Z</time>
      </trkpt>
      <trkpt lat="43.81917" lon="6.94602">
        <ele>1492</ele>
        <time>2019-06-02T08:58:24.000Z</time>
      </trkpt>
      <trkpt lat="43.81917" lon="6.94598">
        <ele>1492</ele>
        <time>2019-06-02T08:58:25.000Z</time>
      </trkpt>
      <trkpt lat="43.81917" lon="6.94595">
        <ele>1492</ele>
        <time>2019-06-02T08:58:26.000Z</time>
      </trkpt>
      <trkpt lat="43.81919" lon="6.94591">
        <ele>1492</ele>
        <time>2019-06-02T08:58:27.000Z</time>
      </trkpt>
      <trkpt lat="43.8192" lon="6.94588">
        <ele>1492</ele>
        <time>2019-06-02T08:58:28.000Z</time>
      </trkpt>
      <trkpt lat="43.81934" lon="6.94552">
        <ele>1494</ele>
        <time>2019-06-02T08:58:43.000Z</time>
      </trkpt>
      <trkpt lat="43.81933" lon="6.94539">
        <ele>1496</ele>
        <time>2019-06-02T08:58:58.000Z</time>
      </trkpt>
      <trkpt lat="43.81933" lon="6.94539">
        <ele>1496</ele>
        <time>2019-06-02T08:59:22.000Z</time>
      </trkpt>
      <trkpt lat="43.81933" lon="6.94541">
        <ele>1496</ele>
        <time>2019-06-02T08:59:42.000Z</time>
      </trkpt>
      <trkpt lat="43.8193" lon="6.94562">
        <ele>1494</ele>
        <time>2019-06-02T08:59:49.000Z</time>
      </trkpt>
      <trkpt lat="43.81928" lon="6.94567">
        <ele>1493</ele>
        <time>2019-06-02T08:59:50.000Z</time>
      </trkpt>
      <trkpt lat="43.81926" lon="6.94572">
        <ele>1493</ele>
        <time>2019-06-02T08:59:51.000Z</time>
      </trkpt>
      <trkpt lat="43.81915" lon="6.946">
        <ele>1492</ele>
        <time>2019-06-02T09:00:01.000Z</time>
      </trkpt>
      <trkpt lat="43.81915" lon="6.94601">
        <ele>1492</ele>
        <time>2019-06-02T09:00:08.000Z</time>
      </trkpt>
      <trkpt lat="43.81916" lon="6.94603">
        <ele>1492</ele>
        <time>2019-06-02T09:00:09.000Z</time>
      </trkpt>
      <trkpt lat="43.81917" lon="6.94606">
        <ele>1492</ele>
        <time>2019-06-02T09:00:10.000Z</time>
      </trkpt>
      <trkpt lat="43.81933" lon="6.94628">
        <ele>1492</ele>
        <time>2019-06-02T09:00:25.000Z</time>
      </trkpt>
      <trkpt lat="43.81935" lon="6.94631">
        <ele>1492</ele>
        <time>2019-06-02T09:00:35.000Z</time>
      </trkpt>
      <trkpt lat="43.81935" lon="6.94635">
        <ele>1492</ele>
        <time>2019-06-02T09:00:39.000Z</time>
      </trkpt>
      <trkpt lat="43.81936" lon="6.94638">
        <ele>1494</ele>
        <time>2019-06-02T09:00:41.000Z</time>
      </trkpt>
      <trkpt lat="43.81932" lon="6.94648">
        <ele>1496</ele>
        <time>2019-06-02T09:00:56.000Z</time>
      </trkpt>
      <trkpt lat="43.8193" lon="6.94655">
        <ele>1498</ele>
        <time>2019-06-02T09:01:11.000Z</time>
      </trkpt>
      <trkpt lat="43.81923" lon="6.94658">
        <ele>1499</ele>
        <time>2019-06-02T09:01:24.000Z</time>
      </trkpt>
      <trkpt lat="43.81917" lon="6.94654">
        <ele>1500</ele>
        <time>2019-06-02T09:01:35.000Z</time>
      </trkpt>
      <trkpt lat="43.81911" lon="6.94649">
        <ele>1500</ele>
        <time>2019-06-02T09:01:42.000Z</time>
      </trkpt>
      <trkpt lat="43.81907" lon="6.94645">
        <ele>1500</ele>
        <time>2019-06-02T09:01:48.000Z</time>
      </trkpt>
      <trkpt lat="43.81901" lon="6.94639">
        <ele>1501</ele>
        <time>2019-06-02T09:01:57.000Z</time>
      </trkpt>
      <trkpt lat="43.81895" lon="6.94626">
        <ele>1502</ele>
        <time>2019-06-02T09:02:10.000Z</time>
      </trkpt>
      <trkpt lat="43.81894" lon="6.94624">
        <ele>1502</ele>
        <time>2019-06-02T09:02:12.000Z</time>
      </trkpt>
      <trkpt lat="43.81888" lon="6.94607">
        <ele>1503</ele>
        <time>2019-06-02T09:02:27.000Z</time>
      </trkpt>
      <trkpt lat="43.81886" lon="6.946">
        <ele>1504</ele>
        <time>2019-06-02T09:02:39.000Z</time>
      </trkpt>
      <trkpt lat="43.81883" lon="6.94586">
        <ele>1506</ele>
        <time>2019-06-02T09:02:54.000Z</time>
      </trkpt>
      <trkpt lat="43.81882" lon="6.94577">
        <ele>1507</ele>
        <time>2019-06-02T09:03:06.000Z</time>
      </trkpt>
      <trkpt lat="43.81879" lon="6.94579">
        <ele>1508</ele>
        <time>2019-06-02T09:03:16.000Z</time>
      </trkpt>
      <trkpt lat="43.81874" lon="6.94581">
        <ele>1510</ele>
        <time>2019-06-02T09:03:29.000Z</time>
      </trkpt>
      <trkpt lat="43.81876" lon="6.94575">
        <ele>1512</ele>
        <time>2019-06-02T09:03:40.000Z</time>
      </trkpt>
      <trkpt lat="43.81876" lon="6.94574">
        <ele>1512</ele>
        <time>2019-06-02T09:03:41.000Z</time>
      </trkpt>
      <trkpt lat="43.81872" lon="6.94563">
        <ele>1512</ele>
        <time>2019-06-02T09:03:55.000Z</time>
      </trkpt>
      <trkpt lat="43.8187" lon="6.94559">
        <ele>1512</ele>
        <time>2019-06-02T09:04:08.000Z</time>
      </trkpt>
      <trkpt lat="43.81866" lon="6.94553">
        <ele>1510</ele>
        <time>2019-06-02T09:04:20.000Z</time>
      </trkpt>
      <trkpt lat="43.81866" lon="6.94552">
        <ele>1510</ele>
        <time>2019-06-02T09:04:23.000Z</time>
      </trkpt>
      <trkpt lat="43.81861" lon="6.94555">
        <ele>1509</ele>
        <time>2019-06-02T09:04:26.000Z</time>
      </trkpt>
      <trkpt lat="43.81859" lon="6.94556">
        <ele>1508</ele>
        <time>2019-06-02T09:04:27.000Z</time>
      </trkpt>
      <trkpt lat="43.81857" lon="6.94556">
        <ele>1508</ele>
        <time>2019-06-02T09:04:28.000Z</time>
      </trkpt>
      <trkpt lat="43.81855" lon="6.94556">
        <ele>1507</ele>
        <time>2019-06-02T09:04:29.000Z</time>
      </trkpt>
      <trkpt lat="43.81853" lon="6.94556">
        <ele>1507</ele>
        <time>2019-06-02T09:04:30.000Z</time>
      </trkpt>
      <trkpt lat="43.81851" lon="6.94557">
        <ele>1507</ele>
        <time>2019-06-02T09:04:31.000Z</time>
      </trkpt>
      <trkpt lat="43.81849" lon="6.94558">
        <ele>1507</ele>
        <time>2019-06-02T09:04:32.000Z</time>
      </trkpt>
      <trkpt lat="43.81848" lon="6.94559">
        <ele>1507</ele>
        <time>2019-06-02T09:04:33.000Z</time>
      </trkpt>
      <trkpt lat="43.81845" lon="6.94561">
        <ele>1507</ele>
        <time>2019-06-02T09:04:37.000Z</time>
      </trkpt>
      <trkpt lat="43.8184" lon="6.94561">
        <ele>1506</ele>
        <time>2019-06-02T09:04:48.000Z</time>
      </trkpt>
      <trkpt lat="43.81839" lon="6.94555">
        <ele>1503</ele>
        <time>2019-06-02T09:04:59.000Z</time>
      </trkpt>
      <trkpt lat="43.81834" lon="6.94555">
        <ele>1503</ele>
        <time>2019-06-02T09:05:08.000Z</time>
      </trkpt>
      <trkpt lat="43.81832" lon="6.94555">
        <ele>1503</ele>
        <time>2019-06-02T09:05:09.000Z</time>
      </trkpt>
      <trkpt lat="43.81825" lon="6.9455">
        <ele>1500</ele>
        <time>2019-06-02T09:05:12.000Z</time>
      </trkpt>
      <trkpt lat="43.81822" lon="6.9455">
        <ele>1500</ele>
        <time>2019-06-02T09:05:13.000Z</time>
      </trkpt>
      <trkpt lat="43.8182" lon="6.94549">
        <ele>1500</ele>
        <time>2019-06-02T09:05:14.000Z</time>
      </trkpt>
      <trkpt lat="43.81817" lon="6.94548">
        <ele>1499</ele>
        <time>2019-06-02T09:05:15.000Z</time>
      </trkpt>
      <trkpt lat="43.81814" lon="6.94547">
        <ele>1499</ele>
        <time>2019-06-02T09:05:16.000Z</time>
      </trkpt>
      <trkpt lat="43.81807" lon="6.94544">
        <ele>1498</ele>
        <time>2019-06-02T09:05:18.000Z</time>
      </trkpt>
      <trkpt lat="43.81803" lon="6.94543">
        <ele>1497</ele>
        <time>2019-06-02T09:05:19.000Z</time>
      </trkpt>
      <trkpt lat="43.81798" lon="6.94542">
        <ele>1497</ele>
        <time>2019-06-02T09:05:20.000Z</time>
      </trkpt>
      <trkpt lat="43.81794" lon="6.94539">
        <ele>1496</ele>
        <time>2019-06-02T09:05:21.000Z</time>
      </trkpt>
      <trkpt lat="43.8179" lon="6.94536">
        <ele>1496</ele>
        <time>2019-06-02T09:05:22.000Z</time>
      </trkpt>
      <trkpt lat="43.81787" lon="6.94533">
        <ele>1496</ele>
        <time>2019-06-02T09:05:23.000Z</time>
      </trkpt>
      <trkpt lat="43.81786" lon="6.9453">
        <ele>1496</ele>
        <time>2019-06-02T09:05:24.000Z</time>
      </trkpt>
      <trkpt lat="43.81784" lon="6.94527">
        <ele>1496</ele>
        <time>2019-06-02T09:05:25.000Z</time>
      </trkpt>
      <trkpt lat="43.81783" lon="6.94525">
        <ele>1496</ele>
        <time>2019-06-02T09:05:26.000Z</time>
      </trkpt>
      <trkpt lat="43.81782" lon="6.94523">
        <ele>1496</ele>
        <time>2019-06-02T09:05:27.000Z</time>
      </trkpt>
      <trkpt lat="43.8178" lon="6.94522">
        <ele>1496</ele>
        <time>2019-06-02T09:05:28.000Z</time>
      </trkpt>
      <trkpt lat="43.81779" lon="6.9452">
        <ele>1498</ele>
        <time>2019-06-02T09:05:29.000Z</time>
      </trkpt>
      <trkpt lat="43.81778" lon="6.94517">
        <ele>1498</ele>
        <time>2019-06-02T09:05:30.000Z</time>
      </trkpt>
      <trkpt lat="43.81778" lon="6.94515">
        <ele>1498</ele>
        <time>2019-06-02T09:05:31.000Z</time>
      </trkpt>
      <trkpt lat="43.81778" lon="6.94512">
        <ele>1498</ele>
        <time>2019-06-02T09:05:32.000Z</time>
      </trkpt>
      <trkpt lat="43.81779" lon="6.9451">
        <ele>1498</ele>
        <time>2019-06-02T09:05:33.000Z</time>
      </trkpt>
      <trkpt lat="43.81781" lon="6.94507">
        <ele>1497</ele>
        <time>2019-06-02T09:05:34.000Z</time>
      </trkpt>
      <trkpt lat="43.81781" lon="6.94505">
        <ele>1496</ele>
        <time>2019-06-02T09:05:35.000Z</time>
      </trkpt>
      <trkpt lat="43.8178" lon="6.94503">
        <ele>1496</ele>
        <time>2019-06-02T09:05:36.000Z</time>
      </trkpt>
      <trkpt lat="43.8178" lon="6.94502">
        <ele>1496</ele>
        <time>2019-06-02T09:05:37.000Z</time>
      </trkpt>
      <trkpt lat="43.81778" lon="6.94501">
        <ele>1496</ele>
        <time>2019-06-02T09:05:38.000Z</time>
      </trkpt>
      <trkpt lat="43.81777" lon="6.94501">
        <ele>1496</ele>
        <time>2019-06-02T09:05:39.000Z</time>
      </trkpt>
      <trkpt lat="43.81775" lon="6.945">
        <ele>1495</ele>
        <time>2019-06-02T09:05:40.000Z</time>
      </trkpt>
      <trkpt lat="43.81773" lon="6.945">
        <ele>1495</ele>
        <time>2019-06-02T09:05:41.000Z</time>
      </trkpt>
      <trkpt lat="43.8177" lon="6.945">
        <ele>1495</ele>
        <time>2019-06-02T09:05:43.000Z</time>
      </trkpt>
      <trkpt lat="43.81768" lon="6.945">
        <ele>1494</ele>
        <time>2019-06-02T09:05:55.000Z</time>
      </trkpt>
      <trkpt lat="43.81768" lon="6.945">
        <ele>1494</ele>
        <time>2019-06-02T09:06:20.000Z</time>
      </trkpt>
      <trkpt lat="43.81767" lon="6.945">
        <ele>1494</ele>
        <time>2019-06-02T09:06:52.000Z</time>
      </trkpt>
      <trkpt lat="43.81768" lon="6.94501">
        <ele>1494</ele>
        <time>2019-06-02T09:07:12.000Z</time>
      </trkpt>
      <trkpt lat="43.81768" lon="6.945">
        <ele>1494</ele>
        <time>2019-06-02T09:07:36.000Z</time>
      </trkpt>
      <trkpt lat="43.81768" lon="6.94498">
        <ele>1494</ele>
        <time>2019-06-02T09:07:57.000Z</time>
      </trkpt>
      <trkpt lat="43.81757" lon="6.94503">
        <ele>1493</ele>
        <time>2019-06-02T09:08:08.000Z</time>
      </trkpt>
      <trkpt lat="43.81753" lon="6.94502">
        <ele>1492</ele>
        <time>2019-06-02T09:08:10.000Z</time>
      </trkpt>
      <trkpt lat="43.81746" lon="6.94501">
        <ele>1490</ele>
        <time>2019-06-02T09:08:13.000Z</time>
      </trkpt>
      <trkpt lat="43.81744" lon="6.94502">
        <ele>1490</ele>
        <time>2019-06-02T09:08:23.000Z</time>
      </trkpt>
      <trkpt lat="43.81741" lon="6.94503">
        <ele>1489</ele>
        <time>2019-06-02T09:08:36.000Z</time>
      </trkpt>
      <trkpt lat="43.81738" lon="6.94498">
        <ele>1488</ele>
        <time>2019-06-02T09:08:45.000Z</time>
      </trkpt>
      <trkpt lat="43.81738" lon="6.94494">
        <ele>1487</ele>
        <time>2019-06-02T09:08:49.000Z</time>
      </trkpt>
      <trkpt lat="43.81739" lon="6.94492">
        <ele>1487</ele>
        <time>2019-06-02T09:08:50.000Z</time>
      </trkpt>
      <trkpt lat="43.8174" lon="6.9449">
        <ele>1486</ele>
        <time>2019-06-02T09:08:51.000Z</time>
      </trkpt>
      <trkpt lat="43.81741" lon="6.94487">
        <ele>1485</ele>
        <time>2019-06-02T09:08:52.000Z</time>
      </trkpt>
      <trkpt lat="43.81741" lon="6.94484">
        <ele>1485</ele>
        <time>2019-06-02T09:08:53.000Z</time>
      </trkpt>
      <trkpt lat="43.81741" lon="6.94482">
        <ele>1485</ele>
        <time>2019-06-02T09:08:54.000Z</time>
      </trkpt>
      <trkpt lat="43.81741" lon="6.9448">
        <ele>1484</ele>
        <time>2019-06-02T09:08:55.000Z</time>
      </trkpt>
      <trkpt lat="43.8174" lon="6.94479">
        <ele>1484</ele>
        <time>2019-06-02T09:08:56.000Z</time>
      </trkpt>
      <trkpt lat="43.81738" lon="6.9448">
        <ele>1484</ele>
        <time>2019-06-02T09:08:57.000Z</time>
      </trkpt>
      <trkpt lat="43.81736" lon="6.94481">
        <ele>1483</ele>
        <time>2019-06-02T09:08:58.000Z</time>
      </trkpt>
      <trkpt lat="43.81734" lon="6.94481">
        <ele>1482</ele>
        <time>2019-06-02T09:08:59.000Z</time>
      </trkpt>
      <trkpt lat="43.81732" lon="6.9448">
        <ele>1482</ele>
        <time>2019-06-02T09:09:00.000Z</time>
      </trkpt>
      <trkpt lat="43.81732" lon="6.94478">
        <ele>1482</ele>
        <time>2019-06-02T09:09:01.000Z</time>
      </trkpt>
      <trkpt lat="43.81732" lon="6.94476">
        <ele>1482</ele>
        <time>2019-06-02T09:09:02.000Z</time>
      </trkpt>
      <trkpt lat="43.81733" lon="6.94474">
        <ele>1482</ele>
        <time>2019-06-02T09:09:03.000Z</time>
      </trkpt>
      <trkpt lat="43.81733" lon="6.94473">
        <ele>1482</ele>
        <time>2019-06-02T09:09:04.000Z</time>
      </trkpt>
      <trkpt lat="43.81732" lon="6.94472">
        <ele>1481</ele>
        <time>2019-06-02T09:09:05.000Z</time>
      </trkpt>
      <trkpt lat="43.8173" lon="6.94473">
        <ele>1481</ele>
        <time>2019-06-02T09:09:06.000Z</time>
      </trkpt>
      <trkpt lat="43.8173" lon="6.94474">
        <ele>1481</ele>
        <time>2019-06-02T09:09:07.000Z</time>
      </trkpt>
      <trkpt lat="43.81729" lon="6.94476">
        <ele>1481</ele>
        <time>2019-06-02T09:09:08.000Z</time>
      </trkpt>
      <trkpt lat="43.81728" lon="6.94478">
        <ele>1481</ele>
        <time>2019-06-02T09:09:09.000Z</time>
      </trkpt>
      <trkpt lat="43.81727" lon="6.94481">
        <ele>1480</ele>
        <time>2019-06-02T09:09:10.000Z</time>
      </trkpt>
      <trkpt lat="43.81726" lon="6.94484">
        <ele>1480</ele>
        <time>2019-06-02T09:09:11.000Z</time>
      </trkpt>
      <trkpt lat="43.81724" lon="6.94485">
        <ele>1480</ele>
        <time>2019-06-02T09:09:12.000Z</time>
      </trkpt>
      <trkpt lat="43.81719" lon="6.94488">
        <ele>1478</ele>
        <time>2019-06-02T09:09:15.000Z</time>
      </trkpt>
      <trkpt lat="43.81716" lon="6.94488">
        <ele>1478</ele>
        <time>2019-06-02T09:09:16.000Z</time>
      </trkpt>
      <trkpt lat="43.81714" lon="6.94489">
        <ele>1477</ele>
        <time>2019-06-02T09:09:17.000Z</time>
      </trkpt>
      <trkpt lat="43.81711" lon="6.9449">
        <ele>1477</ele>
        <time>2019-06-02T09:09:18.000Z</time>
      </trkpt>
      <trkpt lat="43.81707" lon="6.94491">
        <ele>1476</ele>
        <time>2019-06-02T09:09:19.000Z</time>
      </trkpt>
      <trkpt lat="43.81703" lon="6.94492">
        <ele>1476</ele>
        <time>2019-06-02T09:09:20.000Z</time>
      </trkpt>
      <trkpt lat="43.81683" lon="6.94498">
        <ele>1472</ele>
        <time>2019-06-02T09:09:25.000Z</time>
      </trkpt>
      <trkpt lat="43.81668" lon="6.94499">
        <ele>1470</ele>
        <time>2019-06-02T09:09:30.000Z</time>
      </trkpt>
      <trkpt lat="43.81653" lon="6.94495">
        <ele>1467</ele>
        <time>2019-06-02T09:09:35.000Z</time>
      </trkpt>
      <trkpt lat="43.81651" lon="6.94493">
        <ele>1466</ele>
        <time>2019-06-02T09:09:36.000Z</time>
      </trkpt>
      <trkpt lat="43.81649" lon="6.94491">
        <ele>1465</ele>
        <time>2019-06-02T09:09:37.000Z</time>
      </trkpt>
      <trkpt lat="43.81648" lon="6.94488">
        <ele>1464</ele>
        <time>2019-06-02T09:09:38.000Z</time>
      </trkpt>
      <trkpt lat="43.81647" lon="6.94486">
        <ele>1464</ele>
        <time>2019-06-02T09:09:39.000Z</time>
      </trkpt>
      <trkpt lat="43.81646" lon="6.94482">
        <ele>1463</ele>
        <time>2019-06-02T09:09:40.000Z</time>
      </trkpt>
      <trkpt lat="43.81644" lon="6.94478">
        <ele>1462</ele>
        <time>2019-06-02T09:09:41.000Z</time>
      </trkpt>
      <trkpt lat="43.81641" lon="6.94476">
        <ele>1461</ele>
        <time>2019-06-02T09:09:42.000Z</time>
      </trkpt>
      <trkpt lat="43.81638" lon="6.94474">
        <ele>1460</ele>
        <time>2019-06-02T09:09:43.000Z</time>
      </trkpt>
      <trkpt lat="43.81634" lon="6.94473">
        <ele>1459</ele>
        <time>2019-06-02T09:09:44.000Z</time>
      </trkpt>
      <trkpt lat="43.81631" lon="6.94472">
        <ele>1459</ele>
        <time>2019-06-02T09:09:45.000Z</time>
      </trkpt>
      <trkpt lat="43.81627" lon="6.9447">
        <ele>1458</ele>
        <time>2019-06-02T09:09:46.000Z</time>
      </trkpt>
      <trkpt lat="43.81617" lon="6.94462">
        <ele>1457</ele>
        <time>2019-06-02T09:09:49.000Z</time>
      </trkpt>
      <trkpt lat="43.81614" lon="6.94459">
        <ele>1457</ele>
        <time>2019-06-02T09:09:50.000Z</time>
      </trkpt>
      <trkpt lat="43.81604" lon="6.94455">
        <ele>1455</ele>
        <time>2019-06-02T09:09:52.000Z</time>
      </trkpt>
      <trkpt lat="43.816" lon="6.94453">
        <ele>1455</ele>
        <time>2019-06-02T09:09:53.000Z</time>
      </trkpt>
      <trkpt lat="43.81595" lon="6.94451">
        <ele>1455</ele>
        <time>2019-06-02T09:09:54.000Z</time>
      </trkpt>
      <trkpt lat="43.81592" lon="6.94449">
        <ele>1455</ele>
        <time>2019-06-02T09:09:55.000Z</time>
      </trkpt>
      <trkpt lat="43.81588" lon="6.94447">
        <ele>1454</ele>
        <time>2019-06-02T09:09:56.000Z</time>
      </trkpt>
      <trkpt lat="43.81584" lon="6.94446">
        <ele>1455</ele>
        <time>2019-06-02T09:09:57.000Z</time>
      </trkpt>
      <trkpt lat="43.81581" lon="6.94445">
        <ele>1455</ele>
        <time>2019-06-02T09:09:58.000Z</time>
      </trkpt>
      <trkpt lat="43.81579" lon="6.94445">
        <ele>1454</ele>
        <time>2019-06-02T09:09:59.000Z</time>
      </trkpt>
      <trkpt lat="43.81577" lon="6.94446">
        <ele>1454</ele>
        <time>2019-06-02T09:10:00.000Z</time>
      </trkpt>
      <trkpt lat="43.81575" lon="6.94446">
        <ele>1454</ele>
        <time>2019-06-02T09:10:01.000Z</time>
      </trkpt>
      <trkpt lat="43.81574" lon="6.94446">
        <ele>1453</ele>
        <time>2019-06-02T09:10:02.000Z</time>
      </trkpt>
      <trkpt lat="43.81572" lon="6.94447">
        <ele>1453</ele>
        <time>2019-06-02T09:10:03.000Z</time>
      </trkpt>
      <trkpt lat="43.81571" lon="6.94447">
        <ele>1453</ele>
        <time>2019-06-02T09:10:04.000Z</time>
      </trkpt>
      <trkpt lat="43.81569" lon="6.94448">
        <ele>1453</ele>
        <time>2019-06-02T09:10:05.000Z</time>
      </trkpt>
      <trkpt lat="43.81565" lon="6.94449">
        <ele>1453</ele>
        <time>2019-06-02T09:10:07.000Z</time>
      </trkpt>
      <trkpt lat="43.81563" lon="6.94448">
        <ele>1452</ele>
        <time>2019-06-02T09:10:08.000Z</time>
      </trkpt>
      <trkpt lat="43.81561" lon="6.94446">
        <ele>1452</ele>
        <time>2019-06-02T09:10:09.000Z</time>
      </trkpt>
      <trkpt lat="43.81558" lon="6.94445">
        <ele>1451</ele>
        <time>2019-06-02T09:10:10.000Z</time>
      </trkpt>
      <trkpt lat="43.81555" lon="6.94442">
        <ele>1451</ele>
        <time>2019-06-02T09:10:11.000Z</time>
      </trkpt>
      <trkpt lat="43.81551" lon="6.9444">
        <ele>1450</ele>
        <time>2019-06-02T09:10:12.000Z</time>
      </trkpt>
      <trkpt lat="43.81548" lon="6.94437">
        <ele>1450</ele>
        <time>2019-06-02T09:10:13.000Z</time>
      </trkpt>
      <trkpt lat="43.81544" lon="6.94433">
        <ele>1449</ele>
        <time>2019-06-02T09:10:14.000Z</time>
      </trkpt>
      <trkpt lat="43.81541" lon="6.94429">
        <ele>1448</ele>
        <time>2019-06-02T09:10:15.000Z</time>
      </trkpt>
      <trkpt lat="43.81538" lon="6.94424">
        <ele>1447</ele>
        <time>2019-06-02T09:10:16.000Z</time>
      </trkpt>
      <trkpt lat="43.81536" lon="6.94419">
        <ele>1447</ele>
        <time>2019-06-02T09:10:17.000Z</time>
      </trkpt>
      <trkpt lat="43.8152" lon="6.94391">
        <ele>1446</ele>
        <time>2019-06-02T09:10:24.000Z</time>
      </trkpt>
      <trkpt lat="43.81518" lon="6.94388">
        <ele>1445</ele>
        <time>2019-06-02T09:10:25.000Z</time>
      </trkpt>
      <trkpt lat="43.81516" lon="6.94386">
        <ele>1445</ele>
        <time>2019-06-02T09:10:26.000Z</time>
      </trkpt>
      <trkpt lat="43.81514" lon="6.94385">
        <ele>1445</ele>
        <time>2019-06-02T09:10:27.000Z</time>
      </trkpt>
      <trkpt lat="43.81512" lon="6.94385">
        <ele>1445</ele>
        <time>2019-06-02T09:10:28.000Z</time>
      </trkpt>
      <trkpt lat="43.8151" lon="6.94384">
        <ele>1445</ele>
        <time>2019-06-02T09:10:29.000Z</time>
      </trkpt>
      <trkpt lat="43.81508" lon="6.94382">
        <ele>1445</ele>
        <time>2019-06-02T09:10:30.000Z</time>
      </trkpt>
      <trkpt lat="43.81502" lon="6.94376">
        <ele>1445</ele>
        <time>2019-06-02T09:10:33.000Z</time>
      </trkpt>
      <trkpt lat="43.81499" lon="6.94374">
        <ele>1444</ele>
        <time>2019-06-02T09:10:34.000Z</time>
      </trkpt>
      <trkpt lat="43.81497" lon="6.94373">
        <ele>1444</ele>
        <time>2019-06-02T09:10:35.000Z</time>
      </trkpt>
      <trkpt lat="43.81495" lon="6.94371">
        <ele>1444</ele>
        <time>2019-06-02T09:10:36.000Z</time>
      </trkpt>
      <trkpt lat="43.81494" lon="6.94369">
        <ele>1443</ele>
        <time>2019-06-02T09:10:37.000Z</time>
      </trkpt>
      <trkpt lat="43.81493" lon="6.94367">
        <ele>1443</ele>
        <time>2019-06-02T09:10:38.000Z</time>
      </trkpt>
      <trkpt lat="43.81491" lon="6.94365">
        <ele>1443</ele>
        <time>2019-06-02T09:10:39.000Z</time>
      </trkpt>
      <trkpt lat="43.8149" lon="6.94363">
        <ele>1442</ele>
        <time>2019-06-02T09:10:40.000Z</time>
      </trkpt>
      <trkpt lat="43.81488" lon="6.94362">
        <ele>1442</ele>
        <time>2019-06-02T09:10:41.000Z</time>
      </trkpt>
      <trkpt lat="43.81486" lon="6.94361">
        <ele>1442</ele>
        <time>2019-06-02T09:10:42.000Z</time>
      </trkpt>
      <trkpt lat="43.81483" lon="6.9436">
        <ele>1441</ele>
        <time>2019-06-02T09:10:43.000Z</time>
      </trkpt>
      <trkpt lat="43.81481" lon="6.9436">
        <ele>1441</ele>
        <time>2019-06-02T09:10:44.000Z</time>
      </trkpt>
      <trkpt lat="43.81478" lon="6.94361">
        <ele>1441</ele>
        <time>2019-06-02T09:10:45.000Z</time>
      </trkpt>
      <trkpt lat="43.81475" lon="6.94362">
        <ele>1441</ele>
        <time>2019-06-02T09:10:46.000Z</time>
      </trkpt>
      <trkpt lat="43.81471" lon="6.94362">
        <ele>1440</ele>
        <time>2019-06-02T09:10:47.000Z</time>
      </trkpt>
      <trkpt lat="43.81467" lon="6.94361">
        <ele>1439</ele>
        <time>2019-06-02T09:10:48.000Z</time>
      </trkpt>
      <trkpt lat="43.81455" lon="6.9436">
        <ele>1438</ele>
        <time>2019-06-02T09:10:52.000Z</time>
      </trkpt>
      <trkpt lat="43.81453" lon="6.94357">
        <ele>1438</ele>
        <time>2019-06-02T09:10:53.000Z</time>
      </trkpt>
      <trkpt lat="43.81452" lon="6.94354">
        <ele>1438</ele>
        <time>2019-06-02T09:10:54.000Z</time>
      </trkpt>
      <trkpt lat="43.81452" lon="6.94351">
        <ele>1440</ele>
        <time>2019-06-02T09:10:55.000Z</time>
      </trkpt>
      <trkpt lat="43.8145" lon="6.94349">
        <ele>1440</ele>
        <time>2019-06-02T09:10:56.000Z</time>
      </trkpt>
      <trkpt lat="43.81449" lon="6.94348">
        <ele>1440</ele>
        <time>2019-06-02T09:10:57.000Z</time>
      </trkpt>
      <trkpt lat="43.81447" lon="6.94347">
        <ele>1440</ele>
        <time>2019-06-02T09:10:58.000Z</time>
      </trkpt>
      <trkpt lat="43.81446" lon="6.94346">
        <ele>1440</ele>
        <time>2019-06-02T09:10:59.000Z</time>
      </trkpt>
      <trkpt lat="43.81444" lon="6.94347">
        <ele>1440</ele>
        <time>2019-06-02T09:11:00.000Z</time>
      </trkpt>
      <trkpt lat="43.8144" lon="6.94346">
        <ele>1440</ele>
        <time>2019-06-02T09:11:03.000Z</time>
      </trkpt>
      <trkpt lat="43.81439" lon="6.94344">
        <ele>1440</ele>
        <time>2019-06-02T09:11:04.000Z</time>
      </trkpt>
      <trkpt lat="43.81438" lon="6.94342">
        <ele>1440</ele>
        <time>2019-06-02T09:11:05.000Z</time>
      </trkpt>
      <trkpt lat="43.81436" lon="6.94341">
        <ele>1440</ele>
        <time>2019-06-02T09:11:06.000Z</time>
      </trkpt>
      <trkpt lat="43.81435" lon="6.94339">
        <ele>1440</ele>
        <time>2019-06-02T09:11:07.000Z</time>
      </trkpt>
      <trkpt lat="43.81433" lon="6.94338">
        <ele>1440</ele>
        <time>2019-06-02T09:11:08.000Z</time>
      </trkpt>
      <trkpt lat="43.8143" lon="6.94335">
        <ele>1438</ele>
        <time>2019-06-02T09:11:09.000Z</time>
      </trkpt>
      <trkpt lat="43.81427" lon="6.94332">
        <ele>1438</ele>
        <time>2019-06-02T09:11:10.000Z</time>
      </trkpt>
      <trkpt lat="43.81425" lon="6.94328">
        <ele>1438</ele>
        <time>2019-06-02T09:11:11.000Z</time>
      </trkpt>
      <trkpt lat="43.81424" lon="6.94324">
        <ele>1438</ele>
        <time>2019-06-02T09:11:12.000Z</time>
      </trkpt>
      <trkpt lat="43.81423" lon="6.9432">
        <ele>1438</ele>
        <time>2019-06-02T09:11:13.000Z</time>
      </trkpt>
      <trkpt lat="43.81418" lon="6.94305">
        <ele>1438</ele>
        <time>2019-06-02T09:11:20.000Z</time>
      </trkpt>
      <trkpt lat="43.81417" lon="6.94303">
        <ele>1438</ele>
        <time>2019-06-02T09:11:21.000Z</time>
      </trkpt>
      <trkpt lat="43.81416" lon="6.94302">
        <ele>1438</ele>
        <time>2019-06-02T09:11:22.000Z</time>
      </trkpt>
      <trkpt lat="43.81415" lon="6.943">
        <ele>1438</ele>
        <time>2019-06-02T09:11:23.000Z</time>
      </trkpt>
      <trkpt lat="43.8141" lon="6.9429">
        <ele>1437</ele>
        <time>2019-06-02T09:11:29.000Z</time>
      </trkpt>
      <trkpt lat="43.81409" lon="6.94287">
        <ele>1437</ele>
        <time>2019-06-02T09:11:30.000Z</time>
      </trkpt>
      <trkpt lat="43.81409" lon="6.94284">
        <ele>1437</ele>
        <time>2019-06-02T09:11:31.000Z</time>
      </trkpt>
      <trkpt lat="43.814" lon="6.94252">
        <ele>1438</ele>
        <time>2019-06-02T09:11:42.000Z</time>
      </trkpt>
      <trkpt lat="43.814" lon="6.9425">
        <ele>1438</ele>
        <time>2019-06-02T09:11:43.000Z</time>
      </trkpt>
      <trkpt lat="43.81401" lon="6.94241">
        <ele>1438</ele>
        <time>2019-06-02T09:11:47.000Z</time>
      </trkpt>
      <trkpt lat="43.81401" lon="6.94239">
        <ele>1438</ele>
        <time>2019-06-02T09:11:48.000Z</time>
      </trkpt>
      <trkpt lat="43.81399" lon="6.94232">
        <ele>1437</ele>
        <time>2019-06-02T09:11:54.000Z</time>
      </trkpt>
      <trkpt lat="43.81397" lon="6.94231">
        <ele>1437</ele>
        <time>2019-06-02T09:11:55.000Z</time>
      </trkpt>
      <trkpt lat="43.81396" lon="6.94231">
        <ele>1436</ele>
        <time>2019-06-02T09:11:56.000Z</time>
      </trkpt>
      <trkpt lat="43.81394" lon="6.94231">
        <ele>1436</ele>
        <time>2019-06-02T09:11:57.000Z</time>
      </trkpt>
      <trkpt lat="43.81392" lon="6.94232">
        <ele>1435</ele>
        <time>2019-06-02T09:11:58.000Z</time>
      </trkpt>
      <trkpt lat="43.81391" lon="6.94233">
        <ele>1435</ele>
        <time>2019-06-02T09:11:59.000Z</time>
      </trkpt>
      <trkpt lat="43.8139" lon="6.94235">
        <ele>1435</ele>
        <time>2019-06-02T09:12:00.000Z</time>
      </trkpt>
      <trkpt lat="43.81389" lon="6.94236">
        <ele>1434</ele>
        <time>2019-06-02T09:12:01.000Z</time>
      </trkpt>
      <trkpt lat="43.81388" lon="6.94237">
        <ele>1434</ele>
        <time>2019-06-02T09:12:02.000Z</time>
      </trkpt>
      <trkpt lat="43.81387" lon="6.94235">
        <ele>1434</ele>
        <time>2019-06-02T09:12:03.000Z</time>
      </trkpt>
      <trkpt lat="43.81386" lon="6.94234">
        <ele>1433</ele>
        <time>2019-06-02T09:12:04.000Z</time>
      </trkpt>
      <trkpt lat="43.81384" lon="6.94233">
        <ele>1433</ele>
        <time>2019-06-02T09:12:05.000Z</time>
      </trkpt>
      <trkpt lat="43.81383" lon="6.94232">
        <ele>1433</ele>
        <time>2019-06-02T09:12:06.000Z</time>
      </trkpt>
      <trkpt lat="43.81381" lon="6.94233">
        <ele>1433</ele>
        <time>2019-06-02T09:12:07.000Z</time>
      </trkpt>
      <trkpt lat="43.8138" lon="6.94235">
        <ele>1432</ele>
        <time>2019-06-02T09:12:08.000Z</time>
      </trkpt>
      <trkpt lat="43.81379" lon="6.94238">
        <ele>1432</ele>
        <time>2019-06-02T09:12:09.000Z</time>
      </trkpt>
      <trkpt lat="43.81379" lon="6.9424">
        <ele>1432</ele>
        <time>2019-06-02T09:12:10.000Z</time>
      </trkpt>
      <trkpt lat="43.81374" lon="6.94241">
        <ele>1430</ele>
        <time>2019-06-02T09:12:14.000Z</time>
      </trkpt>
      <trkpt lat="43.81372" lon="6.94239">
        <ele>1429</ele>
        <time>2019-06-02T09:12:15.000Z</time>
      </trkpt>
      <trkpt lat="43.8137" lon="6.94236">
        <ele>1429</ele>
        <time>2019-06-02T09:12:16.000Z</time>
      </trkpt>
      <trkpt lat="43.81369" lon="6.94233">
        <ele>1428</ele>
        <time>2019-06-02T09:12:17.000Z</time>
      </trkpt>
      <trkpt lat="43.81366" lon="6.9423">
        <ele>1428</ele>
        <time>2019-06-02T09:12:18.000Z</time>
      </trkpt>
      <trkpt lat="43.81352" lon="6.94219">
        <ele>1426</ele>
        <time>2019-06-02T09:12:22.000Z</time>
      </trkpt>
      <trkpt lat="43.81341" lon="6.94217">
        <ele>1425</ele>
        <time>2019-06-02T09:12:25.000Z</time>
      </trkpt>
      <trkpt lat="43.81339" lon="6.94218">
        <ele>1424</ele>
        <time>2019-06-02T09:12:26.000Z</time>
      </trkpt>
      <trkpt lat="43.81336" lon="6.94218">
        <ele>1423</ele>
        <time>2019-06-02T09:12:27.000Z</time>
      </trkpt>
      <trkpt lat="43.81332" lon="6.94216">
        <ele>1423</ele>
        <time>2019-06-02T09:12:28.000Z</time>
      </trkpt>
      <trkpt lat="43.81329" lon="6.94216">
        <ele>1422</ele>
        <time>2019-06-02T09:12:29.000Z</time>
      </trkpt>
      <trkpt lat="43.81325" lon="6.94216">
        <ele>1422</ele>
        <time>2019-06-02T09:12:30.000Z</time>
      </trkpt>
      <trkpt lat="43.81321" lon="6.94217">
        <ele>1422</ele>
        <time>2019-06-02T09:12:31.000Z</time>
      </trkpt>
      <trkpt lat="43.81316" lon="6.94218">
        <ele>1421</ele>
        <time>2019-06-02T09:12:32.000Z</time>
      </trkpt>
      <trkpt lat="43.81311" lon="6.94218">
        <ele>1420</ele>
        <time>2019-06-02T09:12:33.000Z</time>
      </trkpt>
      <trkpt lat="43.81307" lon="6.94219">
        <ele>1420</ele>
        <time>2019-06-02T09:12:34.000Z</time>
      </trkpt>
      <trkpt lat="43.81302" lon="6.94219">
        <ele>1420</ele>
        <time>2019-06-02T09:12:35.000Z</time>
      </trkpt>
      <trkpt lat="43.81298" lon="6.94221">
        <ele>1420</ele>
        <time>2019-06-02T09:12:36.000Z</time>
      </trkpt>
      <trkpt lat="43.81294" lon="6.94223">
        <ele>1420</ele>
        <time>2019-06-02T09:12:37.000Z</time>
      </trkpt>
      <trkpt lat="43.8129" lon="6.94225">
        <ele>1420</ele>
        <time>2019-06-02T09:12:38.000Z</time>
      </trkpt>
      <trkpt lat="43.81286" lon="6.94227">
        <ele>1420</ele>
        <time>2019-06-02T09:12:39.000Z</time>
      </trkpt>
      <trkpt lat="43.81281" lon="6.94231">
        <ele>1420</ele>
        <time>2019-06-02T09:12:41.000Z</time>
      </trkpt>
      <trkpt lat="43.81279" lon="6.94233">
        <ele>1420</ele>
        <time>2019-06-02T09:12:42.000Z</time>
      </trkpt>
      <trkpt lat="43.81278" lon="6.94234">
        <ele>1420</ele>
        <time>2019-06-02T09:12:43.000Z</time>
      </trkpt>
      <trkpt lat="43.81276" lon="6.94235">
        <ele>1420</ele>
        <time>2019-06-02T09:12:44.000Z</time>
      </trkpt>
      <trkpt lat="43.81275" lon="6.94235">
        <ele>1420</ele>
        <time>2019-06-02T09:12:45.000Z</time>
      </trkpt>
      <trkpt lat="43.81274" lon="6.94234">
        <ele>1421</ele>
        <time>2019-06-02T09:12:48.000Z</time>
      </trkpt>
      <trkpt lat="43.81271" lon="6.94233">
        <ele>1421</ele>
        <time>2019-06-02T09:12:52.000Z</time>
      </trkpt>
      <trkpt lat="43.81258" lon="6.94225">
        <ele>1420</ele>
        <time>2019-06-02T09:13:02.000Z</time>
      </trkpt>
      <trkpt lat="43.81243" lon="6.94213">
        <ele>1418</ele>
        <time>2019-06-02T09:13:08.000Z</time>
      </trkpt>
      <trkpt lat="43.81235" lon="6.94207">
        <ele>1416</ele>
        <time>2019-06-02T09:13:10.000Z</time>
      </trkpt>
      <trkpt lat="43.81232" lon="6.94206">
        <ele>1416</ele>
        <time>2019-06-02T09:13:11.000Z</time>
      </trkpt>
      <trkpt lat="43.81228" lon="6.94203">
        <ele>1415</ele>
        <time>2019-06-02T09:13:12.000Z</time>
      </trkpt>
      <trkpt lat="43.81225" lon="6.942">
        <ele>1415</ele>
        <time>2019-06-02T09:13:13.000Z</time>
      </trkpt>
      <trkpt lat="43.81222" lon="6.94197">
        <ele>1414</ele>
        <time>2019-06-02T09:13:14.000Z</time>
      </trkpt>
      <trkpt lat="43.81221" lon="6.94193">
        <ele>1414</ele>
        <time>2019-06-02T09:13:15.000Z</time>
      </trkpt>
      <trkpt lat="43.81221" lon="6.94189">
        <ele>1414</ele>
        <time>2019-06-02T09:13:16.000Z</time>
      </trkpt>
      <trkpt lat="43.8122" lon="6.94185">
        <ele>1413</ele>
        <time>2019-06-02T09:13:17.000Z</time>
      </trkpt>
      <trkpt lat="43.81218" lon="6.9418">
        <ele>1413</ele>
        <time>2019-06-02T09:13:18.000Z</time>
      </trkpt>
      <trkpt lat="43.81217" lon="6.94176">
        <ele>1413</ele>
        <time>2019-06-02T09:13:19.000Z</time>
      </trkpt>
      <trkpt lat="43.81214" lon="6.94168">
        <ele>1413</ele>
        <time>2019-06-02T09:13:21.000Z</time>
      </trkpt>
      <trkpt lat="43.81214" lon="6.94164">
        <ele>1412</ele>
        <time>2019-06-02T09:13:22.000Z</time>
      </trkpt>
      <trkpt lat="43.81215" lon="6.94159">
        <ele>1412</ele>
        <time>2019-06-02T09:13:23.000Z</time>
      </trkpt>
      <trkpt lat="43.81216" lon="6.94154">
        <ele>1411</ele>
        <time>2019-06-02T09:13:24.000Z</time>
      </trkpt>
      <trkpt lat="43.81217" lon="6.9415">
        <ele>1411</ele>
        <time>2019-06-02T09:13:25.000Z</time>
      </trkpt>
      <trkpt lat="43.81217" lon="6.94146">
        <ele>1411</ele>
        <time>2019-06-02T09:13:26.000Z</time>
      </trkpt>
      <trkpt lat="43.81217" lon="6.94142">
        <ele>1411</ele>
        <time>2019-06-02T09:13:27.000Z</time>
      </trkpt>
      <trkpt lat="43.81217" lon="6.9414">
        <ele>1410</ele>
        <time>2019-06-02T09:13:28.000Z</time>
      </trkpt>
      <trkpt lat="43.81216" lon="6.94136">
        <ele>1409</ele>
        <time>2019-06-02T09:13:29.000Z</time>
      </trkpt>
      <trkpt lat="43.81215" lon="6.94133">
        <ele>1409</ele>
        <time>2019-06-02T09:13:30.000Z</time>
      </trkpt>
      <trkpt lat="43.8121" lon="6.9411">
        <ele>1408</ele>
        <time>2019-06-02T09:13:35.000Z</time>
      </trkpt>
      <trkpt lat="43.81207" lon="6.94109">
        <ele>1407</ele>
        <time>2019-06-02T09:13:36.000Z</time>
      </trkpt>
      <trkpt lat="43.81204" lon="6.94107">
        <ele>1407</ele>
        <time>2019-06-02T09:13:37.000Z</time>
      </trkpt>
      <trkpt lat="43.81201" lon="6.94107">
        <ele>1406</ele>
        <time>2019-06-02T09:13:38.000Z</time>
      </trkpt>
      <trkpt lat="43.81197" lon="6.94106">
        <ele>1406</ele>
        <time>2019-06-02T09:13:39.000Z</time>
      </trkpt>
      <trkpt lat="43.81184" lon="6.94104">
        <ele>1404</ele>
        <time>2019-06-02T09:13:42.000Z</time>
      </trkpt>
      <trkpt lat="43.8118" lon="6.94105">
        <ele>1404</ele>
        <time>2019-06-02T09:13:43.000Z</time>
      </trkpt>
      <trkpt lat="43.81171" lon="6.94107">
        <ele>1402</ele>
        <time>2019-06-02T09:13:45.000Z</time>
      </trkpt>
      <trkpt lat="43.81167" lon="6.94108">
        <ele>1402</ele>
        <time>2019-06-02T09:13:46.000Z</time>
      </trkpt>
      <trkpt lat="43.81158" lon="6.94107">
        <ele>1402</ele>
        <time>2019-06-02T09:13:48.000Z</time>
      </trkpt>
      <trkpt lat="43.81154" lon="6.94105">
        <ele>1402</ele>
        <time>2019-06-02T09:13:49.000Z</time>
      </trkpt>
      <trkpt lat="43.81151" lon="6.94102">
        <ele>1402</ele>
        <time>2019-06-02T09:13:50.000Z</time>
      </trkpt>
      <trkpt lat="43.8115" lon="6.94099">
        <ele>1402</ele>
        <time>2019-06-02T09:13:51.000Z</time>
      </trkpt>
      <trkpt lat="43.81147" lon="6.94095">
        <ele>1402</ele>
        <time>2019-06-02T09:13:52.000Z</time>
      </trkpt>
      <trkpt lat="43.81144" lon="6.94094">
        <ele>1401</ele>
        <time>2019-06-02T09:13:53.000Z</time>
      </trkpt>
      <trkpt lat="43.8114" lon="6.94094">
        <ele>1400</ele>
        <time>2019-06-02T09:13:54.000Z</time>
      </trkpt>
      <trkpt lat="43.81137" lon="6.94095">
        <ele>1400</ele>
        <time>2019-06-02T09:13:55.000Z</time>
      </trkpt>
      <trkpt lat="43.81135" lon="6.94098">
        <ele>1399</ele>
        <time>2019-06-02T09:13:56.000Z</time>
      </trkpt>
      <trkpt lat="43.81131" lon="6.94099">
        <ele>1399</ele>
        <time>2019-06-02T09:13:57.000Z</time>
      </trkpt>
      <trkpt lat="43.81128" lon="6.94099">
        <ele>1398</ele>
        <time>2019-06-02T09:13:58.000Z</time>
      </trkpt>
      <trkpt lat="43.81124" lon="6.94098">
        <ele>1398</ele>
        <time>2019-06-02T09:13:59.000Z</time>
      </trkpt>
      <trkpt lat="43.8112" lon="6.941">
        <ele>1397</ele>
        <time>2019-06-02T09:14:00.000Z</time>
      </trkpt>
      <trkpt lat="43.81117" lon="6.94101">
        <ele>1397</ele>
        <time>2019-06-02T09:14:01.000Z</time>
      </trkpt>
      <trkpt lat="43.81113" lon="6.94103">
        <ele>1396</ele>
        <time>2019-06-02T09:14:03.000Z</time>
      </trkpt>
      <trkpt lat="43.81112" lon="6.94105">
        <ele>1396</ele>
        <time>2019-06-02T09:14:04.000Z</time>
      </trkpt>
      <trkpt lat="43.8111" lon="6.94106">
        <ele>1396</ele>
        <time>2019-06-02T09:14:05.000Z</time>
      </trkpt>
      <trkpt lat="43.81099" lon="6.94113">
        <ele>1395</ele>
        <time>2019-06-02T09:14:10.000Z</time>
      </trkpt>
      <trkpt lat="43.81097" lon="6.94113">
        <ele>1395</ele>
        <time>2019-06-02T09:14:11.000Z</time>
      </trkpt>
      <trkpt lat="43.81075" lon="6.94118">
        <ele>1395</ele>
        <time>2019-06-02T09:14:20.000Z</time>
      </trkpt>
      <trkpt lat="43.81073" lon="6.94119">
        <ele>1395</ele>
        <time>2019-06-02T09:14:21.000Z</time>
      </trkpt>
      <trkpt lat="43.81071" lon="6.9412">
        <ele>1395</ele>
        <time>2019-06-02T09:14:22.000Z</time>
      </trkpt>
      <trkpt lat="43.8107" lon="6.94122">
        <ele>1395</ele>
        <time>2019-06-02T09:14:23.000Z</time>
      </trkpt>
      <trkpt lat="43.81068" lon="6.94123">
        <ele>1395</ele>
        <time>2019-06-02T09:14:24.000Z</time>
      </trkpt>
      <trkpt lat="43.81066" lon="6.94125">
        <ele>1395</ele>
        <time>2019-06-02T09:14:25.000Z</time>
      </trkpt>
      <trkpt lat="43.81058" lon="6.9413">
        <ele>1395</ele>
        <time>2019-06-02T09:14:29.000Z</time>
      </trkpt>
      <trkpt lat="43.81056" lon="6.9413">
        <ele>1394</ele>
        <time>2019-06-02T09:14:30.000Z</time>
      </trkpt>
      <trkpt lat="43.81055" lon="6.94129">
        <ele>1394</ele>
        <time>2019-06-02T09:14:31.000Z</time>
      </trkpt>
      <trkpt lat="43.81052" lon="6.94129">
        <ele>1394</ele>
        <time>2019-06-02T09:14:32.000Z</time>
      </trkpt>
      <trkpt lat="43.8105" lon="6.94129">
        <ele>1394</ele>
        <time>2019-06-02T09:14:33.000Z</time>
      </trkpt>
      <trkpt lat="43.81041" lon="6.94132">
        <ele>1394</ele>
        <time>2019-06-02T09:14:36.000Z</time>
      </trkpt>
      <trkpt lat="43.8103" lon="6.94133">
        <ele>1394</ele>
        <time>2019-06-02T09:14:40.000Z</time>
      </trkpt>
      <trkpt lat="43.81028" lon="6.94135">
        <ele>1394</ele>
        <time>2019-06-02T09:14:41.000Z</time>
      </trkpt>
      <trkpt lat="43.81025" lon="6.94137">
        <ele>1394</ele>
        <time>2019-06-02T09:14:42.000Z</time>
      </trkpt>
      <trkpt lat="43.81023" lon="6.94138">
        <ele>1394</ele>
        <time>2019-06-02T09:14:43.000Z</time>
      </trkpt>
      <trkpt lat="43.8102" lon="6.94138">
        <ele>1394</ele>
        <time>2019-06-02T09:14:44.000Z</time>
      </trkpt>
      <trkpt lat="43.81" lon="6.94146">
        <ele>1395</ele>
        <time>2019-06-02T09:14:52.000Z</time>
      </trkpt>
      <trkpt lat="43.80974" lon="6.9415">
        <ele>1396</ele>
        <time>2019-06-02T09:15:04.000Z</time>
      </trkpt>
      <trkpt lat="43.80955" lon="6.94154">
        <ele>1395</ele>
        <time>2019-06-02T09:15:12.000Z</time>
      </trkpt>
      <trkpt lat="43.80953" lon="6.94154">
        <ele>1395</ele>
        <time>2019-06-02T09:15:13.000Z</time>
      </trkpt>
      <trkpt lat="43.8095" lon="6.94155">
        <ele>1393</ele>
        <time>2019-06-02T09:15:14.000Z</time>
      </trkpt>
      <trkpt lat="43.80947" lon="6.94154">
        <ele>1393</ele>
        <time>2019-06-02T09:15:15.000Z</time>
      </trkpt>
      <trkpt lat="43.80922" lon="6.94146">
        <ele>1390</ele>
        <time>2019-06-02T09:15:24.000Z</time>
      </trkpt>
      <trkpt lat="43.8092" lon="6.94144">
        <ele>1389</ele>
        <time>2019-06-02T09:15:25.000Z</time>
      </trkpt>
      <trkpt lat="43.80918" lon="6.94141">
        <ele>1389</ele>
        <time>2019-06-02T09:15:26.000Z</time>
      </trkpt>
      <trkpt lat="43.80917" lon="6.9414">
        <ele>1389</ele>
        <time>2019-06-02T09:15:27.000Z</time>
      </trkpt>
      <trkpt lat="43.80915" lon="6.94141">
        <ele>1389</ele>
        <time>2019-06-02T09:15:28.000Z</time>
      </trkpt>
      <trkpt lat="43.80913" lon="6.94141">
        <ele>1388</ele>
        <time>2019-06-02T09:15:29.000Z</time>
      </trkpt>
      <trkpt lat="43.80911" lon="6.9414">
        <ele>1388</ele>
        <time>2019-06-02T09:15:30.000Z</time>
      </trkpt>
      <trkpt lat="43.80908" lon="6.9414">
        <ele>1388</ele>
        <time>2019-06-02T09:15:31.000Z</time>
      </trkpt>
      <trkpt lat="43.80892" lon="6.94146">
        <ele>1387</ele>
        <time>2019-06-02T09:15:38.000Z</time>
      </trkpt>
      <trkpt lat="43.8089" lon="6.94146">
        <ele>1387</ele>
        <time>2019-06-02T09:15:39.000Z</time>
      </trkpt>
      <trkpt lat="43.80888" lon="6.94146">
        <ele>1387</ele>
        <time>2019-06-02T09:15:40.000Z</time>
      </trkpt>
      <trkpt lat="43.80871" lon="6.94152">
        <ele>1390</ele>
        <time>2019-06-02T09:15:50.000Z</time>
      </trkpt>
      <trkpt lat="43.8087" lon="6.94154">
        <ele>1390</ele>
        <time>2019-06-02T09:15:51.000Z</time>
      </trkpt>
      <trkpt lat="43.80868" lon="6.94156">
        <ele>1390</ele>
        <time>2019-06-02T09:15:52.000Z</time>
      </trkpt>
      <trkpt lat="43.80866" lon="6.94157">
        <ele>1390</ele>
        <time>2019-06-02T09:15:53.000Z</time>
      </trkpt>
      <trkpt lat="43.80865" lon="6.94159">
        <ele>1390</ele>
        <time>2019-06-02T09:15:54.000Z</time>
      </trkpt>
      <trkpt lat="43.80863" lon="6.9416">
        <ele>1390</ele>
        <time>2019-06-02T09:15:55.000Z</time>
      </trkpt>
      <trkpt lat="43.80862" lon="6.94162">
        <ele>1390</ele>
        <time>2019-06-02T09:15:56.000Z</time>
      </trkpt>
      <trkpt lat="43.8086" lon="6.94164">
        <ele>1390</ele>
        <time>2019-06-02T09:15:57.000Z</time>
      </trkpt>
      <trkpt lat="43.80858" lon="6.94166">
        <ele>1390</ele>
        <time>2019-06-02T09:15:58.000Z</time>
      </trkpt>
      <trkpt lat="43.80849" lon="6.9418">
        <ele>1390</ele>
        <time>2019-06-02T09:16:05.000Z</time>
      </trkpt>
      <trkpt lat="43.80847" lon="6.94181">
        <ele>1390</ele>
        <time>2019-06-02T09:16:06.000Z</time>
      </trkpt>
      <trkpt lat="43.80845" lon="6.94183">
        <ele>1390</ele>
        <time>2019-06-02T09:16:07.000Z</time>
      </trkpt>
      <trkpt lat="43.80838" lon="6.94198">
        <ele>1390</ele>
        <time>2019-06-02T09:16:13.000Z</time>
      </trkpt>
      <trkpt lat="43.80835" lon="6.942">
        <ele>1390</ele>
        <time>2019-06-02T09:16:14.000Z</time>
      </trkpt>
      <trkpt lat="43.80832" lon="6.94202">
        <ele>1390</ele>
        <time>2019-06-02T09:16:15.000Z</time>
      </trkpt>
      <trkpt lat="43.8083" lon="6.94205">
        <ele>1390</ele>
        <time>2019-06-02T09:16:16.000Z</time>
      </trkpt>
      <trkpt lat="43.80827" lon="6.94207">
        <ele>1389</ele>
        <time>2019-06-02T09:16:17.000Z</time>
      </trkpt>
      <trkpt lat="43.80824" lon="6.94209">
        <ele>1389</ele>
        <time>2019-06-02T09:16:18.000Z</time>
      </trkpt>
      <trkpt lat="43.80821" lon="6.94209">
        <ele>1388</ele>
        <time>2019-06-02T09:16:19.000Z</time>
      </trkpt>
      <trkpt lat="43.80819" lon="6.9421">
        <ele>1388</ele>
        <time>2019-06-02T09:16:20.000Z</time>
      </trkpt>
      <trkpt lat="43.80816" lon="6.94212">
        <ele>1388</ele>
        <time>2019-06-02T09:16:21.000Z</time>
      </trkpt>
      <trkpt lat="43.80813" lon="6.94215">
        <ele>1388</ele>
        <time>2019-06-02T09:16:22.000Z</time>
      </trkpt>
      <trkpt lat="43.80811" lon="6.94219">
        <ele>1387</ele>
        <time>2019-06-02T09:16:23.000Z</time>
      </trkpt>
      <trkpt lat="43.8081" lon="6.94222">
        <ele>1387</ele>
        <time>2019-06-02T09:16:24.000Z</time>
      </trkpt>
      <trkpt lat="43.80809" lon="6.94224">
        <ele>1387</ele>
        <time>2019-06-02T09:16:25.000Z</time>
      </trkpt>
      <trkpt lat="43.80807" lon="6.94226">
        <ele>1387</ele>
        <time>2019-06-02T09:16:26.000Z</time>
      </trkpt>
      <trkpt lat="43.80805" lon="6.94229">
        <ele>1386</ele>
        <time>2019-06-02T09:16:27.000Z</time>
      </trkpt>
      <trkpt lat="43.80802" lon="6.94232">
        <ele>1386</ele>
        <time>2019-06-02T09:16:28.000Z</time>
      </trkpt>
      <trkpt lat="43.80799" lon="6.94235">
        <ele>1385</ele>
        <time>2019-06-02T09:16:29.000Z</time>
      </trkpt>
      <trkpt lat="43.80796" lon="6.94238">
        <ele>1385</ele>
        <time>2019-06-02T09:16:30.000Z</time>
      </trkpt>
      <trkpt lat="43.80791" lon="6.94244">
        <ele>1385</ele>
        <time>2019-06-02T09:16:33.000Z</time>
      </trkpt>
      <trkpt lat="43.8079" lon="6.94245">
        <ele>1385</ele>
        <time>2019-06-02T09:16:34.000Z</time>
      </trkpt>
      <trkpt lat="43.80789" lon="6.94246">
        <ele>1385</ele>
        <time>2019-06-02T09:16:35.000Z</time>
      </trkpt>
      <trkpt lat="43.80787" lon="6.94247">
        <ele>1385</ele>
        <time>2019-06-02T09:16:36.000Z</time>
      </trkpt>
      <trkpt lat="43.80785" lon="6.94248">
        <ele>1384</ele>
        <time>2019-06-02T09:16:37.000Z</time>
      </trkpt>
      <trkpt lat="43.80783" lon="6.9425">
        <ele>1383</ele>
        <time>2019-06-02T09:16:38.000Z</time>
      </trkpt>
      <trkpt lat="43.80781" lon="6.94252">
        <ele>1383</ele>
        <time>2019-06-02T09:16:39.000Z</time>
      </trkpt>
      <trkpt lat="43.80779" lon="6.94254">
        <ele>1383</ele>
        <time>2019-06-02T09:16:40.000Z</time>
      </trkpt>
      <trkpt lat="43.80762" lon="6.94264">
        <ele>1381</ele>
        <time>2019-06-02T09:16:47.000Z</time>
      </trkpt>
      <trkpt lat="43.80761" lon="6.94264">
        <ele>1381</ele>
        <time>2019-06-02T09:16:48.000Z</time>
      </trkpt>
      <trkpt lat="43.8076" lon="6.94262">
        <ele>1380</ele>
        <time>2019-06-02T09:16:49.000Z</time>
      </trkpt>
      <trkpt lat="43.80761" lon="6.94261">
        <ele>1380</ele>
        <time>2019-06-02T09:16:50.000Z</time>
      </trkpt>
      <trkpt lat="43.80761" lon="6.94259">
        <ele>1380</ele>
        <time>2019-06-02T09:16:51.000Z</time>
      </trkpt>
      <trkpt lat="43.8076" lon="6.94257">
        <ele>1380</ele>
        <time>2019-06-02T09:16:52.000Z</time>
      </trkpt>
      <trkpt lat="43.80757" lon="6.94258">
        <ele>1380</ele>
        <time>2019-06-02T09:16:53.000Z</time>
      </trkpt>
      <trkpt lat="43.80755" lon="6.9426">
        <ele>1379</ele>
        <time>2019-06-02T09:16:54.000Z</time>
      </trkpt>
      <trkpt lat="43.80753" lon="6.94262">
        <ele>1379</ele>
        <time>2019-06-02T09:16:55.000Z</time>
      </trkpt>
      <trkpt lat="43.8075" lon="6.94264">
        <ele>1379</ele>
        <time>2019-06-02T09:16:56.000Z</time>
      </trkpt>
      <trkpt lat="43.80747" lon="6.94265">
        <ele>1378</ele>
        <time>2019-06-02T09:16:57.000Z</time>
      </trkpt>
      <trkpt lat="43.80745" lon="6.94267">
        <ele>1378</ele>
        <time>2019-06-02T09:16:58.000Z</time>
      </trkpt>
      <trkpt lat="43.80743" lon="6.94269">
        <ele>1377</ele>
        <time>2019-06-02T09:16:59.000Z</time>
      </trkpt>
      <trkpt lat="43.80741" lon="6.9427">
        <ele>1377</ele>
        <time>2019-06-02T09:17:01.000Z</time>
      </trkpt>
      <trkpt lat="43.80741" lon="6.94264">
        <ele>1376</ele>
        <time>2019-06-02T09:17:04.000Z</time>
      </trkpt>
      <trkpt lat="43.80742" lon="6.94261">
        <ele>1376</ele>
        <time>2019-06-02T09:17:05.000Z</time>
      </trkpt>
      <trkpt lat="43.80742" lon="6.94259">
        <ele>1376</ele>
        <time>2019-06-02T09:17:06.000Z</time>
      </trkpt>
      <trkpt lat="43.80742" lon="6.94257">
        <ele>1375</ele>
        <time>2019-06-02T09:17:07.000Z</time>
      </trkpt>
      <trkpt lat="43.8074" lon="6.94258">
        <ele>1375</ele>
        <time>2019-06-02T09:17:08.000Z</time>
      </trkpt>
      <trkpt lat="43.80738" lon="6.9426">
        <ele>1375</ele>
        <time>2019-06-02T09:17:09.000Z</time>
      </trkpt>
      <trkpt lat="43.80721" lon="6.94274">
        <ele>1371</ele>
        <time>2019-06-02T09:17:16.000Z</time>
      </trkpt>
      <trkpt lat="43.80718" lon="6.94277">
        <ele>1371</ele>
        <time>2019-06-02T09:17:18.000Z</time>
      </trkpt>
      <trkpt lat="43.80717" lon="6.94277">
        <ele>1370</ele>
        <time>2019-06-02T09:17:19.000Z</time>
      </trkpt>
      <trkpt lat="43.80718" lon="6.94275">
        <ele>1371</ele>
        <time>2019-06-02T09:17:22.000Z</time>
      </trkpt>
      <trkpt lat="43.80718" lon="6.94272">
        <ele>1370</ele>
        <time>2019-06-02T09:17:23.000Z</time>
      </trkpt>
      <trkpt lat="43.80719" lon="6.94269">
        <ele>1370</ele>
        <time>2019-06-02T09:17:24.000Z</time>
      </trkpt>
      <trkpt lat="43.80722" lon="6.94242">
        <ele>1367</ele>
        <time>2019-06-02T09:17:31.000Z</time>
      </trkpt>
      <trkpt lat="43.80724" lon="6.94234">
        <ele>1366</ele>
        <time>2019-06-02T09:17:35.000Z</time>
      </trkpt>
      <trkpt lat="43.80723" lon="6.94233">
        <ele>1365</ele>
        <time>2019-06-02T09:17:39.000Z</time>
      </trkpt>
      <trkpt lat="43.80719" lon="6.94234">
        <ele>1365</ele>
        <time>2019-06-02T09:17:46.000Z</time>
      </trkpt>
      <trkpt lat="43.80718" lon="6.94236">
        <ele>1365</ele>
        <time>2019-06-02T09:17:47.000Z</time>
      </trkpt>
      <trkpt lat="43.80717" lon="6.94238">
        <ele>1364</ele>
        <time>2019-06-02T09:17:48.000Z</time>
      </trkpt>
      <trkpt lat="43.80717" lon="6.9424">
        <ele>1364</ele>
        <time>2019-06-02T09:17:49.000Z</time>
      </trkpt>
      <trkpt lat="43.80715" lon="6.94241">
        <ele>1364</ele>
        <time>2019-06-02T09:17:50.000Z</time>
      </trkpt>
      <trkpt lat="43.80714" lon="6.94241">
        <ele>1364</ele>
        <time>2019-06-02T09:17:52.000Z</time>
      </trkpt>
      <trkpt lat="43.80715" lon="6.94239">
        <ele>1364</ele>
        <time>2019-06-02T09:17:53.000Z</time>
      </trkpt>
      <trkpt lat="43.80715" lon="6.94237">
        <ele>1363</ele>
        <time>2019-06-02T09:17:54.000Z</time>
      </trkpt>
      <trkpt lat="43.80716" lon="6.94235">
        <ele>1363</ele>
        <time>2019-06-02T09:17:55.000Z</time>
      </trkpt>
      <trkpt lat="43.80716" lon="6.94233">
        <ele>1363</ele>
        <time>2019-06-02T09:17:56.000Z</time>
      </trkpt>
      <trkpt lat="43.80716" lon="6.94231">
        <ele>1362</ele>
        <time>2019-06-02T09:17:57.000Z</time>
      </trkpt>
      <trkpt lat="43.80717" lon="6.94229">
        <ele>1362</ele>
        <time>2019-06-02T09:17:58.000Z</time>
      </trkpt>
      <trkpt lat="43.80718" lon="6.94228">
        <ele>1362</ele>
        <time>2019-06-02T09:17:59.000Z</time>
      </trkpt>
      <trkpt lat="43.80719" lon="6.94227">
        <ele>1362</ele>
        <time>2019-06-02T09:18:00.000Z</time>
      </trkpt>
      <trkpt lat="43.80718" lon="6.94224">
        <ele>1362</ele>
        <time>2019-06-02T09:18:02.000Z</time>
      </trkpt>
      <trkpt lat="43.80718" lon="6.94224">
        <ele>1362</ele>
        <time>2019-06-02T09:18:15.000Z</time>
      </trkpt>
      <trkpt lat="43.80716" lon="6.94224">
        <ele>1362</ele>
        <time>2019-06-02T09:18:20.000Z</time>
      </trkpt>
      <trkpt lat="43.80713" lon="6.94228">
        <ele>1360</ele>
        <time>2019-06-02T09:18:30.000Z</time>
      </trkpt>
      <trkpt lat="43.80712" lon="6.94223">
        <ele>1359</ele>
        <time>2019-06-02T09:18:38.000Z</time>
      </trkpt>
      <trkpt lat="43.8071" lon="6.94224">
        <ele>1359</ele>
        <time>2019-06-02T09:18:41.000Z</time>
      </trkpt>
      <trkpt lat="43.80709" lon="6.94226">
        <ele>1358</ele>
        <time>2019-06-02T09:18:42.000Z</time>
      </trkpt>
      <trkpt lat="43.80709" lon="6.94229">
        <ele>1358</ele>
        <time>2019-06-02T09:18:43.000Z</time>
      </trkpt>
      <trkpt lat="43.80708" lon="6.94231">
        <ele>1358</ele>
        <time>2019-06-02T09:18:44.000Z</time>
      </trkpt>
      <trkpt lat="43.80707" lon="6.94233">
        <ele>1358</ele>
        <time>2019-06-02T09:18:45.000Z</time>
      </trkpt>
      <trkpt lat="43.80706" lon="6.94235">
        <ele>1358</ele>
        <time>2019-06-02T09:18:46.000Z</time>
      </trkpt>
      <trkpt lat="43.80704" lon="6.94236">
        <ele>1357</ele>
        <time>2019-06-02T09:18:47.000Z</time>
      </trkpt>
      <trkpt lat="43.80703" lon="6.94238">
        <ele>1357</ele>
        <time>2019-06-02T09:18:48.000Z</time>
      </trkpt>
      <trkpt lat="43.80702" lon="6.9424">
        <ele>1357</ele>
        <time>2019-06-02T09:18:49.000Z</time>
      </trkpt>
      <trkpt lat="43.807" lon="6.94239">
        <ele>1357</ele>
        <time>2019-06-02T09:18:58.000Z</time>
      </trkpt>
      <trkpt lat="43.80699" lon="6.94237">
        <ele>1356</ele>
        <time>2019-06-02T09:18:59.000Z</time>
      </trkpt>
      <trkpt lat="43.80699" lon="6.94235">
        <ele>1356</ele>
        <time>2019-06-02T09:19:00.000Z</time>
      </trkpt>
      <trkpt lat="43.807" lon="6.94227">
        <ele>1354</ele>
        <time>2019-06-02T09:19:03.000Z</time>
      </trkpt>
      <trkpt lat="43.80699" lon="6.94224">
        <ele>1354</ele>
        <time>2019-06-02T09:19:04.000Z</time>
      </trkpt>
      <trkpt lat="43.80698" lon="6.94221">
        <ele>1354</ele>
        <time>2019-06-02T09:19:05.000Z</time>
      </trkpt>
      <trkpt lat="43.80697" lon="6.94219">
        <ele>1354</ele>
        <time>2019-06-02T09:19:06.000Z</time>
      </trkpt>
      <trkpt lat="43.80695" lon="6.94216">
        <ele>1354</ele>
        <time>2019-06-02T09:19:07.000Z</time>
      </trkpt>
      <trkpt lat="43.80693" lon="6.94215">
        <ele>1353</ele>
        <time>2019-06-02T09:19:08.000Z</time>
      </trkpt>
      <trkpt lat="43.80692" lon="6.94216">
        <ele>1353</ele>
        <time>2019-06-02T09:19:09.000Z</time>
      </trkpt>
      <trkpt lat="43.80692" lon="6.94218">
        <ele>1353</ele>
        <time>2019-06-02T09:19:10.000Z</time>
      </trkpt>
      <trkpt lat="43.80693" lon="6.94221">
        <ele>1353</ele>
        <time>2019-06-02T09:19:11.000Z</time>
      </trkpt>
      <trkpt lat="43.80694" lon="6.94224">
        <ele>1352</ele>
        <time>2019-06-02T09:19:12.000Z</time>
      </trkpt>
      <trkpt lat="43.80694" lon="6.94227">
        <ele>1351</ele>
        <time>2019-06-02T09:19:13.000Z</time>
      </trkpt>
      <trkpt lat="43.80693" lon="6.94228">
        <ele>1351</ele>
        <time>2019-06-02T09:19:14.000Z</time>
      </trkpt>
      <trkpt lat="43.80692" lon="6.94227">
        <ele>1351</ele>
        <time>2019-06-02T09:19:15.000Z</time>
      </trkpt>
      <trkpt lat="43.80691" lon="6.94226">
        <ele>1350</ele>
        <time>2019-06-02T09:19:16.000Z</time>
      </trkpt>
      <trkpt lat="43.8069" lon="6.94224">
        <ele>1350</ele>
        <time>2019-06-02T09:19:17.000Z</time>
      </trkpt>
      <trkpt lat="43.80688" lon="6.94224">
        <ele>1350</ele>
        <time>2019-06-02T09:19:18.000Z</time>
      </trkpt>
      <trkpt lat="43.80687" lon="6.94226">
        <ele>1350</ele>
        <time>2019-06-02T09:19:19.000Z</time>
      </trkpt>
      <trkpt lat="43.80687" lon="6.94229">
        <ele>1349</ele>
        <time>2019-06-02T09:19:20.000Z</time>
      </trkpt>
      <trkpt lat="43.80685" lon="6.94236">
        <ele>1349</ele>
        <time>2019-06-02T09:19:22.000Z</time>
      </trkpt>
      <trkpt lat="43.80683" lon="6.94238">
        <ele>1348</ele>
        <time>2019-06-02T09:19:23.000Z</time>
      </trkpt>
      <trkpt lat="43.80681" lon="6.94238">
        <ele>1348</ele>
        <time>2019-06-02T09:19:24.000Z</time>
      </trkpt>
      <trkpt lat="43.8068" lon="6.94238">
        <ele>1347</ele>
        <time>2019-06-02T09:19:25.000Z</time>
      </trkpt>
      <trkpt lat="43.8068" lon="6.94237">
        <ele>1347</ele>
        <time>2019-06-02T09:19:26.000Z</time>
      </trkpt>
      <trkpt lat="43.80679" lon="6.94235">
        <ele>1347</ele>
        <time>2019-06-02T09:19:27.000Z</time>
      </trkpt>
      <trkpt lat="43.80679" lon="6.94232">
        <ele>1347</ele>
        <time>2019-06-02T09:19:28.000Z</time>
      </trkpt>
      <trkpt lat="43.80679" lon="6.94229">
        <ele>1346</ele>
        <time>2019-06-02T09:19:29.000Z</time>
      </trkpt>
      <trkpt lat="43.80678" lon="6.94227">
        <ele>1346</ele>
        <time>2019-06-02T09:19:30.000Z</time>
      </trkpt>
      <trkpt lat="43.80677" lon="6.94225">
        <ele>1346</ele>
        <time>2019-06-02T09:19:31.000Z</time>
      </trkpt>
      <trkpt lat="43.80676" lon="6.94226">
        <ele>1346</ele>
        <time>2019-06-02T09:19:32.000Z</time>
      </trkpt>
      <trkpt lat="43.80674" lon="6.94229">
        <ele>1345</ele>
        <time>2019-06-02T09:19:35.000Z</time>
      </trkpt>
      <trkpt lat="43.80672" lon="6.9423">
        <ele>1344</ele>
        <time>2019-06-02T09:19:37.000Z</time>
      </trkpt>
      <trkpt lat="43.80668" lon="6.94238">
        <ele>1343</ele>
        <time>2019-06-02T09:19:45.000Z</time>
      </trkpt>
      <trkpt lat="43.80666" lon="6.94236">
        <ele>1343</ele>
        <time>2019-06-02T09:19:48.000Z</time>
      </trkpt>
      <trkpt lat="43.80665" lon="6.94234">
        <ele>1342</ele>
        <time>2019-06-02T09:19:49.000Z</time>
      </trkpt>
      <trkpt lat="43.80662" lon="6.94232">
        <ele>1341</ele>
        <time>2019-06-02T09:19:51.000Z</time>
      </trkpt>
      <trkpt lat="43.80661" lon="6.94233">
        <ele>1341</ele>
        <time>2019-06-02T09:19:52.000Z</time>
      </trkpt>
      <trkpt lat="43.80661" lon="6.94235">
        <ele>1341</ele>
        <time>2019-06-02T09:19:53.000Z</time>
      </trkpt>
      <trkpt lat="43.80661" lon="6.94236">
        <ele>1340</ele>
        <time>2019-06-02T09:19:54.000Z</time>
      </trkpt>
      <trkpt lat="43.80661" lon="6.94238">
        <ele>1340</ele>
        <time>2019-06-02T09:19:55.000Z</time>
      </trkpt>
      <trkpt lat="43.8066" lon="6.9424">
        <ele>1340</ele>
        <time>2019-06-02T09:19:56.000Z</time>
      </trkpt>
      <trkpt lat="43.80659" lon="6.94242">
        <ele>1340</ele>
        <time>2019-06-02T09:19:57.000Z</time>
      </trkpt>
      <trkpt lat="43.80658" lon="6.94245">
        <ele>1339</ele>
        <time>2019-06-02T09:19:58.000Z</time>
      </trkpt>
      <trkpt lat="43.80657" lon="6.94247">
        <ele>1339</ele>
        <time>2019-06-02T09:19:59.000Z</time>
      </trkpt>
      <trkpt lat="43.80657" lon="6.94248">
        <ele>1338</ele>
        <time>2019-06-02T09:20:00.000Z</time>
      </trkpt>
      <trkpt lat="43.80656" lon="6.94248">
        <ele>1338</ele>
        <time>2019-06-02T09:20:01.000Z</time>
      </trkpt>
      <trkpt lat="43.80655" lon="6.94246">
        <ele>1338</ele>
        <time>2019-06-02T09:20:02.000Z</time>
      </trkpt>
      <trkpt lat="43.80653" lon="6.94243">
        <ele>1337</ele>
        <time>2019-06-02T09:20:04.000Z</time>
      </trkpt>
      <trkpt lat="43.80651" lon="6.94242">
        <ele>1337</ele>
        <time>2019-06-02T09:20:05.000Z</time>
      </trkpt>
      <trkpt lat="43.80649" lon="6.94242">
        <ele>1336</ele>
        <time>2019-06-02T09:20:06.000Z</time>
      </trkpt>
      <trkpt lat="43.80647" lon="6.94241">
        <ele>1336</ele>
        <time>2019-06-02T09:20:07.000Z</time>
      </trkpt>
      <trkpt lat="43.80645" lon="6.94242">
        <ele>1335</ele>
        <time>2019-06-02T09:20:08.000Z</time>
      </trkpt>
      <trkpt lat="43.80643" lon="6.94246">
        <ele>1335</ele>
        <time>2019-06-02T09:20:09.000Z</time>
      </trkpt>
      <trkpt lat="43.80642" lon="6.9425">
        <ele>1334</ele>
        <time>2019-06-02T09:20:10.000Z</time>
      </trkpt>
      <trkpt lat="43.80642" lon="6.94255">
        <ele>1334</ele>
        <time>2019-06-02T09:20:11.000Z</time>
      </trkpt>
      <trkpt lat="43.80641" lon="6.94261">
        <ele>1333</ele>
        <time>2019-06-02T09:20:12.000Z</time>
      </trkpt>
      <trkpt lat="43.8064" lon="6.94265">
        <ele>1333</ele>
        <time>2019-06-02T09:20:13.000Z</time>
      </trkpt>
      <trkpt lat="43.80639" lon="6.94267">
        <ele>1333</ele>
        <time>2019-06-02T09:20:14.000Z</time>
      </trkpt>
      <trkpt lat="43.80637" lon="6.9427">
        <ele>1332</ele>
        <time>2019-06-02T09:20:15.000Z</time>
      </trkpt>
      <trkpt lat="43.80635" lon="6.94272">
        <ele>1332</ele>
        <time>2019-06-02T09:20:16.000Z</time>
      </trkpt>
      <trkpt lat="43.80634" lon="6.94272">
        <ele>1331</ele>
        <time>2019-06-02T09:20:17.000Z</time>
      </trkpt>
      <trkpt lat="43.80633" lon="6.9427">
        <ele>1331</ele>
        <time>2019-06-02T09:20:18.000Z</time>
      </trkpt>
      <trkpt lat="43.80633" lon="6.94267">
        <ele>1331</ele>
        <time>2019-06-02T09:20:19.000Z</time>
      </trkpt>
      <trkpt lat="43.80634" lon="6.94264">
        <ele>1331</ele>
        <time>2019-06-02T09:20:20.000Z</time>
      </trkpt>
      <trkpt lat="43.80634" lon="6.94256">
        <ele>1330</ele>
        <time>2019-06-02T09:20:22.000Z</time>
      </trkpt>
      <trkpt lat="43.80633" lon="6.94253">
        <ele>1330</ele>
        <time>2019-06-02T09:20:23.000Z</time>
      </trkpt>
      <trkpt lat="43.80626" lon="6.94243">
        <ele>1328</ele>
        <time>2019-06-02T09:20:27.000Z</time>
      </trkpt>
      <trkpt lat="43.80624" lon="6.94243">
        <ele>1328</ele>
        <time>2019-06-02T09:20:28.000Z</time>
      </trkpt>
      <trkpt lat="43.80622" lon="6.94243">
        <ele>1327</ele>
        <time>2019-06-02T09:20:29.000Z</time>
      </trkpt>
      <trkpt lat="43.80621" lon="6.94242">
        <ele>1326</ele>
        <time>2019-06-02T09:20:30.000Z</time>
      </trkpt>
      <trkpt lat="43.8062" lon="6.9424">
        <ele>1326</ele>
        <time>2019-06-02T09:20:31.000Z</time>
      </trkpt>
      <trkpt lat="43.80618" lon="6.94239">
        <ele>1326</ele>
        <time>2019-06-02T09:20:32.000Z</time>
      </trkpt>
      <trkpt lat="43.80616" lon="6.94238">
        <ele>1325</ele>
        <time>2019-06-02T09:20:33.000Z</time>
      </trkpt>
      <trkpt lat="43.80615" lon="6.94238">
        <ele>1325</ele>
        <time>2019-06-02T09:20:34.000Z</time>
      </trkpt>
      <trkpt lat="43.80615" lon="6.9424">
        <ele>1325</ele>
        <time>2019-06-02T09:20:35.000Z</time>
      </trkpt>
      <trkpt lat="43.80615" lon="6.94243">
        <ele>1325</ele>
        <time>2019-06-02T09:20:36.000Z</time>
      </trkpt>
      <trkpt lat="43.80615" lon="6.94248">
        <ele>1324</ele>
        <time>2019-06-02T09:20:37.000Z</time>
      </trkpt>
      <trkpt lat="43.80615" lon="6.94252">
        <ele>1323</ele>
        <time>2019-06-02T09:20:38.000Z</time>
      </trkpt>
      <trkpt lat="43.80615" lon="6.94257">
        <ele>1323</ele>
        <time>2019-06-02T09:20:39.000Z</time>
      </trkpt>
      <trkpt lat="43.8061" lon="6.94277">
        <ele>1322</ele>
        <time>2019-06-02T09:20:45.000Z</time>
      </trkpt>
      <trkpt lat="43.80606" lon="6.94282">
        <ele>1320</ele>
        <time>2019-06-02T09:20:50.000Z</time>
      </trkpt>
      <trkpt lat="43.80605" lon="6.94279">
        <ele>1320</ele>
        <time>2019-06-02T09:20:52.000Z</time>
      </trkpt>
      <trkpt lat="43.80606" lon="6.94278">
        <ele>1320</ele>
        <time>2019-06-02T09:20:53.000Z</time>
      </trkpt>
      <trkpt lat="43.80606" lon="6.94276">
        <ele>1320</ele>
        <time>2019-06-02T09:20:54.000Z</time>
      </trkpt>
      <trkpt lat="43.80606" lon="6.94273">
        <ele>1320</ele>
        <time>2019-06-02T09:20:55.000Z</time>
      </trkpt>
      <trkpt lat="43.80605" lon="6.9427">
        <ele>1319</ele>
        <time>2019-06-02T09:20:56.000Z</time>
      </trkpt>
      <trkpt lat="43.80603" lon="6.94261">
        <ele>1318</ele>
        <time>2019-06-02T09:20:59.000Z</time>
      </trkpt>
      <trkpt lat="43.80601" lon="6.94258">
        <ele>1317</ele>
        <time>2019-06-02T09:21:00.000Z</time>
      </trkpt>
      <trkpt lat="43.8059" lon="6.94237">
        <ele>1314</ele>
        <time>2019-06-02T09:21:07.000Z</time>
      </trkpt>
      <trkpt lat="43.80585" lon="6.94236">
        <ele>1313</ele>
        <time>2019-06-02T09:21:09.000Z</time>
      </trkpt>
      <trkpt lat="43.80584" lon="6.94238">
        <ele>1312</ele>
        <time>2019-06-02T09:21:10.000Z</time>
      </trkpt>
      <trkpt lat="43.80584" lon="6.94241">
        <ele>1312</ele>
        <time>2019-06-02T09:21:11.000Z</time>
      </trkpt>
      <trkpt lat="43.80584" lon="6.94244">
        <ele>1312</ele>
        <time>2019-06-02T09:21:12.000Z</time>
      </trkpt>
      <trkpt lat="43.80584" lon="6.94247">
        <ele>1311</ele>
        <time>2019-06-02T09:21:13.000Z</time>
      </trkpt>
      <trkpt lat="43.80582" lon="6.9425">
        <ele>1311</ele>
        <time>2019-06-02T09:21:14.000Z</time>
      </trkpt>
      <trkpt lat="43.80584" lon="6.94266">
        <ele>1308</ele>
        <time>2019-06-02T09:21:22.000Z</time>
      </trkpt>
      <trkpt lat="43.80584" lon="6.94268">
        <ele>1308</ele>
        <time>2019-06-02T09:21:29.000Z</time>
      </trkpt>
      <trkpt lat="43.80582" lon="6.94269">
        <ele>1308</ele>
        <time>2019-06-02T09:21:30.000Z</time>
      </trkpt>
      <trkpt lat="43.8058" lon="6.9427">
        <ele>1307</ele>
        <time>2019-06-02T09:21:31.000Z</time>
      </trkpt>
      <trkpt lat="43.80579" lon="6.94273">
        <ele>1307</ele>
        <time>2019-06-02T09:21:32.000Z</time>
      </trkpt>
      <trkpt lat="43.80577" lon="6.94276">
        <ele>1306</ele>
        <time>2019-06-02T09:21:33.000Z</time>
      </trkpt>
      <trkpt lat="43.80575" lon="6.94279">
        <ele>1305</ele>
        <time>2019-06-02T09:21:34.000Z</time>
      </trkpt>
      <trkpt lat="43.80573" lon="6.94281">
        <ele>1305</ele>
        <time>2019-06-02T09:21:35.000Z</time>
      </trkpt>
      <trkpt lat="43.80572" lon="6.94284">
        <ele>1305</ele>
        <time>2019-06-02T09:21:36.000Z</time>
      </trkpt>
      <trkpt lat="43.80571" lon="6.94288">
        <ele>1304</ele>
        <time>2019-06-02T09:21:37.000Z</time>
      </trkpt>
      <trkpt lat="43.80567" lon="6.94298">
        <ele>1303</ele>
        <time>2019-06-02T09:21:41.000Z</time>
      </trkpt>
      <trkpt lat="43.80566" lon="6.94297">
        <ele>1302</ele>
        <time>2019-06-02T09:21:43.000Z</time>
      </trkpt>
      <trkpt lat="43.80566" lon="6.94295">
        <ele>1302</ele>
        <time>2019-06-02T09:21:44.000Z</time>
      </trkpt>
      <trkpt lat="43.80565" lon="6.94288">
        <ele>1302</ele>
        <time>2019-06-02T09:21:47.000Z</time>
      </trkpt>
      <trkpt lat="43.80565" lon="6.94286">
        <ele>1301</ele>
        <time>2019-06-02T09:21:48.000Z</time>
      </trkpt>
      <trkpt lat="43.80564" lon="6.94286">
        <ele>1301</ele>
        <time>2019-06-02T09:21:50.000Z</time>
      </trkpt>
      <trkpt lat="43.80563" lon="6.94288">
        <ele>1301</ele>
        <time>2019-06-02T09:21:51.000Z</time>
      </trkpt>
      <trkpt lat="43.80562" lon="6.94291">
        <ele>1301</ele>
        <time>2019-06-02T09:21:52.000Z</time>
      </trkpt>
      <trkpt lat="43.80561" lon="6.94294">
        <ele>1300</ele>
        <time>2019-06-02T09:21:53.000Z</time>
      </trkpt>
      <trkpt lat="43.8056" lon="6.94296">
        <ele>1300</ele>
        <time>2019-06-02T09:21:54.000Z</time>
      </trkpt>
      <trkpt lat="43.80558" lon="6.94299">
        <ele>1300</ele>
        <time>2019-06-02T09:21:55.000Z</time>
      </trkpt>
      <trkpt lat="43.80557" lon="6.94303">
        <ele>1299</ele>
        <time>2019-06-02T09:21:56.000Z</time>
      </trkpt>
      <trkpt lat="43.80555" lon="6.94306">
        <ele>1298</ele>
        <time>2019-06-02T09:21:57.000Z</time>
      </trkpt>
      <trkpt lat="43.80553" lon="6.94308">
        <ele>1297</ele>
        <time>2019-06-02T09:21:58.000Z</time>
      </trkpt>
      <trkpt lat="43.80552" lon="6.94312">
        <ele>1297</ele>
        <time>2019-06-02T09:21:59.000Z</time>
      </trkpt>
      <trkpt lat="43.80551" lon="6.94315">
        <ele>1296</ele>
        <time>2019-06-02T09:22:00.000Z</time>
      </trkpt>
      <trkpt lat="43.8055" lon="6.94317">
        <ele>1296</ele>
        <time>2019-06-02T09:22:01.000Z</time>
      </trkpt>
      <trkpt lat="43.80548" lon="6.94319">
        <ele>1296</ele>
        <time>2019-06-02T09:22:02.000Z</time>
      </trkpt>
      <trkpt lat="43.80547" lon="6.94322">
        <ele>1296</ele>
        <time>2019-06-02T09:22:03.000Z</time>
      </trkpt>
      <trkpt lat="43.80546" lon="6.94323">
        <ele>1295</ele>
        <time>2019-06-02T09:22:04.000Z</time>
      </trkpt>
      <trkpt lat="43.80545" lon="6.94322">
        <ele>1295</ele>
        <time>2019-06-02T09:22:05.000Z</time>
      </trkpt>
      <trkpt lat="43.80544" lon="6.94319">
        <ele>1295</ele>
        <time>2019-06-02T09:22:06.000Z</time>
      </trkpt>
      <trkpt lat="43.80543" lon="6.94315">
        <ele>1294</ele>
        <time>2019-06-02T09:22:07.000Z</time>
      </trkpt>
      <trkpt lat="43.80543" lon="6.94311">
        <ele>1293</ele>
        <time>2019-06-02T09:22:08.000Z</time>
      </trkpt>
      <trkpt lat="43.80542" lon="6.94308">
        <ele>1292</ele>
        <time>2019-06-02T09:22:09.000Z</time>
      </trkpt>
      <trkpt lat="43.80541" lon="6.94307">
        <ele>1292</ele>
        <time>2019-06-02T09:22:10.000Z</time>
      </trkpt>
      <trkpt lat="43.8054" lon="6.94309">
        <ele>1292</ele>
        <time>2019-06-02T09:22:11.000Z</time>
      </trkpt>
      <trkpt lat="43.80539" lon="6.94312">
        <ele>1291</ele>
        <time>2019-06-02T09:22:12.000Z</time>
      </trkpt>
      <trkpt lat="43.80537" lon="6.94316">
        <ele>1291</ele>
        <time>2019-06-02T09:22:13.000Z</time>
      </trkpt>
      <trkpt lat="43.80536" lon="6.94319">
        <ele>1290</ele>
        <time>2019-06-02T09:22:14.000Z</time>
      </trkpt>
      <trkpt lat="43.80534" lon="6.9432">
        <ele>1289</ele>
        <time>2019-06-02T09:22:15.000Z</time>
      </trkpt>
      <trkpt lat="43.80533" lon="6.94321">
        <ele>1289</ele>
        <time>2019-06-02T09:22:16.000Z</time>
      </trkpt>
      <trkpt lat="43.80531" lon="6.94319">
        <ele>1288</ele>
        <time>2019-06-02T09:22:17.000Z</time>
      </trkpt>
      <trkpt lat="43.80531" lon="6.94316">
        <ele>1288</ele>
        <time>2019-06-02T09:22:18.000Z</time>
      </trkpt>
      <trkpt lat="43.80531" lon="6.94313">
        <ele>1288</ele>
        <time>2019-06-02T09:22:19.000Z</time>
      </trkpt>
      <trkpt lat="43.80532" lon="6.94309">
        <ele>1288</ele>
        <time>2019-06-02T09:22:20.000Z</time>
      </trkpt>
      <trkpt lat="43.80533" lon="6.94307">
        <ele>1288</ele>
        <time>2019-06-02T09:22:21.000Z</time>
      </trkpt>
      <trkpt lat="43.80534" lon="6.94305">
        <ele>1288</ele>
        <time>2019-06-02T09:22:22.000Z</time>
      </trkpt>
      <trkpt lat="43.80534" lon="6.94304">
        <ele>1288</ele>
        <time>2019-06-02T09:22:23.000Z</time>
      </trkpt>
      <trkpt lat="43.80532" lon="6.94304">
        <ele>1287</ele>
        <time>2019-06-02T09:22:25.000Z</time>
      </trkpt>
      <trkpt lat="43.80531" lon="6.94306">
        <ele>1287</ele>
        <time>2019-06-02T09:22:26.000Z</time>
      </trkpt>
      <trkpt lat="43.80529" lon="6.94309">
        <ele>1287</ele>
        <time>2019-06-02T09:22:27.000Z</time>
      </trkpt>
      <trkpt lat="43.80527" lon="6.94312">
        <ele>1286</ele>
        <time>2019-06-02T09:22:28.000Z</time>
      </trkpt>
      <trkpt lat="43.80525" lon="6.94316">
        <ele>1285</ele>
        <time>2019-06-02T09:22:29.000Z</time>
      </trkpt>
      <trkpt lat="43.80523" lon="6.9432">
        <ele>1284</ele>
        <time>2019-06-02T09:22:30.000Z</time>
      </trkpt>
      <trkpt lat="43.80521" lon="6.94324">
        <ele>1284</ele>
        <time>2019-06-02T09:22:31.000Z</time>
      </trkpt>
      <trkpt lat="43.80519" lon="6.94329">
        <ele>1283</ele>
        <time>2019-06-02T09:22:32.000Z</time>
      </trkpt>
      <trkpt lat="43.80515" lon="6.94341">
        <ele>1281</ele>
        <time>2019-06-02T09:22:34.000Z</time>
      </trkpt>
      <trkpt lat="43.80512" lon="6.94355">
        <ele>1280</ele>
        <time>2019-06-02T09:22:36.000Z</time>
      </trkpt>
      <trkpt lat="43.80511" lon="6.94361">
        <ele>1279</ele>
        <time>2019-06-02T09:22:37.000Z</time>
      </trkpt>
      <trkpt lat="43.80508" lon="6.94366">
        <ele>1279</ele>
        <time>2019-06-02T09:22:38.000Z</time>
      </trkpt>
      <trkpt lat="43.80502" lon="6.94373">
        <ele>1278</ele>
        <time>2019-06-02T09:22:40.000Z</time>
      </trkpt>
      <trkpt lat="43.805" lon="6.94378">
        <ele>1277</ele>
        <time>2019-06-02T09:22:41.000Z</time>
      </trkpt>
      <trkpt lat="43.80497" lon="6.94383">
        <ele>1277</ele>
        <time>2019-06-02T09:22:42.000Z</time>
      </trkpt>
      <trkpt lat="43.80494" lon="6.94388">
        <ele>1276</ele>
        <time>2019-06-02T09:22:43.000Z</time>
      </trkpt>
      <trkpt lat="43.80491" lon="6.94391">
        <ele>1276</ele>
        <time>2019-06-02T09:22:44.000Z</time>
      </trkpt>
      <trkpt lat="43.80488" lon="6.94395">
        <ele>1275</ele>
        <time>2019-06-02T09:22:45.000Z</time>
      </trkpt>
      <trkpt lat="43.80485" lon="6.94397">
        <ele>1275</ele>
        <time>2019-06-02T09:22:46.000Z</time>
      </trkpt>
      <trkpt lat="43.80482" lon="6.94398">
        <ele>1274</ele>
        <time>2019-06-02T09:22:47.000Z</time>
      </trkpt>
      <trkpt lat="43.80479" lon="6.94399">
        <ele>1274</ele>
        <time>2019-06-02T09:22:48.000Z</time>
      </trkpt>
      <trkpt lat="43.80477" lon="6.944">
        <ele>1274</ele>
        <time>2019-06-02T09:22:49.000Z</time>
      </trkpt>
      <trkpt lat="43.80476" lon="6.94399">
        <ele>1273</ele>
        <time>2019-06-02T09:22:50.000Z</time>
      </trkpt>
      <trkpt lat="43.80476" lon="6.94396">
        <ele>1273</ele>
        <time>2019-06-02T09:22:51.000Z</time>
      </trkpt>
      <trkpt lat="43.80476" lon="6.94392">
        <ele>1272</ele>
        <time>2019-06-02T09:22:52.000Z</time>
      </trkpt>
      <trkpt lat="43.80477" lon="6.94387">
        <ele>1271</ele>
        <time>2019-06-02T09:22:53.000Z</time>
      </trkpt>
      <trkpt lat="43.80477" lon="6.94383">
        <ele>1271</ele>
        <time>2019-06-02T09:22:54.000Z</time>
      </trkpt>
      <trkpt lat="43.80475" lon="6.9438">
        <ele>1271</ele>
        <time>2019-06-02T09:22:55.000Z</time>
      </trkpt>
      <trkpt lat="43.80472" lon="6.94379">
        <ele>1270</ele>
        <time>2019-06-02T09:22:56.000Z</time>
      </trkpt>
      <trkpt lat="43.80469" lon="6.94379">
        <ele>1269</ele>
        <time>2019-06-02T09:22:57.000Z</time>
      </trkpt>
      <trkpt lat="43.80465" lon="6.9438">
        <ele>1268</ele>
        <time>2019-06-02T09:22:58.000Z</time>
      </trkpt>
      <trkpt lat="43.80461" lon="6.94382">
        <ele>1267</ele>
        <time>2019-06-02T09:22:59.000Z</time>
      </trkpt>
      <trkpt lat="43.80457" lon="6.94385">
        <ele>1267</ele>
        <time>2019-06-02T09:23:00.000Z</time>
      </trkpt>
      <trkpt lat="43.80455" lon="6.94387">
        <ele>1266</ele>
        <time>2019-06-02T09:23:01.000Z</time>
      </trkpt>
      <trkpt lat="43.80452" lon="6.94388">
        <ele>1266</ele>
        <time>2019-06-02T09:23:02.000Z</time>
      </trkpt>
      <trkpt lat="43.80449" lon="6.94388">
        <ele>1265</ele>
        <time>2019-06-02T09:23:03.000Z</time>
      </trkpt>
      <trkpt lat="43.80446" lon="6.94388">
        <ele>1265</ele>
        <time>2019-06-02T09:23:04.000Z</time>
      </trkpt>
      <trkpt lat="43.80443" lon="6.94389">
        <ele>1263</ele>
        <time>2019-06-02T09:23:05.000Z</time>
      </trkpt>
      <trkpt lat="43.8044" lon="6.94391">
        <ele>1262</ele>
        <time>2019-06-02T09:23:06.000Z</time>
      </trkpt>
      <trkpt lat="43.80438" lon="6.94392">
        <ele>1262</ele>
        <time>2019-06-02T09:23:07.000Z</time>
      </trkpt>
      <trkpt lat="43.80436" lon="6.94395">
        <ele>1261</ele>
        <time>2019-06-02T09:23:09.000Z</time>
      </trkpt>
      <trkpt lat="43.80436" lon="6.94396">
        <ele>1261</ele>
        <time>2019-06-02T09:23:10.000Z</time>
      </trkpt>
      <trkpt lat="43.80436" lon="6.944">
        <ele>1261</ele>
        <time>2019-06-02T09:23:16.000Z</time>
      </trkpt>
      <trkpt lat="43.80436" lon="6.944">
        <ele>1261</ele>
        <time>2019-06-02T09:23:17.000Z</time>
      </trkpt>
      <trkpt lat="43.80434" lon="6.94399">
        <ele>1260</ele>
        <time>2019-06-02T09:23:20.000Z</time>
      </trkpt>
      <trkpt lat="43.80433" lon="6.94398">
        <ele>1260</ele>
        <time>2019-06-02T09:23:21.000Z</time>
      </trkpt>
      <trkpt lat="43.80432" lon="6.94396">
        <ele>1260</ele>
        <time>2019-06-02T09:23:22.000Z</time>
      </trkpt>
      <trkpt lat="43.80431" lon="6.94393">
        <ele>1259</ele>
        <time>2019-06-02T09:23:23.000Z</time>
      </trkpt>
      <trkpt lat="43.8043" lon="6.94392">
        <ele>1259</ele>
        <time>2019-06-02T09:23:24.000Z</time>
      </trkpt>
      <trkpt lat="43.80429" lon="6.94391">
        <ele>1259</ele>
        <time>2019-06-02T09:23:25.000Z</time>
      </trkpt>
      <trkpt lat="43.80427" lon="6.94392">
        <ele>1258</ele>
        <time>2019-06-02T09:23:26.000Z</time>
      </trkpt>
      <trkpt lat="43.80426" lon="6.94394">
        <ele>1258</ele>
        <time>2019-06-02T09:23:27.000Z</time>
      </trkpt>
      <trkpt lat="43.80424" lon="6.94396">
        <ele>1258</ele>
        <time>2019-06-02T09:23:28.000Z</time>
      </trkpt>
      <trkpt lat="43.80422" lon="6.94397">
        <ele>1257</ele>
        <time>2019-06-02T09:23:29.000Z</time>
      </trkpt>
      <trkpt lat="43.8042" lon="6.94396">
        <ele>1257</ele>
        <time>2019-06-02T09:23:30.000Z</time>
      </trkpt>
      <trkpt lat="43.80419" lon="6.94394">
        <ele>1257</ele>
        <time>2019-06-02T09:23:31.000Z</time>
      </trkpt>
      <trkpt lat="43.80418" lon="6.94391">
        <ele>1257</ele>
        <time>2019-06-02T09:23:32.000Z</time>
      </trkpt>
      <trkpt lat="43.80417" lon="6.94389">
        <ele>1256</ele>
        <time>2019-06-02T09:23:33.000Z</time>
      </trkpt>
      <trkpt lat="43.80416" lon="6.94386">
        <ele>1255</ele>
        <time>2019-06-02T09:23:34.000Z</time>
      </trkpt>
      <trkpt lat="43.80415" lon="6.94383">
        <ele>1255</ele>
        <time>2019-06-02T09:23:35.000Z</time>
      </trkpt>
      <trkpt lat="43.80413" lon="6.94372">
        <ele>1253</ele>
        <time>2019-06-02T09:23:39.000Z</time>
      </trkpt>
      <trkpt lat="43.80412" lon="6.94367">
        <ele>1252</ele>
        <time>2019-06-02T09:23:49.000Z</time>
      </trkpt>
      <trkpt lat="43.80412" lon="6.94367">
        <ele>1252</ele>
        <time>2019-06-02T09:24:11.000Z</time>
      </trkpt>
      <trkpt lat="43.80411" lon="6.94365">
        <ele>1251</ele>
        <time>2019-06-02T09:24:33.000Z</time>
      </trkpt>
      <trkpt lat="43.80411" lon="6.94365">
        <ele>1251</ele>
        <time>2019-06-02T09:24:46.000Z</time>
      </trkpt>
      <trkpt lat="43.80412" lon="6.94365">
        <ele>1251</ele>
        <time>2019-06-02T09:25:17.000Z</time>
      </trkpt>
      <trkpt lat="43.80412" lon="6.94364">
        <ele>1251</ele>
        <time>2019-06-02T09:25:49.000Z</time>
      </trkpt>
      <trkpt lat="43.8041" lon="6.94363">
        <ele>1251</ele>
        <time>2019-06-02T09:26:08.000Z</time>
      </trkpt>
      <trkpt lat="43.80409" lon="6.94359">
        <ele>1251</ele>
        <time>2019-06-02T09:26:10.000Z</time>
      </trkpt>
      <trkpt lat="43.80408" lon="6.94362">
        <ele>1250</ele>
        <time>2019-06-02T09:26:15.000Z</time>
      </trkpt>
      <trkpt lat="43.80408" lon="6.94364">
        <ele>1250</ele>
        <time>2019-06-02T09:26:16.000Z</time>
      </trkpt>
      <trkpt lat="43.80409" lon="6.94366">
        <ele>1250</ele>
        <time>2019-06-02T09:26:17.000Z</time>
      </trkpt>
      <trkpt lat="43.80408" lon="6.94368">
        <ele>1249</ele>
        <time>2019-06-02T09:26:18.000Z</time>
      </trkpt>
      <trkpt lat="43.80407" lon="6.94369">
        <ele>1248</ele>
        <time>2019-06-02T09:26:21.000Z</time>
      </trkpt>
      <trkpt lat="43.80406" lon="6.94367">
        <ele>1248</ele>
        <time>2019-06-02T09:26:24.000Z</time>
      </trkpt>
      <trkpt lat="43.80405" lon="6.94365">
        <ele>1247</ele>
        <time>2019-06-02T09:26:25.000Z</time>
      </trkpt>
      <trkpt lat="43.80404" lon="6.94362">
        <ele>1247</ele>
        <time>2019-06-02T09:26:26.000Z</time>
      </trkpt>
      <trkpt lat="43.80403" lon="6.9436">
        <ele>1247</ele>
        <time>2019-06-02T09:26:27.000Z</time>
      </trkpt>
      <trkpt lat="43.80402" lon="6.94357">
        <ele>1247</ele>
        <time>2019-06-02T09:26:28.000Z</time>
      </trkpt>
      <trkpt lat="43.80393" lon="6.94331">
        <ele>1245</ele>
        <time>2019-06-02T09:26:39.000Z</time>
      </trkpt>
      <trkpt lat="43.80391" lon="6.94319">
        <ele>1244</ele>
        <time>2019-06-02T09:26:43.000Z</time>
      </trkpt>
      <trkpt lat="43.8039" lon="6.9432">
        <ele>1244</ele>
        <time>2019-06-02T09:26:57.000Z</time>
      </trkpt>
      <trkpt lat="43.80391" lon="6.94319">
        <ele>1244</ele>
        <time>2019-06-02T09:27:13.000Z</time>
      </trkpt>
      <trkpt lat="43.80386" lon="6.94287">
        <ele>1242</ele>
        <time>2019-06-02T09:27:25.000Z</time>
      </trkpt>
      <trkpt lat="43.80378" lon="6.94251">
        <ele>1239</ele>
        <time>2019-06-02T09:27:34.000Z</time>
      </trkpt>
      <trkpt lat="43.80373" lon="6.94243">
        <ele>1237</ele>
        <time>2019-06-02T09:27:45.000Z</time>
      </trkpt>
      <trkpt lat="43.80373" lon="6.94246">
        <ele>1237</ele>
        <time>2019-06-02T09:27:47.000Z</time>
      </trkpt>
      <trkpt lat="43.80373" lon="6.94248">
        <ele>1236</ele>
        <time>2019-06-02T09:27:48.000Z</time>
      </trkpt>
      <trkpt lat="43.80373" lon="6.94251">
        <ele>1236</ele>
        <time>2019-06-02T09:27:49.000Z</time>
      </trkpt>
      <trkpt lat="43.80373" lon="6.94254">
        <ele>1236</ele>
        <time>2019-06-02T09:27:50.000Z</time>
      </trkpt>
      <trkpt lat="43.80372" lon="6.94258">
        <ele>1234</ele>
        <time>2019-06-02T09:27:51.000Z</time>
      </trkpt>
      <trkpt lat="43.80372" lon="6.94262">
        <ele>1234</ele>
        <time>2019-06-02T09:27:52.000Z</time>
      </trkpt>
      <trkpt lat="43.80372" lon="6.94266">
        <ele>1234</ele>
        <time>2019-06-02T09:27:53.000Z</time>
      </trkpt>
      <trkpt lat="43.80371" lon="6.94271">
        <ele>1234</ele>
        <time>2019-06-02T09:27:54.000Z</time>
      </trkpt>
      <trkpt lat="43.80372" lon="6.94275">
        <ele>1233</ele>
        <time>2019-06-02T09:27:55.000Z</time>
      </trkpt>
      <trkpt lat="43.80372" lon="6.94278">
        <ele>1233</ele>
        <time>2019-06-02T09:27:56.000Z</time>
      </trkpt>
      <trkpt lat="43.80371" lon="6.94281">
        <ele>1232</ele>
        <time>2019-06-02T09:27:57.000Z</time>
      </trkpt>
      <trkpt lat="43.8037" lon="6.94285">
        <ele>1232</ele>
        <time>2019-06-02T09:27:58.000Z</time>
      </trkpt>
      <trkpt lat="43.8037" lon="6.94288">
        <ele>1231</ele>
        <time>2019-06-02T09:27:59.000Z</time>
      </trkpt>
      <trkpt lat="43.80368" lon="6.94298">
        <ele>1229</ele>
        <time>2019-06-02T09:28:03.000Z</time>
      </trkpt>
      <trkpt lat="43.80367" lon="6.943">
        <ele>1228</ele>
        <time>2019-06-02T09:28:04.000Z</time>
      </trkpt>
      <trkpt lat="43.80366" lon="6.943">
        <ele>1227</ele>
        <time>2019-06-02T09:28:05.000Z</time>
      </trkpt>
      <trkpt lat="43.80365" lon="6.94299">
        <ele>1227</ele>
        <time>2019-06-02T09:28:06.000Z</time>
      </trkpt>
      <trkpt lat="43.80364" lon="6.94297">
        <ele>1226</ele>
        <time>2019-06-02T09:28:07.000Z</time>
      </trkpt>
      <trkpt lat="43.80362" lon="6.94295">
        <ele>1226</ele>
        <time>2019-06-02T09:28:08.000Z</time>
      </trkpt>
      <trkpt lat="43.80361" lon="6.94294">
        <ele>1226</ele>
        <time>2019-06-02T09:28:09.000Z</time>
      </trkpt>
      <trkpt lat="43.80359" lon="6.94292">
        <ele>1225</ele>
        <time>2019-06-02T09:28:10.000Z</time>
      </trkpt>
      <trkpt lat="43.80359" lon="6.94289">
        <ele>1225</ele>
        <time>2019-06-02T09:28:11.000Z</time>
      </trkpt>
      <trkpt lat="43.80359" lon="6.94285">
        <ele>1224</ele>
        <time>2019-06-02T09:28:12.000Z</time>
      </trkpt>
      <trkpt lat="43.80358" lon="6.94282">
        <ele>1223</ele>
        <time>2019-06-02T09:28:13.000Z</time>
      </trkpt>
      <trkpt lat="43.80357" lon="6.94278">
        <ele>1222</ele>
        <time>2019-06-02T09:28:14.000Z</time>
      </trkpt>
      <trkpt lat="43.80357" lon="6.94274">
        <ele>1222</ele>
        <time>2019-06-02T09:28:15.000Z</time>
      </trkpt>
      <trkpt lat="43.80355" lon="6.94266">
        <ele>1221</ele>
        <time>2019-06-02T09:28:18.000Z</time>
      </trkpt>
      <trkpt lat="43.80354" lon="6.94264">
        <ele>1221</ele>
        <time>2019-06-02T09:28:19.000Z</time>
      </trkpt>
      <trkpt lat="43.80352" lon="6.94264">
        <ele>1221</ele>
        <time>2019-06-02T09:28:22.000Z</time>
      </trkpt>
      <trkpt lat="43.80351" lon="6.94265">
        <ele>1220</ele>
        <time>2019-06-02T09:28:23.000Z</time>
      </trkpt>
      <trkpt lat="43.8035" lon="6.94267">
        <ele>1220</ele>
        <time>2019-06-02T09:28:24.000Z</time>
      </trkpt>
      <trkpt lat="43.80347" lon="6.94274">
        <ele>1218</ele>
        <time>2019-06-02T09:28:26.000Z</time>
      </trkpt>
      <trkpt lat="43.80346" lon="6.94278">
        <ele>1218</ele>
        <time>2019-06-02T09:28:27.000Z</time>
      </trkpt>
      <trkpt lat="43.80345" lon="6.94282">
        <ele>1218</ele>
        <time>2019-06-02T09:28:28.000Z</time>
      </trkpt>
      <trkpt lat="43.80344" lon="6.94284">
        <ele>1217</ele>
        <time>2019-06-02T09:28:29.000Z</time>
      </trkpt>
      <trkpt lat="43.80342" lon="6.94284">
        <ele>1217</ele>
        <time>2019-06-02T09:28:30.000Z</time>
      </trkpt>
      <trkpt lat="43.80341" lon="6.94282">
        <ele>1217</ele>
        <time>2019-06-02T09:28:31.000Z</time>
      </trkpt>
      <trkpt lat="43.80341" lon="6.94279">
        <ele>1217</ele>
        <time>2019-06-02T09:28:32.000Z</time>
      </trkpt>
      <trkpt lat="43.80341" lon="6.94276">
        <ele>1217</ele>
        <time>2019-06-02T09:28:33.000Z</time>
      </trkpt>
      <trkpt lat="43.8034" lon="6.94272">
        <ele>1216</ele>
        <time>2019-06-02T09:28:34.000Z</time>
      </trkpt>
      <trkpt lat="43.8034" lon="6.94268">
        <ele>1215</ele>
        <time>2019-06-02T09:28:35.000Z</time>
      </trkpt>
      <trkpt lat="43.80339" lon="6.94264">
        <ele>1215</ele>
        <time>2019-06-02T09:28:36.000Z</time>
      </trkpt>
      <trkpt lat="43.80338" lon="6.94256">
        <ele>1214</ele>
        <time>2019-06-02T09:28:38.000Z</time>
      </trkpt>
      <trkpt lat="43.80339" lon="6.94252">
        <ele>1213</ele>
        <time>2019-06-02T09:28:39.000Z</time>
      </trkpt>
      <trkpt lat="43.80339" lon="6.94249">
        <ele>1213</ele>
        <time>2019-06-02T09:28:40.000Z</time>
      </trkpt>
      <trkpt lat="43.80338" lon="6.94248">
        <ele>1213</ele>
        <time>2019-06-02T09:28:41.000Z</time>
      </trkpt>
      <trkpt lat="43.80336" lon="6.94249">
        <ele>1213</ele>
        <time>2019-06-02T09:28:42.000Z</time>
      </trkpt>
      <trkpt lat="43.80335" lon="6.94251">
        <ele>1212</ele>
        <time>2019-06-02T09:28:43.000Z</time>
      </trkpt>
      <trkpt lat="43.80333" lon="6.94254">
        <ele>1212</ele>
        <time>2019-06-02T09:28:44.000Z</time>
      </trkpt>
      <trkpt lat="43.80331" lon="6.94257">
        <ele>1211</ele>
        <time>2019-06-02T09:28:45.000Z</time>
      </trkpt>
      <trkpt lat="43.8033" lon="6.94262">
        <ele>1211</ele>
        <time>2019-06-02T09:28:46.000Z</time>
      </trkpt>
      <trkpt lat="43.80329" lon="6.94267">
        <ele>1210</ele>
        <time>2019-06-02T09:28:47.000Z</time>
      </trkpt>
      <trkpt lat="43.8032" lon="6.94295">
        <ele>1208</ele>
        <time>2019-06-02T09:28:55.000Z</time>
      </trkpt>
      <trkpt lat="43.80318" lon="6.94317">
        <ele>1205</ele>
        <time>2019-06-02T09:29:01.000Z</time>
      </trkpt>
      <trkpt lat="43.80318" lon="6.9432">
        <ele>1205</ele>
        <time>2019-06-02T09:29:02.000Z</time>
      </trkpt>
      <trkpt lat="43.80316" lon="6.94323">
        <ele>1203</ele>
        <time>2019-06-02T09:29:11.000Z</time>
      </trkpt>
      <trkpt lat="43.80315" lon="6.94321">
        <ele>1203</ele>
        <time>2019-06-02T09:29:12.000Z</time>
      </trkpt>
      <trkpt lat="43.80314" lon="6.94321">
        <ele>1202</ele>
        <time>2019-06-02T09:29:13.000Z</time>
      </trkpt>
      <trkpt lat="43.80313" lon="6.94322">
        <ele>1202</ele>
        <time>2019-06-02T09:29:14.000Z</time>
      </trkpt>
      <trkpt lat="43.80313" lon="6.94324">
        <ele>1202</ele>
        <time>2019-06-02T09:29:15.000Z</time>
      </trkpt>
      <trkpt lat="43.80314" lon="6.94327">
        <ele>1201</ele>
        <time>2019-06-02T09:29:16.000Z</time>
      </trkpt>
      <trkpt lat="43.80314" lon="6.94331">
        <ele>1201</ele>
        <time>2019-06-02T09:29:17.000Z</time>
      </trkpt>
      <trkpt lat="43.80315" lon="6.94335">
        <ele>1201</ele>
        <time>2019-06-02T09:29:18.000Z</time>
      </trkpt>
      <trkpt lat="43.80315" lon="6.94339">
        <ele>1200</ele>
        <time>2019-06-02T09:29:19.000Z</time>
      </trkpt>
      <trkpt lat="43.80314" lon="6.94342">
        <ele>1200</ele>
        <time>2019-06-02T09:29:20.000Z</time>
      </trkpt>
      <trkpt lat="43.80314" lon="6.94345">
        <ele>1200</ele>
        <time>2019-06-02T09:29:21.000Z</time>
      </trkpt>
      <trkpt lat="43.80314" lon="6.94352">
        <ele>1199</ele>
        <time>2019-06-02T09:29:23.000Z</time>
      </trkpt>
      <trkpt lat="43.80314" lon="6.94354">
        <ele>1198</ele>
        <time>2019-06-02T09:29:24.000Z</time>
      </trkpt>
      <trkpt lat="43.80313" lon="6.94361">
        <ele>1197</ele>
        <time>2019-06-02T09:29:28.000Z</time>
      </trkpt>
      <trkpt lat="43.80313" lon="6.94364">
        <ele>1197</ele>
        <time>2019-06-02T09:29:29.000Z</time>
      </trkpt>
      <trkpt lat="43.80312" lon="6.94365">
        <ele>1196</ele>
        <time>2019-06-02T09:29:30.000Z</time>
      </trkpt>
      <trkpt lat="43.80311" lon="6.94365">
        <ele>1196</ele>
        <time>2019-06-02T09:29:31.000Z</time>
      </trkpt>
      <trkpt lat="43.80309" lon="6.94365">
        <ele>1196</ele>
        <time>2019-06-02T09:29:32.000Z</time>
      </trkpt>
      <trkpt lat="43.80308" lon="6.94364">
        <ele>1195</ele>
        <time>2019-06-02T09:29:33.000Z</time>
      </trkpt>
      <trkpt lat="43.80308" lon="6.94365">
        <ele>1195</ele>
        <time>2019-06-02T09:29:34.000Z</time>
      </trkpt>
      <trkpt lat="43.80308" lon="6.94368">
        <ele>1195</ele>
        <time>2019-06-02T09:29:35.000Z</time>
      </trkpt>
      <trkpt lat="43.80308" lon="6.94371">
        <ele>1195</ele>
        <time>2019-06-02T09:29:36.000Z</time>
      </trkpt>
      <trkpt lat="43.80308" lon="6.94376">
        <ele>1194</ele>
        <time>2019-06-02T09:29:37.000Z</time>
      </trkpt>
      <trkpt lat="43.80309" lon="6.94382">
        <ele>1193</ele>
        <time>2019-06-02T09:29:38.000Z</time>
      </trkpt>
      <trkpt lat="43.80309" lon="6.94388">
        <ele>1193</ele>
        <time>2019-06-02T09:29:39.000Z</time>
      </trkpt>
      <trkpt lat="43.8031" lon="6.94393">
        <ele>1192</ele>
        <time>2019-06-02T09:29:40.000Z</time>
      </trkpt>
      <trkpt lat="43.80311" lon="6.94398">
        <ele>1192</ele>
        <time>2019-06-02T09:29:41.000Z</time>
      </trkpt>
      <trkpt lat="43.80312" lon="6.94403">
        <ele>1191</ele>
        <time>2019-06-02T09:29:42.000Z</time>
      </trkpt>
      <trkpt lat="43.8032" lon="6.94435">
        <ele>1188</ele>
        <time>2019-06-02T09:29:50.000Z</time>
      </trkpt>
      <trkpt lat="43.8032" lon="6.94438">
        <ele>1187</ele>
        <time>2019-06-02T09:29:54.000Z</time>
      </trkpt>
      <trkpt lat="43.80318" lon="6.94435">
        <ele>1186</ele>
        <time>2019-06-02T09:29:57.000Z</time>
      </trkpt>
      <trkpt lat="43.80302" lon="6.94423">
        <ele>1184</ele>
        <time>2019-06-02T09:30:03.000Z</time>
      </trkpt>
      <trkpt lat="43.803" lon="6.94422">
        <ele>1184</ele>
        <time>2019-06-02T09:30:04.000Z</time>
      </trkpt>
      <trkpt lat="43.80296" lon="6.94421">
        <ele>1182</ele>
        <time>2019-06-02T09:30:06.000Z</time>
      </trkpt>
      <trkpt lat="43.80295" lon="6.94424">
        <ele>1182</ele>
        <time>2019-06-02T09:30:07.000Z</time>
      </trkpt>
      <trkpt lat="43.80296" lon="6.94427">
        <ele>1182</ele>
        <time>2019-06-02T09:30:08.000Z</time>
      </trkpt>
      <trkpt lat="43.80299" lon="6.9444">
        <ele>1180</ele>
        <time>2019-06-02T09:30:18.000Z</time>
      </trkpt>
      <trkpt lat="43.80298" lon="6.94443">
        <ele>1179</ele>
        <time>2019-06-02T09:30:30.000Z</time>
      </trkpt>
      <trkpt lat="43.80297" lon="6.94443">
        <ele>1179</ele>
        <time>2019-06-02T09:30:44.000Z</time>
      </trkpt>
      <trkpt lat="43.80297" lon="6.94445">
        <ele>1179</ele>
        <time>2019-06-02T09:30:45.000Z</time>
      </trkpt>
      <trkpt lat="43.80298" lon="6.94446">
        <ele>1179</ele>
        <time>2019-06-02T09:30:46.000Z</time>
      </trkpt>
      <trkpt lat="43.80299" lon="6.94447">
        <ele>1178</ele>
        <time>2019-06-02T09:30:47.000Z</time>
      </trkpt>
      <trkpt lat="43.803" lon="6.9445">
        <ele>1178</ele>
        <time>2019-06-02T09:30:48.000Z</time>
      </trkpt>
      <trkpt lat="43.803" lon="6.94452">
        <ele>1178</ele>
        <time>2019-06-02T09:30:49.000Z</time>
      </trkpt>
      <trkpt lat="43.80299" lon="6.94454">
        <ele>1177</ele>
        <time>2019-06-02T09:30:50.000Z</time>
      </trkpt>
      <trkpt lat="43.80297" lon="6.94456">
        <ele>1177</ele>
        <time>2019-06-02T09:30:55.000Z</time>
      </trkpt>
      <trkpt lat="43.80296" lon="6.94456">
        <ele>1177</ele>
        <time>2019-06-02T09:30:56.000Z</time>
      </trkpt>
      <trkpt lat="43.80294" lon="6.94454">
        <ele>1176</ele>
        <time>2019-06-02T09:30:57.000Z</time>
      </trkpt>
      <trkpt lat="43.80293" lon="6.94453">
        <ele>1176</ele>
        <time>2019-06-02T09:30:58.000Z</time>
      </trkpt>
      <trkpt lat="43.80292" lon="6.94451">
        <ele>1175</ele>
        <time>2019-06-02T09:30:59.000Z</time>
      </trkpt>
      <trkpt lat="43.80291" lon="6.94449">
        <ele>1175</ele>
        <time>2019-06-02T09:31:00.000Z</time>
      </trkpt>
      <trkpt lat="43.80288" lon="6.94449">
        <ele>1173</ele>
        <time>2019-06-02T09:31:09.000Z</time>
      </trkpt>
      <trkpt lat="43.80287" lon="6.94452">
        <ele>1173</ele>
        <time>2019-06-02T09:31:15.000Z</time>
      </trkpt>
      <trkpt lat="43.80286" lon="6.94452">
        <ele>1173</ele>
        <time>2019-06-02T09:31:16.000Z</time>
      </trkpt>
      <trkpt lat="43.80285" lon="6.94449">
        <ele>1172</ele>
        <time>2019-06-02T09:31:26.000Z</time>
      </trkpt>
      <trkpt lat="43.80284" lon="6.94446">
        <ele>1172</ele>
        <time>2019-06-02T09:31:27.000Z</time>
      </trkpt>
      <trkpt lat="43.8028" lon="6.94441">
        <ele>1170</ele>
        <time>2019-06-02T09:31:37.000Z</time>
      </trkpt>
      <trkpt lat="43.8028" lon="6.94443">
        <ele>1170</ele>
        <time>2019-06-02T09:31:38.000Z</time>
      </trkpt>
      <trkpt lat="43.8028" lon="6.94446">
        <ele>1170</ele>
        <time>2019-06-02T09:31:39.000Z</time>
      </trkpt>
      <trkpt lat="43.8028" lon="6.9445">
        <ele>1169</ele>
        <time>2019-06-02T09:31:40.000Z</time>
      </trkpt>
      <trkpt lat="43.8028" lon="6.94453">
        <ele>1168</ele>
        <time>2019-06-02T09:31:41.000Z</time>
      </trkpt>
      <trkpt lat="43.80279" lon="6.94456">
        <ele>1168</ele>
        <time>2019-06-02T09:31:42.000Z</time>
      </trkpt>
      <trkpt lat="43.80278" lon="6.94481">
        <ele>1165</ele>
        <time>2019-06-02T09:31:49.000Z</time>
      </trkpt>
      <trkpt lat="43.80279" lon="6.94487">
        <ele>1164</ele>
        <time>2019-06-02T09:31:51.000Z</time>
      </trkpt>
      <trkpt lat="43.8028" lon="6.9449">
        <ele>1164</ele>
        <time>2019-06-02T09:31:52.000Z</time>
      </trkpt>
      <trkpt lat="43.8028" lon="6.94493">
        <ele>1163</ele>
        <time>2019-06-02T09:31:53.000Z</time>
      </trkpt>
      <trkpt lat="43.8028" lon="6.94496">
        <ele>1163</ele>
        <time>2019-06-02T09:31:54.000Z</time>
      </trkpt>
      <trkpt lat="43.8028" lon="6.945">
        <ele>1163</ele>
        <time>2019-06-02T09:31:55.000Z</time>
      </trkpt>
      <trkpt lat="43.8028" lon="6.94504">
        <ele>1162</ele>
        <time>2019-06-02T09:31:56.000Z</time>
      </trkpt>
      <trkpt lat="43.80285" lon="6.94523">
        <ele>1159</ele>
        <time>2019-06-02T09:32:02.000Z</time>
      </trkpt>
      <trkpt lat="43.80284" lon="6.94526">
        <ele>1158</ele>
        <time>2019-06-02T09:32:03.000Z</time>
      </trkpt>
      <trkpt lat="43.80283" lon="6.94534">
        <ele>1157</ele>
        <time>2019-06-02T09:32:06.000Z</time>
      </trkpt>
      <trkpt lat="43.80283" lon="6.94537">
        <ele>1156</ele>
        <time>2019-06-02T09:32:07.000Z</time>
      </trkpt>
      <trkpt lat="43.80283" lon="6.94539">
        <ele>1156</ele>
        <time>2019-06-02T09:32:08.000Z</time>
      </trkpt>
      <trkpt lat="43.80282" lon="6.94539">
        <ele>1155</ele>
        <time>2019-06-02T09:32:10.000Z</time>
      </trkpt>
      <trkpt lat="43.80281" lon="6.94537">
        <ele>1155</ele>
        <time>2019-06-02T09:32:11.000Z</time>
      </trkpt>
      <trkpt lat="43.80281" lon="6.94534">
        <ele>1155</ele>
        <time>2019-06-02T09:32:12.000Z</time>
      </trkpt>
      <trkpt lat="43.8028" lon="6.94531">
        <ele>1155</ele>
        <time>2019-06-02T09:32:13.000Z</time>
      </trkpt>
      <trkpt lat="43.80278" lon="6.94528">
        <ele>1155</ele>
        <time>2019-06-02T09:32:14.000Z</time>
      </trkpt>
      <trkpt lat="43.80278" lon="6.94525">
        <ele>1154</ele>
        <time>2019-06-02T09:32:15.000Z</time>
      </trkpt>
      <trkpt lat="43.80277" lon="6.94524">
        <ele>1154</ele>
        <time>2019-06-02T09:32:16.000Z</time>
      </trkpt>
      <trkpt lat="43.80274" lon="6.94524">
        <ele>1153</ele>
        <time>2019-06-02T09:32:21.000Z</time>
      </trkpt>
      <trkpt lat="43.80274" lon="6.94525">
        <ele>1153</ele>
        <time>2019-06-02T09:32:22.000Z</time>
      </trkpt>
      <trkpt lat="43.80274" lon="6.94528">
        <ele>1153</ele>
        <time>2019-06-02T09:32:23.000Z</time>
      </trkpt>
      <trkpt lat="43.80274" lon="6.94537">
        <ele>1152</ele>
        <time>2019-06-02T09:32:28.000Z</time>
      </trkpt>
      <trkpt lat="43.80276" lon="6.94547">
        <ele>1150</ele>
        <time>2019-06-02T09:32:36.000Z</time>
      </trkpt>
      <trkpt lat="43.80275" lon="6.94549">
        <ele>1150</ele>
        <time>2019-06-02T09:32:37.000Z</time>
      </trkpt>
      <trkpt lat="43.80274" lon="6.9455">
        <ele>1149</ele>
        <time>2019-06-02T09:32:38.000Z</time>
      </trkpt>
      <trkpt lat="43.80273" lon="6.94551">
        <ele>1149</ele>
        <time>2019-06-02T09:32:39.000Z</time>
      </trkpt>
      <trkpt lat="43.80273" lon="6.94554">
        <ele>1149</ele>
        <time>2019-06-02T09:32:40.000Z</time>
      </trkpt>
      <trkpt lat="43.80272" lon="6.94557">
        <ele>1149</ele>
        <time>2019-06-02T09:32:41.000Z</time>
      </trkpt>
      <trkpt lat="43.80272" lon="6.9456">
        <ele>1148</ele>
        <time>2019-06-02T09:32:42.000Z</time>
      </trkpt>
      <trkpt lat="43.80272" lon="6.94563">
        <ele>1147</ele>
        <time>2019-06-02T09:32:43.000Z</time>
      </trkpt>
      <trkpt lat="43.80271" lon="6.94566">
        <ele>1147</ele>
        <time>2019-06-02T09:32:44.000Z</time>
      </trkpt>
      <trkpt lat="43.8027" lon="6.94568">
        <ele>1147</ele>
        <time>2019-06-02T09:32:45.000Z</time>
      </trkpt>
      <trkpt lat="43.80268" lon="6.9457">
        <ele>1147</ele>
        <time>2019-06-02T09:32:46.000Z</time>
      </trkpt>
      <trkpt lat="43.8026" lon="6.94588">
        <ele>1144</ele>
        <time>2019-06-02T09:32:51.000Z</time>
      </trkpt>
      <trkpt lat="43.80252" lon="6.94625">
        <ele>1143</ele>
        <time>2019-06-02T09:33:01.000Z</time>
      </trkpt>
      <trkpt lat="43.80252" lon="6.94632">
        <ele>1145</ele>
        <time>2019-06-02T09:33:04.000Z</time>
      </trkpt>
      <trkpt lat="43.80253" lon="6.94634">
        <ele>1145</ele>
        <time>2019-06-02T09:33:05.000Z</time>
      </trkpt>
      <trkpt lat="43.80254" lon="6.94653">
        <ele>1145</ele>
        <time>2019-06-02T09:33:16.000Z</time>
      </trkpt>
      <trkpt lat="43.80255" lon="6.94663">
        <ele>1143</ele>
        <time>2019-06-02T09:33:26.000Z</time>
      </trkpt>
      <trkpt lat="43.80254" lon="6.94669">
        <ele>1141</ele>
        <time>2019-06-02T09:33:28.000Z</time>
      </trkpt>
      <trkpt lat="43.80255" lon="6.94673">
        <ele>1141</ele>
        <time>2019-06-02T09:33:29.000Z</time>
      </trkpt>
      <trkpt lat="43.80258" lon="6.94684">
        <ele>1140</ele>
        <time>2019-06-02T09:33:32.000Z</time>
      </trkpt>
      <trkpt lat="43.8026" lon="6.94685">
        <ele>1140</ele>
        <time>2019-06-02T09:33:33.000Z</time>
      </trkpt>
      <trkpt lat="43.80261" lon="6.94687">
        <ele>1140</ele>
        <time>2019-06-02T09:33:34.000Z</time>
      </trkpt>
      <trkpt lat="43.80261" lon="6.9469">
        <ele>1140</ele>
        <time>2019-06-02T09:33:35.000Z</time>
      </trkpt>
      <trkpt lat="43.80262" lon="6.94692">
        <ele>1139</ele>
        <time>2019-06-02T09:33:36.000Z</time>
      </trkpt>
      <trkpt lat="43.80263" lon="6.94694">
        <ele>1138</ele>
        <time>2019-06-02T09:33:37.000Z</time>
      </trkpt>
      <trkpt lat="43.80263" lon="6.94696">
        <ele>1138</ele>
        <time>2019-06-02T09:33:38.000Z</time>
      </trkpt>
      <trkpt lat="43.80263" lon="6.94699">
        <ele>1137</ele>
        <time>2019-06-02T09:33:39.000Z</time>
      </trkpt>
      <trkpt lat="43.80263" lon="6.94703">
        <ele>1137</ele>
        <time>2019-06-02T09:33:40.000Z</time>
      </trkpt>
      <trkpt lat="43.80262" lon="6.94706">
        <ele>1136</ele>
        <time>2019-06-02T09:33:41.000Z</time>
      </trkpt>
      <trkpt lat="43.80262" lon="6.94709">
        <ele>1136</ele>
        <time>2019-06-02T09:33:42.000Z</time>
      </trkpt>
      <trkpt lat="43.80262" lon="6.94711">
        <ele>1136</ele>
        <time>2019-06-02T09:33:43.000Z</time>
      </trkpt>
      <trkpt lat="43.80262" lon="6.94714">
        <ele>1135</ele>
        <time>2019-06-02T09:33:44.000Z</time>
      </trkpt>
      <trkpt lat="43.80262" lon="6.94716">
        <ele>1135</ele>
        <time>2019-06-02T09:33:45.000Z</time>
      </trkpt>
      <trkpt lat="43.80262" lon="6.94719">
        <ele>1135</ele>
        <time>2019-06-02T09:33:46.000Z</time>
      </trkpt>
      <trkpt lat="43.80263" lon="6.94722">
        <ele>1134</ele>
        <time>2019-06-02T09:33:47.000Z</time>
      </trkpt>
      <trkpt lat="43.80268" lon="6.94749">
        <ele>1136</ele>
        <time>2019-06-02T09:34:00.000Z</time>
      </trkpt>
      <trkpt lat="43.80268" lon="6.94772">
        <ele>1133</ele>
        <time>2019-06-02T09:34:07.000Z</time>
      </trkpt>
      <trkpt lat="43.80269" lon="6.94791">
        <ele>1131</ele>
        <time>2019-06-02T09:34:12.000Z</time>
      </trkpt>
      <trkpt lat="43.80272" lon="6.94812">
        <ele>1128</ele>
        <time>2019-06-02T09:34:18.000Z</time>
      </trkpt>
      <trkpt lat="43.80275" lon="6.9483">
        <ele>1127</ele>
        <time>2019-06-02T09:34:26.000Z</time>
      </trkpt>
      <trkpt lat="43.80275" lon="6.94832">
        <ele>1127</ele>
        <time>2019-06-02T09:34:42.000Z</time>
      </trkpt>
      <trkpt lat="43.80275" lon="6.94836">
        <ele>1127</ele>
        <time>2019-06-02T09:34:48.000Z</time>
      </trkpt>
      <trkpt lat="43.80278" lon="6.9485">
        <ele>1130</ele>
        <time>2019-06-02T09:35:03.000Z</time>
      </trkpt>
      <trkpt lat="43.80279" lon="6.94855">
        <ele>1130</ele>
        <time>2019-06-02T09:35:09.000Z</time>
      </trkpt>
      <trkpt lat="43.80283" lon="6.94865">
        <ele>1131</ele>
        <time>2019-06-02T09:35:20.000Z</time>
      </trkpt>
      <trkpt lat="43.80283" lon="6.94868">
        <ele>1131</ele>
        <time>2019-06-02T09:35:29.000Z</time>
      </trkpt>
      <trkpt lat="43.80288" lon="6.94883">
        <ele>1133</ele>
        <time>2019-06-02T09:35:37.000Z</time>
      </trkpt>
      <trkpt lat="43.80292" lon="6.94908">
        <ele>1134</ele>
        <time>2019-06-02T09:35:48.000Z</time>
      </trkpt>
      <trkpt lat="43.80292" lon="6.94909">
        <ele>1134</ele>
        <time>2019-06-02T09:35:49.000Z</time>
      </trkpt>
      <trkpt lat="43.80293" lon="6.94911">
        <ele>1134</ele>
        <time>2019-06-02T09:35:50.000Z</time>
      </trkpt>
      <trkpt lat="43.80293" lon="6.94913">
        <ele>1134</ele>
        <time>2019-06-02T09:35:51.000Z</time>
      </trkpt>
      <trkpt lat="43.80294" lon="6.94915">
        <ele>1134</ele>
        <time>2019-06-02T09:35:52.000Z</time>
      </trkpt>
      <trkpt lat="43.80295" lon="6.94917">
        <ele>1134</ele>
        <time>2019-06-02T09:35:53.000Z</time>
      </trkpt>
      <trkpt lat="43.80295" lon="6.94919">
        <ele>1134</ele>
        <time>2019-06-02T09:35:54.000Z</time>
      </trkpt>
      <trkpt lat="43.80298" lon="6.94927">
        <ele>1135</ele>
        <time>2019-06-02T09:36:05.000Z</time>
      </trkpt>
      <trkpt lat="43.80298" lon="6.94928">
        <ele>1135</ele>
        <time>2019-06-02T09:36:06.000Z</time>
      </trkpt>
      <trkpt lat="43.80302" lon="6.94934">
        <ele>1137</ele>
        <time>2019-06-02T09:36:19.000Z</time>
      </trkpt>
      <trkpt lat="43.80302" lon="6.94937">
        <ele>1137</ele>
        <time>2019-06-02T09:36:22.000Z</time>
      </trkpt>
      <trkpt lat="43.80304" lon="6.94943">
        <ele>1137</ele>
        <time>2019-06-02T09:36:25.000Z</time>
      </trkpt>
      <trkpt lat="43.80307" lon="6.94948">
        <ele>1139</ele>
        <time>2019-06-02T09:36:29.000Z</time>
      </trkpt>
      <trkpt lat="43.80307" lon="6.9495">
        <ele>1139</ele>
        <time>2019-06-02T09:36:30.000Z</time>
      </trkpt>
      <trkpt lat="43.80308" lon="6.94951">
        <ele>1139</ele>
        <time>2019-06-02T09:36:31.000Z</time>
      </trkpt>
      <trkpt lat="43.80312" lon="6.94957">
        <ele>1140</ele>
        <time>2019-06-02T09:36:42.000Z</time>
      </trkpt>
      <trkpt lat="43.80315" lon="6.94963">
        <ele>1142</ele>
        <time>2019-06-02T09:37:04.000Z</time>
      </trkpt>
      <trkpt lat="43.80319" lon="6.94971">
        <ele>1145</ele>
        <time>2019-06-02T09:37:18.000Z</time>
      </trkpt>
      <trkpt lat="43.8032" lon="6.94979">
        <ele>1146</ele>
        <time>2019-06-02T09:37:33.000Z</time>
      </trkpt>
      <trkpt lat="43.8032" lon="6.94981">
        <ele>1146</ele>
        <time>2019-06-02T09:37:34.000Z</time>
      </trkpt>
      <trkpt lat="43.8032" lon="6.94983">
        <ele>1146</ele>
        <time>2019-06-02T09:37:35.000Z</time>
      </trkpt>
      <trkpt lat="43.8032" lon="6.94985">
        <ele>1146</ele>
        <time>2019-06-02T09:37:36.000Z</time>
      </trkpt>
      <trkpt lat="43.8032" lon="6.94987">
        <ele>1146</ele>
        <time>2019-06-02T09:37:37.000Z</time>
      </trkpt>
      <trkpt lat="43.8032" lon="6.94989">
        <ele>1146</ele>
        <time>2019-06-02T09:37:38.000Z</time>
      </trkpt>
      <trkpt lat="43.80313" lon="6.9502">
        <ele>1147</ele>
        <time>2019-06-02T09:37:50.000Z</time>
      </trkpt>
      <trkpt lat="43.80312" lon="6.95034">
        <ele>1147</ele>
        <time>2019-06-02T09:37:55.000Z</time>
      </trkpt>
      <trkpt lat="43.80313" lon="6.95036">
        <ele>1147</ele>
        <time>2019-06-02T09:37:56.000Z</time>
      </trkpt>
      <trkpt lat="43.80315" lon="6.95037">
        <ele>1147</ele>
        <time>2019-06-02T09:37:57.000Z</time>
      </trkpt>
      <trkpt lat="43.80316" lon="6.95039">
        <ele>1147</ele>
        <time>2019-06-02T09:37:58.000Z</time>
      </trkpt>
      <trkpt lat="43.80316" lon="6.95041">
        <ele>1147</ele>
        <time>2019-06-02T09:37:59.000Z</time>
      </trkpt>
      <trkpt lat="43.80317" lon="6.95043">
        <ele>1147</ele>
        <time>2019-06-02T09:38:00.000Z</time>
      </trkpt>
      <trkpt lat="43.80318" lon="6.95045">
        <ele>1147</ele>
        <time>2019-06-02T09:38:01.000Z</time>
      </trkpt>
      <trkpt lat="43.80319" lon="6.95049">
        <ele>1147</ele>
        <time>2019-06-02T09:38:02.000Z</time>
      </trkpt>
      <trkpt lat="43.80321" lon="6.95052">
        <ele>1146</ele>
        <time>2019-06-02T09:38:04.000Z</time>
      </trkpt>
      <trkpt lat="43.80321" lon="6.95055">
        <ele>1146</ele>
        <time>2019-06-02T09:38:09.000Z</time>
      </trkpt>
      <trkpt lat="43.80321" lon="6.95057">
        <ele>1146</ele>
        <time>2019-06-02T09:38:10.000Z</time>
      </trkpt>
      <trkpt lat="43.80321" lon="6.95059">
        <ele>1146</ele>
        <time>2019-06-02T09:38:11.000Z</time>
      </trkpt>
      <trkpt lat="43.80324" lon="6.95068">
        <ele>1146</ele>
        <time>2019-06-02T09:38:22.000Z</time>
      </trkpt>
      <trkpt lat="43.80325" lon="6.95071">
        <ele>1147</ele>
        <time>2019-06-02T09:38:24.000Z</time>
      </trkpt>
      <trkpt lat="43.80325" lon="6.95072">
        <ele>1147</ele>
        <time>2019-06-02T09:38:25.000Z</time>
      </trkpt>
      <trkpt lat="43.80326" lon="6.95082">
        <ele>1148</ele>
        <time>2019-06-02T09:38:35.000Z</time>
      </trkpt>
      <trkpt lat="43.80327" lon="6.95084">
        <ele>1148</ele>
        <time>2019-06-02T09:38:36.000Z</time>
      </trkpt>
      <trkpt lat="43.80327" lon="6.95086">
        <ele>1148</ele>
        <time>2019-06-02T09:38:37.000Z</time>
      </trkpt>
      <trkpt lat="43.80328" lon="6.95089">
        <ele>1149</ele>
        <time>2019-06-02T09:38:39.000Z</time>
      </trkpt>
      <trkpt lat="43.80318" lon="6.95113">
        <ele>1147</ele>
        <time>2019-06-02T09:38:48.000Z</time>
      </trkpt>
      <trkpt lat="43.8029" lon="6.95145">
        <ele>1147</ele>
        <time>2019-06-02T09:38:59.000Z</time>
      </trkpt>
      <trkpt lat="43.80277" lon="6.95159">
        <ele>1147</ele>
        <time>2019-06-02T09:39:05.000Z</time>
      </trkpt>
      <trkpt lat="43.80275" lon="6.95161">
        <ele>1147</ele>
        <time>2019-06-02T09:39:06.000Z</time>
      </trkpt>
      <trkpt lat="43.80273" lon="6.95163">
        <ele>1147</ele>
        <time>2019-06-02T09:39:07.000Z</time>
      </trkpt>
      <trkpt lat="43.80271" lon="6.95166">
        <ele>1147</ele>
        <time>2019-06-02T09:39:08.000Z</time>
      </trkpt>
      <trkpt lat="43.80269" lon="6.95169">
        <ele>1147</ele>
        <time>2019-06-02T09:39:09.000Z</time>
      </trkpt>
      <trkpt lat="43.80268" lon="6.95173">
        <ele>1146</ele>
        <time>2019-06-02T09:39:10.000Z</time>
      </trkpt>
      <trkpt lat="43.80267" lon="6.95178">
        <ele>1145</ele>
        <time>2019-06-02T09:39:11.000Z</time>
      </trkpt>
      <trkpt lat="43.80265" lon="6.95183">
        <ele>1145</ele>
        <time>2019-06-02T09:39:12.000Z</time>
      </trkpt>
      <trkpt lat="43.80263" lon="6.95188">
        <ele>1145</ele>
        <time>2019-06-02T09:39:13.000Z</time>
      </trkpt>
      <trkpt lat="43.80263" lon="6.95192">
        <ele>1145</ele>
        <time>2019-06-02T09:39:14.000Z</time>
      </trkpt>
      <trkpt lat="43.80262" lon="6.95194">
        <ele>1145</ele>
        <time>2019-06-02T09:39:15.000Z</time>
      </trkpt>
      <trkpt lat="43.80261" lon="6.95196">
        <ele>1145</ele>
        <time>2019-06-02T09:39:16.000Z</time>
      </trkpt>
      <trkpt lat="43.8026" lon="6.95198">
        <ele>1145</ele>
        <time>2019-06-02T09:39:17.000Z</time>
      </trkpt>
      <trkpt lat="43.80258" lon="6.95201">
        <ele>1145</ele>
        <time>2019-06-02T09:39:18.000Z</time>
      </trkpt>
      <trkpt lat="43.80258" lon="6.95205">
        <ele>1144</ele>
        <time>2019-06-02T09:39:19.000Z</time>
      </trkpt>
      <trkpt lat="43.8026" lon="6.9521">
        <ele>1143</ele>
        <time>2019-06-02T09:39:20.000Z</time>
      </trkpt>
      <trkpt lat="43.80263" lon="6.95217">
        <ele>1142</ele>
        <time>2019-06-02T09:39:21.000Z</time>
      </trkpt>
      <trkpt lat="43.80267" lon="6.95223">
        <ele>1141</ele>
        <time>2019-06-02T09:39:22.000Z</time>
      </trkpt>
      <trkpt lat="43.80271" lon="6.95229">
        <ele>1141</ele>
        <time>2019-06-02T09:39:23.000Z</time>
      </trkpt>
      <trkpt lat="43.80276" lon="6.95234">
        <ele>1141</ele>
        <time>2019-06-02T09:39:24.000Z</time>
      </trkpt>
      <trkpt lat="43.80303" lon="6.95286">
        <ele>1141</ele>
        <time>2019-06-02T09:39:37.000Z</time>
      </trkpt>
      <trkpt lat="43.80312" lon="6.95316">
        <ele>1144</ele>
        <time>2019-06-02T09:39:48.000Z</time>
      </trkpt>
      <trkpt lat="43.80311" lon="6.95331">
        <ele>1146</ele>
        <time>2019-06-02T09:39:55.000Z</time>
      </trkpt>
      <trkpt lat="43.8031" lon="6.95337">
        <ele>1147</ele>
        <time>2019-06-02T09:40:06.000Z</time>
      </trkpt>
      <trkpt lat="43.80311" lon="6.95347">
        <ele>1149</ele>
        <time>2019-06-02T09:40:20.000Z</time>
      </trkpt>
      <trkpt lat="43.8031" lon="6.9535">
        <ele>1150</ele>
        <time>2019-06-02T09:40:34.000Z</time>
      </trkpt>
      <trkpt lat="43.80311" lon="6.95351">
        <ele>1150</ele>
        <time>2019-06-02T09:40:35.000Z</time>
      </trkpt>
      <trkpt lat="43.80311" lon="6.95353">
        <ele>1150</ele>
        <time>2019-06-02T09:40:36.000Z</time>
      </trkpt>
      <trkpt lat="43.80312" lon="6.95378">
        <ele>1154</ele>
        <time>2019-06-02T09:40:47.000Z</time>
      </trkpt>
      <trkpt lat="43.80313" lon="6.95392">
        <ele>1156</ele>
        <time>2019-06-02T09:40:54.000Z</time>
      </trkpt>
      <trkpt lat="43.80323" lon="6.95437">
        <ele>1154</ele>
        <time>2019-06-02T09:41:07.000Z</time>
      </trkpt>
      <trkpt lat="43.8033" lon="6.95471">
        <ele>1154</ele>
        <time>2019-06-02T09:41:17.000Z</time>
      </trkpt>
      <trkpt lat="43.80325" lon="6.95511">
        <ele>1154</ele>
        <time>2019-06-02T09:41:29.000Z</time>
      </trkpt>
      <trkpt lat="43.80324" lon="6.95514">
        <ele>1154</ele>
        <time>2019-06-02T09:41:30.000Z</time>
      </trkpt>
      <trkpt lat="43.80323" lon="6.95517">
        <ele>1154</ele>
        <time>2019-06-02T09:41:31.000Z</time>
      </trkpt>
      <trkpt lat="43.80323" lon="6.95522">
        <ele>1154</ele>
        <time>2019-06-02T09:41:32.000Z</time>
      </trkpt>
      <trkpt lat="43.80324" lon="6.95526">
        <ele>1154</ele>
        <time>2019-06-02T09:41:33.000Z</time>
      </trkpt>
      <trkpt lat="43.80327" lon="6.9554">
        <ele>1154</ele>
        <time>2019-06-02T09:41:36.000Z</time>
      </trkpt>
      <trkpt lat="43.80335" lon="6.95568">
        <ele>1150</ele>
        <time>2019-06-02T09:41:40.000Z</time>
      </trkpt>
      <trkpt lat="43.80338" lon="6.95577">
        <ele>1150</ele>
        <time>2019-06-02T09:41:41.000Z</time>
      </trkpt>
      <trkpt lat="43.80339" lon="6.95586">
        <ele>1149</ele>
        <time>2019-06-02T09:41:42.000Z</time>
      </trkpt>
      <trkpt lat="43.8034" lon="6.95594">
        <ele>1149</ele>
        <time>2019-06-02T09:41:43.000Z</time>
      </trkpt>
      <trkpt lat="43.80341" lon="6.95602">
        <ele>1149</ele>
        <time>2019-06-02T09:41:44.000Z</time>
      </trkpt>
      <trkpt lat="43.8034" lon="6.95608">
        <ele>1148</ele>
        <time>2019-06-02T09:41:45.000Z</time>
      </trkpt>
      <trkpt lat="43.8034" lon="6.95615">
        <ele>1148</ele>
        <time>2019-06-02T09:41:46.000Z</time>
      </trkpt>
      <trkpt lat="43.80338" lon="6.9562">
        <ele>1147</ele>
        <time>2019-06-02T09:41:47.000Z</time>
      </trkpt>
      <trkpt lat="43.80334" lon="6.95625">
        <ele>1146</ele>
        <time>2019-06-02T09:41:48.000Z</time>
      </trkpt>
      <trkpt lat="43.80332" lon="6.9563">
        <ele>1145</ele>
        <time>2019-06-02T09:41:49.000Z</time>
      </trkpt>
      <trkpt lat="43.8033" lon="6.95635">
        <ele>1144</ele>
        <time>2019-06-02T09:41:50.000Z</time>
      </trkpt>
      <trkpt lat="43.80328" lon="6.9564">
        <ele>1143</ele>
        <time>2019-06-02T09:41:51.000Z</time>
      </trkpt>
      <trkpt lat="43.80326" lon="6.95645">
        <ele>1142</ele>
        <time>2019-06-02T09:41:52.000Z</time>
      </trkpt>
      <trkpt lat="43.80323" lon="6.95649">
        <ele>1140</ele>
        <time>2019-06-02T09:41:53.000Z</time>
      </trkpt>
      <trkpt lat="43.80321" lon="6.95653">
        <ele>1139</ele>
        <time>2019-06-02T09:41:54.000Z</time>
      </trkpt>
      <trkpt lat="43.80319" lon="6.95658">
        <ele>1138</ele>
        <time>2019-06-02T09:41:55.000Z</time>
      </trkpt>
      <trkpt lat="43.80318" lon="6.95662">
        <ele>1137</ele>
        <time>2019-06-02T09:41:56.000Z</time>
      </trkpt>
      <trkpt lat="43.80317" lon="6.95667">
        <ele>1136</ele>
        <time>2019-06-02T09:41:57.000Z</time>
      </trkpt>
      <trkpt lat="43.80316" lon="6.95671">
        <ele>1135</ele>
        <time>2019-06-02T09:41:58.000Z</time>
      </trkpt>
      <trkpt lat="43.80317" lon="6.95675">
        <ele>1135</ele>
        <time>2019-06-02T09:41:59.000Z</time>
      </trkpt>
      <trkpt lat="43.80319" lon="6.9568">
        <ele>1134</ele>
        <time>2019-06-02T09:42:00.000Z</time>
      </trkpt>
      <trkpt lat="43.80322" lon="6.95683">
        <ele>1133</ele>
        <time>2019-06-02T09:42:01.000Z</time>
      </trkpt>
      <trkpt lat="43.80325" lon="6.95685">
        <ele>1133</ele>
        <time>2019-06-02T09:42:02.000Z</time>
      </trkpt>
      <trkpt lat="43.80329" lon="6.95689">
        <ele>1132</ele>
        <time>2019-06-02T09:42:03.000Z</time>
      </trkpt>
      <trkpt lat="43.8033" lon="6.95694">
        <ele>1132</ele>
        <time>2019-06-02T09:42:04.000Z</time>
      </trkpt>
      <trkpt lat="43.80332" lon="6.95701">
        <ele>1131</ele>
        <time>2019-06-02T09:42:05.000Z</time>
      </trkpt>
      <trkpt lat="43.80333" lon="6.95706">
        <ele>1130</ele>
        <time>2019-06-02T09:42:06.000Z</time>
      </trkpt>
      <trkpt lat="43.80332" lon="6.95712">
        <ele>1130</ele>
        <time>2019-06-02T09:42:07.000Z</time>
      </trkpt>
      <trkpt lat="43.80331" lon="6.95725">
        <ele>1129</ele>
        <time>2019-06-02T09:42:09.000Z</time>
      </trkpt>
      <trkpt lat="43.80333" lon="6.95731">
        <ele>1129</ele>
        <time>2019-06-02T09:42:10.000Z</time>
      </trkpt>
      <trkpt lat="43.80335" lon="6.95735">
        <ele>1128</ele>
        <time>2019-06-02T09:42:11.000Z</time>
      </trkpt>
      <trkpt lat="43.80337" lon="6.95738">
        <ele>1128</ele>
        <time>2019-06-02T09:42:17.000Z</time>
      </trkpt>
      <trkpt lat="43.80335" lon="6.95744">
        <ele>1128</ele>
        <time>2019-06-02T09:42:23.000Z</time>
      </trkpt>
      <trkpt lat="43.80334" lon="6.95746">
        <ele>1128</ele>
        <time>2019-06-02T09:42:24.000Z</time>
      </trkpt>
      <trkpt lat="43.80333" lon="6.95748">
        <ele>1128</ele>
        <time>2019-06-02T09:42:25.000Z</time>
      </trkpt>
      <trkpt lat="43.80333" lon="6.95751">
        <ele>1128</ele>
        <time>2019-06-02T09:42:26.000Z</time>
      </trkpt>
      <trkpt lat="43.80334" lon="6.95754">
        <ele>1128</ele>
        <time>2019-06-02T09:42:27.000Z</time>
      </trkpt>
      <trkpt lat="43.80334" lon="6.95757">
        <ele>1129</ele>
        <time>2019-06-02T09:42:28.000Z</time>
      </trkpt>
      <trkpt lat="43.80334" lon="6.9576">
        <ele>1129</ele>
        <time>2019-06-02T09:42:29.000Z</time>
      </trkpt>
      <trkpt lat="43.80334" lon="6.95763">
        <ele>1129</ele>
        <time>2019-06-02T09:42:30.000Z</time>
      </trkpt>
      <trkpt lat="43.80334" lon="6.95766">
        <ele>1130</ele>
        <time>2019-06-02T09:42:31.000Z</time>
      </trkpt>
      <trkpt lat="43.80334" lon="6.95769">
        <ele>1130</ele>
        <time>2019-06-02T09:42:32.000Z</time>
      </trkpt>
      <trkpt lat="43.80333" lon="6.95773">
        <ele>1130</ele>
        <time>2019-06-02T09:42:33.000Z</time>
      </trkpt>
      <trkpt lat="43.80332" lon="6.95776">
        <ele>1130</ele>
        <time>2019-06-02T09:42:34.000Z</time>
      </trkpt>
      <trkpt lat="43.80331" lon="6.95778">
        <ele>1130</ele>
        <time>2019-06-02T09:42:35.000Z</time>
      </trkpt>
      <trkpt lat="43.80329" lon="6.9578">
        <ele>1130</ele>
        <time>2019-06-02T09:42:36.000Z</time>
      </trkpt>
      <trkpt lat="43.80328" lon="6.95783">
        <ele>1130</ele>
        <time>2019-06-02T09:42:37.000Z</time>
      </trkpt>
      <trkpt lat="43.80327" lon="6.95786">
        <ele>1130</ele>
        <time>2019-06-02T09:42:38.000Z</time>
      </trkpt>
      <trkpt lat="43.80326" lon="6.95789">
        <ele>1130</ele>
        <time>2019-06-02T09:42:39.000Z</time>
      </trkpt>
      <trkpt lat="43.80326" lon="6.95792">
        <ele>1130</ele>
        <time>2019-06-02T09:42:40.000Z</time>
      </trkpt>
      <trkpt lat="43.80326" lon="6.95795">
        <ele>1130</ele>
        <time>2019-06-02T09:42:41.000Z</time>
      </trkpt>
      <trkpt lat="43.80327" lon="6.95801">
        <ele>1131</ele>
        <time>2019-06-02T09:42:44.000Z</time>
      </trkpt>
      <trkpt lat="43.80327" lon="6.95822">
        <ele>1134</ele>
        <time>2019-06-02T09:42:54.000Z</time>
      </trkpt>
      <trkpt lat="43.80327" lon="6.95829">
        <ele>1135</ele>
        <time>2019-06-02T09:42:57.000Z</time>
      </trkpt>
      <trkpt lat="43.80328" lon="6.9583">
        <ele>1135</ele>
        <time>2019-06-02T09:42:58.000Z</time>
      </trkpt>
      <trkpt lat="43.80329" lon="6.95841">
        <ele>1138</ele>
        <time>2019-06-02T09:43:03.000Z</time>
      </trkpt>
      <trkpt lat="43.8033" lon="6.95843">
        <ele>1138</ele>
        <time>2019-06-02T09:43:04.000Z</time>
      </trkpt>
      <trkpt lat="43.80331" lon="6.95844">
        <ele>1138</ele>
        <time>2019-06-02T09:43:05.000Z</time>
      </trkpt>
      <trkpt lat="43.80332" lon="6.95846">
        <ele>1139</ele>
        <time>2019-06-02T09:43:06.000Z</time>
      </trkpt>
      <trkpt lat="43.80332" lon="6.95848">
        <ele>1139</ele>
        <time>2019-06-02T09:43:07.000Z</time>
      </trkpt>
      <trkpt lat="43.80332" lon="6.9585">
        <ele>1139</ele>
        <time>2019-06-02T09:43:08.000Z</time>
      </trkpt>
      <trkpt lat="43.80332" lon="6.95852">
        <ele>1140</ele>
        <time>2019-06-02T09:43:09.000Z</time>
      </trkpt>
      <trkpt lat="43.80333" lon="6.95854">
        <ele>1140</ele>
        <time>2019-06-02T09:43:10.000Z</time>
      </trkpt>
      <trkpt lat="43.80332" lon="6.95855">
        <ele>1140</ele>
        <time>2019-06-02T09:43:11.000Z</time>
      </trkpt>
      <trkpt lat="43.80332" lon="6.95858">
        <ele>1140</ele>
        <time>2019-06-02T09:43:12.000Z</time>
      </trkpt>
      <trkpt lat="43.80332" lon="6.95859">
        <ele>1140</ele>
        <time>2019-06-02T09:43:13.000Z</time>
      </trkpt>
      <trkpt lat="43.80332" lon="6.95861">
        <ele>1140</ele>
        <time>2019-06-02T09:43:14.000Z</time>
      </trkpt>
      <trkpt lat="43.80333" lon="6.95865">
        <ele>1142</ele>
        <time>2019-06-02T09:43:17.000Z</time>
      </trkpt>
      <trkpt lat="43.80345" lon="6.95881">
        <ele>1144</ele>
        <time>2019-06-02T09:43:32.000Z</time>
      </trkpt>
      <trkpt lat="43.80359" lon="6.95898">
        <ele>1146</ele>
        <time>2019-06-02T09:43:48.000Z</time>
      </trkpt>
      <trkpt lat="43.80359" lon="6.95899">
        <ele>1146</ele>
        <time>2019-06-02T09:43:49.000Z</time>
      </trkpt>
      <trkpt lat="43.8036" lon="6.95901">
        <ele>1146</ele>
        <time>2019-06-02T09:43:50.000Z</time>
      </trkpt>
      <trkpt lat="43.8036" lon="6.95902">
        <ele>1146</ele>
        <time>2019-06-02T09:43:51.000Z</time>
      </trkpt>
      <trkpt lat="43.80361" lon="6.95903">
        <ele>1146</ele>
        <time>2019-06-02T09:43:52.000Z</time>
      </trkpt>
      <trkpt lat="43.80362" lon="6.95905">
        <ele>1147</ele>
        <time>2019-06-02T09:43:53.000Z</time>
      </trkpt>
      <trkpt lat="43.80363" lon="6.95906">
        <ele>1147</ele>
        <time>2019-06-02T09:43:54.000Z</time>
      </trkpt>
      <trkpt lat="43.80363" lon="6.95908">
        <ele>1147</ele>
        <time>2019-06-02T09:43:55.000Z</time>
      </trkpt>
      <trkpt lat="43.80364" lon="6.95909">
        <ele>1147</ele>
        <time>2019-06-02T09:43:56.000Z</time>
      </trkpt>
      <trkpt lat="43.80364" lon="6.95911">
        <ele>1147</ele>
        <time>2019-06-02T09:43:57.000Z</time>
      </trkpt>
      <trkpt lat="43.80364" lon="6.95912">
        <ele>1147</ele>
        <time>2019-06-02T09:43:58.000Z</time>
      </trkpt>
      <trkpt lat="43.80374" lon="6.95937">
        <ele>1150</ele>
        <time>2019-06-02T09:44:14.000Z</time>
      </trkpt>
      <trkpt lat="43.80375" lon="6.95941">
        <ele>1151</ele>
        <time>2019-06-02T09:44:17.000Z</time>
      </trkpt>
      <trkpt lat="43.80375" lon="6.95943">
        <ele>1151</ele>
        <time>2019-06-02T09:44:18.000Z</time>
      </trkpt>
      <trkpt lat="43.80375" lon="6.95944">
        <ele>1151</ele>
        <time>2019-06-02T09:44:19.000Z</time>
      </trkpt>
      <trkpt lat="43.80375" lon="6.95946">
        <ele>1151</ele>
        <time>2019-06-02T09:44:20.000Z</time>
      </trkpt>
      <trkpt lat="43.80375" lon="6.95948">
        <ele>1151</ele>
        <time>2019-06-02T09:44:21.000Z</time>
      </trkpt>
      <trkpt lat="43.80376" lon="6.9595">
        <ele>1151</ele>
        <time>2019-06-02T09:44:22.000Z</time>
      </trkpt>
      <trkpt lat="43.80376" lon="6.95952">
        <ele>1151</ele>
        <time>2019-06-02T09:44:23.000Z</time>
      </trkpt>
      <trkpt lat="43.80376" lon="6.95953">
        <ele>1151</ele>
        <time>2019-06-02T09:44:24.000Z</time>
      </trkpt>
      <trkpt lat="43.80377" lon="6.95955">
        <ele>1151</ele>
        <time>2019-06-02T09:44:25.000Z</time>
      </trkpt>
      <trkpt lat="43.80378" lon="6.95957">
        <ele>1152</ele>
        <time>2019-06-02T09:44:26.000Z</time>
      </trkpt>
      <trkpt lat="43.80378" lon="6.95958">
        <ele>1152</ele>
        <time>2019-06-02T09:44:27.000Z</time>
      </trkpt>
      <trkpt lat="43.80379" lon="6.9596">
        <ele>1152</ele>
        <time>2019-06-02T09:44:28.000Z</time>
      </trkpt>
      <trkpt lat="43.80379" lon="6.95962">
        <ele>1152</ele>
        <time>2019-06-02T09:44:29.000Z</time>
      </trkpt>
      <trkpt lat="43.80379" lon="6.95967">
        <ele>1153</ele>
        <time>2019-06-02T09:44:39.000Z</time>
      </trkpt>
      <trkpt lat="43.80384" lon="6.95971">
        <ele>1155</ele>
        <time>2019-06-02T09:44:53.000Z</time>
      </trkpt>
      <trkpt lat="43.80386" lon="6.9598">
        <ele>1156</ele>
        <time>2019-06-02T09:45:05.000Z</time>
      </trkpt>
      <trkpt lat="43.80387" lon="6.95987">
        <ele>1156</ele>
        <time>2019-06-02T09:45:15.000Z</time>
      </trkpt>
      <trkpt lat="43.80387" lon="6.95999">
        <ele>1158</ele>
        <time>2019-06-02T09:45:28.000Z</time>
      </trkpt>
      <trkpt lat="43.80387" lon="6.96015">
        <ele>1159</ele>
        <time>2019-06-02T09:45:43.000Z</time>
      </trkpt>
      <trkpt lat="43.80387" lon="6.96021">
        <ele>1159</ele>
        <time>2019-06-02T09:45:59.000Z</time>
      </trkpt>
      <trkpt lat="43.80387" lon="6.96023">
        <ele>1160</ele>
        <time>2019-06-02T09:46:02.000Z</time>
      </trkpt>
      <trkpt lat="43.80388" lon="6.96025">
        <ele>1160</ele>
        <time>2019-06-02T09:46:03.000Z</time>
      </trkpt>
      <trkpt lat="43.80388" lon="6.96027">
        <ele>1160</ele>
        <time>2019-06-02T09:46:04.000Z</time>
      </trkpt>
      <trkpt lat="43.80388" lon="6.96029">
        <ele>1160</ele>
        <time>2019-06-02T09:46:05.000Z</time>
      </trkpt>
      <trkpt lat="43.80389" lon="6.96031">
        <ele>1160</ele>
        <time>2019-06-02T09:46:06.000Z</time>
      </trkpt>
      <trkpt lat="43.80389" lon="6.96033">
        <ele>1160</ele>
        <time>2019-06-02T09:46:07.000Z</time>
      </trkpt>
      <trkpt lat="43.80389" lon="6.96036">
        <ele>1160</ele>
        <time>2019-06-02T09:46:08.000Z</time>
      </trkpt>
      <trkpt lat="43.80389" lon="6.96038">
        <ele>1160</ele>
        <time>2019-06-02T09:46:09.000Z</time>
      </trkpt>
      <trkpt lat="43.80389" lon="6.96069">
        <ele>1162</ele>
        <time>2019-06-02T09:46:24.000Z</time>
      </trkpt>
      <trkpt lat="43.80391" lon="6.96094">
        <ele>1165</ele>
        <time>2019-06-02T09:46:39.000Z</time>
      </trkpt>
      <trkpt lat="43.80391" lon="6.96105">
        <ele>1165</ele>
        <time>2019-06-02T09:46:50.000Z</time>
      </trkpt>
      <trkpt lat="43.80392" lon="6.9611">
        <ele>1167</ele>
        <time>2019-06-02T09:47:05.000Z</time>
      </trkpt>
      <trkpt lat="43.80394" lon="6.96118">
        <ele>1168</ele>
        <time>2019-06-02T09:47:17.000Z</time>
      </trkpt>
      <trkpt lat="43.80394" lon="6.96124">
        <ele>1169</ele>
        <time>2019-06-02T09:47:29.000Z</time>
      </trkpt>
      <trkpt lat="43.80394" lon="6.96126">
        <ele>1169</ele>
        <time>2019-06-02T09:47:30.000Z</time>
      </trkpt>
      <trkpt lat="43.80391" lon="6.96157">
        <ele>1171</ele>
        <time>2019-06-02T09:47:45.000Z</time>
      </trkpt>
      <trkpt lat="43.80387" lon="6.96184">
        <ele>1172</ele>
        <time>2019-06-02T09:47:57.000Z</time>
      </trkpt>
      <trkpt lat="43.80383" lon="6.96217">
        <ele>1173</ele>
        <time>2019-06-02T09:48:09.000Z</time>
      </trkpt>
      <trkpt lat="43.80378" lon="6.96248">
        <ele>1174</ele>
        <time>2019-06-02T09:48:22.000Z</time>
      </trkpt>
      <trkpt lat="43.80368" lon="6.96294">
        <ele>1175</ele>
        <time>2019-06-02T09:48:37.000Z</time>
      </trkpt>
      <trkpt lat="43.80365" lon="6.96319">
        <ele>1176</ele>
        <time>2019-06-02T09:48:46.000Z</time>
      </trkpt>
      <trkpt lat="43.80366" lon="6.96326">
        <ele>1176</ele>
        <time>2019-06-02T09:48:49.000Z</time>
      </trkpt>
      <trkpt lat="43.80366" lon="6.96328">
        <ele>1177</ele>
        <time>2019-06-02T09:48:50.000Z</time>
      </trkpt>
      <trkpt lat="43.80367" lon="6.9633">
        <ele>1177</ele>
        <time>2019-06-02T09:48:51.000Z</time>
      </trkpt>
      <trkpt lat="43.80367" lon="6.96332">
        <ele>1177</ele>
        <time>2019-06-02T09:48:52.000Z</time>
      </trkpt>
      <trkpt lat="43.80366" lon="6.96334">
        <ele>1177</ele>
        <time>2019-06-02T09:48:53.000Z</time>
      </trkpt>
      <trkpt lat="43.80367" lon="6.96372">
        <ele>1178</ele>
        <time>2019-06-02T09:49:08.000Z</time>
      </trkpt>
      <trkpt lat="43.80369" lon="6.96411">
        <ele>1179</ele>
        <time>2019-06-02T09:49:22.000Z</time>
      </trkpt>
      <trkpt lat="43.80371" lon="6.96426">
        <ele>1178</ele>
        <time>2019-06-02T09:49:25.000Z</time>
      </trkpt>
      <trkpt lat="43.80379" lon="6.96462">
        <ele>1177</ele>
        <time>2019-06-02T09:49:34.000Z</time>
      </trkpt>
      <trkpt lat="43.80381" lon="6.96466">
        <ele>1177</ele>
        <time>2019-06-02T09:49:35.000Z</time>
      </trkpt>
      <trkpt lat="43.80387" lon="6.96481">
        <ele>1177</ele>
        <time>2019-06-02T09:49:41.000Z</time>
      </trkpt>
      <trkpt lat="43.80388" lon="6.96484">
        <ele>1177</ele>
        <time>2019-06-02T09:49:42.000Z</time>
      </trkpt>
      <trkpt lat="43.80395" lon="6.96545">
        <ele>1177</ele>
        <time>2019-06-02T09:49:56.000Z</time>
      </trkpt>
      <trkpt lat="43.80391" lon="6.96569">
        <ele>1176</ele>
        <time>2019-06-02T09:50:01.000Z</time>
      </trkpt>
      <trkpt lat="43.8039" lon="6.96583">
        <ele>1174</ele>
        <time>2019-06-02T09:50:03.000Z</time>
      </trkpt>
      <trkpt lat="43.8039" lon="6.9659">
        <ele>1174</ele>
        <time>2019-06-02T09:50:04.000Z</time>
      </trkpt>
      <trkpt lat="43.8039" lon="6.96597">
        <ele>1174</ele>
        <time>2019-06-02T09:50:05.000Z</time>
      </trkpt>
      <trkpt lat="43.80391" lon="6.96603">
        <ele>1174</ele>
        <time>2019-06-02T09:50:06.000Z</time>
      </trkpt>
      <trkpt lat="43.80392" lon="6.9661">
        <ele>1173</ele>
        <time>2019-06-02T09:50:07.000Z</time>
      </trkpt>
      <trkpt lat="43.80394" lon="6.96616">
        <ele>1173</ele>
        <time>2019-06-02T09:50:08.000Z</time>
      </trkpt>
      <trkpt lat="43.80395" lon="6.96622">
        <ele>1173</ele>
        <time>2019-06-02T09:50:09.000Z</time>
      </trkpt>
      <trkpt lat="43.80397" lon="6.96642">
        <ele>1172</ele>
        <time>2019-06-02T09:50:12.000Z</time>
      </trkpt>
      <trkpt lat="43.80399" lon="6.96655">
        <ele>1172</ele>
        <time>2019-06-02T09:50:14.000Z</time>
      </trkpt>
      <trkpt lat="43.80402" lon="6.96667">
        <ele>1172</ele>
        <time>2019-06-02T09:50:16.000Z</time>
      </trkpt>
      <trkpt lat="43.80402" lon="6.96671">
        <ele>1172</ele>
        <time>2019-06-02T09:50:17.000Z</time>
      </trkpt>
      <trkpt lat="43.80402" lon="6.96675">
        <ele>1172</ele>
        <time>2019-06-02T09:50:18.000Z</time>
      </trkpt>
      <trkpt lat="43.80403" lon="6.96679">
        <ele>1172</ele>
        <time>2019-06-02T09:50:19.000Z</time>
      </trkpt>
      <trkpt lat="43.80403" lon="6.96683">
        <ele>1172</ele>
        <time>2019-06-02T09:50:20.000Z</time>
      </trkpt>
      <trkpt lat="43.80398" lon="6.96728">
        <ele>1173</ele>
        <time>2019-06-02T09:50:32.000Z</time>
      </trkpt>
      <trkpt lat="43.80394" lon="6.96763">
        <ele>1173</ele>
        <time>2019-06-02T09:50:44.000Z</time>
      </trkpt>
      <trkpt lat="43.80391" lon="6.9678">
        <ele>1175</ele>
        <time>2019-06-02T09:50:52.000Z</time>
      </trkpt>
      <trkpt lat="43.80391" lon="6.96782">
        <ele>1175</ele>
        <time>2019-06-02T09:50:53.000Z</time>
      </trkpt>
      <trkpt lat="43.8039" lon="6.96784">
        <ele>1175</ele>
        <time>2019-06-02T09:50:54.000Z</time>
      </trkpt>
      <trkpt lat="43.80391" lon="6.96786">
        <ele>1176</ele>
        <time>2019-06-02T09:50:55.000Z</time>
      </trkpt>
      <trkpt lat="43.80391" lon="6.96788">
        <ele>1176</ele>
        <time>2019-06-02T09:50:56.000Z</time>
      </trkpt>
      <trkpt lat="43.80391" lon="6.9679">
        <ele>1176</ele>
        <time>2019-06-02T09:50:57.000Z</time>
      </trkpt>
      <trkpt lat="43.80391" lon="6.96792">
        <ele>1176</ele>
        <time>2019-06-02T09:50:58.000Z</time>
      </trkpt>
      <trkpt lat="43.80391" lon="6.96798">
        <ele>1177</ele>
        <time>2019-06-02T09:51:01.000Z</time>
      </trkpt>
      <trkpt lat="43.80391" lon="6.96799">
        <ele>1177</ele>
        <time>2019-06-02T09:51:02.000Z</time>
      </trkpt>
      <trkpt lat="43.8039" lon="6.96801">
        <ele>1177</ele>
        <time>2019-06-02T09:51:03.000Z</time>
      </trkpt>
      <trkpt lat="43.8039" lon="6.96803">
        <ele>1177</ele>
        <time>2019-06-02T09:51:04.000Z</time>
      </trkpt>
      <trkpt lat="43.80389" lon="6.96804">
        <ele>1177</ele>
        <time>2019-06-02T09:51:05.000Z</time>
      </trkpt>
      <trkpt lat="43.80378" lon="6.96834">
        <ele>1180</ele>
        <time>2019-06-02T09:51:22.000Z</time>
      </trkpt>
      <trkpt lat="43.80373" lon="6.96859">
        <ele>1184</ele>
        <time>2019-06-02T09:51:35.000Z</time>
      </trkpt>
      <trkpt lat="43.80368" lon="6.96879">
        <ele>1185</ele>
        <time>2019-06-02T09:51:47.000Z</time>
      </trkpt>
      <trkpt lat="43.80368" lon="6.96881">
        <ele>1186</ele>
        <time>2019-06-02T09:51:48.000Z</time>
      </trkpt>
      <trkpt lat="43.80369" lon="6.96883">
        <ele>1186</ele>
        <time>2019-06-02T09:51:49.000Z</time>
      </trkpt>
      <trkpt lat="43.8037" lon="6.96885">
        <ele>1187</ele>
        <time>2019-06-02T09:51:50.000Z</time>
      </trkpt>
      <trkpt lat="43.8037" lon="6.96887">
        <ele>1187</ele>
        <time>2019-06-02T09:51:51.000Z</time>
      </trkpt>
      <trkpt lat="43.8037" lon="6.96889">
        <ele>1188</ele>
        <time>2019-06-02T09:51:52.000Z</time>
      </trkpt>
      <trkpt lat="43.80369" lon="6.96891">
        <ele>1188</ele>
        <time>2019-06-02T09:51:53.000Z</time>
      </trkpt>
      <trkpt lat="43.80368" lon="6.96898">
        <ele>1188</ele>
        <time>2019-06-02T09:51:57.000Z</time>
      </trkpt>
      <trkpt lat="43.80368" lon="6.969">
        <ele>1188</ele>
        <time>2019-06-02T09:51:58.000Z</time>
      </trkpt>
      <trkpt lat="43.80368" lon="6.96901">
        <ele>1188</ele>
        <time>2019-06-02T09:51:59.000Z</time>
      </trkpt>
      <trkpt lat="43.80368" lon="6.96903">
        <ele>1188</ele>
        <time>2019-06-02T09:52:00.000Z</time>
      </trkpt>
      <trkpt lat="43.80368" lon="6.96905">
        <ele>1188</ele>
        <time>2019-06-02T09:52:01.000Z</time>
      </trkpt>
      <trkpt lat="43.8037" lon="6.96911">
        <ele>1188</ele>
        <time>2019-06-02T09:52:13.000Z</time>
      </trkpt>
      <trkpt lat="43.8037" lon="6.96912">
        <ele>1188</ele>
        <time>2019-06-02T09:52:21.000Z</time>
      </trkpt>
      <trkpt lat="43.80369" lon="6.96912">
        <ele>1188</ele>
        <time>2019-06-02T09:53:05.000Z</time>
      </trkpt>
      <trkpt lat="43.80368" lon="6.96912">
        <ele>1188</ele>
        <time>2019-06-02T09:53:46.000Z</time>
      </trkpt>
      <trkpt lat="43.8037" lon="6.96912">
        <ele>1188</ele>
        <time>2019-06-02T09:54:33.000Z</time>
      </trkpt>
      <trkpt lat="43.80368" lon="6.96912">
        <ele>1188</ele>
        <time>2019-06-02T09:55:24.000Z</time>
      </trkpt>
      <trkpt lat="43.80368" lon="6.96912">
        <ele>1188</ele>
        <time>2019-06-02T09:56:05.000Z</time>
      </trkpt>
      <trkpt lat="43.80368" lon="6.96911">
        <ele>1188</ele>
        <time>2019-06-02T09:56:45.000Z</time>
      </trkpt>
      <trkpt lat="43.80369" lon="6.96911">
        <ele>1188</ele>
        <time>2019-06-02T09:57:26.000Z</time>
      </trkpt>
      <trkpt lat="43.80367" lon="6.96913">
        <ele>1188</ele>
        <time>2019-06-02T09:57:50.000Z</time>
      </trkpt>
      <trkpt lat="43.80367" lon="6.96918">
        <ele>1188</ele>
        <time>2019-06-02T09:57:57.000Z</time>
      </trkpt>
      <trkpt lat="43.80367" lon="6.9692">
        <ele>1188</ele>
        <time>2019-06-02T09:57:58.000Z</time>
      </trkpt>
      <trkpt lat="43.80367" lon="6.96923">
        <ele>1188</ele>
        <time>2019-06-02T09:57:59.000Z</time>
      </trkpt>
      <trkpt lat="43.80368" lon="6.96925">
        <ele>1188</ele>
        <time>2019-06-02T09:58:00.000Z</time>
      </trkpt>
      <trkpt lat="43.80369" lon="6.96927">
        <ele>1188</ele>
        <time>2019-06-02T09:58:01.000Z</time>
      </trkpt>
      <trkpt lat="43.80379" lon="6.96936">
        <ele>1187</ele>
        <time>2019-06-02T09:58:08.000Z</time>
      </trkpt>
      <trkpt lat="43.8038" lon="6.96939">
        <ele>1186</ele>
        <time>2019-06-02T09:58:10.000Z</time>
      </trkpt>
      <trkpt lat="43.80382" lon="6.9694">
        <ele>1186</ele>
        <time>2019-06-02T09:58:11.000Z</time>
      </trkpt>
      <trkpt lat="43.80384" lon="6.96948">
        <ele>1185</ele>
        <time>2019-06-02T09:58:14.000Z</time>
      </trkpt>
      <trkpt lat="43.80384" lon="6.96951">
        <ele>1184</ele>
        <time>2019-06-02T09:58:15.000Z</time>
      </trkpt>
      <trkpt lat="43.80383" lon="6.96955">
        <ele>1184</ele>
        <time>2019-06-02T09:58:16.000Z</time>
      </trkpt>
      <trkpt lat="43.80383" lon="6.96958">
        <ele>1183</ele>
        <time>2019-06-02T09:58:17.000Z</time>
      </trkpt>
      <trkpt lat="43.80382" lon="6.96961">
        <ele>1182</ele>
        <time>2019-06-02T09:58:18.000Z</time>
      </trkpt>
      <trkpt lat="43.80381" lon="6.96965">
        <ele>1181</ele>
        <time>2019-06-02T09:58:19.000Z</time>
      </trkpt>
      <trkpt lat="43.80381" lon="6.96968">
        <ele>1180</ele>
        <time>2019-06-02T09:58:20.000Z</time>
      </trkpt>
      <trkpt lat="43.8038" lon="6.96972">
        <ele>1178</ele>
        <time>2019-06-02T09:58:21.000Z</time>
      </trkpt>
      <trkpt lat="43.80376" lon="6.96983">
        <ele>1175</ele>
        <time>2019-06-02T09:58:25.000Z</time>
      </trkpt>
      <trkpt lat="43.80375" lon="6.96988">
        <ele>1174</ele>
        <time>2019-06-02T09:58:27.000Z</time>
      </trkpt>
      <trkpt lat="43.80376" lon="6.96991">
        <ele>1173</ele>
        <time>2019-06-02T09:58:30.000Z</time>
      </trkpt>
      <trkpt lat="43.80376" lon="6.96993">
        <ele>1173</ele>
        <time>2019-06-02T09:58:31.000Z</time>
      </trkpt>
      <trkpt lat="43.80376" lon="6.96997">
        <ele>1172</ele>
        <time>2019-06-02T09:58:32.000Z</time>
      </trkpt>
      <trkpt lat="43.80376" lon="6.97">
        <ele>1172</ele>
        <time>2019-06-02T09:58:33.000Z</time>
      </trkpt>
      <trkpt lat="43.80376" lon="6.97003">
        <ele>1171</ele>
        <time>2019-06-02T09:58:34.000Z</time>
      </trkpt>
      <trkpt lat="43.80375" lon="6.97009">
        <ele>1170</ele>
        <time>2019-06-02T09:58:35.000Z</time>
      </trkpt>
      <trkpt lat="43.80373" lon="6.97016">
        <ele>1169</ele>
        <time>2019-06-02T09:58:36.000Z</time>
      </trkpt>
      <trkpt lat="43.80372" lon="6.97023">
        <ele>1169</ele>
        <time>2019-06-02T09:58:37.000Z</time>
      </trkpt>
      <trkpt lat="43.80365" lon="6.97062">
        <ele>1170</ele>
        <time>2019-06-02T09:58:45.000Z</time>
      </trkpt>
      <trkpt lat="43.80361" lon="6.97106">
        <ele>1170</ele>
        <time>2019-06-02T09:58:56.000Z</time>
      </trkpt>
      <trkpt lat="43.8036" lon="6.9711">
        <ele>1170</ele>
        <time>2019-06-02T09:58:57.000Z</time>
      </trkpt>
      <trkpt lat="43.80361" lon="6.97114">
        <ele>1168</ele>
        <time>2019-06-02T09:58:58.000Z</time>
      </trkpt>
      <trkpt lat="43.80362" lon="6.97116">
        <ele>1168</ele>
        <time>2019-06-02T09:58:59.000Z</time>
      </trkpt>
      <trkpt lat="43.80363" lon="6.97118">
        <ele>1168</ele>
        <time>2019-06-02T09:59:00.000Z</time>
      </trkpt>
      <trkpt lat="43.80365" lon="6.97119">
        <ele>1167</ele>
        <time>2019-06-02T09:59:01.000Z</time>
      </trkpt>
      <trkpt lat="43.80367" lon="6.97119">
        <ele>1167</ele>
        <time>2019-06-02T09:59:02.000Z</time>
      </trkpt>
      <trkpt lat="43.80369" lon="6.9712">
        <ele>1167</ele>
        <time>2019-06-02T09:59:03.000Z</time>
      </trkpt>
      <trkpt lat="43.80369" lon="6.97121">
        <ele>1167</ele>
        <time>2019-06-02T09:59:04.000Z</time>
      </trkpt>
      <trkpt lat="43.80369" lon="6.97123">
        <ele>1167</ele>
        <time>2019-06-02T09:59:05.000Z</time>
      </trkpt>
      <trkpt lat="43.80368" lon="6.97139">
        <ele>1164</ele>
        <time>2019-06-02T09:59:10.000Z</time>
      </trkpt>
      <trkpt lat="43.80368" lon="6.97143">
        <ele>1163</ele>
        <time>2019-06-02T09:59:11.000Z</time>
      </trkpt>
      <trkpt lat="43.80368" lon="6.97145">
        <ele>1163</ele>
        <time>2019-06-02T09:59:12.000Z</time>
      </trkpt>
      <trkpt lat="43.80366" lon="6.97148">
        <ele>1163</ele>
        <time>2019-06-02T09:59:13.000Z</time>
      </trkpt>
      <trkpt lat="43.80366" lon="6.9715">
        <ele>1163</ele>
        <time>2019-06-02T09:59:14.000Z</time>
      </trkpt>
      <trkpt lat="43.80367" lon="6.97153">
        <ele>1163</ele>
        <time>2019-06-02T09:59:15.000Z</time>
      </trkpt>
      <trkpt lat="43.80368" lon="6.97156">
        <ele>1162</ele>
        <time>2019-06-02T09:59:16.000Z</time>
      </trkpt>
      <trkpt lat="43.80369" lon="6.97159">
        <ele>1162</ele>
        <time>2019-06-02T09:59:17.000Z</time>
      </trkpt>
      <trkpt lat="43.80371" lon="6.97161">
        <ele>1161</ele>
        <time>2019-06-02T09:59:18.000Z</time>
      </trkpt>
      <trkpt lat="43.80373" lon="6.97164">
        <ele>1161</ele>
        <time>2019-06-02T09:59:19.000Z</time>
      </trkpt>
      <trkpt lat="43.80374" lon="6.97166">
        <ele>1161</ele>
        <time>2019-06-02T09:59:20.000Z</time>
      </trkpt>
      <trkpt lat="43.80385" lon="6.97188">
        <ele>1159</ele>
        <time>2019-06-02T09:59:27.000Z</time>
      </trkpt>
      <trkpt lat="43.80384" lon="6.9719">
        <ele>1159</ele>
        <time>2019-06-02T09:59:28.000Z</time>
      </trkpt>
      <trkpt lat="43.80382" lon="6.97192">
        <ele>1158</ele>
        <time>2019-06-02T09:59:39.000Z</time>
      </trkpt>
      <trkpt lat="43.80382" lon="6.97193">
        <ele>1158</ele>
        <time>2019-06-02T09:59:42.000Z</time>
      </trkpt>
      <trkpt lat="43.80382" lon="6.97195">
        <ele>1158</ele>
        <time>2019-06-02T09:59:43.000Z</time>
      </trkpt>
      <trkpt lat="43.80381" lon="6.97198">
        <ele>1158</ele>
        <time>2019-06-02T09:59:44.000Z</time>
      </trkpt>
      <trkpt lat="43.8038" lon="6.97199">
        <ele>1157</ele>
        <time>2019-06-02T09:59:45.000Z</time>
      </trkpt>
      <trkpt lat="43.80378" lon="6.97199">
        <ele>1157</ele>
        <time>2019-06-02T09:59:46.000Z</time>
      </trkpt>
      <trkpt lat="43.80375" lon="6.97199">
        <ele>1156</ele>
        <time>2019-06-02T09:59:47.000Z</time>
      </trkpt>
      <trkpt lat="43.80373" lon="6.97198">
        <ele>1155</ele>
        <time>2019-06-02T09:59:48.000Z</time>
      </trkpt>
      <trkpt lat="43.80369" lon="6.97197">
        <ele>1155</ele>
        <time>2019-06-02T09:59:49.000Z</time>
      </trkpt>
      <trkpt lat="43.80366" lon="6.97198">
        <ele>1154</ele>
        <time>2019-06-02T09:59:50.000Z</time>
      </trkpt>
      <trkpt lat="43.80361" lon="6.97199">
        <ele>1153</ele>
        <time>2019-06-02T09:59:51.000Z</time>
      </trkpt>
      <trkpt lat="43.80356" lon="6.972">
        <ele>1152</ele>
        <time>2019-06-02T09:59:52.000Z</time>
      </trkpt>
      <trkpt lat="43.80352" lon="6.97203">
        <ele>1150</ele>
        <time>2019-06-02T09:59:53.000Z</time>
      </trkpt>
      <trkpt lat="43.80348" lon="6.97207">
        <ele>1149</ele>
        <time>2019-06-02T09:59:54.000Z</time>
      </trkpt>
      <trkpt lat="43.80346" lon="6.97212">
        <ele>1149</ele>
        <time>2019-06-02T09:59:55.000Z</time>
      </trkpt>
      <trkpt lat="43.80345" lon="6.97219">
        <ele>1148</ele>
        <time>2019-06-02T09:59:56.000Z</time>
      </trkpt>
      <trkpt lat="43.80345" lon="6.97225">
        <ele>1147</ele>
        <time>2019-06-02T09:59:57.000Z</time>
      </trkpt>
      <trkpt lat="43.80347" lon="6.97232">
        <ele>1146</ele>
        <time>2019-06-02T09:59:58.000Z</time>
      </trkpt>
      <trkpt lat="43.80351" lon="6.97237">
        <ele>1145</ele>
        <time>2019-06-02T09:59:59.000Z</time>
      </trkpt>
      <trkpt lat="43.80355" lon="6.97241">
        <ele>1144</ele>
        <time>2019-06-02T10:00:00.000Z</time>
      </trkpt>
      <trkpt lat="43.80358" lon="6.97246">
        <ele>1143</ele>
        <time>2019-06-02T10:00:01.000Z</time>
      </trkpt>
      <trkpt lat="43.8036" lon="6.97251">
        <ele>1143</ele>
        <time>2019-06-02T10:00:02.000Z</time>
      </trkpt>
      <trkpt lat="43.8036" lon="6.97257">
        <ele>1141</ele>
        <time>2019-06-02T10:00:03.000Z</time>
      </trkpt>
      <trkpt lat="43.80357" lon="6.97263">
        <ele>1140</ele>
        <time>2019-06-02T10:00:04.000Z</time>
      </trkpt>
      <trkpt lat="43.80354" lon="6.97268">
        <ele>1139</ele>
        <time>2019-06-02T10:00:05.000Z</time>
      </trkpt>
      <trkpt lat="43.8035" lon="6.97272">
        <ele>1138</ele>
        <time>2019-06-02T10:00:06.000Z</time>
      </trkpt>
      <trkpt lat="43.80346" lon="6.97276">
        <ele>1137</ele>
        <time>2019-06-02T10:00:07.000Z</time>
      </trkpt>
      <trkpt lat="43.80344" lon="6.97282">
        <ele>1136</ele>
        <time>2019-06-02T10:00:08.000Z</time>
      </trkpt>
      <trkpt lat="43.80342" lon="6.97289">
        <ele>1135</ele>
        <time>2019-06-02T10:00:09.000Z</time>
      </trkpt>
      <trkpt lat="43.80343" lon="6.97297">
        <ele>1134</ele>
        <time>2019-06-02T10:00:10.000Z</time>
      </trkpt>
      <trkpt lat="43.80345" lon="6.97307">
        <ele>1134</ele>
        <time>2019-06-02T10:00:11.000Z</time>
      </trkpt>
      <trkpt lat="43.80346" lon="6.97317">
        <ele>1132</ele>
        <time>2019-06-02T10:00:12.000Z</time>
      </trkpt>
      <trkpt lat="43.80347" lon="6.97326">
        <ele>1132</ele>
        <time>2019-06-02T10:00:13.000Z</time>
      </trkpt>
      <trkpt lat="43.8035" lon="6.97333">
        <ele>1132</ele>
        <time>2019-06-02T10:00:14.000Z</time>
      </trkpt>
      <trkpt lat="43.80354" lon="6.97336">
        <ele>1132</ele>
        <time>2019-06-02T10:00:15.000Z</time>
      </trkpt>
      <trkpt lat="43.80358" lon="6.97336">
        <ele>1132</ele>
        <time>2019-06-02T10:00:16.000Z</time>
      </trkpt>
      <trkpt lat="43.80377" lon="6.97339">
        <ele>1132</ele>
        <time>2019-06-02T10:00:21.000Z</time>
      </trkpt>
      <trkpt lat="43.80381" lon="6.97342">
        <ele>1132</ele>
        <time>2019-06-02T10:00:22.000Z</time>
      </trkpt>
      <trkpt lat="43.80385" lon="6.97345">
        <ele>1131</ele>
        <time>2019-06-02T10:00:23.000Z</time>
      </trkpt>
      <trkpt lat="43.80388" lon="6.97349">
        <ele>1131</ele>
        <time>2019-06-02T10:00:24.000Z</time>
      </trkpt>
      <trkpt lat="43.8039" lon="6.97353">
        <ele>1131</ele>
        <time>2019-06-02T10:00:25.000Z</time>
      </trkpt>
      <trkpt lat="43.80391" lon="6.97358">
        <ele>1132</ele>
        <time>2019-06-02T10:00:26.000Z</time>
      </trkpt>
      <trkpt lat="43.80393" lon="6.97362">
        <ele>1132</ele>
        <time>2019-06-02T10:00:27.000Z</time>
      </trkpt>
      <trkpt lat="43.80395" lon="6.97367">
        <ele>1132</ele>
        <time>2019-06-02T10:00:28.000Z</time>
      </trkpt>
      <trkpt lat="43.80397" lon="6.97371">
        <ele>1132</ele>
        <time>2019-06-02T10:00:29.000Z</time>
      </trkpt>
      <trkpt lat="43.804" lon="6.97374">
        <ele>1132</ele>
        <time>2019-06-02T10:00:30.000Z</time>
      </trkpt>
      <trkpt lat="43.80404" lon="6.97378">
        <ele>1132</ele>
        <time>2019-06-02T10:00:31.000Z</time>
      </trkpt>
      <trkpt lat="43.80407" lon="6.97382">
        <ele>1132</ele>
        <time>2019-06-02T10:00:32.000Z</time>
      </trkpt>
      <trkpt lat="43.80409" lon="6.97388">
        <ele>1132</ele>
        <time>2019-06-02T10:00:33.000Z</time>
      </trkpt>
      <trkpt lat="43.80409" lon="6.97393">
        <ele>1131</ele>
        <time>2019-06-02T10:00:34.000Z</time>
      </trkpt>
      <trkpt lat="43.80407" lon="6.97398">
        <ele>1131</ele>
        <time>2019-06-02T10:00:35.000Z</time>
      </trkpt>
      <trkpt lat="43.80405" lon="6.97401">
        <ele>1130</ele>
        <time>2019-06-02T10:00:36.000Z</time>
      </trkpt>
      <trkpt lat="43.80403" lon="6.97402">
        <ele>1130</ele>
        <time>2019-06-02T10:00:37.000Z</time>
      </trkpt>
      <trkpt lat="43.80398" lon="6.97406">
        <ele>1130</ele>
        <time>2019-06-02T10:00:47.000Z</time>
      </trkpt>
      <trkpt lat="43.80394" lon="6.97413">
        <ele>1129</ele>
        <time>2019-06-02T10:00:50.000Z</time>
      </trkpt>
      <trkpt lat="43.80393" lon="6.97419">
        <ele>1128</ele>
        <time>2019-06-02T10:00:51.000Z</time>
      </trkpt>
      <trkpt lat="43.80396" lon="6.97427">
        <ele>1127</ele>
        <time>2019-06-02T10:00:52.000Z</time>
      </trkpt>
      <trkpt lat="43.80402" lon="6.9744">
        <ele>1126</ele>
        <time>2019-06-02T10:00:54.000Z</time>
      </trkpt>
      <trkpt lat="43.80407" lon="6.97446">
        <ele>1125</ele>
        <time>2019-06-02T10:00:55.000Z</time>
      </trkpt>
      <trkpt lat="43.80413" lon="6.9745">
        <ele>1124</ele>
        <time>2019-06-02T10:00:56.000Z</time>
      </trkpt>
      <trkpt lat="43.80419" lon="6.97452">
        <ele>1124</ele>
        <time>2019-06-02T10:00:57.000Z</time>
      </trkpt>
      <trkpt lat="43.80425" lon="6.97454">
        <ele>1123</ele>
        <time>2019-06-02T10:00:58.000Z</time>
      </trkpt>
      <trkpt lat="43.80432" lon="6.97457">
        <ele>1122</ele>
        <time>2019-06-02T10:00:59.000Z</time>
      </trkpt>
      <trkpt lat="43.8044" lon="6.9746">
        <ele>1121</ele>
        <time>2019-06-02T10:01:00.000Z</time>
      </trkpt>
      <trkpt lat="43.80448" lon="6.97461">
        <ele>1120</ele>
        <time>2019-06-02T10:01:01.000Z</time>
      </trkpt>
      <trkpt lat="43.80456" lon="6.97459">
        <ele>1120</ele>
        <time>2019-06-02T10:01:02.000Z</time>
      </trkpt>
      <trkpt lat="43.80464" lon="6.97456">
        <ele>1120</ele>
        <time>2019-06-02T10:01:03.000Z</time>
      </trkpt>
      <trkpt lat="43.8047" lon="6.97453">
        <ele>1120</ele>
        <time>2019-06-02T10:01:04.000Z</time>
      </trkpt>
      <trkpt lat="43.80476" lon="6.97451">
        <ele>1120</ele>
        <time>2019-06-02T10:01:05.000Z</time>
      </trkpt>
      <trkpt lat="43.80481" lon="6.97451">
        <ele>1120</ele>
        <time>2019-06-02T10:01:06.000Z</time>
      </trkpt>
      <trkpt lat="43.80486" lon="6.97453">
        <ele>1121</ele>
        <time>2019-06-02T10:01:07.000Z</time>
      </trkpt>
      <trkpt lat="43.80498" lon="6.97459">
        <ele>1121</ele>
        <time>2019-06-02T10:01:10.000Z</time>
      </trkpt>
      <trkpt lat="43.80502" lon="6.97462">
        <ele>1121</ele>
        <time>2019-06-02T10:01:11.000Z</time>
      </trkpt>
      <trkpt lat="43.80504" lon="6.97466">
        <ele>1121</ele>
        <time>2019-06-02T10:01:12.000Z</time>
      </trkpt>
      <trkpt lat="43.80505" lon="6.97472">
        <ele>1121</ele>
        <time>2019-06-02T10:01:13.000Z</time>
      </trkpt>
      <trkpt lat="43.80502" lon="6.97478">
        <ele>1119</ele>
        <time>2019-06-02T10:01:14.000Z</time>
      </trkpt>
      <trkpt lat="43.80497" lon="6.97481">
        <ele>1118</ele>
        <time>2019-06-02T10:01:15.000Z</time>
      </trkpt>
      <trkpt lat="43.80492" lon="6.97483">
        <ele>1117</ele>
        <time>2019-06-02T10:01:16.000Z</time>
      </trkpt>
      <trkpt lat="43.80486" lon="6.97485">
        <ele>1116</ele>
        <time>2019-06-02T10:01:17.000Z</time>
      </trkpt>
      <trkpt lat="43.8048" lon="6.97489">
        <ele>1116</ele>
        <time>2019-06-02T10:01:18.000Z</time>
      </trkpt>
      <trkpt lat="43.80476" lon="6.97493">
        <ele>1116</ele>
        <time>2019-06-02T10:01:19.000Z</time>
      </trkpt>
      <trkpt lat="43.80472" lon="6.97498">
        <ele>1116</ele>
        <time>2019-06-02T10:01:20.000Z</time>
      </trkpt>
      <trkpt lat="43.80468" lon="6.97503">
        <ele>1116</ele>
        <time>2019-06-02T10:01:21.000Z</time>
      </trkpt>
      <trkpt lat="43.80465" lon="6.97509">
        <ele>1116</ele>
        <time>2019-06-02T10:01:22.000Z</time>
      </trkpt>
      <trkpt lat="43.80462" lon="6.97514">
        <ele>1116</ele>
        <time>2019-06-02T10:01:23.000Z</time>
      </trkpt>
      <trkpt lat="43.80441" lon="6.97582">
        <ele>1117</ele>
        <time>2019-06-02T10:01:34.000Z</time>
      </trkpt>
      <trkpt lat="43.80438" lon="6.97635">
        <ele>1118</ele>
        <time>2019-06-02T10:01:45.000Z</time>
      </trkpt>
      <trkpt lat="43.80457" lon="6.97688">
        <ele>1120</ele>
        <time>2019-06-02T10:01:58.000Z</time>
      </trkpt>
      <trkpt lat="43.80481" lon="6.97744">
        <ele>1116</ele>
        <time>2019-06-02T10:02:09.000Z</time>
      </trkpt>
      <trkpt lat="43.80498" lon="6.97794">
        <ele>1113</ele>
        <time>2019-06-02T10:02:15.000Z</time>
      </trkpt>
      <trkpt lat="43.80499" lon="6.97804">
        <ele>1113</ele>
        <time>2019-06-02T10:02:16.000Z</time>
      </trkpt>
      <trkpt lat="43.80501" lon="6.97813">
        <ele>1112</ele>
        <time>2019-06-02T10:02:17.000Z</time>
      </trkpt>
      <trkpt lat="43.80504" lon="6.97824">
        <ele>1110</ele>
        <time>2019-06-02T10:02:18.000Z</time>
      </trkpt>
      <trkpt lat="43.80509" lon="6.97833">
        <ele>1109</ele>
        <time>2019-06-02T10:02:19.000Z</time>
      </trkpt>
      <trkpt lat="43.80514" lon="6.97842">
        <ele>1109</ele>
        <time>2019-06-02T10:02:20.000Z</time>
      </trkpt>
      <trkpt lat="43.80518" lon="6.97851">
        <ele>1108</ele>
        <time>2019-06-02T10:02:21.000Z</time>
      </trkpt>
      <trkpt lat="43.80526" lon="6.97869">
        <ele>1107</ele>
        <time>2019-06-02T10:02:23.000Z</time>
      </trkpt>
      <trkpt lat="43.80528" lon="6.97879">
        <ele>1106</ele>
        <time>2019-06-02T10:02:24.000Z</time>
      </trkpt>
      <trkpt lat="43.80527" lon="6.97889">
        <ele>1105</ele>
        <time>2019-06-02T10:02:25.000Z</time>
      </trkpt>
      <trkpt lat="43.80526" lon="6.97898">
        <ele>1105</ele>
        <time>2019-06-02T10:02:26.000Z</time>
      </trkpt>
      <trkpt lat="43.80525" lon="6.97907">
        <ele>1105</ele>
        <time>2019-06-02T10:02:27.000Z</time>
      </trkpt>
      <trkpt lat="43.80526" lon="6.97916">
        <ele>1105</ele>
        <time>2019-06-02T10:02:28.000Z</time>
      </trkpt>
      <trkpt lat="43.80526" lon="6.97924">
        <ele>1105</ele>
        <time>2019-06-02T10:02:29.000Z</time>
      </trkpt>
      <trkpt lat="43.80525" lon="6.97932">
        <ele>1105</ele>
        <time>2019-06-02T10:02:30.000Z</time>
      </trkpt>
      <trkpt lat="43.80515" lon="6.97996">
        <ele>1102</ele>
        <time>2019-06-02T10:02:37.000Z</time>
      </trkpt>
      <trkpt lat="43.80512" lon="6.98026">
        <ele>1101</ele>
        <time>2019-06-02T10:02:40.000Z</time>
      </trkpt>
      <trkpt lat="43.80511" lon="6.98035">
        <ele>1101</ele>
        <time>2019-06-02T10:02:41.000Z</time>
      </trkpt>
      <trkpt lat="43.80512" lon="6.98061">
        <ele>1101</ele>
        <time>2019-06-02T10:02:44.000Z</time>
      </trkpt>
      <trkpt lat="43.80513" lon="6.98069">
        <ele>1101</ele>
        <time>2019-06-02T10:02:45.000Z</time>
      </trkpt>
      <trkpt lat="43.80515" lon="6.98085">
        <ele>1101</ele>
        <time>2019-06-02T10:02:47.000Z</time>
      </trkpt>
      <trkpt lat="43.80514" lon="6.98095">
        <ele>1099</ele>
        <time>2019-06-02T10:02:48.000Z</time>
      </trkpt>
      <trkpt lat="43.80511" lon="6.98105">
        <ele>1097</ele>
        <time>2019-06-02T10:02:49.000Z</time>
      </trkpt>
      <trkpt lat="43.80507" lon="6.98115">
        <ele>1097</ele>
        <time>2019-06-02T10:02:50.000Z</time>
      </trkpt>
      <trkpt lat="43.80505" lon="6.98124">
        <ele>1097</ele>
        <time>2019-06-02T10:02:51.000Z</time>
      </trkpt>
      <trkpt lat="43.80504" lon="6.98133">
        <ele>1097</ele>
        <time>2019-06-02T10:02:52.000Z</time>
      </trkpt>
      <trkpt lat="43.80504" lon="6.98142">
        <ele>1097</ele>
        <time>2019-06-02T10:02:53.000Z</time>
      </trkpt>
      <trkpt lat="43.80503" lon="6.98151">
        <ele>1097</ele>
        <time>2019-06-02T10:02:54.000Z</time>
      </trkpt>
      <trkpt lat="43.80502" lon="6.98157">
        <ele>1097</ele>
        <time>2019-06-02T10:02:55.000Z</time>
      </trkpt>
      <trkpt lat="43.805" lon="6.98162">
        <ele>1098</ele>
        <time>2019-06-02T10:02:56.000Z</time>
      </trkpt>
      <trkpt lat="43.80498" lon="6.98168">
        <ele>1098</ele>
        <time>2019-06-02T10:02:57.000Z</time>
      </trkpt>
      <trkpt lat="43.80496" lon="6.98174">
        <ele>1097</ele>
        <time>2019-06-02T10:02:58.000Z</time>
      </trkpt>
      <trkpt lat="43.80494" lon="6.98182">
        <ele>1097</ele>
        <time>2019-06-02T10:02:59.000Z</time>
      </trkpt>
      <trkpt lat="43.80493" lon="6.9819">
        <ele>1097</ele>
        <time>2019-06-02T10:03:00.000Z</time>
      </trkpt>
      <trkpt lat="43.80493" lon="6.98207">
        <ele>1096</ele>
        <time>2019-06-02T10:03:02.000Z</time>
      </trkpt>
      <trkpt lat="43.80493" lon="6.98215">
        <ele>1096</ele>
        <time>2019-06-02T10:03:03.000Z</time>
      </trkpt>
      <trkpt lat="43.80494" lon="6.98222">
        <ele>1096</ele>
        <time>2019-06-02T10:03:04.000Z</time>
      </trkpt>
      <trkpt lat="43.80494" lon="6.98282">
        <ele>1096</ele>
        <time>2019-06-02T10:03:12.000Z</time>
      </trkpt>
      <trkpt lat="43.80494" lon="6.98307">
        <ele>1097</ele>
        <time>2019-06-02T10:03:16.000Z</time>
      </trkpt>
      <trkpt lat="43.80492" lon="6.98313">
        <ele>1097</ele>
        <time>2019-06-02T10:03:17.000Z</time>
      </trkpt>
      <trkpt lat="43.80491" lon="6.98319">
        <ele>1097</ele>
        <time>2019-06-02T10:03:18.000Z</time>
      </trkpt>
      <trkpt lat="43.80463" lon="6.98362">
        <ele>1097</ele>
        <time>2019-06-02T10:03:29.000Z</time>
      </trkpt>
      <trkpt lat="43.80459" lon="6.98366">
        <ele>1097</ele>
        <time>2019-06-02T10:03:30.000Z</time>
      </trkpt>
      <trkpt lat="43.80426" lon="6.98421">
        <ele>1096</ele>
        <time>2019-06-02T10:03:41.000Z</time>
      </trkpt>
      <trkpt lat="43.80424" lon="6.98432">
        <ele>1096</ele>
        <time>2019-06-02T10:03:43.000Z</time>
      </trkpt>
      <trkpt lat="43.80423" lon="6.98438">
        <ele>1096</ele>
        <time>2019-06-02T10:03:44.000Z</time>
      </trkpt>
      <trkpt lat="43.80423" lon="6.98444">
        <ele>1096</ele>
        <time>2019-06-02T10:03:45.000Z</time>
      </trkpt>
      <trkpt lat="43.80422" lon="6.98449">
        <ele>1096</ele>
        <time>2019-06-02T10:03:46.000Z</time>
      </trkpt>
      <trkpt lat="43.80422" lon="6.98455">
        <ele>1096</ele>
        <time>2019-06-02T10:03:47.000Z</time>
      </trkpt>
      <trkpt lat="43.80423" lon="6.98465">
        <ele>1097</ele>
        <time>2019-06-02T10:03:49.000Z</time>
      </trkpt>
      <trkpt lat="43.80425" lon="6.98508">
        <ele>1097</ele>
        <time>2019-06-02T10:03:57.000Z</time>
      </trkpt>
      <trkpt lat="43.80425" lon="6.98557">
        <ele>1096</ele>
        <time>2019-06-02T10:04:05.000Z</time>
      </trkpt>
      <trkpt lat="43.80419" lon="6.98598">
        <ele>1095</ele>
        <time>2019-06-02T10:04:11.000Z</time>
      </trkpt>
      <trkpt lat="43.80413" lon="6.98612">
        <ele>1093</ele>
        <time>2019-06-02T10:04:13.000Z</time>
      </trkpt>
      <trkpt lat="43.8041" lon="6.9862">
        <ele>1092</ele>
        <time>2019-06-02T10:04:14.000Z</time>
      </trkpt>
      <trkpt lat="43.80409" lon="6.98629">
        <ele>1091</ele>
        <time>2019-06-02T10:04:15.000Z</time>
      </trkpt>
      <trkpt lat="43.8041" lon="6.98639">
        <ele>1090</ele>
        <time>2019-06-02T10:04:16.000Z</time>
      </trkpt>
      <trkpt lat="43.80412" lon="6.98648">
        <ele>1090</ele>
        <time>2019-06-02T10:04:17.000Z</time>
      </trkpt>
      <trkpt lat="43.80416" lon="6.98657">
        <ele>1090</ele>
        <time>2019-06-02T10:04:18.000Z</time>
      </trkpt>
      <trkpt lat="43.80424" lon="6.98682">
        <ele>1091</ele>
        <time>2019-06-02T10:04:22.000Z</time>
      </trkpt>
      <trkpt lat="43.80412" lon="6.98724">
        <ele>1092</ele>
        <time>2019-06-02T10:04:31.000Z</time>
      </trkpt>
      <trkpt lat="43.8041" lon="6.98729">
        <ele>1092</ele>
        <time>2019-06-02T10:04:32.000Z</time>
      </trkpt>
      <trkpt lat="43.80408" lon="6.98744">
        <ele>1094</ele>
        <time>2019-06-02T10:04:36.000Z</time>
      </trkpt>
      <trkpt lat="43.80406" lon="6.98782">
        <ele>1097</ele>
        <time>2019-06-02T10:04:48.000Z</time>
      </trkpt>
      <trkpt lat="43.80405" lon="6.98788">
        <ele>1097</ele>
        <time>2019-06-02T10:04:50.000Z</time>
      </trkpt>
      <trkpt lat="43.80404" lon="6.98791">
        <ele>1097</ele>
        <time>2019-06-02T10:04:51.000Z</time>
      </trkpt>
      <trkpt lat="43.80378" lon="6.9883">
        <ele>1098</ele>
        <time>2019-06-02T10:05:05.000Z</time>
      </trkpt>
      <trkpt lat="43.80353" lon="6.98895">
        <ele>1098</ele>
        <time>2019-06-02T10:05:21.000Z</time>
      </trkpt>
      <trkpt lat="43.80352" lon="6.989">
        <ele>1098</ele>
        <time>2019-06-02T10:05:22.000Z</time>
      </trkpt>
      <trkpt lat="43.80353" lon="6.98903">
        <ele>1098</ele>
        <time>2019-06-02T10:05:23.000Z</time>
      </trkpt>
      <trkpt lat="43.80354" lon="6.98907">
        <ele>1099</ele>
        <time>2019-06-02T10:05:24.000Z</time>
      </trkpt>
      <trkpt lat="43.80356" lon="6.9891">
        <ele>1099</ele>
        <time>2019-06-02T10:05:25.000Z</time>
      </trkpt>
      <trkpt lat="43.80358" lon="6.98912">
        <ele>1098</ele>
        <time>2019-06-02T10:05:26.000Z</time>
      </trkpt>
      <trkpt lat="43.8036" lon="6.98914">
        <ele>1099</ele>
        <time>2019-06-02T10:05:27.000Z</time>
      </trkpt>
      <trkpt lat="43.80391" lon="6.98918">
        <ele>1103</ele>
        <time>2019-06-02T10:05:42.000Z</time>
      </trkpt>
      <trkpt lat="43.80399" lon="6.98918">
        <ele>1104</ele>
        <time>2019-06-02T10:05:47.000Z</time>
      </trkpt>
      <trkpt lat="43.804" lon="6.9892">
        <ele>1105</ele>
        <time>2019-06-02T10:05:48.000Z</time>
      </trkpt>
      <trkpt lat="43.80401" lon="6.98922">
        <ele>1105</ele>
        <time>2019-06-02T10:05:49.000Z</time>
      </trkpt>
      <trkpt lat="43.80402" lon="6.98924">
        <ele>1105</ele>
        <time>2019-06-02T10:05:50.000Z</time>
      </trkpt>
      <trkpt lat="43.80402" lon="6.98927">
        <ele>1105</ele>
        <time>2019-06-02T10:05:51.000Z</time>
      </trkpt>
      <trkpt lat="43.80403" lon="6.9893">
        <ele>1104</ele>
        <time>2019-06-02T10:05:52.000Z</time>
      </trkpt>
      <trkpt lat="43.80396" lon="6.98989">
        <ele>1105</ele>
        <time>2019-06-02T10:06:08.000Z</time>
      </trkpt>
      <trkpt lat="43.80392" lon="6.99038">
        <ele>1106</ele>
        <time>2019-06-02T10:06:21.000Z</time>
      </trkpt>
      <trkpt lat="43.80389" lon="6.99042">
        <ele>1106</ele>
        <time>2019-06-02T10:06:22.000Z</time>
      </trkpt>
      <trkpt lat="43.80386" lon="6.99046">
        <ele>1105</ele>
        <time>2019-06-02T10:06:23.000Z</time>
      </trkpt>
      <trkpt lat="43.80383" lon="6.99051">
        <ele>1104</ele>
        <time>2019-06-02T10:06:24.000Z</time>
      </trkpt>
      <trkpt lat="43.80381" lon="6.99058">
        <ele>1103</ele>
        <time>2019-06-02T10:06:25.000Z</time>
      </trkpt>
      <trkpt lat="43.8038" lon="6.99066">
        <ele>1102</ele>
        <time>2019-06-02T10:06:26.000Z</time>
      </trkpt>
      <trkpt lat="43.8038" lon="6.99075">
        <ele>1101</ele>
        <time>2019-06-02T10:06:27.000Z</time>
      </trkpt>
      <trkpt lat="43.80382" lon="6.99085">
        <ele>1101</ele>
        <time>2019-06-02T10:06:28.000Z</time>
      </trkpt>
      <trkpt lat="43.80384" lon="6.99094">
        <ele>1100</ele>
        <time>2019-06-02T10:06:29.000Z</time>
      </trkpt>
      <trkpt lat="43.80386" lon="6.99103">
        <ele>1100</ele>
        <time>2019-06-02T10:06:30.000Z</time>
      </trkpt>
      <trkpt lat="43.80389" lon="6.99111">
        <ele>1100</ele>
        <time>2019-06-02T10:06:31.000Z</time>
      </trkpt>
      <trkpt lat="43.80407" lon="6.9918">
        <ele>1099</ele>
        <time>2019-06-02T10:06:40.000Z</time>
      </trkpt>
      <trkpt lat="43.80407" lon="6.99187">
        <ele>1099</ele>
        <time>2019-06-02T10:06:41.000Z</time>
      </trkpt>
      <trkpt lat="43.80406" lon="6.992">
        <ele>1099</ele>
        <time>2019-06-02T10:06:43.000Z</time>
      </trkpt>
      <trkpt lat="43.80406" lon="6.99207">
        <ele>1099</ele>
        <time>2019-06-02T10:06:44.000Z</time>
      </trkpt>
      <trkpt lat="43.80405" lon="6.99215">
        <ele>1098</ele>
        <time>2019-06-02T10:06:45.000Z</time>
      </trkpt>
      <trkpt lat="43.80405" lon="6.99224">
        <ele>1097</ele>
        <time>2019-06-02T10:06:46.000Z</time>
      </trkpt>
      <trkpt lat="43.80404" lon="6.99233">
        <ele>1097</ele>
        <time>2019-06-02T10:06:47.000Z</time>
      </trkpt>
      <trkpt lat="43.80403" lon="6.99252">
        <ele>1096</ele>
        <time>2019-06-02T10:06:49.000Z</time>
      </trkpt>
      <trkpt lat="43.80396" lon="6.99291">
        <ele>1094</ele>
        <time>2019-06-02T10:06:53.000Z</time>
      </trkpt>
      <trkpt lat="43.80396" lon="6.99301">
        <ele>1094</ele>
        <time>2019-06-02T10:06:54.000Z</time>
      </trkpt>
      <trkpt lat="43.80396" lon="6.99312">
        <ele>1094</ele>
        <time>2019-06-02T10:06:55.000Z</time>
      </trkpt>
      <trkpt lat="43.80397" lon="6.99322">
        <ele>1094</ele>
        <time>2019-06-02T10:06:56.000Z</time>
      </trkpt>
      <trkpt lat="43.80398" lon="6.99331">
        <ele>1093</ele>
        <time>2019-06-02T10:06:57.000Z</time>
      </trkpt>
      <trkpt lat="43.80398" lon="6.99341">
        <ele>1093</ele>
        <time>2019-06-02T10:06:58.000Z</time>
      </trkpt>
      <trkpt lat="43.80398" lon="6.9935">
        <ele>1093</ele>
        <time>2019-06-02T10:06:59.000Z</time>
      </trkpt>
      <trkpt lat="43.80397" lon="6.99361">
        <ele>1092</ele>
        <time>2019-06-02T10:07:00.000Z</time>
      </trkpt>
      <trkpt lat="43.80393" lon="6.99402">
        <ele>1090</ele>
        <time>2019-06-02T10:07:04.000Z</time>
      </trkpt>
      <trkpt lat="43.80388" lon="6.99463">
        <ele>1092</ele>
        <time>2019-06-02T10:07:13.000Z</time>
      </trkpt>
      <trkpt lat="43.80363" lon="6.99522">
        <ele>1094</ele>
        <time>2019-06-02T10:07:27.000Z</time>
      </trkpt>
      <trkpt lat="43.8036" lon="6.99527">
        <ele>1094</ele>
        <time>2019-06-02T10:07:28.000Z</time>
      </trkpt>
      <trkpt lat="43.80353" lon="6.99538">
        <ele>1092</ele>
        <time>2019-06-02T10:07:30.000Z</time>
      </trkpt>
      <trkpt lat="43.80349" lon="6.99545">
        <ele>1091</ele>
        <time>2019-06-02T10:07:31.000Z</time>
      </trkpt>
      <trkpt lat="43.80346" lon="6.99553">
        <ele>1091</ele>
        <time>2019-06-02T10:07:32.000Z</time>
      </trkpt>
      <trkpt lat="43.80344" lon="6.99561">
        <ele>1090</ele>
        <time>2019-06-02T10:07:33.000Z</time>
      </trkpt>
      <trkpt lat="43.80342" lon="6.99568">
        <ele>1090</ele>
        <time>2019-06-02T10:07:34.000Z</time>
      </trkpt>
      <trkpt lat="43.80343" lon="6.99575">
        <ele>1090</ele>
        <time>2019-06-02T10:07:35.000Z</time>
      </trkpt>
      <trkpt lat="43.80344" lon="6.9958">
        <ele>1092</ele>
        <time>2019-06-02T10:07:36.000Z</time>
      </trkpt>
      <trkpt lat="43.80344" lon="6.99584">
        <ele>1092</ele>
        <time>2019-06-02T10:07:37.000Z</time>
      </trkpt>
      <trkpt lat="43.80343" lon="6.99588">
        <ele>1092</ele>
        <time>2019-06-02T10:07:38.000Z</time>
      </trkpt>
      <trkpt lat="43.80342" lon="6.99592">
        <ele>1092</ele>
        <time>2019-06-02T10:07:39.000Z</time>
      </trkpt>
      <trkpt lat="43.80334" lon="6.99655">
        <ele>1094</ele>
        <time>2019-06-02T10:07:51.000Z</time>
      </trkpt>
      <trkpt lat="43.80328" lon="6.99689">
        <ele>1093</ele>
        <time>2019-06-02T10:07:58.000Z</time>
      </trkpt>
      <trkpt lat="43.80327" lon="6.99691">
        <ele>1093</ele>
        <time>2019-06-02T10:07:59.000Z</time>
      </trkpt>
      <trkpt lat="43.80327" lon="6.99693">
        <ele>1093</ele>
        <time>2019-06-02T10:08:00.000Z</time>
      </trkpt>
      <trkpt lat="43.80328" lon="6.99695">
        <ele>1093</ele>
        <time>2019-06-02T10:08:01.000Z</time>
      </trkpt>
      <trkpt lat="43.80328" lon="6.99698">
        <ele>1092</ele>
        <time>2019-06-02T10:08:02.000Z</time>
      </trkpt>
      <trkpt lat="43.80328" lon="6.99702">
        <ele>1092</ele>
        <time>2019-06-02T10:08:03.000Z</time>
      </trkpt>
      <trkpt lat="43.80327" lon="6.99706">
        <ele>1092</ele>
        <time>2019-06-02T10:08:04.000Z</time>
      </trkpt>
      <trkpt lat="43.80326" lon="6.99711">
        <ele>1091</ele>
        <time>2019-06-02T10:08:05.000Z</time>
      </trkpt>
      <trkpt lat="43.80324" lon="6.99733">
        <ele>1090</ele>
        <time>2019-06-02T10:08:08.000Z</time>
      </trkpt>
      <trkpt lat="43.80323" lon="6.99741">
        <ele>1089</ele>
        <time>2019-06-02T10:08:09.000Z</time>
      </trkpt>
      <trkpt lat="43.80318" lon="6.99767">
        <ele>1088</ele>
        <time>2019-06-02T10:08:12.000Z</time>
      </trkpt>
      <trkpt lat="43.80315" lon="6.99776">
        <ele>1087</ele>
        <time>2019-06-02T10:08:13.000Z</time>
      </trkpt>
      <trkpt lat="43.80312" lon="6.99784">
        <ele>1086</ele>
        <time>2019-06-02T10:08:14.000Z</time>
      </trkpt>
      <trkpt lat="43.80311" lon="6.99793">
        <ele>1085</ele>
        <time>2019-06-02T10:08:15.000Z</time>
      </trkpt>
      <trkpt lat="43.80312" lon="6.99802">
        <ele>1085</ele>
        <time>2019-06-02T10:08:16.000Z</time>
      </trkpt>
      <trkpt lat="43.80313" lon="6.99809">
        <ele>1084</ele>
        <time>2019-06-02T10:08:17.000Z</time>
      </trkpt>
      <trkpt lat="43.80316" lon="6.99816">
        <ele>1083</ele>
        <time>2019-06-02T10:08:18.000Z</time>
      </trkpt>
      <trkpt lat="43.8032" lon="6.99821">
        <ele>1083</ele>
        <time>2019-06-02T10:08:19.000Z</time>
      </trkpt>
      <trkpt lat="43.80325" lon="6.99827">
        <ele>1080</ele>
        <time>2019-06-02T10:08:20.000Z</time>
      </trkpt>
      <trkpt lat="43.8033" lon="6.99833">
        <ele>1080</ele>
        <time>2019-06-02T10:08:21.000Z</time>
      </trkpt>
      <trkpt lat="43.80339" lon="6.99848">
        <ele>1080</ele>
        <time>2019-06-02T10:08:23.000Z</time>
      </trkpt>
      <trkpt lat="43.80342" lon="6.99855">
        <ele>1079</ele>
        <time>2019-06-02T10:08:24.000Z</time>
      </trkpt>
      <trkpt lat="43.80344" lon="6.99862">
        <ele>1079</ele>
        <time>2019-06-02T10:08:25.000Z</time>
      </trkpt>
      <trkpt lat="43.80345" lon="6.99871">
        <ele>1078</ele>
        <time>2019-06-02T10:08:26.000Z</time>
      </trkpt>
      <trkpt lat="43.80343" lon="6.99877">
        <ele>1078</ele>
        <time>2019-06-02T10:08:27.000Z</time>
      </trkpt>
      <trkpt lat="43.8034" lon="6.99882">
        <ele>1078</ele>
        <time>2019-06-02T10:08:28.000Z</time>
      </trkpt>
      <trkpt lat="43.80336" lon="6.99885">
        <ele>1078</ele>
        <time>2019-06-02T10:08:29.000Z</time>
      </trkpt>
      <trkpt lat="43.80313" lon="6.99915">
        <ele>1080</ele>
        <time>2019-06-02T10:08:39.000Z</time>
      </trkpt>
      <trkpt lat="43.80286" lon="6.99976">
        <ele>1081</ele>
        <time>2019-06-02T10:08:53.000Z</time>
      </trkpt>
      <trkpt lat="43.80266" lon="7.00014">
        <ele>1079</ele>
        <time>2019-06-02T10:09:00.000Z</time>
      </trkpt>
      <trkpt lat="43.80262" lon="7.00019">
        <ele>1079</ele>
        <time>2019-06-02T10:09:01.000Z</time>
      </trkpt>
      <trkpt lat="43.80257" lon="7.00022">
        <ele>1079</ele>
        <time>2019-06-02T10:09:02.000Z</time>
      </trkpt>
      <trkpt lat="43.80253" lon="7.00023">
        <ele>1079</ele>
        <time>2019-06-02T10:09:03.000Z</time>
      </trkpt>
      <trkpt lat="43.80249" lon="7.00026">
        <ele>1079</ele>
        <time>2019-06-02T10:09:04.000Z</time>
      </trkpt>
      <trkpt lat="43.80247" lon="7.0003">
        <ele>1079</ele>
        <time>2019-06-02T10:09:05.000Z</time>
      </trkpt>
      <trkpt lat="43.80244" lon="7.00035">
        <ele>1077</ele>
        <time>2019-06-02T10:09:06.000Z</time>
      </trkpt>
      <trkpt lat="43.80242" lon="7.0004">
        <ele>1076</ele>
        <time>2019-06-02T10:09:07.000Z</time>
      </trkpt>
      <trkpt lat="43.8024" lon="7.00046">
        <ele>1075</ele>
        <time>2019-06-02T10:09:08.000Z</time>
      </trkpt>
      <trkpt lat="43.80239" lon="7.00053">
        <ele>1074</ele>
        <time>2019-06-02T10:09:09.000Z</time>
      </trkpt>
      <trkpt lat="43.80241" lon="7.00061">
        <ele>1074</ele>
        <time>2019-06-02T10:09:10.000Z</time>
      </trkpt>
      <trkpt lat="43.80243" lon="7.00068">
        <ele>1073</ele>
        <time>2019-06-02T10:09:11.000Z</time>
      </trkpt>
      <trkpt lat="43.80259" lon="7.00129">
        <ele>1072</ele>
        <time>2019-06-02T10:09:19.000Z</time>
      </trkpt>
      <trkpt lat="43.80259" lon="7.00136">
        <ele>1072</ele>
        <time>2019-06-02T10:09:20.000Z</time>
      </trkpt>
      <trkpt lat="43.8026" lon="7.00143">
        <ele>1072</ele>
        <time>2019-06-02T10:09:21.000Z</time>
      </trkpt>
      <trkpt lat="43.80259" lon="7.00151">
        <ele>1072</ele>
        <time>2019-06-02T10:09:22.000Z</time>
      </trkpt>
      <trkpt lat="43.80259" lon="7.00159">
        <ele>1071</ele>
        <time>2019-06-02T10:09:23.000Z</time>
      </trkpt>
      <trkpt lat="43.80258" lon="7.00167">
        <ele>1070</ele>
        <time>2019-06-02T10:09:24.000Z</time>
      </trkpt>
      <trkpt lat="43.80256" lon="7.00176">
        <ele>1069</ele>
        <time>2019-06-02T10:09:25.000Z</time>
      </trkpt>
      <trkpt lat="43.80253" lon="7.00183">
        <ele>1069</ele>
        <time>2019-06-02T10:09:26.000Z</time>
      </trkpt>
      <trkpt lat="43.80248" lon="7.00188">
        <ele>1068</ele>
        <time>2019-06-02T10:09:27.000Z</time>
      </trkpt>
      <trkpt lat="43.80242" lon="7.00191">
        <ele>1066</ele>
        <time>2019-06-02T10:09:28.000Z</time>
      </trkpt>
      <trkpt lat="43.80236" lon="7.00192">
        <ele>1066</ele>
        <time>2019-06-02T10:09:29.000Z</time>
      </trkpt>
      <trkpt lat="43.80231" lon="7.00196">
        <ele>1066</ele>
        <time>2019-06-02T10:09:30.000Z</time>
      </trkpt>
      <trkpt lat="43.80229" lon="7.00202">
        <ele>1065</ele>
        <time>2019-06-02T10:09:31.000Z</time>
      </trkpt>
      <trkpt lat="43.8023" lon="7.0021">
        <ele>1064</ele>
        <time>2019-06-02T10:09:32.000Z</time>
      </trkpt>
      <trkpt lat="43.80234" lon="7.00216">
        <ele>1063</ele>
        <time>2019-06-02T10:09:33.000Z</time>
      </trkpt>
      <trkpt lat="43.80238" lon="7.0022">
        <ele>1063</ele>
        <time>2019-06-02T10:09:34.000Z</time>
      </trkpt>
      <trkpt lat="43.80242" lon="7.00224">
        <ele>1063</ele>
        <time>2019-06-02T10:09:35.000Z</time>
      </trkpt>
      <trkpt lat="43.80245" lon="7.00227">
        <ele>1063</ele>
        <time>2019-06-02T10:09:36.000Z</time>
      </trkpt>
      <trkpt lat="43.8025" lon="7.00232">
        <ele>1066</ele>
        <time>2019-06-02T10:09:39.000Z</time>
      </trkpt>
      <trkpt lat="43.80259" lon="7.00262">
        <ele>1067</ele>
        <time>2019-06-02T10:09:47.000Z</time>
      </trkpt>
      <trkpt lat="43.80258" lon="7.0028">
        <ele>1067</ele>
        <time>2019-06-02T10:09:50.000Z</time>
      </trkpt>
      <trkpt lat="43.80252" lon="7.00308">
        <ele>1067</ele>
        <time>2019-06-02T10:09:55.000Z</time>
      </trkpt>
      <trkpt lat="43.80252" lon="7.00316">
        <ele>1064</ele>
        <time>2019-06-02T10:09:56.000Z</time>
      </trkpt>
      <trkpt lat="43.80253" lon="7.00324">
        <ele>1064</ele>
        <time>2019-06-02T10:09:57.000Z</time>
      </trkpt>
      <trkpt lat="43.80255" lon="7.00332">
        <ele>1064</ele>
        <time>2019-06-02T10:09:58.000Z</time>
      </trkpt>
      <trkpt lat="43.80257" lon="7.00338">
        <ele>1064</ele>
        <time>2019-06-02T10:09:59.000Z</time>
      </trkpt>
      <trkpt lat="43.80265" lon="7.00395">
        <ele>1064</ele>
        <time>2019-06-02T10:10:08.000Z</time>
      </trkpt>
      <trkpt lat="43.80264" lon="7.00402">
        <ele>1064</ele>
        <time>2019-06-02T10:10:09.000Z</time>
      </trkpt>
      <trkpt lat="43.80261" lon="7.00409">
        <ele>1064</ele>
        <time>2019-06-02T10:10:10.000Z</time>
      </trkpt>
      <trkpt lat="43.80256" lon="7.0042">
        <ele>1064</ele>
        <time>2019-06-02T10:10:12.000Z</time>
      </trkpt>
      <trkpt lat="43.80226" lon="7.00476">
        <ele>1064</ele>
        <time>2019-06-02T10:10:25.000Z</time>
      </trkpt>
      <trkpt lat="43.8022" lon="7.00506">
        <ele>1068</ele>
        <time>2019-06-02T10:10:34.000Z</time>
      </trkpt>
      <trkpt lat="43.80219" lon="7.00508">
        <ele>1068</ele>
        <time>2019-06-02T10:10:35.000Z</time>
      </trkpt>
      <trkpt lat="43.80219" lon="7.0051">
        <ele>1068</ele>
        <time>2019-06-02T10:10:36.000Z</time>
      </trkpt>
      <trkpt lat="43.80218" lon="7.00511">
        <ele>1068</ele>
        <time>2019-06-02T10:10:37.000Z</time>
      </trkpt>
      <trkpt lat="43.80213" lon="7.00537">
        <ele>1071</ele>
        <time>2019-06-02T10:10:50.000Z</time>
      </trkpt>
      <trkpt lat="43.80215" lon="7.00571">
        <ele>1073</ele>
        <time>2019-06-02T10:11:06.000Z</time>
      </trkpt>
      <trkpt lat="43.80216" lon="7.00573">
        <ele>1073</ele>
        <time>2019-06-02T10:11:07.000Z</time>
      </trkpt>
      <trkpt lat="43.80216" lon="7.00574">
        <ele>1073</ele>
        <time>2019-06-02T10:11:08.000Z</time>
      </trkpt>
      <trkpt lat="43.80216" lon="7.00576">
        <ele>1073</ele>
        <time>2019-06-02T10:11:09.000Z</time>
      </trkpt>
      <trkpt lat="43.80216" lon="7.00578">
        <ele>1073</ele>
        <time>2019-06-02T10:11:10.000Z</time>
      </trkpt>
      <trkpt lat="43.80215" lon="7.00586">
        <ele>1074</ele>
        <time>2019-06-02T10:11:14.000Z</time>
      </trkpt>
      <trkpt lat="43.80214" lon="7.00589">
        <ele>1074</ele>
        <time>2019-06-02T10:11:15.000Z</time>
      </trkpt>
      <trkpt lat="43.80214" lon="7.00591">
        <ele>1074</ele>
        <time>2019-06-02T10:11:16.000Z</time>
      </trkpt>
      <trkpt lat="43.80205" lon="7.00626">
        <ele>1075</ele>
        <time>2019-06-02T10:11:31.000Z</time>
      </trkpt>
      <trkpt lat="43.80202" lon="7.00655">
        <ele>1079</ele>
        <time>2019-06-02T10:11:43.000Z</time>
      </trkpt>
      <trkpt lat="43.802" lon="7.00667">
        <ele>1080</ele>
        <time>2019-06-02T10:11:48.000Z</time>
      </trkpt>
      <trkpt lat="43.802" lon="7.0067">
        <ele>1080</ele>
        <time>2019-06-02T10:11:49.000Z</time>
      </trkpt>
      <trkpt lat="43.80198" lon="7.00677">
        <ele>1081</ele>
        <time>2019-06-02T10:11:52.000Z</time>
      </trkpt>
      <trkpt lat="43.80198" lon="7.0068">
        <ele>1081</ele>
        <time>2019-06-02T10:11:53.000Z</time>
      </trkpt>
      <trkpt lat="43.80197" lon="7.00683">
        <ele>1081</ele>
        <time>2019-06-02T10:11:54.000Z</time>
      </trkpt>
      <trkpt lat="43.80195" lon="7.0071">
        <ele>1082</ele>
        <time>2019-06-02T10:12:02.000Z</time>
      </trkpt>
      <trkpt lat="43.80193" lon="7.00727">
        <ele>1082</ele>
        <time>2019-06-02T10:12:09.000Z</time>
      </trkpt>
      <trkpt lat="43.80193" lon="7.00731">
        <ele>1082</ele>
        <time>2019-06-02T10:12:11.000Z</time>
      </trkpt>
      <trkpt lat="43.80193" lon="7.00733">
        <ele>1082</ele>
        <time>2019-06-02T10:12:12.000Z</time>
      </trkpt>
      <trkpt lat="43.80194" lon="7.00735">
        <ele>1083</ele>
        <time>2019-06-02T10:12:13.000Z</time>
      </trkpt>
      <trkpt lat="43.80196" lon="7.00757">
        <ele>1086</ele>
        <time>2019-06-02T10:12:25.000Z</time>
      </trkpt>
      <trkpt lat="43.80202" lon="7.00774">
        <ele>1089</ele>
        <time>2019-06-02T10:12:36.000Z</time>
      </trkpt>
      <trkpt lat="43.80203" lon="7.00775">
        <ele>1089</ele>
        <time>2019-06-02T10:12:37.000Z</time>
      </trkpt>
      <trkpt lat="43.80204" lon="7.00777">
        <ele>1089</ele>
        <time>2019-06-02T10:12:38.000Z</time>
      </trkpt>
      <trkpt lat="43.80205" lon="7.00779">
        <ele>1089</ele>
        <time>2019-06-02T10:12:39.000Z</time>
      </trkpt>
      <trkpt lat="43.80206" lon="7.0078">
        <ele>1090</ele>
        <time>2019-06-02T10:12:40.000Z</time>
      </trkpt>
      <trkpt lat="43.80207" lon="7.00782">
        <ele>1090</ele>
        <time>2019-06-02T10:12:41.000Z</time>
      </trkpt>
      <trkpt lat="43.80207" lon="7.00784">
        <ele>1090</ele>
        <time>2019-06-02T10:12:42.000Z</time>
      </trkpt>
      <trkpt lat="43.80208" lon="7.00785">
        <ele>1091</ele>
        <time>2019-06-02T10:12:43.000Z</time>
      </trkpt>
      <trkpt lat="43.8021" lon="7.00789">
        <ele>1091</ele>
        <time>2019-06-02T10:12:46.000Z</time>
      </trkpt>
      <trkpt lat="43.8021" lon="7.0079">
        <ele>1091</ele>
        <time>2019-06-02T10:12:47.000Z</time>
      </trkpt>
      <trkpt lat="43.80206" lon="7.00808">
        <ele>1093</ele>
        <time>2019-06-02T10:13:01.000Z</time>
      </trkpt>
      <trkpt lat="43.80208" lon="7.00812">
        <ele>1093</ele>
        <time>2019-06-02T10:13:15.000Z</time>
      </trkpt>
      <trkpt lat="43.80211" lon="7.00813">
        <ele>1093</ele>
        <time>2019-06-02T10:13:18.000Z</time>
      </trkpt>
      <trkpt lat="43.80213" lon="7.00812">
        <ele>1094</ele>
        <time>2019-06-02T10:13:19.000Z</time>
      </trkpt>
      <trkpt lat="43.80224" lon="7.00808">
        <ele>1096</ele>
        <time>2019-06-02T10:13:27.000Z</time>
      </trkpt>
      <trkpt lat="43.80225" lon="7.00808">
        <ele>1096</ele>
        <time>2019-06-02T10:13:28.000Z</time>
      </trkpt>
      <trkpt lat="43.80226" lon="7.00809">
        <ele>1096</ele>
        <time>2019-06-02T10:13:29.000Z</time>
      </trkpt>
      <trkpt lat="43.80234" lon="7.00829">
        <ele>1099</ele>
        <time>2019-06-02T10:13:42.000Z</time>
      </trkpt>
      <trkpt lat="43.80234" lon="7.00831">
        <ele>1099</ele>
        <time>2019-06-02T10:13:43.000Z</time>
      </trkpt>
      <trkpt lat="43.80235" lon="7.00833">
        <ele>1100</ele>
        <time>2019-06-02T10:13:44.000Z</time>
      </trkpt>
      <trkpt lat="43.80236" lon="7.00834">
        <ele>1100</ele>
        <time>2019-06-02T10:13:45.000Z</time>
      </trkpt>
      <trkpt lat="43.80236" lon="7.00836">
        <ele>1100</ele>
        <time>2019-06-02T10:13:46.000Z</time>
      </trkpt>
      <trkpt lat="43.80237" lon="7.00838">
        <ele>1100</ele>
        <time>2019-06-02T10:13:47.000Z</time>
      </trkpt>
      <trkpt lat="43.80237" lon="7.00839">
        <ele>1100</ele>
        <time>2019-06-02T10:13:48.000Z</time>
      </trkpt>
      <trkpt lat="43.80238" lon="7.00841">
        <ele>1100</ele>
        <time>2019-06-02T10:13:49.000Z</time>
      </trkpt>
      <trkpt lat="43.80238" lon="7.00843">
        <ele>1101</ele>
        <time>2019-06-02T10:13:50.000Z</time>
      </trkpt>
      <trkpt lat="43.80239" lon="7.00844">
        <ele>1101</ele>
        <time>2019-06-02T10:13:51.000Z</time>
      </trkpt>
      <trkpt lat="43.80239" lon="7.00846">
        <ele>1101</ele>
        <time>2019-06-02T10:13:52.000Z</time>
      </trkpt>
      <trkpt lat="43.80239" lon="7.00847">
        <ele>1101</ele>
        <time>2019-06-02T10:13:53.000Z</time>
      </trkpt>
      <trkpt lat="43.80246" lon="7.00866">
        <ele>1104</ele>
        <time>2019-06-02T10:14:06.000Z</time>
      </trkpt>
      <trkpt lat="43.80249" lon="7.00865">
        <ele>1104</ele>
        <time>2019-06-02T10:14:09.000Z</time>
      </trkpt>
      <trkpt lat="43.80253" lon="7.00859">
        <ele>1106</ele>
        <time>2019-06-02T10:14:15.000Z</time>
      </trkpt>
      <trkpt lat="43.80258" lon="7.00856">
        <ele>1107</ele>
        <time>2019-06-02T10:14:20.000Z</time>
      </trkpt>
      <trkpt lat="43.80259" lon="7.00856">
        <ele>1107</ele>
        <time>2019-06-02T10:14:21.000Z</time>
      </trkpt>
      <trkpt lat="43.80269" lon="7.00863">
        <ele>1110</ele>
        <time>2019-06-02T10:14:30.000Z</time>
      </trkpt>
      <trkpt lat="43.8027" lon="7.00863">
        <ele>1110</ele>
        <time>2019-06-02T10:14:31.000Z</time>
      </trkpt>
      <trkpt lat="43.80273" lon="7.00862">
        <ele>1110</ele>
        <time>2019-06-02T10:14:35.000Z</time>
      </trkpt>
      <trkpt lat="43.80277" lon="7.00854">
        <ele>1111</ele>
        <time>2019-06-02T10:14:42.000Z</time>
      </trkpt>
      <trkpt lat="43.80288" lon="7.00834">
        <ele>1111</ele>
        <time>2019-06-02T10:14:56.000Z</time>
      </trkpt>
      <trkpt lat="43.80299" lon="7.00823">
        <ele>1114</ele>
        <time>2019-06-02T10:15:07.000Z</time>
      </trkpt>
      <trkpt lat="43.80301" lon="7.0082">
        <ele>1114</ele>
        <time>2019-06-02T10:15:09.000Z</time>
      </trkpt>
      <trkpt lat="43.80309" lon="7.00797">
        <ele>1116</ele>
        <time>2019-06-02T10:15:20.000Z</time>
      </trkpt>
      <trkpt lat="43.80316" lon="7.00809">
        <ele>1118</ele>
        <time>2019-06-02T10:15:31.000Z</time>
      </trkpt>
      <trkpt lat="43.8032" lon="7.0083">
        <ele>1120</ele>
        <time>2019-06-02T10:15:43.000Z</time>
      </trkpt>
      <trkpt lat="43.80324" lon="7.00857">
        <ele>1122</ele>
        <time>2019-06-02T10:15:56.000Z</time>
      </trkpt>
      <trkpt lat="43.80328" lon="7.00883">
        <ele>1125</ele>
        <time>2019-06-02T10:16:11.000Z</time>
      </trkpt>
      <trkpt lat="43.8033" lon="7.00905">
        <ele>1127</ele>
        <time>2019-06-02T10:16:21.000Z</time>
      </trkpt>
      <trkpt lat="43.80331" lon="7.00912">
        <ele>1127</ele>
        <time>2019-06-02T10:16:25.000Z</time>
      </trkpt>
      <trkpt lat="43.80332" lon="7.00932">
        <ele>1129</ele>
        <time>2019-06-02T10:16:36.000Z</time>
      </trkpt>
      <trkpt lat="43.80336" lon="7.00955">
        <ele>1131</ele>
        <time>2019-06-02T10:16:48.000Z</time>
      </trkpt>
      <trkpt lat="43.80338" lon="7.00973">
        <ele>1133</ele>
        <time>2019-06-02T10:16:57.000Z</time>
      </trkpt>
      <trkpt lat="43.80328" lon="7.01009">
        <ele>1133</ele>
        <time>2019-06-02T10:17:11.000Z</time>
      </trkpt>
      <trkpt lat="43.80322" lon="7.01044">
        <ele>1136</ele>
        <time>2019-06-02T10:17:24.000Z</time>
      </trkpt>
      <trkpt lat="43.80314" lon="7.01085">
        <ele>1139</ele>
        <time>2019-06-02T10:17:40.000Z</time>
      </trkpt>
      <trkpt lat="43.80304" lon="7.01105">
        <ele>1138</ele>
        <time>2019-06-02T10:17:47.000Z</time>
      </trkpt>
      <trkpt lat="43.80303" lon="7.0112">
        <ele>1139</ele>
        <time>2019-06-02T10:17:52.000Z</time>
      </trkpt>
      <trkpt lat="43.80295" lon="7.01161">
        <ele>1141</ele>
        <time>2019-06-02T10:18:05.000Z</time>
      </trkpt>
      <trkpt lat="43.80292" lon="7.01205">
        <ele>1144</ele>
        <time>2019-06-02T10:18:21.000Z</time>
      </trkpt>
      <trkpt lat="43.80292" lon="7.01212">
        <ele>1144</ele>
        <time>2019-06-02T10:18:34.000Z</time>
      </trkpt>
      <trkpt lat="43.80294" lon="7.01213">
        <ele>1144</ele>
        <time>2019-06-02T10:18:48.000Z</time>
      </trkpt>
      <trkpt lat="43.80296" lon="7.01219">
        <ele>1144</ele>
        <time>2019-06-02T10:19:02.000Z</time>
      </trkpt>
      <trkpt lat="43.80299" lon="7.0123">
        <ele>1145</ele>
        <time>2019-06-02T10:19:14.000Z</time>
      </trkpt>
      <trkpt lat="43.803" lon="7.01231">
        <ele>1146</ele>
        <time>2019-06-02T10:19:15.000Z</time>
      </trkpt>
      <trkpt lat="43.80302" lon="7.01238">
        <ele>1147</ele>
        <time>2019-06-02T10:19:27.000Z</time>
      </trkpt>
      <trkpt lat="43.80303" lon="7.01242">
        <ele>1147</ele>
        <time>2019-06-02T10:19:29.000Z</time>
      </trkpt>
      <trkpt lat="43.80304" lon="7.01244">
        <ele>1147</ele>
        <time>2019-06-02T10:19:30.000Z</time>
      </trkpt>
      <trkpt lat="43.80304" lon="7.01245">
        <ele>1147</ele>
        <time>2019-06-02T10:19:31.000Z</time>
      </trkpt>
      <trkpt lat="43.80305" lon="7.01247">
        <ele>1147</ele>
        <time>2019-06-02T10:19:32.000Z</time>
      </trkpt>
      <trkpt lat="43.80305" lon="7.01249">
        <ele>1148</ele>
        <time>2019-06-02T10:19:33.000Z</time>
      </trkpt>
      <trkpt lat="43.80305" lon="7.01251">
        <ele>1148</ele>
        <time>2019-06-02T10:19:35.000Z</time>
      </trkpt>
      <trkpt lat="43.80305" lon="7.01253">
        <ele>1148</ele>
        <time>2019-06-02T10:19:36.000Z</time>
      </trkpt>
      <trkpt lat="43.80304" lon="7.01254">
        <ele>1149</ele>
        <time>2019-06-02T10:19:37.000Z</time>
      </trkpt>
      <trkpt lat="43.80304" lon="7.01255">
        <ele>1149</ele>
        <time>2019-06-02T10:19:38.000Z</time>
      </trkpt>
      <trkpt lat="43.80303" lon="7.01256">
        <ele>1149</ele>
        <time>2019-06-02T10:19:39.000Z</time>
      </trkpt>
      <trkpt lat="43.80301" lon="7.01259">
        <ele>1150</ele>
        <time>2019-06-02T10:19:42.000Z</time>
      </trkpt>
      <trkpt lat="43.803" lon="7.0126">
        <ele>1150</ele>
        <time>2019-06-02T10:19:43.000Z</time>
      </trkpt>
      <trkpt lat="43.80286" lon="7.01273">
        <ele>1152</ele>
        <time>2019-06-02T10:19:57.000Z</time>
      </trkpt>
      <trkpt lat="43.80282" lon="7.0128">
        <ele>1153</ele>
        <time>2019-06-02T10:20:02.000Z</time>
      </trkpt>
      <trkpt lat="43.80272" lon="7.013">
        <ele>1155</ele>
        <time>2019-06-02T10:20:16.000Z</time>
      </trkpt>
      <trkpt lat="43.80269" lon="7.0131">
        <ele>1156</ele>
        <time>2019-06-02T10:20:21.000Z</time>
      </trkpt>
      <trkpt lat="43.80269" lon="7.01312">
        <ele>1156</ele>
        <time>2019-06-02T10:20:22.000Z</time>
      </trkpt>
      <trkpt lat="43.80268" lon="7.01314">
        <ele>1156</ele>
        <time>2019-06-02T10:20:23.000Z</time>
      </trkpt>
      <trkpt lat="43.80266" lon="7.01334">
        <ele>1159</ele>
        <time>2019-06-02T10:20:34.000Z</time>
      </trkpt>
      <trkpt lat="43.80266" lon="7.01336">
        <ele>1159</ele>
        <time>2019-06-02T10:20:35.000Z</time>
      </trkpt>
      <trkpt lat="43.80265" lon="7.01338">
        <ele>1159</ele>
        <time>2019-06-02T10:20:36.000Z</time>
      </trkpt>
      <trkpt lat="43.80265" lon="7.01339">
        <ele>1159</ele>
        <time>2019-06-02T10:20:37.000Z</time>
      </trkpt>
      <trkpt lat="43.80264" lon="7.01341">
        <ele>1159</ele>
        <time>2019-06-02T10:20:38.000Z</time>
      </trkpt>
      <trkpt lat="43.80262" lon="7.01343">
        <ele>1160</ele>
        <time>2019-06-02T10:20:40.000Z</time>
      </trkpt>
      <trkpt lat="43.80262" lon="7.01345">
        <ele>1160</ele>
        <time>2019-06-02T10:20:41.000Z</time>
      </trkpt>
      <trkpt lat="43.8026" lon="7.0135">
        <ele>1162</ele>
        <time>2019-06-02T10:20:52.000Z</time>
      </trkpt>
      <trkpt lat="43.80261" lon="7.01353">
        <ele>1162</ele>
        <time>2019-06-02T10:21:21.000Z</time>
      </trkpt>
      <trkpt lat="43.80261" lon="7.01359">
        <ele>1162</ele>
        <time>2019-06-02T10:21:36.000Z</time>
      </trkpt>
      <trkpt lat="43.80261" lon="7.0136">
        <ele>1162</ele>
        <time>2019-06-02T10:21:37.000Z</time>
      </trkpt>
      <trkpt lat="43.80261" lon="7.01362">
        <ele>1162</ele>
        <time>2019-06-02T10:21:38.000Z</time>
      </trkpt>
      <trkpt lat="43.8026" lon="7.01364">
        <ele>1162</ele>
        <time>2019-06-02T10:21:39.000Z</time>
      </trkpt>
      <trkpt lat="43.8026" lon="7.01365">
        <ele>1162</ele>
        <time>2019-06-02T10:21:40.000Z</time>
      </trkpt>
      <trkpt lat="43.8026" lon="7.01367">
        <ele>1162</ele>
        <time>2019-06-02T10:21:41.000Z</time>
      </trkpt>
      <trkpt lat="43.8026" lon="7.01368">
        <ele>1163</ele>
        <time>2019-06-02T10:21:42.000Z</time>
      </trkpt>
      <trkpt lat="43.80261" lon="7.0137">
        <ele>1163</ele>
        <time>2019-06-02T10:21:43.000Z</time>
      </trkpt>
      <trkpt lat="43.80262" lon="7.01372">
        <ele>1163</ele>
        <time>2019-06-02T10:21:44.000Z</time>
      </trkpt>
      <trkpt lat="43.80262" lon="7.01374">
        <ele>1163</ele>
        <time>2019-06-02T10:21:45.000Z</time>
      </trkpt>
      <trkpt lat="43.80262" lon="7.01376">
        <ele>1163</ele>
        <time>2019-06-02T10:21:46.000Z</time>
      </trkpt>
      <trkpt lat="43.80267" lon="7.01396">
        <ele>1167</ele>
        <time>2019-06-02T10:21:57.000Z</time>
      </trkpt>
      <trkpt lat="43.80274" lon="7.0142">
        <ele>1170</ele>
        <time>2019-06-02T10:22:10.000Z</time>
      </trkpt>
      <trkpt lat="43.80278" lon="7.01446">
        <ele>1172</ele>
        <time>2019-06-02T10:22:27.000Z</time>
      </trkpt>
      <trkpt lat="43.80278" lon="7.01461">
        <ele>1173</ele>
        <time>2019-06-02T10:22:40.000Z</time>
      </trkpt>
      <trkpt lat="43.80278" lon="7.01469">
        <ele>1174</ele>
        <time>2019-06-02T10:22:54.000Z</time>
      </trkpt>
      <trkpt lat="43.8028" lon="7.01472">
        <ele>1175</ele>
        <time>2019-06-02T10:23:09.000Z</time>
      </trkpt>
      <trkpt lat="43.80282" lon="7.01478">
        <ele>1177</ele>
        <time>2019-06-02T10:23:25.000Z</time>
      </trkpt>
      <trkpt lat="43.80285" lon="7.01485">
        <ele>1178</ele>
        <time>2019-06-02T10:23:36.000Z</time>
      </trkpt>
      <trkpt lat="43.80284" lon="7.01488">
        <ele>1176</ele>
        <time>2019-06-02T10:24:01.000Z</time>
      </trkpt>
      <trkpt lat="43.80282" lon="7.01491">
        <ele>1176</ele>
        <time>2019-06-02T10:24:28.000Z</time>
      </trkpt>
      <trkpt lat="43.80284" lon="7.01489">
        <ele>1177</ele>
        <time>2019-06-02T10:24:54.000Z</time>
      </trkpt>
      <trkpt lat="43.80284" lon="7.01487">
        <ele>1177</ele>
        <time>2019-06-02T10:25:15.000Z</time>
      </trkpt>
      <trkpt lat="43.80285" lon="7.01486">
        <ele>1178</ele>
        <time>2019-06-02T10:25:19.000Z</time>
      </trkpt>
      <trkpt lat="43.80288" lon="7.01484">
        <ele>1178</ele>
        <time>2019-06-02T10:25:31.000Z</time>
      </trkpt>
      <trkpt lat="43.80299" lon="7.01487">
        <ele>1181</ele>
        <time>2019-06-02T10:25:47.000Z</time>
      </trkpt>
      <trkpt lat="43.80302" lon="7.0149">
        <ele>1181</ele>
        <time>2019-06-02T10:26:03.000Z</time>
      </trkpt>
      <trkpt lat="43.80303" lon="7.01491">
        <ele>1181</ele>
        <time>2019-06-02T10:26:06.000Z</time>
      </trkpt>
      <trkpt lat="43.80305" lon="7.01517">
        <ele>1182</ele>
        <time>2019-06-02T10:26:22.000Z</time>
      </trkpt>
      <trkpt lat="43.80298" lon="7.01537">
        <ele>1184</ele>
        <time>2019-06-02T10:26:35.000Z</time>
      </trkpt>
      <trkpt lat="43.80298" lon="7.01539">
        <ele>1184</ele>
        <time>2019-06-02T10:26:36.000Z</time>
      </trkpt>
      <trkpt lat="43.80297" lon="7.0154">
        <ele>1185</ele>
        <time>2019-06-02T10:26:37.000Z</time>
      </trkpt>
      <trkpt lat="43.80296" lon="7.01542">
        <ele>1185</ele>
        <time>2019-06-02T10:26:38.000Z</time>
      </trkpt>
      <trkpt lat="43.80296" lon="7.01544">
        <ele>1185</ele>
        <time>2019-06-02T10:26:39.000Z</time>
      </trkpt>
      <trkpt lat="43.80295" lon="7.01546">
        <ele>1186</ele>
        <time>2019-06-02T10:26:40.000Z</time>
      </trkpt>
      <trkpt lat="43.80295" lon="7.01548">
        <ele>1187</ele>
        <time>2019-06-02T10:26:41.000Z</time>
      </trkpt>
      <trkpt lat="43.80294" lon="7.0155">
        <ele>1187</ele>
        <time>2019-06-02T10:26:42.000Z</time>
      </trkpt>
      <trkpt lat="43.80291" lon="7.01558">
        <ele>1188</ele>
        <time>2019-06-02T10:26:47.000Z</time>
      </trkpt>
      <trkpt lat="43.8029" lon="7.0158">
        <ele>1191</ele>
        <time>2019-06-02T10:27:00.000Z</time>
      </trkpt>
      <trkpt lat="43.8029" lon="7.01582">
        <ele>1191</ele>
        <time>2019-06-02T10:27:01.000Z</time>
      </trkpt>
      <trkpt lat="43.8029" lon="7.01583">
        <ele>1191</ele>
        <time>2019-06-02T10:27:02.000Z</time>
      </trkpt>
      <trkpt lat="43.80291" lon="7.01608">
        <ele>1194</ele>
        <time>2019-06-02T10:27:19.000Z</time>
      </trkpt>
      <trkpt lat="43.8029" lon="7.01618">
        <ele>1195</ele>
        <time>2019-06-02T10:27:25.000Z</time>
      </trkpt>
      <trkpt lat="43.8029" lon="7.01619">
        <ele>1195</ele>
        <time>2019-06-02T10:27:26.000Z</time>
      </trkpt>
      <trkpt lat="43.80289" lon="7.01621">
        <ele>1195</ele>
        <time>2019-06-02T10:27:27.000Z</time>
      </trkpt>
      <trkpt lat="43.80289" lon="7.01623">
        <ele>1195</ele>
        <time>2019-06-02T10:27:28.000Z</time>
      </trkpt>
      <trkpt lat="43.80288" lon="7.01624">
        <ele>1195</ele>
        <time>2019-06-02T10:27:29.000Z</time>
      </trkpt>
      <trkpt lat="43.80288" lon="7.01626">
        <ele>1196</ele>
        <time>2019-06-02T10:27:30.000Z</time>
      </trkpt>
      <trkpt lat="43.80288" lon="7.01627">
        <ele>1196</ele>
        <time>2019-06-02T10:27:31.000Z</time>
      </trkpt>
      <trkpt lat="43.80287" lon="7.01629">
        <ele>1196</ele>
        <time>2019-06-02T10:27:32.000Z</time>
      </trkpt>
      <trkpt lat="43.80287" lon="7.0163">
        <ele>1196</ele>
        <time>2019-06-02T10:27:33.000Z</time>
      </trkpt>
      <trkpt lat="43.80286" lon="7.01632">
        <ele>1196</ele>
        <time>2019-06-02T10:27:34.000Z</time>
      </trkpt>
      <trkpt lat="43.80279" lon="7.01659">
        <ele>1197</ele>
        <time>2019-06-02T10:27:50.000Z</time>
      </trkpt>
      <trkpt lat="43.80271" lon="7.01681">
        <ele>1200</ele>
        <time>2019-06-02T10:28:03.000Z</time>
      </trkpt>
      <trkpt lat="43.8027" lon="7.01682">
        <ele>1200</ele>
        <time>2019-06-02T10:28:04.000Z</time>
      </trkpt>
      <trkpt lat="43.8027" lon="7.01683">
        <ele>1200</ele>
        <time>2019-06-02T10:28:05.000Z</time>
      </trkpt>
      <trkpt lat="43.80269" lon="7.01685">
        <ele>1200</ele>
        <time>2019-06-02T10:28:06.000Z</time>
      </trkpt>
      <trkpt lat="43.80254" lon="7.01696">
        <ele>1202</ele>
        <time>2019-06-02T10:28:19.000Z</time>
      </trkpt>
      <trkpt lat="43.80244" lon="7.01713">
        <ele>1202</ele>
        <time>2019-06-02T10:28:32.000Z</time>
      </trkpt>
      <trkpt lat="43.80239" lon="7.01746">
        <ele>1206</ele>
        <time>2019-06-02T10:28:49.000Z</time>
      </trkpt>
      <trkpt lat="43.8024" lon="7.01754">
        <ele>1206</ele>
        <time>2019-06-02T10:28:53.000Z</time>
      </trkpt>
      <trkpt lat="43.80239" lon="7.01756">
        <ele>1206</ele>
        <time>2019-06-02T10:28:54.000Z</time>
      </trkpt>
      <trkpt lat="43.8024" lon="7.01758">
        <ele>1206</ele>
        <time>2019-06-02T10:28:55.000Z</time>
      </trkpt>
      <trkpt lat="43.80242" lon="7.01777">
        <ele>1207</ele>
        <time>2019-06-02T10:29:05.000Z</time>
      </trkpt>
      <trkpt lat="43.80242" lon="7.01779">
        <ele>1207</ele>
        <time>2019-06-02T10:29:06.000Z</time>
      </trkpt>
      <trkpt lat="43.80245" lon="7.01788">
        <ele>1207</ele>
        <time>2019-06-02T10:29:10.000Z</time>
      </trkpt>
      <trkpt lat="43.80246" lon="7.01789">
        <ele>1207</ele>
        <time>2019-06-02T10:29:20.000Z</time>
      </trkpt>
      <trkpt lat="43.80244" lon="7.01789">
        <ele>1207</ele>
        <time>2019-06-02T10:29:47.000Z</time>
      </trkpt>
      <trkpt lat="43.80246" lon="7.01789">
        <ele>1207</ele>
        <time>2019-06-02T10:30:00.000Z</time>
      </trkpt>
      <trkpt lat="43.80248" lon="7.01789">
        <ele>1207</ele>
        <time>2019-06-02T10:30:01.000Z</time>
      </trkpt>
      <trkpt lat="43.80264" lon="7.01791">
        <ele>1205</ele>
        <time>2019-06-02T10:30:07.000Z</time>
      </trkpt>
      <trkpt lat="43.80283" lon="7.01799">
        <ele>1205</ele>
        <time>2019-06-02T10:30:12.000Z</time>
      </trkpt>
      <trkpt lat="43.80307" lon="7.0182">
        <ele>1204</ele>
        <time>2019-06-02T10:30:19.000Z</time>
      </trkpt>
      <trkpt lat="43.80309" lon="7.01826">
        <ele>1204</ele>
        <time>2019-06-02T10:30:20.000Z</time>
      </trkpt>
      <trkpt lat="43.8031" lon="7.01831">
        <ele>1204</ele>
        <time>2019-06-02T10:30:21.000Z</time>
      </trkpt>
      <trkpt lat="43.80311" lon="7.01837">
        <ele>1204</ele>
        <time>2019-06-02T10:30:22.000Z</time>
      </trkpt>
      <trkpt lat="43.80312" lon="7.01842">
        <ele>1204</ele>
        <time>2019-06-02T10:30:23.000Z</time>
      </trkpt>
      <trkpt lat="43.80328" lon="7.01901">
        <ele>1205</ele>
        <time>2019-06-02T10:30:36.000Z</time>
      </trkpt>
      <trkpt lat="43.80329" lon="7.01906">
        <ele>1205</ele>
        <time>2019-06-02T10:30:37.000Z</time>
      </trkpt>
      <trkpt lat="43.80329" lon="7.01942">
        <ele>1202</ele>
        <time>2019-06-02T10:30:42.000Z</time>
      </trkpt>
      <trkpt lat="43.8033" lon="7.01949">
        <ele>1202</ele>
        <time>2019-06-02T10:30:43.000Z</time>
      </trkpt>
      <trkpt lat="43.80328" lon="7.02004">
        <ele>1202</ele>
        <time>2019-06-02T10:30:52.000Z</time>
      </trkpt>
      <trkpt lat="43.80328" lon="7.02036">
        <ele>1202</ele>
        <time>2019-06-02T10:30:56.000Z</time>
      </trkpt>
      <trkpt lat="43.8033" lon="7.02067">
        <ele>1201</ele>
        <time>2019-06-02T10:31:00.000Z</time>
      </trkpt>
      <trkpt lat="43.80329" lon="7.02075">
        <ele>1201</ele>
        <time>2019-06-02T10:31:01.000Z</time>
      </trkpt>
      <trkpt lat="43.80329" lon="7.02084">
        <ele>1200</ele>
        <time>2019-06-02T10:31:02.000Z</time>
      </trkpt>
      <trkpt lat="43.80329" lon="7.02093">
        <ele>1200</ele>
        <time>2019-06-02T10:31:03.000Z</time>
      </trkpt>
      <trkpt lat="43.8033" lon="7.02101">
        <ele>1199</ele>
        <time>2019-06-02T10:31:04.000Z</time>
      </trkpt>
      <trkpt lat="43.80332" lon="7.02126">
        <ele>1199</ele>
        <time>2019-06-02T10:31:07.000Z</time>
      </trkpt>
      <trkpt lat="43.80332" lon="7.02135">
        <ele>1199</ele>
        <time>2019-06-02T10:31:08.000Z</time>
      </trkpt>
      <trkpt lat="43.80328" lon="7.02218">
        <ele>1196</ele>
        <time>2019-06-02T10:31:16.000Z</time>
      </trkpt>
      <trkpt lat="43.80328" lon="7.02227">
        <ele>1196</ele>
        <time>2019-06-02T10:31:17.000Z</time>
      </trkpt>
      <trkpt lat="43.80328" lon="7.02235">
        <ele>1196</ele>
        <time>2019-06-02T10:31:18.000Z</time>
      </trkpt>
      <trkpt lat="43.8032" lon="7.02281">
        <ele>1194</ele>
        <time>2019-06-02T10:31:23.000Z</time>
      </trkpt>
      <trkpt lat="43.80309" lon="7.0232">
        <ele>1190</ele>
        <time>2019-06-02T10:31:27.000Z</time>
      </trkpt>
      <trkpt lat="43.80308" lon="7.02331">
        <ele>1190</ele>
        <time>2019-06-02T10:31:28.000Z</time>
      </trkpt>
      <trkpt lat="43.80308" lon="7.02342">
        <ele>1190</ele>
        <time>2019-06-02T10:31:29.000Z</time>
      </trkpt>
      <trkpt lat="43.80309" lon="7.02351">
        <ele>1190</ele>
        <time>2019-06-02T10:31:30.000Z</time>
      </trkpt>
      <trkpt lat="43.80308" lon="7.02361">
        <ele>1190</ele>
        <time>2019-06-02T10:31:31.000Z</time>
      </trkpt>
      <trkpt lat="43.80308" lon="7.02371">
        <ele>1190</ele>
        <time>2019-06-02T10:31:32.000Z</time>
      </trkpt>
      <trkpt lat="43.80307" lon="7.02381">
        <ele>1189</ele>
        <time>2019-06-02T10:31:33.000Z</time>
      </trkpt>
      <trkpt lat="43.80308" lon="7.02392">
        <ele>1188</ele>
        <time>2019-06-02T10:31:34.000Z</time>
      </trkpt>
      <trkpt lat="43.8031" lon="7.02402">
        <ele>1188</ele>
        <time>2019-06-02T10:31:35.000Z</time>
      </trkpt>
      <trkpt lat="43.80314" lon="7.02411">
        <ele>1188</ele>
        <time>2019-06-02T10:31:36.000Z</time>
      </trkpt>
      <trkpt lat="43.80318" lon="7.0242">
        <ele>1188</ele>
        <time>2019-06-02T10:31:37.000Z</time>
      </trkpt>
      <trkpt lat="43.80322" lon="7.02427">
        <ele>1190</ele>
        <time>2019-06-02T10:31:38.000Z</time>
      </trkpt>
      <trkpt lat="43.80324" lon="7.02434">
        <ele>1191</ele>
        <time>2019-06-02T10:31:39.000Z</time>
      </trkpt>
      <trkpt lat="43.80326" lon="7.02442">
        <ele>1191</ele>
        <time>2019-06-02T10:31:40.000Z</time>
      </trkpt>
      <trkpt lat="43.80327" lon="7.02451">
        <ele>1189</ele>
        <time>2019-06-02T10:31:41.000Z</time>
      </trkpt>
      <trkpt lat="43.80327" lon="7.02461">
        <ele>1188</ele>
        <time>2019-06-02T10:31:42.000Z</time>
      </trkpt>
      <trkpt lat="43.80327" lon="7.02472">
        <ele>1188</ele>
        <time>2019-06-02T10:31:43.000Z</time>
      </trkpt>
      <trkpt lat="43.80328" lon="7.02483">
        <ele>1187</ele>
        <time>2019-06-02T10:31:44.000Z</time>
      </trkpt>
      <trkpt lat="43.80329" lon="7.02494">
        <ele>1187</ele>
        <time>2019-06-02T10:31:45.000Z</time>
      </trkpt>
      <trkpt lat="43.80331" lon="7.02515">
        <ele>1187</ele>
        <time>2019-06-02T10:31:47.000Z</time>
      </trkpt>
      <trkpt lat="43.80331" lon="7.02525">
        <ele>1187</ele>
        <time>2019-06-02T10:31:48.000Z</time>
      </trkpt>
      <trkpt lat="43.80332" lon="7.02582">
        <ele>1187</ele>
        <time>2019-06-02T10:31:54.000Z</time>
      </trkpt>
      <trkpt lat="43.8033" lon="7.02591">
        <ele>1186</ele>
        <time>2019-06-02T10:31:55.000Z</time>
      </trkpt>
      <trkpt lat="43.80317" lon="7.02631">
        <ele>1183</ele>
        <time>2019-06-02T10:31:59.000Z</time>
      </trkpt>
      <trkpt lat="43.8031" lon="7.02682">
        <ele>1178</ele>
        <time>2019-06-02T10:32:03.000Z</time>
      </trkpt>
      <trkpt lat="43.80306" lon="7.02695">
        <ele>1176</ele>
        <time>2019-06-02T10:32:04.000Z</time>
      </trkpt>
      <trkpt lat="43.80301" lon="7.02707">
        <ele>1175</ele>
        <time>2019-06-02T10:32:05.000Z</time>
      </trkpt>
      <trkpt lat="43.80294" lon="7.02718">
        <ele>1174</ele>
        <time>2019-06-02T10:32:06.000Z</time>
      </trkpt>
      <trkpt lat="43.80288" lon="7.0273">
        <ele>1172</ele>
        <time>2019-06-02T10:32:07.000Z</time>
      </trkpt>
      <trkpt lat="43.80283" lon="7.02743">
        <ele>1171</ele>
        <time>2019-06-02T10:32:08.000Z</time>
      </trkpt>
      <trkpt lat="43.80279" lon="7.02757">
        <ele>1170</ele>
        <time>2019-06-02T10:32:09.000Z</time>
      </trkpt>
      <trkpt lat="43.80275" lon="7.02769">
        <ele>1170</ele>
        <time>2019-06-02T10:32:10.000Z</time>
      </trkpt>
      <trkpt lat="43.80271" lon="7.02778">
        <ele>1170</ele>
        <time>2019-06-02T10:32:11.000Z</time>
      </trkpt>
      <trkpt lat="43.80267" lon="7.02783">
        <ele>1170</ele>
        <time>2019-06-02T10:32:12.000Z</time>
      </trkpt>
      <trkpt lat="43.80261" lon="7.02787">
        <ele>1169</ele>
        <time>2019-06-02T10:32:13.000Z</time>
      </trkpt>
      <trkpt lat="43.80254" lon="7.02789">
        <ele>1168</ele>
        <time>2019-06-02T10:32:14.000Z</time>
      </trkpt>
      <trkpt lat="43.80249" lon="7.02792">
        <ele>1167</ele>
        <time>2019-06-02T10:32:15.000Z</time>
      </trkpt>
      <trkpt lat="43.80245" lon="7.02794">
        <ele>1167</ele>
        <time>2019-06-02T10:32:16.000Z</time>
      </trkpt>
      <trkpt lat="43.80241" lon="7.02797">
        <ele>1166</ele>
        <time>2019-06-02T10:32:17.000Z</time>
      </trkpt>
      <trkpt lat="43.80233" lon="7.02802">
        <ele>1165</ele>
        <time>2019-06-02T10:32:19.000Z</time>
      </trkpt>
      <trkpt lat="43.80227" lon="7.02805">
        <ele>1164</ele>
        <time>2019-06-02T10:32:22.000Z</time>
      </trkpt>
      <trkpt lat="43.80226" lon="7.02808">
        <ele>1164</ele>
        <time>2019-06-02T10:32:23.000Z</time>
      </trkpt>
      <trkpt lat="43.80224" lon="7.02811">
        <ele>1163</ele>
        <time>2019-06-02T10:32:24.000Z</time>
      </trkpt>
      <trkpt lat="43.80223" lon="7.02814">
        <ele>1163</ele>
        <time>2019-06-02T10:32:25.000Z</time>
      </trkpt>
      <trkpt lat="43.80221" lon="7.02817">
        <ele>1162</ele>
        <time>2019-06-02T10:32:26.000Z</time>
      </trkpt>
      <trkpt lat="43.8022" lon="7.0282">
        <ele>1162</ele>
        <time>2019-06-02T10:32:27.000Z</time>
      </trkpt>
      <trkpt lat="43.80218" lon="7.02824">
        <ele>1161</ele>
        <time>2019-06-02T10:32:28.000Z</time>
      </trkpt>
      <trkpt lat="43.80212" lon="7.0284">
        <ele>1158</ele>
        <time>2019-06-02T10:32:32.000Z</time>
      </trkpt>
      <trkpt lat="43.80205" lon="7.02855">
        <ele>1155</ele>
        <time>2019-06-02T10:32:36.000Z</time>
      </trkpt>
      <trkpt lat="43.80202" lon="7.0286">
        <ele>1154</ele>
        <time>2019-06-02T10:32:37.000Z</time>
      </trkpt>
      <trkpt lat="43.80196" lon="7.02877">
        <ele>1151</ele>
        <time>2019-06-02T10:32:41.000Z</time>
      </trkpt>
      <trkpt lat="43.80195" lon="7.02882">
        <ele>1151</ele>
        <time>2019-06-02T10:32:42.000Z</time>
      </trkpt>
      <trkpt lat="43.80194" lon="7.02887">
        <ele>1150</ele>
        <time>2019-06-02T10:32:43.000Z</time>
      </trkpt>
      <trkpt lat="43.80193" lon="7.02892">
        <ele>1149</ele>
        <time>2019-06-02T10:32:44.000Z</time>
      </trkpt>
      <trkpt lat="43.80191" lon="7.02897">
        <ele>1147</ele>
        <time>2019-06-02T10:32:45.000Z</time>
      </trkpt>
      <trkpt lat="43.8019" lon="7.02903">
        <ele>1147</ele>
        <time>2019-06-02T10:32:46.000Z</time>
      </trkpt>
      <trkpt lat="43.80189" lon="7.02908">
        <ele>1146</ele>
        <time>2019-06-02T10:32:47.000Z</time>
      </trkpt>
      <trkpt lat="43.80187" lon="7.02914">
        <ele>1145</ele>
        <time>2019-06-02T10:32:48.000Z</time>
      </trkpt>
      <trkpt lat="43.80184" lon="7.02919">
        <ele>1144</ele>
        <time>2019-06-02T10:32:49.000Z</time>
      </trkpt>
      <trkpt lat="43.80182" lon="7.02926">
        <ele>1143</ele>
        <time>2019-06-02T10:32:50.000Z</time>
      </trkpt>
      <trkpt lat="43.8018" lon="7.02933">
        <ele>1142</ele>
        <time>2019-06-02T10:32:51.000Z</time>
      </trkpt>
      <trkpt lat="43.8018" lon="7.02941">
        <ele>1141</ele>
        <time>2019-06-02T10:32:52.000Z</time>
      </trkpt>
      <trkpt lat="43.80181" lon="7.02947">
        <ele>1140</ele>
        <time>2019-06-02T10:32:53.000Z</time>
      </trkpt>
      <trkpt lat="43.80182" lon="7.02952">
        <ele>1140</ele>
        <time>2019-06-02T10:32:54.000Z</time>
      </trkpt>
      <trkpt lat="43.80182" lon="7.02957">
        <ele>1140</ele>
        <time>2019-06-02T10:32:55.000Z</time>
      </trkpt>
      <trkpt lat="43.80182" lon="7.02962">
        <ele>1140</ele>
        <time>2019-06-02T10:32:56.000Z</time>
      </trkpt>
      <trkpt lat="43.80185" lon="7.02978">
        <ele>1140</ele>
        <time>2019-06-02T10:32:59.000Z</time>
      </trkpt>
      <trkpt lat="43.80184" lon="7.02984">
        <ele>1140</ele>
        <time>2019-06-02T10:33:00.000Z</time>
      </trkpt>
      <trkpt lat="43.80183" lon="7.02989">
        <ele>1140</ele>
        <time>2019-06-02T10:33:01.000Z</time>
      </trkpt>
      <trkpt lat="43.80179" lon="7.03016">
        <ele>1139</ele>
        <time>2019-06-02T10:33:07.000Z</time>
      </trkpt>
      <trkpt lat="43.8017" lon="7.03037">
        <ele>1139</ele>
        <time>2019-06-02T10:33:12.000Z</time>
      </trkpt>
      <trkpt lat="43.80167" lon="7.03042">
        <ele>1139</ele>
        <time>2019-06-02T10:33:13.000Z</time>
      </trkpt>
      <trkpt lat="43.80165" lon="7.03047">
        <ele>1139</ele>
        <time>2019-06-02T10:33:14.000Z</time>
      </trkpt>
      <trkpt lat="43.80163" lon="7.03052">
        <ele>1139</ele>
        <time>2019-06-02T10:33:15.000Z</time>
      </trkpt>
      <trkpt lat="43.80162" lon="7.03057">
        <ele>1139</ele>
        <time>2019-06-02T10:33:16.000Z</time>
      </trkpt>
      <trkpt lat="43.80144" lon="7.03102">
        <ele>1140</ele>
        <time>2019-06-02T10:33:28.000Z</time>
      </trkpt>
      <trkpt lat="43.80121" lon="7.03135">
        <ele>1140</ele>
        <time>2019-06-02T10:33:39.000Z</time>
      </trkpt>
      <trkpt lat="43.80118" lon="7.03141">
        <ele>1138</ele>
        <time>2019-06-02T10:33:41.000Z</time>
      </trkpt>
      <trkpt lat="43.80112" lon="7.03154">
        <ele>1138</ele>
        <time>2019-06-02T10:33:44.000Z</time>
      </trkpt>
      <trkpt lat="43.80107" lon="7.03163">
        <ele>1138</ele>
        <time>2019-06-02T10:33:46.000Z</time>
      </trkpt>
      <trkpt lat="43.80103" lon="7.03168">
        <ele>1138</ele>
        <time>2019-06-02T10:33:47.000Z</time>
      </trkpt>
      <trkpt lat="43.801" lon="7.03173">
        <ele>1138</ele>
        <time>2019-06-02T10:33:48.000Z</time>
      </trkpt>
      <trkpt lat="43.80096" lon="7.03179">
        <ele>1137</ele>
        <time>2019-06-02T10:33:49.000Z</time>
      </trkpt>
      <trkpt lat="43.80093" lon="7.03185">
        <ele>1136</ele>
        <time>2019-06-02T10:33:50.000Z</time>
      </trkpt>
      <trkpt lat="43.80087" lon="7.03198">
        <ele>1135</ele>
        <time>2019-06-02T10:33:52.000Z</time>
      </trkpt>
      <trkpt lat="43.80069" lon="7.03235">
        <ele>1135</ele>
        <time>2019-06-02T10:34:00.000Z</time>
      </trkpt>
      <trkpt lat="43.80068" lon="7.0324">
        <ele>1135</ele>
        <time>2019-06-02T10:34:01.000Z</time>
      </trkpt>
      <trkpt lat="43.80061" lon="7.03266">
        <ele>1135</ele>
        <time>2019-06-02T10:34:06.000Z</time>
      </trkpt>
      <trkpt lat="43.80059" lon="7.03272">
        <ele>1135</ele>
        <time>2019-06-02T10:34:07.000Z</time>
      </trkpt>
      <trkpt lat="43.80058" lon="7.03277">
        <ele>1134</ele>
        <time>2019-06-02T10:34:08.000Z</time>
      </trkpt>
      <trkpt lat="43.80056" lon="7.03282">
        <ele>1133</ele>
        <time>2019-06-02T10:34:09.000Z</time>
      </trkpt>
      <trkpt lat="43.80055" lon="7.03287">
        <ele>1133</ele>
        <time>2019-06-02T10:34:10.000Z</time>
      </trkpt>
      <trkpt lat="43.80053" lon="7.03291">
        <ele>1133</ele>
        <time>2019-06-02T10:34:11.000Z</time>
      </trkpt>
      <trkpt lat="43.80051" lon="7.03294">
        <ele>1133</ele>
        <time>2019-06-02T10:34:12.000Z</time>
      </trkpt>
      <trkpt lat="43.80049" lon="7.03296">
        <ele>1133</ele>
        <time>2019-06-02T10:34:13.000Z</time>
      </trkpt>
      <trkpt lat="43.80046" lon="7.03298">
        <ele>1133</ele>
        <time>2019-06-02T10:34:14.000Z</time>
      </trkpt>
      <trkpt lat="43.80032" lon="7.03338">
        <ele>1132</ele>
        <time>2019-06-02T10:34:23.000Z</time>
      </trkpt>
      <trkpt lat="43.80023" lon="7.0337">
        <ele>1130</ele>
        <time>2019-06-02T10:34:30.000Z</time>
      </trkpt>
      <trkpt lat="43.80012" lon="7.03382">
        <ele>1128</ele>
        <time>2019-06-02T10:34:33.000Z</time>
      </trkpt>
      <trkpt lat="43.8001" lon="7.03388">
        <ele>1127</ele>
        <time>2019-06-02T10:34:34.000Z</time>
      </trkpt>
      <trkpt lat="43.80008" lon="7.03393">
        <ele>1127</ele>
        <time>2019-06-02T10:34:35.000Z</time>
      </trkpt>
      <trkpt lat="43.80004" lon="7.03397">
        <ele>1126</ele>
        <time>2019-06-02T10:34:36.000Z</time>
      </trkpt>
      <trkpt lat="43.79999" lon="7.03401">
        <ele>1125</ele>
        <time>2019-06-02T10:34:37.000Z</time>
      </trkpt>
      <trkpt lat="43.79996" lon="7.03405">
        <ele>1123</ele>
        <time>2019-06-02T10:34:38.000Z</time>
      </trkpt>
      <trkpt lat="43.79993" lon="7.03408">
        <ele>1124</ele>
        <time>2019-06-02T10:34:39.000Z</time>
      </trkpt>
      <trkpt lat="43.7999" lon="7.03411">
        <ele>1124</ele>
        <time>2019-06-02T10:34:40.000Z</time>
      </trkpt>
      <trkpt lat="43.79989" lon="7.03413">
        <ele>1123</ele>
        <time>2019-06-02T10:34:41.000Z</time>
      </trkpt>
      <trkpt lat="43.79987" lon="7.03415">
        <ele>1123</ele>
        <time>2019-06-02T10:34:42.000Z</time>
      </trkpt>
      <trkpt lat="43.79978" lon="7.03431">
        <ele>1120</ele>
        <time>2019-06-02T10:34:49.000Z</time>
      </trkpt>
      <trkpt lat="43.79969" lon="7.03444">
        <ele>1117</ele>
        <time>2019-06-02T10:34:54.000Z</time>
      </trkpt>
      <trkpt lat="43.79963" lon="7.03455">
        <ele>1116</ele>
        <time>2019-06-02T10:34:57.000Z</time>
      </trkpt>
      <trkpt lat="43.79957" lon="7.03463">
        <ele>1114</ele>
        <time>2019-06-02T10:34:59.000Z</time>
      </trkpt>
      <trkpt lat="43.7995" lon="7.03473">
        <ele>1112</ele>
        <time>2019-06-02T10:35:01.000Z</time>
      </trkpt>
      <trkpt lat="43.79946" lon="7.03476">
        <ele>1111</ele>
        <time>2019-06-02T10:35:02.000Z</time>
      </trkpt>
      <trkpt lat="43.79933" lon="7.03489">
        <ele>1107</ele>
        <time>2019-06-02T10:35:06.000Z</time>
      </trkpt>
      <trkpt lat="43.79932" lon="7.0349">
        <ele>1107</ele>
        <time>2019-06-02T10:35:07.000Z</time>
      </trkpt>
      <trkpt lat="43.79931" lon="7.03492">
        <ele>1107</ele>
        <time>2019-06-02T10:35:15.000Z</time>
      </trkpt>
      <trkpt lat="43.79928" lon="7.03508">
        <ele>1105</ele>
        <time>2019-06-02T10:35:19.000Z</time>
      </trkpt>
      <trkpt lat="43.79922" lon="7.03525">
        <ele>1101</ele>
        <time>2019-06-02T10:35:24.000Z</time>
      </trkpt>
      <trkpt lat="43.79921" lon="7.03527">
        <ele>1101</ele>
        <time>2019-06-02T10:35:25.000Z</time>
      </trkpt>
      <trkpt lat="43.79919" lon="7.03529">
        <ele>1100</ele>
        <time>2019-06-02T10:35:26.000Z</time>
      </trkpt>
      <trkpt lat="43.79918" lon="7.03531">
        <ele>1100</ele>
        <time>2019-06-02T10:35:27.000Z</time>
      </trkpt>
      <trkpt lat="43.79917" lon="7.03534">
        <ele>1099</ele>
        <time>2019-06-02T10:35:28.000Z</time>
      </trkpt>
      <trkpt lat="43.79914" lon="7.03537">
        <ele>1098</ele>
        <time>2019-06-02T10:35:29.000Z</time>
      </trkpt>
      <trkpt lat="43.79912" lon="7.03541">
        <ele>1097</ele>
        <time>2019-06-02T10:35:30.000Z</time>
      </trkpt>
      <trkpt lat="43.79909" lon="7.03546">
        <ele>1096</ele>
        <time>2019-06-02T10:35:31.000Z</time>
      </trkpt>
      <trkpt lat="43.79906" lon="7.03551">
        <ele>1095</ele>
        <time>2019-06-02T10:35:32.000Z</time>
      </trkpt>
      <trkpt lat="43.79903" lon="7.03556">
        <ele>1094</ele>
        <time>2019-06-02T10:35:33.000Z</time>
      </trkpt>
      <trkpt lat="43.79899" lon="7.0356">
        <ele>1094</ele>
        <time>2019-06-02T10:35:34.000Z</time>
      </trkpt>
      <trkpt lat="43.79896" lon="7.03563">
        <ele>1092</ele>
        <time>2019-06-02T10:35:35.000Z</time>
      </trkpt>
      <trkpt lat="43.79892" lon="7.03566">
        <ele>1091</ele>
        <time>2019-06-02T10:35:36.000Z</time>
      </trkpt>
      <trkpt lat="43.7989" lon="7.03569">
        <ele>1090</ele>
        <time>2019-06-02T10:35:37.000Z</time>
      </trkpt>
      <trkpt lat="43.79887" lon="7.03573">
        <ele>1090</ele>
        <time>2019-06-02T10:35:38.000Z</time>
      </trkpt>
      <trkpt lat="43.79885" lon="7.03576">
        <ele>1089</ele>
        <time>2019-06-02T10:35:39.000Z</time>
      </trkpt>
      <trkpt lat="43.79883" lon="7.03579">
        <ele>1089</ele>
        <time>2019-06-02T10:35:40.000Z</time>
      </trkpt>
      <trkpt lat="43.79879" lon="7.03584">
        <ele>1087</ele>
        <time>2019-06-02T10:35:42.000Z</time>
      </trkpt>
      <trkpt lat="43.79867" lon="7.036">
        <ele>1085</ele>
        <time>2019-06-02T10:35:48.000Z</time>
      </trkpt>
      <trkpt lat="43.79863" lon="7.03606">
        <ele>1083</ele>
        <time>2019-06-02T10:35:50.000Z</time>
      </trkpt>
      <trkpt lat="43.79857" lon="7.03613">
        <ele>1082</ele>
        <time>2019-06-02T10:35:53.000Z</time>
      </trkpt>
      <trkpt lat="43.79854" lon="7.03614">
        <ele>1082</ele>
        <time>2019-06-02T10:35:54.000Z</time>
      </trkpt>
      <trkpt lat="43.79842" lon="7.03628">
        <ele>1078</ele>
        <time>2019-06-02T10:36:01.000Z</time>
      </trkpt>
      <trkpt lat="43.79826" lon="7.03641">
        <ele>1074</ele>
        <time>2019-06-02T10:36:14.000Z</time>
      </trkpt>
      <trkpt lat="43.79815" lon="7.03652">
        <ele>1072</ele>
        <time>2019-06-02T10:36:18.000Z</time>
      </trkpt>
      <trkpt lat="43.79813" lon="7.03655">
        <ele>1072</ele>
        <time>2019-06-02T10:36:19.000Z</time>
      </trkpt>
      <trkpt lat="43.7979" lon="7.03681">
        <ele>1069</ele>
        <time>2019-06-02T10:36:28.000Z</time>
      </trkpt>
      <trkpt lat="43.79786" lon="7.03683">
        <ele>1069</ele>
        <time>2019-06-02T10:36:29.000Z</time>
      </trkpt>
      <trkpt lat="43.79773" lon="7.03686">
        <ele>1067</ele>
        <time>2019-06-02T10:36:32.000Z</time>
      </trkpt>
      <trkpt lat="43.79767" lon="7.03687">
        <ele>1066</ele>
        <time>2019-06-02T10:36:34.000Z</time>
      </trkpt>
      <trkpt lat="43.79766" lon="7.03687">
        <ele>1065</ele>
        <time>2019-06-02T10:36:35.000Z</time>
      </trkpt>
      <trkpt lat="43.79764" lon="7.03689">
        <ele>1065</ele>
        <time>2019-06-02T10:36:36.000Z</time>
      </trkpt>
      <trkpt lat="43.79759" lon="7.03691">
        <ele>1064</ele>
        <time>2019-06-02T10:36:38.000Z</time>
      </trkpt>
      <trkpt lat="43.79749" lon="7.03702">
        <ele>1060</ele>
        <time>2019-06-02T10:36:43.000Z</time>
      </trkpt>
      <trkpt lat="43.79742" lon="7.03713">
        <ele>1058</ele>
        <time>2019-06-02T10:36:46.000Z</time>
      </trkpt>
      <trkpt lat="43.79737" lon="7.03725">
        <ele>1055</ele>
        <time>2019-06-02T10:36:49.000Z</time>
      </trkpt>
      <trkpt lat="43.79734" lon="7.03727">
        <ele>1055</ele>
        <time>2019-06-02T10:36:50.000Z</time>
      </trkpt>
      <trkpt lat="43.79731" lon="7.03729">
        <ele>1054</ele>
        <time>2019-06-02T10:36:51.000Z</time>
      </trkpt>
      <trkpt lat="43.79729" lon="7.03732">
        <ele>1054</ele>
        <time>2019-06-02T10:36:52.000Z</time>
      </trkpt>
      <trkpt lat="43.79728" lon="7.03736">
        <ele>1053</ele>
        <time>2019-06-02T10:36:53.000Z</time>
      </trkpt>
      <trkpt lat="43.79726" lon="7.0374">
        <ele>1052</ele>
        <time>2019-06-02T10:36:54.000Z</time>
      </trkpt>
      <trkpt lat="43.79724" lon="7.03743">
        <ele>1052</ele>
        <time>2019-06-02T10:36:55.000Z</time>
      </trkpt>
      <trkpt lat="43.79718" lon="7.03752">
        <ele>1049</ele>
        <time>2019-06-02T10:36:58.000Z</time>
      </trkpt>
      <trkpt lat="43.79717" lon="7.03757">
        <ele>1049</ele>
        <time>2019-06-02T10:37:00.000Z</time>
      </trkpt>
      <trkpt lat="43.79701" lon="7.03777">
        <ele>1049</ele>
        <time>2019-06-02T10:37:07.000Z</time>
      </trkpt>
      <trkpt lat="43.79699" lon="7.03783">
        <ele>1048</ele>
        <time>2019-06-02T10:37:08.000Z</time>
      </trkpt>
      <trkpt lat="43.79697" lon="7.03789">
        <ele>1048</ele>
        <time>2019-06-02T10:37:09.000Z</time>
      </trkpt>
      <trkpt lat="43.79693" lon="7.03803">
        <ele>1048</ele>
        <time>2019-06-02T10:37:11.000Z</time>
      </trkpt>
      <trkpt lat="43.79692" lon="7.0381">
        <ele>1048</ele>
        <time>2019-06-02T10:37:12.000Z</time>
      </trkpt>
      <trkpt lat="43.79684" lon="7.03832">
        <ele>1047</ele>
        <time>2019-06-02T10:37:15.000Z</time>
      </trkpt>
      <trkpt lat="43.79681" lon="7.03839">
        <ele>1046</ele>
        <time>2019-06-02T10:37:16.000Z</time>
      </trkpt>
      <trkpt lat="43.79678" lon="7.03847">
        <ele>1046</ele>
        <time>2019-06-02T10:37:17.000Z</time>
      </trkpt>
      <trkpt lat="43.79674" lon="7.03852">
        <ele>1045</ele>
        <time>2019-06-02T10:37:18.000Z</time>
      </trkpt>
      <trkpt lat="43.7967" lon="7.03857">
        <ele>1044</ele>
        <time>2019-06-02T10:37:19.000Z</time>
      </trkpt>
      <trkpt lat="43.79667" lon="7.03861">
        <ele>1044</ele>
        <time>2019-06-02T10:37:20.000Z</time>
      </trkpt>
      <trkpt lat="43.79663" lon="7.03864">
        <ele>1043</ele>
        <time>2019-06-02T10:37:21.000Z</time>
      </trkpt>
      <trkpt lat="43.7966" lon="7.03868">
        <ele>1042</ele>
        <time>2019-06-02T10:37:22.000Z</time>
      </trkpt>
      <trkpt lat="43.79658" lon="7.03871">
        <ele>1041</ele>
        <time>2019-06-02T10:37:23.000Z</time>
      </trkpt>
      <trkpt lat="43.79656" lon="7.03873">
        <ele>1040</ele>
        <time>2019-06-02T10:37:24.000Z</time>
      </trkpt>
      <trkpt lat="43.79654" lon="7.03877">
        <ele>1039</ele>
        <time>2019-06-02T10:37:25.000Z</time>
      </trkpt>
      <trkpt lat="43.79653" lon="7.03881">
        <ele>1038</ele>
        <time>2019-06-02T10:37:26.000Z</time>
      </trkpt>
      <trkpt lat="43.79653" lon="7.03887">
        <ele>1038</ele>
        <time>2019-06-02T10:37:27.000Z</time>
      </trkpt>
      <trkpt lat="43.79653" lon="7.03893">
        <ele>1037</ele>
        <time>2019-06-02T10:37:28.000Z</time>
      </trkpt>
      <trkpt lat="43.79649" lon="7.0394">
        <ele>1038</ele>
        <time>2019-06-02T10:37:37.000Z</time>
      </trkpt>
      <trkpt lat="43.79643" lon="7.03988">
        <ele>1039</ele>
        <time>2019-06-02T10:37:47.000Z</time>
      </trkpt>
      <trkpt lat="43.79644" lon="7.04">
        <ele>1038</ele>
        <time>2019-06-02T10:37:49.000Z</time>
      </trkpt>
      <trkpt lat="43.79643" lon="7.04006">
        <ele>1038</ele>
        <time>2019-06-02T10:37:50.000Z</time>
      </trkpt>
      <trkpt lat="43.79643" lon="7.04012">
        <ele>1038</ele>
        <time>2019-06-02T10:37:51.000Z</time>
      </trkpt>
      <trkpt lat="43.79644" lon="7.04017">
        <ele>1038</ele>
        <time>2019-06-02T10:37:52.000Z</time>
      </trkpt>
      <trkpt lat="43.79645" lon="7.04023">
        <ele>1038</ele>
        <time>2019-06-02T10:37:53.000Z</time>
      </trkpt>
      <trkpt lat="43.79646" lon="7.04027">
        <ele>1038</ele>
        <time>2019-06-02T10:37:54.000Z</time>
      </trkpt>
      <trkpt lat="43.79645" lon="7.04032">
        <ele>1038</ele>
        <time>2019-06-02T10:37:55.000Z</time>
      </trkpt>
      <trkpt lat="43.79645" lon="7.04036">
        <ele>1038</ele>
        <time>2019-06-02T10:37:56.000Z</time>
      </trkpt>
      <trkpt lat="43.79644" lon="7.0404">
        <ele>1037</ele>
        <time>2019-06-02T10:37:57.000Z</time>
      </trkpt>
      <trkpt lat="43.79643" lon="7.04042">
        <ele>1037</ele>
        <time>2019-06-02T10:37:58.000Z</time>
      </trkpt>
      <trkpt lat="43.79639" lon="7.04052">
        <ele>1037</ele>
        <time>2019-06-02T10:38:09.000Z</time>
      </trkpt>
      <trkpt lat="43.7963" lon="7.04078">
        <ele>1036</ele>
        <time>2019-06-02T10:38:18.000Z</time>
      </trkpt>
      <trkpt lat="43.79626" lon="7.04107">
        <ele>1035</ele>
        <time>2019-06-02T10:38:23.000Z</time>
      </trkpt>
      <trkpt lat="43.79626" lon="7.04113">
        <ele>1035</ele>
        <time>2019-06-02T10:38:24.000Z</time>
      </trkpt>
      <trkpt lat="43.79628" lon="7.04118">
        <ele>1035</ele>
        <time>2019-06-02T10:38:25.000Z</time>
      </trkpt>
      <trkpt lat="43.7963" lon="7.0412">
        <ele>1035</ele>
        <time>2019-06-02T10:38:26.000Z</time>
      </trkpt>
      <trkpt lat="43.79631" lon="7.04124">
        <ele>1035</ele>
        <time>2019-06-02T10:38:27.000Z</time>
      </trkpt>
      <trkpt lat="43.79632" lon="7.04128">
        <ele>1035</ele>
        <time>2019-06-02T10:38:28.000Z</time>
      </trkpt>
      <trkpt lat="43.79632" lon="7.04132">
        <ele>1035</ele>
        <time>2019-06-02T10:38:29.000Z</time>
      </trkpt>
      <trkpt lat="43.79631" lon="7.04137">
        <ele>1035</ele>
        <time>2019-06-02T10:38:30.000Z</time>
      </trkpt>
      <trkpt lat="43.79627" lon="7.04139">
        <ele>1035</ele>
        <time>2019-06-02T10:38:31.000Z</time>
      </trkpt>
      <trkpt lat="43.79624" lon="7.04139">
        <ele>1034</ele>
        <time>2019-06-02T10:38:32.000Z</time>
      </trkpt>
      <trkpt lat="43.7962" lon="7.04137">
        <ele>1033</ele>
        <time>2019-06-02T10:38:33.000Z</time>
      </trkpt>
      <trkpt lat="43.79617" lon="7.04135">
        <ele>1032</ele>
        <time>2019-06-02T10:38:34.000Z</time>
      </trkpt>
      <trkpt lat="43.79613" lon="7.04133">
        <ele>1032</ele>
        <time>2019-06-02T10:38:35.000Z</time>
      </trkpt>
      <trkpt lat="43.79607" lon="7.04131">
        <ele>1030</ele>
        <time>2019-06-02T10:38:37.000Z</time>
      </trkpt>
      <trkpt lat="43.79603" lon="7.04133">
        <ele>1030</ele>
        <time>2019-06-02T10:38:38.000Z</time>
      </trkpt>
      <trkpt lat="43.79601" lon="7.04136">
        <ele>1030</ele>
        <time>2019-06-02T10:38:39.000Z</time>
      </trkpt>
      <trkpt lat="43.79601" lon="7.04139">
        <ele>1030</ele>
        <time>2019-06-02T10:38:40.000Z</time>
      </trkpt>
      <trkpt lat="43.79599" lon="7.04142">
        <ele>1030</ele>
        <time>2019-06-02T10:38:41.000Z</time>
      </trkpt>
      <trkpt lat="43.79597" lon="7.04146">
        <ele>1029</ele>
        <time>2019-06-02T10:38:42.000Z</time>
      </trkpt>
      <trkpt lat="43.79597" lon="7.04149">
        <ele>1028</ele>
        <time>2019-06-02T10:38:43.000Z</time>
      </trkpt>
      <trkpt lat="43.79598" lon="7.04152">
        <ele>1028</ele>
        <time>2019-06-02T10:38:44.000Z</time>
      </trkpt>
      <trkpt lat="43.79598" lon="7.04154">
        <ele>1028</ele>
        <time>2019-06-02T10:38:45.000Z</time>
      </trkpt>
      <trkpt lat="43.79597" lon="7.04157">
        <ele>1027</ele>
        <time>2019-06-02T10:38:46.000Z</time>
      </trkpt>
      <trkpt lat="43.79596" lon="7.04162">
        <ele>1026</ele>
        <time>2019-06-02T10:38:47.000Z</time>
      </trkpt>
      <trkpt lat="43.79595" lon="7.04167">
        <ele>1026</ele>
        <time>2019-06-02T10:38:48.000Z</time>
      </trkpt>
      <trkpt lat="43.79594" lon="7.04173">
        <ele>1025</ele>
        <time>2019-06-02T10:38:49.000Z</time>
      </trkpt>
      <trkpt lat="43.79593" lon="7.0418">
        <ele>1024</ele>
        <time>2019-06-02T10:38:50.000Z</time>
      </trkpt>
      <trkpt lat="43.79592" lon="7.04187">
        <ele>1023</ele>
        <time>2019-06-02T10:38:51.000Z</time>
      </trkpt>
      <trkpt lat="43.79589" lon="7.04211">
        <ele>1022</ele>
        <time>2019-06-02T10:38:54.000Z</time>
      </trkpt>
      <trkpt lat="43.79587" lon="7.04216">
        <ele>1022</ele>
        <time>2019-06-02T10:38:55.000Z</time>
      </trkpt>
      <trkpt lat="43.79586" lon="7.04218">
        <ele>1021</ele>
        <time>2019-06-02T10:38:56.000Z</time>
      </trkpt>
      <trkpt lat="43.79581" lon="7.04218">
        <ele>1021</ele>
        <time>2019-06-02T10:39:04.000Z</time>
      </trkpt>
      <trkpt lat="43.79577" lon="7.04215">
        <ele>1023</ele>
        <time>2019-06-02T10:39:17.000Z</time>
      </trkpt>
      <trkpt lat="43.79568" lon="7.04208">
        <ele>1024</ele>
        <time>2019-06-02T10:39:25.000Z</time>
      </trkpt>
      <trkpt lat="43.79565" lon="7.04206">
        <ele>1025</ele>
        <time>2019-06-02T10:39:27.000Z</time>
      </trkpt>
      <trkpt lat="43.79562" lon="7.04194">
        <ele>1025</ele>
        <time>2019-06-02T10:39:33.000Z</time>
      </trkpt>
      <trkpt lat="43.79559" lon="7.04187">
        <ele>1026</ele>
        <time>2019-06-02T10:39:37.000Z</time>
      </trkpt>
      <trkpt lat="43.79555" lon="7.04178">
        <ele>1026</ele>
        <time>2019-06-02T10:39:41.000Z</time>
      </trkpt>
      <trkpt lat="43.79549" lon="7.04168">
        <ele>1026</ele>
        <time>2019-06-02T10:39:46.000Z</time>
      </trkpt>
      <trkpt lat="43.79547" lon="7.04158">
        <ele>1028</ele>
        <time>2019-06-02T10:39:56.000Z</time>
      </trkpt>
      <trkpt lat="43.79543" lon="7.04146">
        <ele>1030</ele>
        <time>2019-06-02T10:40:09.000Z</time>
      </trkpt>
      <trkpt lat="43.7954" lon="7.04138">
        <ele>1031</ele>
        <time>2019-06-02T10:40:22.000Z</time>
      </trkpt>
      <trkpt lat="43.79537" lon="7.04132">
        <ele>1031</ele>
        <time>2019-06-02T10:40:26.000Z</time>
      </trkpt>
      <trkpt lat="43.79533" lon="7.04121">
        <ele>1033</ele>
        <time>2019-06-02T10:40:33.000Z</time>
      </trkpt>
      <trkpt lat="43.79532" lon="7.04116">
        <ele>1033</ele>
        <time>2019-06-02T10:40:36.000Z</time>
      </trkpt>
      <trkpt lat="43.79529" lon="7.0411">
        <ele>1034</ele>
        <time>2019-06-02T10:40:41.000Z</time>
      </trkpt>
      <trkpt lat="43.79525" lon="7.04106">
        <ele>1035</ele>
        <time>2019-06-02T10:40:45.000Z</time>
      </trkpt>
      <trkpt lat="43.79521" lon="7.04094">
        <ele>1036</ele>
        <time>2019-06-02T10:40:52.000Z</time>
      </trkpt>
      <trkpt lat="43.79518" lon="7.04085">
        <ele>1038</ele>
        <time>2019-06-02T10:40:59.000Z</time>
      </trkpt>
      <trkpt lat="43.79507" lon="7.0407">
        <ele>1042</ele>
        <time>2019-06-02T10:41:10.000Z</time>
      </trkpt>
      <trkpt lat="43.79506" lon="7.04066">
        <ele>1042</ele>
        <time>2019-06-02T10:41:13.000Z</time>
      </trkpt>
      <trkpt lat="43.79493" lon="7.04063">
        <ele>1044</ele>
        <time>2019-06-02T10:41:27.000Z</time>
      </trkpt>
      <trkpt lat="43.7948" lon="7.04066">
        <ele>1043</ele>
        <time>2019-06-02T10:41:52.000Z</time>
      </trkpt>
      <trkpt lat="43.79471" lon="7.04062">
        <ele>1041</ele>
        <time>2019-06-02T10:41:57.000Z</time>
      </trkpt>
      <trkpt lat="43.79471" lon="7.04061">
        <ele>1041</ele>
        <time>2019-06-02T10:41:58.000Z</time>
      </trkpt>
      <trkpt lat="43.7947" lon="7.04062">
        <ele>1041</ele>
        <time>2019-06-02T10:42:01.000Z</time>
      </trkpt>
      <trkpt lat="43.79472" lon="7.04064">
        <ele>1041</ele>
        <time>2019-06-02T10:42:02.000Z</time>
      </trkpt>
      <trkpt lat="43.79473" lon="7.04064">
        <ele>1041</ele>
        <time>2019-06-02T10:42:03.000Z</time>
      </trkpt>
      <trkpt lat="43.79474" lon="7.04064">
        <ele>1041</ele>
        <time>2019-06-02T10:42:04.000Z</time>
      </trkpt>
      <trkpt lat="43.79476" lon="7.04063">
        <ele>1041</ele>
        <time>2019-06-02T10:42:06.000Z</time>
      </trkpt>
      <trkpt lat="43.79478" lon="7.04063">
        <ele>1041</ele>
        <time>2019-06-02T10:42:07.000Z</time>
      </trkpt>
      <trkpt lat="43.7948" lon="7.04063">
        <ele>1041</ele>
        <time>2019-06-02T10:42:08.000Z</time>
      </trkpt>
      <trkpt lat="43.79482" lon="7.04063">
        <ele>1043</ele>
        <time>2019-06-02T10:42:10.000Z</time>
      </trkpt>
      <trkpt lat="43.79487" lon="7.04063">
        <ele>1043</ele>
        <time>2019-06-02T10:42:14.000Z</time>
      </trkpt>
      <trkpt lat="43.79489" lon="7.04064">
        <ele>1043</ele>
        <time>2019-06-02T10:42:15.000Z</time>
      </trkpt>
      <trkpt lat="43.79489" lon="7.04065">
        <ele>1043</ele>
        <time>2019-06-02T10:42:16.000Z</time>
      </trkpt>
      <trkpt lat="43.79489" lon="7.04066">
        <ele>1043</ele>
        <time>2019-06-02T10:42:17.000Z</time>
      </trkpt>
      <trkpt lat="43.7949" lon="7.04068">
        <ele>1044</ele>
        <time>2019-06-02T10:42:19.000Z</time>
      </trkpt>
      <trkpt lat="43.79491" lon="7.0407">
        <ele>1044</ele>
        <time>2019-06-02T10:42:20.000Z</time>
      </trkpt>
      <trkpt lat="43.79492" lon="7.04072">
        <ele>1045</ele>
        <time>2019-06-02T10:42:22.000Z</time>
      </trkpt>
      <trkpt lat="43.79491" lon="7.04083">
        <ele>1047</ele>
        <time>2019-06-02T10:42:30.000Z</time>
      </trkpt>
      <trkpt lat="43.79492" lon="7.04087">
        <ele>1047</ele>
        <time>2019-06-02T10:42:33.000Z</time>
      </trkpt>
      <trkpt lat="43.79494" lon="7.04089">
        <ele>1048</ele>
        <time>2019-06-02T10:42:35.000Z</time>
      </trkpt>
      <trkpt lat="43.79498" lon="7.04091">
        <ele>1048</ele>
        <time>2019-06-02T10:42:38.000Z</time>
      </trkpt>
      <trkpt lat="43.79498" lon="7.04093">
        <ele>1048</ele>
        <time>2019-06-02T10:42:39.000Z</time>
      </trkpt>
      <trkpt lat="43.79499" lon="7.04096">
        <ele>1048</ele>
        <time>2019-06-02T10:42:40.000Z</time>
      </trkpt>
      <trkpt lat="43.79499" lon="7.04098">
        <ele>1049</ele>
        <time>2019-06-02T10:42:41.000Z</time>
      </trkpt>
      <trkpt lat="43.79499" lon="7.04101">
        <ele>1049</ele>
        <time>2019-06-02T10:42:42.000Z</time>
      </trkpt>
      <trkpt lat="43.795" lon="7.04104">
        <ele>1049</ele>
        <time>2019-06-02T10:42:43.000Z</time>
      </trkpt>
      <trkpt lat="43.795" lon="7.04107">
        <ele>1049</ele>
        <time>2019-06-02T10:42:44.000Z</time>
      </trkpt>
      <trkpt lat="43.79501" lon="7.0411">
        <ele>1049</ele>
        <time>2019-06-02T10:42:45.000Z</time>
      </trkpt>
      <trkpt lat="43.79502" lon="7.04112">
        <ele>1049</ele>
        <time>2019-06-02T10:42:46.000Z</time>
      </trkpt>
      <trkpt lat="43.79514" lon="7.04155">
        <ele>1052</ele>
        <time>2019-06-02T10:43:02.000Z</time>
      </trkpt>
      <trkpt lat="43.79528" lon="7.04191">
        <ele>1054</ele>
        <time>2019-06-02T10:43:16.000Z</time>
      </trkpt>
      <trkpt lat="43.79531" lon="7.042">
        <ele>1054</ele>
        <time>2019-06-02T10:43:19.000Z</time>
      </trkpt>
      <trkpt lat="43.79531" lon="7.04203">
        <ele>1054</ele>
        <time>2019-06-02T10:43:20.000Z</time>
      </trkpt>
      <trkpt lat="43.7953" lon="7.04206">
        <ele>1054</ele>
        <time>2019-06-02T10:43:21.000Z</time>
      </trkpt>
      <trkpt lat="43.79525" lon="7.04224">
        <ele>1055</ele>
        <time>2019-06-02T10:43:27.000Z</time>
      </trkpt>
      <trkpt lat="43.79523" lon="7.04224">
        <ele>1055</ele>
        <time>2019-06-02T10:43:28.000Z</time>
      </trkpt>
      <trkpt lat="43.79521" lon="7.04225">
        <ele>1055</ele>
        <time>2019-06-02T10:43:29.000Z</time>
      </trkpt>
      <trkpt lat="43.7952" lon="7.04225">
        <ele>1055</ele>
        <time>2019-06-02T10:43:30.000Z</time>
      </trkpt>
      <trkpt lat="43.79518" lon="7.04225">
        <ele>1056</ele>
        <time>2019-06-02T10:43:31.000Z</time>
      </trkpt>
      <trkpt lat="43.79516" lon="7.04226">
        <ele>1056</ele>
        <time>2019-06-02T10:43:32.000Z</time>
      </trkpt>
      <trkpt lat="43.79514" lon="7.04226">
        <ele>1056</ele>
        <time>2019-06-02T10:43:33.000Z</time>
      </trkpt>
      <trkpt lat="43.79512" lon="7.04227">
        <ele>1056</ele>
        <time>2019-06-02T10:43:34.000Z</time>
      </trkpt>
      <trkpt lat="43.7951" lon="7.04228">
        <ele>1056</ele>
        <time>2019-06-02T10:43:35.000Z</time>
      </trkpt>
      <trkpt lat="43.79508" lon="7.04229">
        <ele>1056</ele>
        <time>2019-06-02T10:43:36.000Z</time>
      </trkpt>
      <trkpt lat="43.79507" lon="7.0423">
        <ele>1056</ele>
        <time>2019-06-02T10:43:37.000Z</time>
      </trkpt>
      <trkpt lat="43.79502" lon="7.04232">
        <ele>1056</ele>
        <time>2019-06-02T10:43:48.000Z</time>
      </trkpt>
    </trkseg>
  </trk>
</gpx>